Work Boat No.22 — 0000000 — position and weather

sailwx.info

Track history (hours):
 
Tides and Currents Weather Stations Pressure Air Temp Water Temp Dewpoint Dewpoint Depression Visibility Wind Speed Wind Dir Waves Ship Positions

Work Boat No.22

Last reported at 2018-Jun-25 19:30 UTC. Time now 2018-Jun-25 19:50 UTC.
Position N 31°00' E 122°09'.

Length 30 m.

Type: Cargo ship. MMSI: 4150008.

Date/timePositionNaut miles runAvg speedWind from/ knotsBaromVisibWave heightAir tempDewpointWater temp
2018-Jun-25 19:30N 31°00' E 122°09'451416251817.5
2018-Jun-25 19:30N 44°09' E 028°40'52303138148.4
2018-Jun-25 19:30N 32°05' W 081°04'403014509747.8
2018-Jun-25 19:30N 41°10' E 001°52'57401476032.9
2018-Jun-25 19:30N 31°59' E 120°26'10835468.5
2018-Jun-25 19:30N 30°57' E 122°10'517143077.4
2018-Jun-25 19:30N 23°29' E 117°20'5361930020.2
2018-Jun-25 19:30N 31°59' E 120°27'469153508.0
2018-Jun-25 19:30N 24°27' E 118°04'820113471.4
2018-Jun-25 19:29N 37°55' E 120°42'1138372572.4
2018-Jun-25 19:29N 21°12' E 110°25'49118795.0
2018-Jun-25 19:27N 23°58' E 118°45'48821706.1
2018-Jun-25 19:26N 31°58' E 120°25'5233477.0
2018-Jun-25 19:17N 23°39' E 117°31'5236402.0
2018-Jun-25 19:12N 31°58' E 120°25'439622703.5
2018-Jun-25 19:00N 44°09' E 028°40'1196123058.8
2018-Jun-25 19:00N 41°10' E 001°51'58577028546.1
2018-Jun-25 19:00N 31°03' E 122°03'999161.7
2018-Jun-25 18:59N 31°59' E 120°26'357142721.3
2018-Jun-25 18:59N 37°55' E 120°42'1138585473.8
2018-Jun-25 18:59N 21°12' E 110°25'842233112.2
2018-Jun-25 18:59N 31°59' E 120°27'168.8
2018-Jun-25 18:57N 31°58' E 120°25'52572635.9
2018-Jun-25 18:57N 23°37' E 117°29'81947.7
2018-Jun-25 18:57N 23°31' E 117°23'849137.7
2018-Jun-25 18:56N 24°02' E 118°48'471067.6
2018-Jun-25 18:53N 24°27' E 118°04'4491171.8
2018-Jun-25 18:30N 31°07' E 121°57'45018101227.9
2018-Jun-25 18:30N 44°09' E 028°40'459216530320.5
2018-Jun-25 18:30N 23°35' E 117°27'2481.4
2018-Jun-25 18:30N 23°33' E 117°26'655685.7
2018-Jun-25 18:29N 24°27' E 118°04'46964941.3
2018-Jun-25 18:29N 31°59' E 120°27'357320882.6
2018-Jun-25 18:29N 37°55' E 120°42'1138683059.4
2018-Jun-25 18:29N 21°12' E 110°25'46119533.5
2018-Jun-25 18:27N 24°25' E 117°59'4726359.5
2018-Jun-25 18:23N 31°58' E 120°25'5740144497.1
2018-Jun-25 18:21N 41°12' E 001°51'574025927.2
2018-Jun-25 18:07N 31°59' E 120°26'111.3
2018-Jun-25 18:02N 31°58' E 120°25'47020892.9
2018-Jun-25 18:00N 24°25' E 118°03'45868254862.7
2018-Jun-25 18:00N 44°09' E 028°40'43961758408.0
2018-Jun-25 18:00N 31°59' E 120°27'067.2
2018-Jun-25 18:00N 31°59' E 120°26'57403443893.2
2018-Jun-25 18:00N 41°13' E 001°50'5502341475.8
2018-Jun-25 17:59N 37°55' E 120°42'11384098356.5
2018-Jun-25 17:59N 21°12' E 110°25'418107402.5
2018-Jun-25 17:59N 23°35' E 117°29'6144.3
2018-Jun-25 17:56N 23°33' E 117°23'530381779.3
2018-Jun-25 17:56N 31°58' E 120°25'46811694.1
2018-Jun-25 17:53N 24°27' E 118°04'4687326.3
2018-Jun-25 17:50N 31°58' E 120°25'971697.4
2018-Jun-25 17:46N 31°05' E 121°60'67337261.1
2018-Jun-25 17:45N 22°18' E 114°12'216.9
2018-Jun-25 17:40N 22°17' E 114°10'448829696.8
2018-Jun-25 17:30N 44°09' E 028°40'4595787680.4
2018-Jun-25 17:30N 23°37' E 117°32'525378155.6
2018-Jun-25 17:30N 31°59' E 120°27'105189095.8
2018-Jun-25 17:30N 31°00' E 122°09'4501621579.0
2018-Jun-25 17:30N 24°25' E 118°06'3343.3
2018-Jun-25 17:29N 24°27' E 118°04'46649370.2
2018-Jun-25 17:29N 21°12' E 110°25'1138683056.2
2018-Jun-25 17:29N 37°55' E 120°42'35755923.5
2018-Jun-25 17:28N 31°58' E 120°25'1459.5
2018-Jun-25 17:28N 31°59' E 120°26'53337592.4
2018-Jun-25 17:27N 23°33' E 117°18'51740426.1
2018-Jun-25 17:27N 31°06' E 121°57'585152919.8
2018-Jun-25 17:20N 41°14' E 001°50'57401291455.6
2018-Jun-25 17:20N 31°58' E 120°25'421.4
2018-Jun-25 17:08N 32°02' E 120°24'1115721.4
2018-Jun-25 17:07N 30°57' E 122°10'4454308.8
2018-Jun-25 17:00N 24°25' E 118°10'46976808.3
2018-Jun-25 17:00N 31°59' E 120°27'35714924.0
2018-Jun-25 16:59N 37°55' E 120°42'42620169.9
2018-Jun-25 16:57N 30°56' E 122°09'3200.9
2018-Jun-25 16:57N 30°58' E 122°10'51826255.3
2018-Jun-25 16:55N 23°33' E 117°14'5943201827.7
2018-Jun-25 16:54N 41°14' E 001°49'5701427553.2
2018-Jun-25 16:53N 21°12' E 110°25'84111473.1
2018-Jun-25 16:48N 31°59' E 120°26'5162.1
2018-Jun-25 16:47N 32°03' E 120°26'5211.2
2018-Jun-25 16:45N 31°58' E 120°25'439617820.6
2018-Jun-25 16:30N 44°09' E 028°40'4596689474.5
2018-Jun-25 16:30N 23°41' E 117°38'519934940.0
2018-Jun-25 16:30N 31°59' E 120°26'465418513.6
2018-Jun-25 16:30N 24°29' E 118°13'47425874.7
2018-Jun-25 16:29N 21°12' E 110°25'840336123.9
2018-Jun-25 16:29N 31°58' E 120°25'1095861.3
2018-Jun-25 16:28N 30°55' E 122°10'586810563167.8
2018-Jun-25 16:28N 41°14' E 001°49'55011523455.7
2018-Jun-25 16:27N 37°55' E 120°42'35613509.2
2018-Jun-25 16:26N 31°59' E 120°27'4641101.4
2018-Jun-25 16:00N 24°29' E 118°16'477858113.7
2018-Jun-25 16:00N 21°12' E 110°25'4353333384.9
2018-Jun-25 16:00N 44°09' E 028°40'45972364410.7
2018-Jun-25 16:00N 23°44' E 117°41'86659949.9
2018-Jun-25 15:59N 37°55' E 120°42'3566710.8
2018-Jun-25 15:55N 31°60' E 120°27'117.1
2018-Jun-25 15:53N 31°59' E 120°27'843131.6
2018-Jun-25 15:52N 31°13' E 121°48'8414334.4
2018-Jun-25 15:51N 31°59' E 120°26'5501166403.5
2018-Jun-25 15:49N 48°59' E 002°00'563620288512.8
2018-Jun-25 15:49N 30°48' E 122°06'112.0
2018-Jun-25 15:42N 30°49' E 122°07'563629151.1
2018-Jun-25 15:30N 48°57' E 002°00'11374094354.7
2018-Jun-25 15:30N 44°09' E 028°40'43537834631.3
2018-Jun-25 15:30N 21°12' E 110°25'85964399.6
2018-Jun-25 15:30N 31°14' E 121°47'497198895.7
2018-Jun-25 15:29N 23°46' E 117°44'51392384.0
2018-Jun-25 15:29N 31°59' E 120°26'087.2
2018-Jun-25 15:29N 31°59' E 120°27'357106950.1
2018-Jun-25 15:29N 37°55' E 120°42'81411584.9
2018-Jun-25 15:24N 24°30' E 118°21'42613459.3
2018-Jun-25 15:23N 30°47' E 122°05'43122.3
2018-Jun-25 15:01N 31°24' E 121°39'4475350209.1
2018-Jun-25 15:00N 44°09' E 028°40'4475366127.7
2018-Jun-25 15:00N 31°24' E 121°39'5583446600.3
2018-Jun-25 14:59N 48°57' E 002°03'5576213549.5
2018-Jun-25 14:57N 21°12' E 110°25'1138372562.0
2018-Jun-25 14:57N 37°55' E 120°42'35729168.7
2018-Jun-25 14:56N 31°59' E 120°27'5105962.0
2018-Jun-25 14:51N 23°49' E 117°47'477214619.3
2018-Jun-25 14:51N 30°43' E 122°14'1192174.6
2018-Jun-25 14:48N 32°02' E 120°31'55909.7
2018-Jun-25 14:48N 31°59' E 120°26'53921307.5
2018-Jun-25 14:46N 23°30' E 117°08'152010645.5
2018-Jun-25 14:38N 01°25' E 104°24'2031155563.4
2018-Jun-25 14:37N 30°45' E 122°00'1093177.8
2018-Jun-25 14:35N 31°58' E 120°26'439658830.5
2018-Jun-25 14:30N 44°09' E 028°40'43533917312.0
2018-Jun-25 14:30N 21°12' E 110°25'841378401.8
2018-Jun-25 14:30N 31°58' E 120°26'13034.7
2018-Jun-25 14:30N 31°59' E 120°27'118426438.3
2018-Jun-25 14:30N 30°45' E 122°15'47890478.1
2018-Jun-25 14:30N 23°50' E 117°49'85837668.1
2018-Jun-25 14:29N 37°55' E 120°42'436392509.9
2018-Jun-25 14:28N 30°44' E 121°60'20327314570.2
2018-Jun-25 14:28N 01°24' E 104°23'205313734.5
2018-Jun-25 14:20N 31°16' E 121°45'8028703.1
2018-Jun-25 14:19N 31°59' E 120°26'107852.0
2018-Jun-25 14:12N 30°58' E 122°10'31171.5
2018-Jun-25 14:01N 31°18' E 121°43'4482645396.6
2018-Jun-25 14:00N 44°09' E 028°40'4599473053.1
2018-Jun-25 14:00N 23°53' E 117°51'478172084.0
2018-Jun-25 14:00N 30°49' E 122°15'417313.9
2018-Jun-25 13:59N 31°18' E 121°42'326098.8
2018-Jun-25 13:59N 30°57' E 122°10'42547808.6
2018-Jun-25 13:59N 37°55' E 120°42'40531017.2
2018-Jun-25 13:58N 31°14' E 121°48'838735.7
2018-Jun-25 13:57N 31°59' E 120°27'011.5
2018-Jun-25 13:55N 31°59' E 120°26'84177660.3
2018-Jun-25 13:54N 21°12' E 110°25'124525754.6
2018-Jun-25 13:51N 01°20' E 104°18'1554109685.3
2018-Jun-25 13:51N 23°44' E 117°37'4991858.4
2018-Jun-25 13:35N 31°04' E 122°01'24555.8
2018-Jun-25 13:32N 30°41' E 121°55'203584223.9
2018-Jun-25 13:31N 01°19' E 104°15'1553372753.6
2018-Jun-25 13:30N 23°42' E 117°35'520936137.4
2018-Jun-25 13:30N 31°59' E 120°27'11420472.6
2018-Jun-25 13:30N 30°53' E 122°15'45243257348.1
2018-Jun-25 13:30N 44°09' E 028°40'4182198097.4
2018-Jun-25 13:29N 37°55' E 120°42'35735679.9
2018-Jun-25 13:28N 31°59' E 120°26'875127.6
2018-Jun-25 13:27N 31°11' E 121°51'10689.8
2018-Jun-25 13:26N 31°05' E 122°00'86129797.7
2018-Jun-25 13:24N 21°12' E 110°25'84313555.2
2018-Jun-25 13:21N 30°42' E 121°56'319.1
2018-Jun-25 13:11N 30°40' E 121°54'40313809.5
2018-Jun-25 13:09N 24°41' E 118°27'459531627.6
2018-Jun-25 13:00N 44°09' E 028°40'44982024007.7
2018-Jun-25 13:00N 31°09' E 121°55'8603095618.4
2018-Jun-25 13:00N 21°12' E 110°25'420755486.8
2018-Jun-25 13:00N 23°38' E 117°30'524377531.6
2018-Jun-25 13:00N 31°59' E 120°27'11149785.0
2018-Jun-25 13:00N 30°56' E 122°13'11049579.5
2018-Jun-25 13:00N 31°59' E 120°27'206684523.8
2018-Jun-25 12:58N 01°17' E 104°10'203659600.9
2018-Jun-25 12:56N 30°38' E 121°53'1102799.2
2018-Jun-25 12:54N 31°59' E 120°26'43517025.0
2018-Jun-25 12:53N 24°47' E 119°25'10587103852.4
2018-Jun-25 12:46N 32°05' W 081°04'10013140802.5
2018-Jun-25 12:42N 36°00' E 120°16'7603919.7
2018-Jun-25 12:31N 23°35' E 117°27'45925510181.1
2018-Jun-25 12:30N 44°09' E 028°40'490517657472.4
2018-Jun-25 12:30N 01°15' E 104°06'20672480176.3
2018-Jun-25 12:30N 30°60' E 122°12'865519175.2
2018-Jun-25 12:30N 21°12' E 110°25'842216446.3
2018-Jun-25 12:30N 31°59' E 120°27'01496.3
2018-Jun-25 12:30N 31°59' E 120°26'111200222.3
2018-Jun-25 12:30N 30°36' E 121°53'31992.7
2018-Jun-25 12:28N 31°06' E 121°59'41423653.6
2018-Jun-25 12:27N 37°55' E 120°42'86811482.9
2018-Jun-25 12:23N 23°43' E 117°35'0 2.0
2018-Jun-25 12:09N 23°43' E 117°35'5295332.4
2018-Jun-25 12:03N 31°40' E 121°51'742773.2
2018-Jun-25 12:01N 31°59' E 120°27'4397376847.9
2018-Jun-25 12:00N 44°09' E 028°40'45925510053.9
2018-Jun-25 12:00N 23°44' E 117°34'425218569.6
2018-Jun-25 12:00N 21°12' E 110°25'842505041.5
2018-Jun-25 12:00N 31°59' E 120°27'10446906.6
2018-Jun-25 12:00N 31°02' E 122°09'2070212924.4
2018-Jun-25 11:59N 01°15' E 104°02'1548132714.3
2018-Jun-25 11:59N 23°31' E 117°22'194507.6
2018-Jun-25 11:59N 23°46' E 117°35'865444688.4
2018-Jun-25 11:58N 37°55' E 120°42'37919513.9
2018-Jun-25 11:57N 31°40' E 121°52'7553734.4
2018-Jun-25 11:57N 31°59' E 120°27'574073282.9
2018-Jun-25 11:52N 41°14' E 001°49'6210132288.6
2018-Jun-25 11:50N 01°20' E 104°19'205812493.4
2018-Jun-25 11:40N 31°58' E 120°25'102650.4
2018-Jun-25 11:30N 31°04' E 122°06'45102705896.6
2018-Jun-25 11:30N 44°09' E 028°40'48994409353.3
2018-Jun-25 11:30N 01°13' E 103°57'1572628884.6
2018-Jun-25 11:30N 23°48' E 117°35'514616702.2
2018-Jun-25 11:30N 31°59' E 120°27'513924251.4
2018-Jun-25 11:30N 23°49' E 117°35'52455474.7
2018-Jun-25 11:29N 31°39' E 121°56'38122501.5
2018-Jun-25 11:28N 37°55' E 120°42'35720070.3
2018-Jun-25 11:27N 31°59' E 120°26'5740102303.3
2018-Jun-25 11:24N 41°13' E 001°49'5701540101.9
2018-Jun-25 11:23N 21°12' E 110°25'8581545229.1
2018-Jun-25 11:23N 30°52' E 122°09'205140578.5
2018-Jun-25 11:20N 01°19' E 104°15'2369.9
2018-Jun-25 11:00N 01°12' E 103°53'15761891600.8
2018-Jun-25 11:00N 23°49' E 117°35'513102695.7
2018-Jun-25 11:00N 31°59' E 120°27'10913047.8
2018-Jun-25 11:00N 30°55' E 122°10'861206610.2
2018-Jun-25 10:59N 21°12' E 110°25'42790394.1
2018-Jun-25 10:59N 23°49' E 117°35'4961786289.7
2018-Jun-25 10:59N 31°05' E 122°02'41638386.8
2018-Jun-25 10:58N 37°55' E 120°42'5502134739.5
2018-Jun-25 10:56N 41°13' E 001°50'5831115975.2
2018-Jun-25 10:53N 31°37' E 122°00'208947894.6
2018-Jun-25 10:50N 01°17' E 104°11'2066256493.4
2018-Jun-25 10:50N 31°17' E 121°48'26608.1
2018-Jun-25 10:47N 31°01' E 122°11'1061125.6
2018-Jun-25 10:42N 31°59' E 120°26'1072837.6
2018-Jun-25 10:39N 30°58' E 122°10'283720.0
2018-Jun-25 10:39N 31°16' E 121°45'5224572.9
2018-Jun-25 10:32N 23°30' E 117°21'647443.0
2018-Jun-25 10:32N 24°24' E 117°58'45521559.8
2018-Jun-25 10:30N 31°00' E 122°12'497596214.3
2018-Jun-25 10:30N 23°49' E 117°35'15079.8
2018-Jun-25 10:30N 23°47' E 117°35'51592611.3
2018-Jun-25 10:30N 31°59' E 120°26'20812497571.7
2018-Jun-25 10:30N 01°10' E 103°49'48958811862.8
2018-Jun-25 10:30N 44°09' E 028°40'45901377149.2
2018-Jun-25 10:30N 23°30' E 117°21'51845471.4
2018-Jun-25 10:29N 31°06' E 121°57'41448049.4
2018-Jun-25 10:28N 37°55' E 120°43'35761115.7
2018-Jun-25 10:28N 31°59' E 120°27'10748365.9
2018-Jun-25 10:28N 30°57' E 122°09'2062436733.2
2018-Jun-25 10:28N 01°16' E 104°08'6234190199.9
2018-Jun-25 10:26N 48°54' E 002°10'463138971.7
2018-Jun-25 10:25N 41°11' E 001°51'5944629342.8
2018-Jun-25 10:25N 24°25' E 118°00'45162513.7
2018-Jun-25 10:24N 30°59' E 122°10'86346387.8
2018-Jun-25 10:23N 21°12' E 110°25'84257200.5
2018-Jun-25 10:22N 31°59' E 120°27'1084679.9
2018-Jun-25 10:21N 30°43' E 121°57'33682.4
2018-Jun-25 10:18N 31°15' E 121°47'5193234.1
2018-Jun-25 10:09N 23°31' E 117°23'60555.6
2018-Jun-25 10:02N 24°25' E 117°52'421568.7
2018-Jun-25 10:01N 23°46' E 117°35'577710398577.6
2018-Jun-25 10:00N 48°54' E 002°12'11294066137.9
2018-Jun-25 10:00N 44°09' E 028°40'459216529991.1
2018-Jun-25 10:00N 23°44' E 117°35'517620917.8
2018-Jun-25 10:00N 31°59' E 120°26'8311109.1
2018-Jun-25 10:00N 31°14' E 121°48'61065.9
2018-Jun-25 10:00N 31°09' E 121°53'859206112.6
2018-Jun-25 09:59N 21°12' E 110°25'455126048.6
2018-Jun-25 09:59N 24°25' E 117°52'5970820.6
2018-Jun-25 09:59N 23°32' E 117°24'676482.1
2018-Jun-25 09:58N 24°28' E 118°04'16162908586.4
2018-Jun-25 09:58N 01°15' E 104°03'2071532508.4
2018-Jun-25 09:58N 31°59' E 120°27'35717825.6
2018-Jun-25 09:57N 37°55' E 120°42'24071237993.5
2018-Jun-25 09:57N 01°07' E 103°45'208387201.2
2018-Jun-25 09:55N 30°58' E 122°13'518562.9
2018-Jun-25 09:55N 30°54' E 122°09'50936672.9
2018-Jun-25 09:55N 23°32' E 117°25'59517141722.5
2018-Jun-25 09:55N 41°09' E 001°52'584166331.6
2018-Jun-25 09:49N 31°33' E 122°09'55324872.4
2018-Jun-25 09:48N 23°29' E 117°08'53912937.8
2018-Jun-25 09:45N 31°59' E 120°27'50729949.1
2018-Jun-25 09:44N 23°51' E 117°50'15966891.0
2018-Jun-25 09:31N 01°06' E 103°42'48938807472.2
2018-Jun-25 09:30N 44°09' E 028°40'4900420031.8
2018-Jun-25 09:30N 01°14' E 103°59'1567704969.1
2018-Jun-25 09:30N 23°43' E 117°35'518233306.9
2018-Jun-25 09:30N 31°59' E 120°26'5201871238.9
2018-Jun-25 09:29N 23°41' E 117°36'520187254.0
2018-Jun-25 09:29N 31°59' E 120°27'474142225.8
2018-Jun-25 09:29N 24°25' E 117°52'3610012.7
2018-Jun-25 09:29N 23°49' E 117°48'439263112.4
2018-Jun-25 09:29N 21°12' E 110°25'415106763.6
2018-Jun-25 09:29N 23°33' E 117°27'878225805.1
2018-Jun-25 09:28N 37°55' E 120°43'426153392.0
2018-Jun-25 09:28N 30°56' E 122°14'51152548.8
2018-Jun-25 09:28N 23°34' E 117°27'5953115214.8
2018-Jun-25 09:24N 41°10' E 001°51'593737238.4
2018-Jun-25 09:15N 23°32' E 117°07'76610293.8
2018-Jun-25 09:10N 36°00' E 120°16'7534523.5
2018-Jun-25 09:00N 23°41' E 117°36'459516541781.6
2018-Jun-25 09:00N 44°09' E 028°40'48883519500.1
2018-Jun-25 09:00N 01°09' E 103°39'1573297957.5
2018-Jun-25 09:00N 23°35' E 117°30'71221.7
2018-Jun-25 09:00N 23°39' E 117°37'52258698.4
2018-Jun-25 08:59N 31°59' E 120°26'841144225.6
2018-Jun-25 08:59N 21°12' E 110°25'418107554.8
2018-Jun-25 08:59N 23°35' E 117°30'876225192.9
2018-Jun-25 08:58N 37°55' E 120°43'2399125184.3
2018-Jun-25 08:57N 01°12' E 103°54'161590832.3
2018-Jun-25 08:56N 24°25' E 117°52'401973.2
2018-Jun-25 08:55N 23°46' E 117°44'49420932.9
2018-Jun-25 08:53N 31°04' E 122°01'312124660.1
2018-Jun-25 08:53N 36°02' E 120°14'3252986.6
2018-Jun-25 08:47N 30°54' E 122°16'9245.9
2018-Jun-25 08:45N 30°49' E 122°07'452019280.4
2018-Jun-25 08:30N 44°09' E 028°40'488317580173.5
2018-Jun-25 08:30N 01°13' E 103°36'1577946306.9
2018-Jun-25 08:30N 23°39' E 117°37'59581021373.3
2018-Jun-25 08:30N 41°14' E 001°49'59585361978.3
2018-Jun-25 08:30N 23°38' E 117°37'49284316.0
2018-Jun-25 08:30N 30°48' E 122°06'11179880.4
2018-Jun-25 08:29N 31°59' E 120°26'47477517.8
2018-Jun-25 08:29N 24°25' E 117°52'5160625.4
2018-Jun-25 08:29N 23°38' E 117°33'52537764.3
2018-Jun-25 08:28N 31°59' E 120°27'35716246.2
2018-Jun-25 08:27N 37°55' E 120°43'8663118667.6
2018-Jun-25 08:27N 23°43' E 117°41'43023475.4
2018-Jun-25 08:26N 21°12' E 110°25'86431095.4
2018-Jun-25 08:24N 30°52' E 122°17'6747262.5
2018-Jun-25 08:19N 22°18' E 114°11'111.5
2018-Jun-25 08:11N 22°19' E 114°10'448625799.8
2018-Jun-25 08:00N 44°09' E 028°40'45975515895.7
2018-Jun-25 08:00N 23°41' E 117°38'36097.8
2018-Jun-25 08:00N 23°38' E 117°36'15742833433.3
2018-Jun-25 08:00N 01°09' E 103°47'24052886467.7
2018-Jun-25 08:00N 37°55' E 120°42'24011729030.5
2018-Jun-25 08:00N 01°17' E 103°36'2081197137.5
2018-Jun-25 08:00N 31°59' E 120°27'052.1
2018-Jun-25 07:59N 31°59' E 120°26'841178161.0
2018-Jun-25 07:59N 21°12' E 110°25'425109317.3
2018-Jun-25 07:59N 23°40' E 117°36'47336.6
2018-Jun-25 07:50N 24°25' E 117°52'1144.3
2018-Jun-25 07:35N 24°27' E 118°04'5114226.7
2018-Jun-25 07:35N 23°42' E 117°38'52215935.4
2018-Jun-25 07:33N 32°02' E 120°28'207958020.1
2018-Jun-25 07:30N 01°22' E 103°38'48788780748.2
2018-Jun-25 07:30N 44°09' E 028°40'45968271908.4
2018-Jun-25 07:30N 23°39' E 117°35'1578811797.0
2018-Jun-25 07:30N 01°06' E 103°43'24082889810.7
2018-Jun-25 07:30N 37°54' E 120°43'870391291.2
2018-Jun-25 07:30N 23°39' E 117°37'11068.3
2018-Jun-25 07:30N 23°38' E 117°36'5282.3
2018-Jun-25 07:29N 23°42' E 117°39'5016374.5
2018-Jun-25 07:29N 24°26' E 118°05'470169052.9
2018-Jun-25 07:29N 31°59' E 120°27'84237878.1
2018-Jun-25 07:27N 21°12' E 110°25'4556426.0
2018-Jun-25 07:23N 24°25' E 117°52'26978.1
2018-Jun-25 07:22N 24°16' E 118°18'47845295.9
2018-Jun-25 07:21N 32°00' E 120°27'4753870.9
2018-Jun-25 07:14N 24°25' E 117°52'4569659.6
2018-Jun-25 07:11N 31°05' E 121°60'962015.7
2018-Jun-25 07:08N 31°59' E 120°26'439635885.3
2018-Jun-25 07:00N 44°09' E 028°40'45955513706.3
2018-Jun-25 07:00N 23°37' E 117°32'43829.9
2018-Jun-25 07:00N 23°38' E 117°36'12136.6
2018-Jun-25 07:00N 23°39' E 117°37'868347184.5
2018-Jun-25 07:00N 37°53' E 120°39'35436381.0
2018-Jun-25 07:00N 31°59' E 120°27'10965133.0
2018-Jun-25 07:00N 30°42' E 121°56'430221381.9
2018-Jun-25 06:59N 24°23' E 118°07'504005.9
2018-Jun-25 06:59N 23°44' E 117°32'1582111643.4
2018-Jun-25 06:58N 01°08' E 103°39'1587357152.8
2018-Jun-25 06:58N 23°45' E 117°43'157061442.4
2018-Jun-25 06:56N 01°26' E 103°41'206946562.9
2018-Jun-25 06:53N 31°58' E 120°26'473131024.3
2018-Jun-25 06:53N 24°25' E 117°52'24015169.2
2018-Jun-25 06:52N 22°19' E 114°09'21916077.2
2018-Jun-25 06:51N 21°12' E 110°25'103029896.7
2018-Jun-25 06:49N 36°02' E 120°14'708849566.8
2018-Jun-25 06:49N 24°24' E 117°58'47311824.9
2018-Jun-25 06:47N 31°59' E 120°26'2421085.7
2018-Jun-25 06:33N 36°00' E 120°16'75514613.8
2018-Jun-25 06:30N 23°38' E 117°36'425764493.5
2018-Jun-25 06:30N 21°12' E 110°25'12652277301.0
2018-Jun-25 06:30N 01°12' E 103°36'16311467782.4
2018-Jun-25 06:30N 24°27' E 118°03'817420148.6
2018-Jun-25 06:30N 37°53' E 120°35'8683124269.4
2018-Jun-25 06:30N 23°39' E 117°37'93158.6
2018-Jun-25 06:30N 23°34' E 117°29'45941837647.4
2018-Jun-25 06:30N 44°09' E 028°40'45192033420.7
2018-Jun-25 06:30N 30°44' E 122°00'33129798.1
2018-Jun-25 06:29N 36°02' E 120°14'244439918.8
2018-Jun-25 06:29N 31°58' E 120°26'2067161766.5
2018-Jun-25 06:28N 01°27' E 103°44'2276512061.6
2018-Jun-25 06:28N 36°00' E 120°16'2424063.5
2018-Jun-25 06:24N 31°59' E 120°26'47422739.1
2018-Jun-25 06:23N 24°25' E 117°52'16064267.9
2018-Jun-25 06:01N 01°27' E 103°44'1416376.1
2018-Jun-25 06:00N 01°16' E 103°36'15631875303.5
2018-Jun-25 06:00N 23°32' E 117°27'414248594.4
2018-Jun-25 06:00N 21°12' E 110°25'435315669384.0
2018-Jun-25 06:00N 44°09' E 028°40'45981839046.4
2018-Jun-25 06:00N 23°39' E 117°37'8671040957.8
2018-Jun-25 06:00N 37°53' E 120°30'868625233.3
2018-Jun-25 06:00N 23°38' E 117°36'489135496.4
2018-Jun-25 06:00N 30°46' E 122°03'11014681.2
2018-Jun-25 05:59N 31°58' E 120°26'4738734.8
2018-Jun-25 05:56N 24°25' E 117°52'2409004.2
2018-Jun-25 05:55N 22°17' E 114°11'1785127.8
2018-Jun-25 05:52N 23°24' E 117°10'1793196.9
2018-Jun-25 05:49N 22°19' E 114°09'1 4.0
2018-Jun-25 05:34N 22°19' E 114°09'2083450.3
2018-Jun-25 05:31N 23°39' E 117°38'45988276228.4
2018-Jun-25 05:30N 44°09' E 028°40'45984137853.8
2018-Jun-25 05:30N 23°39' E 117°37'521625487.8
2018-Jun-25 05:30N 31°58' E 120°26'8411009069.5
2018-Jun-25 05:30N 21°12' E 110°25'41127923.1
2018-Jun-25 05:29N 23°31' E 117°23'505259723.7
2018-Jun-25 05:29N 30°48' E 122°07'445145556.2
2018-Jun-25 05:29N 24°25' E 117°52'1614341878.0
2018-Jun-25 05:29N 01°22' E 103°38'1614193735.8
2018-Jun-25 05:28N 24°25' E 117°52'819196630.1
2018-Jun-25 05:28N 37°54' E 120°26'238157919.6
2018-Jun-25 05:26N 01°27' E 103°44'20671860150.4
2018-Jun-25 05:26N 31°58' E 120°26'54152600.0
2018-Jun-25 05:25N 23°25' E 117°13'54149963.6
2018-Jun-25 05:24N 31°59' E 120°26'67017725.7
2018-Jun-25 05:22N 22°19' E 114°09'5685106038.1
2018-Jun-25 05:19N 48°57' E 002°17'620220333.1
2018-Jun-25 05:01N 01°27' E 103°44'1565563447.7
2018-Jun-25 05:00N 23°42' E 117°42'431775621.8
2018-Jun-25 05:00N 21°12' E 110°25'420216125.0
2018-Jun-25 05:00N 23°36' E 117°32'4595751897.6
2018-Jun-25 05:00N 44°09' E 028°40'4578383263.1
2018-Jun-25 04:59N 24°25' E 117°52'1609526629.2
2018-Jun-25 04:59N 01°26' E 103°41'1567939952.5
2018-Jun-25 04:59N 23°41' E 117°41'51993383.8
2018-Jun-25 04:58N 31°59' E 120°26'1236.1
2018-Jun-25 04:58N 31°58' E 120°26'53580260.9
2018-Jun-25 04:58N 23°29' E 117°20'18911954.8
2018-Jun-25 04:57N 22°19' E 114°09'185221947.4
2018-Jun-25 04:57N 23°27' E 117°16'5393702.1
2018-Jun-25 04:48N 31°59' E 120°27'1072747.0
2018-Jun-25 04:46N 30°58' E 122°10'107855.8
2018-Jun-25 04:38N 31°59' E 120°27'5374049.9
2018-Jun-25 04:30N 23°29' E 117°19'28101256.4
2018-Jun-25 04:30N 23°45' E 117°44'45992069460.8
2018-Jun-25 04:30N 44°09' E 028°40'45992069537.0
2018-Jun-25 04:30N 23°46' E 117°45'15701884482.6
2018-Jun-25 04:30N 01°28' E 103°43'2069201303.8
2018-Jun-25 04:29N 31°60' E 120°27'2069275848.8
2018-Jun-25 04:29N 01°27' E 103°44'2068165419.7
2018-Jun-25 04:28N 31°59' E 120°26'84152221.0
2018-Jun-25 04:27N 21°12' E 110°25'5566154124.5
2018-Jun-25 04:25N 48°57' E 002°17'5490201662.4
2018-Jun-25 04:24N 31°58' E 120°26'47365512.1
2018-Jun-25 04:23N 24°25' E 117°52'45267834.7
2018-Jun-25 04:23N 30°56' E 122°09'1083751.5
2018-Jun-25 04:21N 31°59' E 120°26'53960588.6
2018-Jun-25 04:20N 23°27' E 117°16'66899.3
2018-Jun-25 04:16N 24°25' E 117°51'70868855.8
2018-Jun-25 04:15N 36°02' E 120°14'423017015.7
2018-Jun-25 04:00N 44°09' E 028°40'459116529170.9
2018-Jun-25 04:00N 23°31' E 117°23'305765.8
2018-Jun-25 04:00N 23°50' E 117°48'1129.0
2018-Jun-25 04:00N 23°49' E 117°48'74426272.8
2018-Jun-25 03:58N 36°02' E 120°14'24458514.8
2018-Jun-25 03:58N 31°59' E 120°26'125.5
2018-Jun-25 03:56N 31°58' E 120°26'473131025.8
2018-Jun-25 03:56N 24°25' E 117°52'1609362040.0
2018-Jun-25 03:56N 01°26' E 103°41'1540230998.1
2018-Jun-25 03:55N 23°26' E 117°14'40121885.4
2018-Jun-25 03:54N 21°12' E 110°25'124871293.2
2018-Jun-25 03:53N 01°27' E 103°44'160932909.6
2018-Jun-25 03:50N 24°24' E 117°58'5759647898.5
2018-Jun-25 03:50N 48°57' E 002°17'11263495.6
2018-Jun-25 03:30N 44°09' E 028°40'45995519190.0
2018-Jun-25 03:30N 23°52' E 117°51'307752.1
2018-Jun-25 03:30N 23°33' E 117°25'6511065.1
2018-Jun-25 03:30N 24°27' E 118°03'3625822.3
2018-Jun-25 03:30N 23°53' E 117°52'505605511.1
2018-Jun-25 03:30N 31°59' E 120°26'171.5
2018-Jun-25 03:29N 31°58' E 120°26'473243330.8
2018-Jun-25 03:29N 24°25' E 117°52'1613341498.6
2018-Jun-25 03:29N 01°23' E 103°39'155247356.7
2018-Jun-25 03:27N 23°31' E 117°23'411739530.8
2018-Jun-25 03:27N 21°11' E 110°25'103031154.8
2018-Jun-25 03:25N 36°02' E 120°14'5275134693.4
2018-Jun-25 03:22N 48°57' E 002°17'5490111030.3
2018-Jun-25 03:20N 31°59' E 120°27'473283920.9
2018-Jun-25 03:19N 24°22' E 118°07'4407919.7
2018-Jun-25 03:16N 30°48' E 122°06'205416541.3
2018-Jun-25 03:09N 01°27' E 103°44'487935917.4
2018-Jun-25 03:00N 44°09' E 028°40'11264054943.7
2018-Jun-25 03:00N 48°57' E 002°17'556710020985.0
2018-Jun-25 03:00N 21°12' E 110°28'1258905919.8
2018-Jun-25 03:00N 01°20' E 103°37'1592636859.8
2018-Jun-25 03:00N 23°55' E 117°54'316637.1
2018-Jun-25 03:00N 24°25' E 118°06'607697.2
2018-Jun-25 02:59N 23°36' E 117°28'33117783.5
2018-Jun-25 02:59N 23°57' E 117°55'2833515.5
2018-Jun-25 02:59N 24°24' E 117°59'47299928.7
2018-Jun-25 02:59N 31°58' E 120°26'116.3
2018-Jun-25 02:57N 31°59' E 120°26'47430453.8
2018-Jun-25 02:56N 24°25' E 117°52'1606170086.1
2018-Jun-25 02:55N 01°27' E 103°44'2051388648.6
2018-Jun-25 02:55N 30°46' E 122°04'1102290.2
2018-Jun-25 02:52N 31°59' E 120°27'2423593.9
2018-Jun-25 02:48N 36°00' E 120°16'3340.6
2018-Jun-25 02:48N 36°02' E 120°13'2441322.9
2018-Jun-25 02:37N 31°58' E 120°26'439643838.2
2018-Jun-25 02:30N 44°09' E 028°40'45925510847.4
2018-Jun-25 02:30N 23°38' E 117°30'5241887451.4
2018-Jun-25 02:30N 31°59' E 120°27'24473196.8
2018-Jun-25 02:30N 36°02' E 120°13'733527830.9
2018-Jun-25 02:30N 23°59' E 117°58'2797773.8
2018-Jun-25 02:30N 24°25' E 117°51'122025.6
2018-Jun-25 02:30N 24°27' E 118°04'2716436.6
2018-Jun-25 02:30N 24°00' E 117°59'252617.2
2018-Jun-25 02:29N 24°25' E 117°52'47363086.5
2018-Jun-25 02:29N 31°58' E 120°26'5490637512.7
2018-Jun-25 02:28N 48°57' E 002°17'6202446518.7
2018-Jun-25 02:27N 01°27' E 103°44'206826678.6
2018-Jun-25 02:23N 31°59' E 120°26'1101589.6
2018-Jun-25 02:19N 30°44' E 121°59'32838109.3
2018-Jun-25 02:18N 36°00' E 120°16'24220707.6
2018-Jun-25 02:17N 31°59' E 120°27'2445056.6
2018-Jun-25 02:14N 36°03' E 120°18'22969932.8
2018-Jun-25 02:01N 01°13' E 103°36'48834394667.4
2018-Jun-25 02:00N 44°09' E 028°40'459316534596.7
2018-Jun-25 02:00N 23°40' E 117°33'413495332.5
2018-Jun-25 02:00N 21°13' E 110°35'4461605455.2
2018-Jun-25 02:00N 24°03' E 118°02'492442562.5
2018-Jun-25 02:00N 31°58' E 120°26'493221873.3
2018-Jun-25 02:00N 24°02' E 118°01'222996.1
2018-Jun-25 02:00N 24°23' E 118°06'5766561027.8
2018-Jun-25 01:59N 48°57' E 002°17'57545178242.9
2018-Jun-25 01:59N 24°25' E 117°52'708231724.8
2018-Jun-25 01:59N 36°02' E 120°13'24431347.0
2018-Jun-25 01:58N 31°59' E 120°26'2068120063.3
2018-Jun-25 01:57N 01°27' E 103°44'227970734.3
2018-Jun-25 01:55N 36°03' E 120°18'2449563.8
2018-Jun-25 01:54N 31°59' E 120°27'4735054.1
2018-Jun-25 01:48N 24°24' E 117°58'458315435.3
2018-Jun-25 01:30N 44°09' E 028°40'45938268296.4
2018-Jun-25 01:30N 23°42' E 117°35'412494898.0
2018-Jun-25 01:30N 21°13' E 110°39'447123776.1
2018-Jun-25 01:30N 24°06' E 118°06'212811.5
2018-Jun-25 01:30N 24°27' E 118°03'22394.2
2018-Jun-25 01:26N 24°04' E 118°06'49024150.0
2018-Jun-25 01:25N 31°58' E 120°26'54901162523.1
2018-Jun-25 01:25N 48°57' E 002°17'5754197266.4
2018-Jun-25 01:23N 24°25' E 117°52'475100651.7
2018-Jun-25 01:23N 32°00' E 120°27'161.5
2018-Jun-25 01:21N 31°59' E 120°27'24446203.3
2018-Jun-25 01:21N 36°02' E 120°14'4100.1
2018-Jun-25 01:19N 36°03' E 120°18'314.6
2018-Jun-25 01:06N 36°00' E 120°16'7099383.0
2018-Jun-25 01:01N 24°20' E 118°08'1627122013.5
2018-Jun-25 01:00N 01°10' E 103°42'489017604506.6
2018-Jun-25 01:00N 44°09' E 028°40'45945512858.5
2018-Jun-25 01:00N 23°44' E 117°38'4612685.0
2018-Jun-25 01:00N 24°25' E 118°00'707424038.3
2018-Jun-25 01:00N 36°02' E 120°14'72278745.2
2018-Jun-25 01:00N 24°09' E 118°10'48523272.9
2018-Jun-25 00:58N 31°58' E 120°26'48733687.9
2018-Jun-25 00:57N 24°07' E 118°10'241054.1
2018-Jun-25 00:56N 24°25' E 117°52'14102.9
2018-Jun-25 00:48N 24°22' E 118°07'70713263.5
2018-Jun-25 00:45N 36°00' E 120°16'2421958.6
2018-Jun-25 00:37N 31°59' E 120°26'208318611.5
2018-Jun-25 00:30N 01°09' E 103°46'48938807721.7
2018-Jun-25 00:30N 44°09' E 028°40'46043314822.5
2018-Jun-25 00:30N 24°11' E 118°13'482433385.7
2018-Jun-25 00:30N 31°58' E 120°26'484580920.6
2018-Jun-25 00:30N 24°08' E 118°14'254827.1
2018-Jun-25 00:30N 24°25' E 117°52'474341053.8
2018-Jun-25 00:30N 31°59' E 120°26'471848515.0
2018-Jun-25 00:30N 24°24' E 118°06'446949.5
2018-Jun-25 00:29N 23°47' E 117°39'406241.5
2018-Jun-25 00:29N 24°25' E 117°52'44321545.6
2018-Jun-25 00:28N 30°47' E 122°05'111639.7
2018-Jun-25 00:17N 31°58' E 120°26'1091353.3
2018-Jun-25 00:13N 30°56' E 122°10'4532247.9
2018-Jun-25 00:01N 24°13' E 118°17'46064145589.9
2018-Jun-25 00:00N 44°09' E 028°40'459316533101.4
2018-Jun-25 00:00N 23°50' E 117°40'5111839165.1
2018-Jun-25 00:00N 31°59' E 120°26'482433499.3
2018-Jun-25 00:00N 24°11' E 118°18'482434019.1
2018-Jun-25 00:00N 31°59' E 120°27'189.1
2018-Jun-24 23:59N 31°58' E 120°26'20801497386.5
2018-Jun-24 23:59N 01°11' E 103°49'1618342690.7
2018-Jun-24 23:59N 24°25' E 117°52'111935.7
2018-Jun-24 23:59N 24°27' E 118°04'781304.2
2018-Jun-24 23:55N 23°25' E 117°12'153771839.6
2018-Jun-24 23:54N 01°28' E 103°43'227751230.7
2018-Jun-24 23:51N 36°02' E 120°13'2441564.9
2018-Jun-24 23:42N 31°59' E 120°27'4772531.1
2018-Jun-24 23:31N 24°14' E 118°22'46095530276.0
2018-Jun-24 23:30N 44°09' E 028°40'4609790093.1
2018-Jun-24 23:30N 24°13' E 118°21'1614215257.8
2018-Jun-24 23:30N 01°26' E 103°41'1609160928.3
2018-Jun-24 23:29N 24°25' E 117°52'47485270.6
2018-Jun-24 23:29N 31°59' E 120°26'1119.2
2018-Jun-24 23:28N 31°58' E 120°26'53925178.9
2018-Jun-24 23:27N 23°27' E 117°15'751016.9
2018-Jun-24 23:23N 24°27' E 118°04'70438411.5
2018-Jun-24 23:22N 36°02' E 120°14'3221032.3
2018-Jun-24 23:03N 30°56' E 122°10'206952090.7
2018-Jun-24 23:01N 01°23' E 103°39'16235844525.0
2018-Jun-24 23:01N 24°17' E 118°25'46095531094.7
2018-Jun-24 23:00N 44°09' E 028°40'4396659465.3
2018-Jun-24 23:00N 31°59' E 120°27'2075287242.3
2018-Jun-24 23:00N 01°14' E 103°56'2074339443.1
2018-Jun-24 22:59N 31°59' E 120°26'474131185.5
2018-Jun-24 22:59N 24°25' E 117°52'112032.5
2018-Jun-24 22:59N 24°27' E 118°04'7252073.1
2018-Jun-24 22:59N 23°28' E 117°18'769213008.8
2018-Jun-24 22:58N 36°02' E 120°14'2441432.1
2018-Jun-24 22:48N 31°59' E 120°27'107568.6
2018-Jun-24 22:37N 30°58' E 122°10'25405.6
2018-Jun-24 22:33N 30°37' E 121°54'451897984.6
2018-Jun-24 22:30N 44°09' E 028°40'46101185396.9
2018-Jun-24 22:30N 24°19' E 118°27'1579.6
2018-Jun-24 22:30N 24°20' E 118°28'798638.7
2018-Jun-24 22:30N 23°30' E 117°21'694718.1
2018-Jun-24 22:29N 24°27' E 118°04'46936681.0
2018-Jun-24 22:28N 31°59' E 120°26'47415092.1
2018-Jun-24 22:26N 24°25' E 117°52'455234125.1
2018-Jun-24 22:26N 30°59' E 122°10'3184064.5
2018-Jun-24 22:21N 36°02' E 120°14'2423131.3
2018-Jun-24 22:17N 32°01' E 120°27'110746.7
2018-Jun-24 22:08N 30°41' E 121°56'4193461.1
2018-Jun-24 22:00N 24°23' E 118°31'461016597511.0
2018-Jun-24 22:00N 44°09' E 028°40'4517157873.5
2018-Jun-24 21:59N 30°42' E 121°56'428513104.8
2018-Jun-24 21:59N 24°27' E 118°04'25849.4
2018-Jun-24 21:57N 24°22' E 118°31'162487271.2
2018-Jun-24 21:56N 01°16' E 104°03'228037650.5
2018-Jun-24 21:52N 36°02' E 120°13'228612373.9
2018-Jun-24 21:41N 01°21' E 103°38'158317806.8
2018-Jun-24 21:36N 23°50' E 117°45'459651864.5
2018-Jun-24 21:30N 44°09' E 028°40'4593533367.0
2018-Jun-24 21:30N 23°33' E 117°27'1559112275.5
2018-Jun-24 21:29N 01°20' E 103°38'1637210477.0
2018-Jun-24 21:29N 24°25' E 118°34'42217655.0
2018-Jun-24 21:27N 30°44' E 122°01'658197509.0
2018-Jun-24 21:27N 22°19' E 114°09'1394116702.0
2018-Jun-24 21:26N 01°17' E 104°06'161326634.4
2018-Jun-24 21:23N 24°27' E 118°04'1132.8
2018-Jun-24 21:02N 24°25' E 117°52'4578179133.7
2018-Jun-24 21:00N 44°09' E 028°40'46128300842.9
2018-Jun-24 21:00N 24°28' E 118°37'421116664.3
2018-Jun-24 21:00N 30°47' E 122°05'49738037.3
2018-Jun-24 20:59N 23°35' E 117°30'547476.5
2018-Jun-24 20:59N 24°25' E 117°52'4148614.2
2018-Jun-24 20:59N 24°28' E 118°37'632157.0
2018-Jun-24 20:57N 23°45' E 117°46'156667102.2
2018-Jun-24 20:56N 01°18' E 104°09'161030838.8
2018-Jun-24 20:53N 24°27' E 118°04'7043936.6
2018-Jun-24 20:42N 36°02' E 120°14'228645213.7
2018-Jun-24 20:39N 01°20' E 103°38'487934640.9
2018-Jun-24 20:30N 44°09' E 028°40'46123320977.6
2018-Jun-24 20:30N 24°31' E 118°40'8210140.5
2018-Jun-24 20:30N 23°37' E 117°33'15501395238.6
2018-Jun-24 20:30N 01°18' E 104°12'20521231200.0
2018-Jun-24 20:30N 30°51' E 122°08'11111703.9
2018-Jun-24 20:29N 31°58' E 120°26'46858117.9
2018-Jun-24 20:29N 24°27' E 118°04'331804.8
2018-Jun-24 20:28N 24°30' E 118°40'44334.4
2018-Jun-24 20:20N 24°25' E 117°52'16165800.0
2018-Jun-24 20:03N 01°20' E 103°37'156936211.6
2018-Jun-24 20:00N 23°39' E 117°36'8173054.7
2018-Jun-24 20:00N 24°33' E 118°43'424169604.9
2018-Jun-24 20:00N 30°55' E 122°10'4519677821.4
2018-Jun-24 20:00N 44°09' E 028°40'4578343340.0
2018-Jun-24 19:59N 24°25' E 117°52'112032.3
2018-Jun-24 19:59N 24°27' E 118°04'86154354.1
2018-Jun-24 19:58N 38°32' E 121°17'24311750069.8
2018-Jun-24 19:58N 01°19' E 104°15'38996.9
2018-Jun-24 19:55N 01°20' E 103°37'165110845.3
2018-Jun-24 19:46N 24°35' E 118°44'4533341.6
2018-Jun-24 19:38N 31°59' E 120°26'206016263.8
2018-Jun-24 19:30N 01°20' E 104°18'491117678874.4
2018-Jun-24 19:30N 44°09' E 028°40'45972757990.6
2018-Jun-24 19:30N 23°42' E 117°39'49969124.3
2018-Jun-24 19:30N 30°59' E 122°09'45581870.8
2018-Jun-24 19:30N 38°32' E 121°17'2444159944.6
2018-Jun-24 19:29N 01°20' E 103°37'207756219.3
2018-Jun-24 19:26N 31°59' E 120°26'45133794.9
2018-Jun-24 19:26N 24°37' E 118°46'39767.8
2018-Jun-24 19:23N 24°27' E 118°04'45601.2
2018-Jun-24 19:18N 23°45' E 117°45'402259.4
2018-Jun-24 19:17N 24°25' E 117°52'4762567.7
2018-Jun-24 19:06N 32°01' E 120°27'439548685.3
2018-Jun-24 19:00N 44°09' E 028°40'45982068907.0
2018-Jun-24 19:00N 23°44' E 117°42'1576131975.0
2018-Jun-24 19:00N 01°20' E 103°37'1547795463.9
2018-Jun-24 18:59N 23°26' E 117°13'774938.4
2018-Jun-24 18:59N 24°27' E 118°04'16021922701.2
2018-Jun-24 18:59N 01°21' E 104°20'206069957.0
2018-Jun-24 18:57N 32°01' E 120°27'540648535.6
2018-Jun-24 18:57N 23°26' E 117°20'11028213.1
2018-Jun-24 18:56N 24°40' E 118°49'420503711.0
2018-Jun-24 18:56N 31°02' E 122°05'45665627.6
2018-Jun-24 18:56N 24°25' E 117°52'865119732.0
2018-Jun-24 18:56N 38°32' E 121°17'27749.3
2018-Jun-24 18:53N 38°46' E 121°46'89633240.3
2018-Jun-24 18:52N 24°11' E 118°03'4859236.8
2018-Jun-24 18:49N 31°59' E 120°26'516206512.6
2018-Jun-24 18:49N 23°43' E 117°42'5163120.0
2018-Jun-24 18:39N 31°58' E 120°25'1033268.8
2018-Jun-24 18:37N 31°02' E 122°06'102985.3
2018-Jun-24 18:31N 31°59' E 120°27'5381938051.5
2018-Jun-24 18:30N 23°28' E 117°17'458916519160.9
2018-Jun-24 18:30N 44°09' E 028°40'43961055016.8
2018-Jun-24 18:30N 31°59' E 120°26'536965214.3
2018-Jun-24 18:30N 23°29' E 117°19'941282400.6
2018-Jun-24 18:30N 38°42' E 121°45'45829420.5
2018-Jun-24 18:29N 31°05' E 121°60'499299363.5
2018-Jun-24 18:29N 23°42' E 117°40'51762062.6
2018-Jun-24 18:28N 31°58' E 120°25'5489143192.4
2018-Jun-24 18:26N 48°57' E 002°17'5761560555.1
2018-Jun-24 18:26N 24°27' E 118°04'11265.7
2018-Jun-24 18:23N 24°25' E 117°52'381888.7
2018-Jun-24 18:22N 23°47' E 117°46'49211509.4
2018-Jun-24 18:19N 31°01' E 122°07'5191663.0
2018-Jun-24 18:00N 23°30' E 117°20'45908262175.1
2018-Jun-24 18:00N 44°09' E 028°40'4588971507.0
2018-Jun-24 18:00N 23°32' E 117°19'53379972.8
2018-Jun-24 18:00N 31°58' E 120°25'54891040029.2
2018-Jun-24 17:59N 48°57' E 002°17'57801734118.8
2018-Jun-24 17:59N 23°49' E 117°48'50942642.5
2018-Jun-24 17:59N 31°59' E 120°26'20772492351.0
2018-Jun-24 17:58N 01°20' E 103°37'16245846072.9
2018-Jun-24 17:58N 24°27' E 118°04'11243.4
2018-Jun-24 17:56N 24°25' E 117°52'47662.5
2018-Jun-24 17:51N 23°40' E 117°37'451049.4
2018-Jun-24 17:49N 24°15' E 118°09'45816647.7
2018-Jun-24 17:47N 31°00' E 122°09'4542098.0
2018-Jun-24 17:34N 38°32' E 121°17'3956324.6
2018-Jun-24 17:30N 31°59' E 120°26'478430050.6
2018-Jun-24 17:30N 24°16' E 118°10'6416461.4
2018-Jun-24 17:30N 23°34' E 117°18'51645.0
2018-Jun-24 17:30N 23°32' E 117°23'5776693074.0
2018-Jun-24 17:29N 48°57' E 002°17'5489731867.1
2018-Jun-24 17:29N 31°58' E 120°25'4396479520.1
2018-Jun-24 17:28N 44°09' E 028°40'45868255038.1
2018-Jun-24 17:28N 24°27' E 118°04'86193884.3
2018-Jun-24 17:28N 38°32' E 121°17'897358955.0
2018-Jun-24 17:28N 23°52' E 117°51'1588168107.7
2018-Jun-24 17:27N 01°20' E 103°37'1568297132.0
2018-Jun-24 17:27N 23°39' E 117°35'493331.9
2018-Jun-24 17:26N 24°25' E 117°52'45515303.9
2018-Jun-24 17:24N 30°58' E 122°10'407146356.6
2018-Jun-24 17:24N 24°49' E 118°58'4371419.4
2018-Jun-24 17:06N 31°59' E 120°27'5237876.8
2018-Jun-24 17:02N 23°37' E 117°41'4602247276.8
2018-Jun-24 17:00N 44°09' E 028°40'45928265214.0
2018-Jun-24 17:00N 23°34' E 117°26'61221350.0
2018-Jun-24 17:00N 24°18' E 118°13'475190076.7
2018-Jun-24 17:00N 31°59' E 120°26'1237.8
2018-Jun-24 17:00N 31°59' E 120°27'526172034.0
2018-Jun-24 17:00N 23°37' E 117°33'131140.5
2018-Jun-24 16:59N 23°37' E 117°18'5722896.2
2018-Jun-24 16:59N 24°25' E 117°52'45323271.7
2018-Jun-24 16:58N 30°56' E 122°10'207274596.6
2018-Jun-24 16:56N 01°20' E 103°37'62021313275.2
2018-Jun-24 16:56N 48°57' E 002°17'5786991810.6
2018-Jun-24 16:56N 23°37' E 117°41'1 2.3
2018-Jun-24 16:31N 23°38' E 117°42'5331562.6
2018-Jun-24 16:30N 24°20' E 118°17'61218504.2
2018-Jun-24 16:30N 23°37' E 117°29'4592459202.5
2018-Jun-24 16:30N 44°09' E 028°40'4879111864.1
2018-Jun-24 16:27N 01°20' E 103°37'1562104143.9
2018-Jun-24 16:26N 23°34' E 117°30'508228631.1
2018-Jun-24 16:26N 30°56' E 122°13'454125710.0
2018-Jun-24 16:26N 24°25' E 117°52'44912824.0
2018-Jun-24 16:24N 30°52' E 122°09'3251358.7
2018-Jun-24 16:09N 36°02' E 120°14'555871204.4
2018-Jun-24 16:05N 41°14' E 001°49'17584.2
2018-Jun-24 16:03N 41°19' E 002°10'5943136282.4
2018-Jun-24 16:00N 23°38' E 117°43'54195785.5
2018-Jun-24 16:00N 24°21' E 118°20'6054085.3
2018-Jun-24 16:00N 23°39' E 117°32'156884226.6
2018-Jun-24 15:59N 01°20' E 103°37'2077623087.1
2018-Jun-24 15:59N 31°59' E 120°26'5740439646.3
2018-Jun-24 15:58N 41°14' E 001°49'5954649487.2
2018-Jun-24 15:58N 23°33' E 117°27'5778223658.0
2018-Jun-24 15:56N 48°57' E 002°17'57541380863.6
2018-Jun-24 15:56N 24°25' E 117°52'81838242.1
2018-Jun-24 15:55N 37°50' E 120°42'42729564.0
2018-Jun-24 15:54N 30°49' E 122°07'1111923.8
2018-Jun-24 15:50N 31°58' E 120°25'5722105098.7
2018-Jun-24 15:47N 41°18' E 002°09'593721309.0
2018-Jun-24 15:30N 23°41' E 117°36'45945513241.8
2018-Jun-24 15:30N 44°09' E 028°40'1183283971.4
2018-Jun-24 15:30N 41°17' E 002°07'57241287991.1
2018-Jun-24 15:30N 31°59' E 120°26'47433438.4
2018-Jun-24 15:29N 24°25' E 117°52'2851158.4
2018-Jun-24 15:29N 24°22' E 118°23'5780341106.3
2018-Jun-24 15:28N 48°57' E 002°17'54892822949.9
2018-Jun-24 15:28N 31°58' E 120°25'532319054.1
2018-Jun-24 15:28N 23°31' E 117°24'1557186805.2
2018-Jun-24 15:27N 01°20' E 103°37'20776199.4
2018-Jun-24 15:07N 31°58' E 120°27'1091038.8
2018-Jun-24 15:01N 30°44' E 122°01'4518903697.9
2018-Jun-24 15:00N 44°09' E 028°40'45951837939.3
2018-Jun-24 15:00N 23°44' E 117°38'216896.8
2018-Jun-24 15:00N 23°30' E 117°21'1554111898.5
2018-Jun-24 14:59N 01°20' E 103°37'2077178024.4
2018-Jun-24 14:59N 31°59' E 120°26'5728131352.9
2018-Jun-24 14:56N 41°16' E 002°02'5926927525.1
2018-Jun-24 14:56N 24°25' E 117°52'45994.7
2018-Jun-24 14:53N 23°41' E 117°46'578679506.1
2018-Jun-24 14:49N 48°57' E 002°17'5782161353.1
2018-Jun-24 14:46N 24°24' E 118°28'42311979.1
2018-Jun-24 14:44N 30°44' E 121°58'585925443.1
2018-Jun-24 14:30N 41°16' E 001°59'59587150056.1
2018-Jun-24 14:30N 24°26' E 118°29'46072763969.8
2018-Jun-24 14:30N 44°09' E 028°40'4879627241.5
2018-Jun-24 14:30N 01°20' E 103°37'1616107727.9
2018-Jun-24 14:29N 24°25' E 117°52'474170541.2
2018-Jun-24 14:29N 31°59' E 120°26'5489129158.5
2018-Jun-24 14:26N 48°57' E 002°17'578747244.8
2018-Jun-24 14:19N 23°41' E 117°48'36314.9
2018-Jun-24 14:12N 24°11' E 118°09'4832645.1
2018-Jun-24 14:01N 31°58' E 120°27'4397323016.5
2018-Jun-24 14:00N 44°09' E 028°40'45934133471.9
2018-Jun-24 14:00N 23°51' E 117°41'50950936.3
2018-Jun-24 14:00N 31°59' E 120°26'5489299412.9
2018-Jun-24 13:59N 48°57' E 002°17'577920803338.8
2018-Jun-24 13:59N 24°12' E 118°11'1615447192.6
2018-Jun-24 13:58N 01°20' E 103°37'161640973.0
2018-Jun-24 13:56N 24°25' E 117°52'45880.4
2018-Jun-24 13:53N 23°40' E 117°47'47560.6
2018-Jun-24 13:48N 24°24' E 118°06'4712056.3
2018-Jun-24 13:34N 31°58' E 120°27'439771619.0
2018-Jun-24 13:30N 44°09' E 028°40'45885505596.5
2018-Jun-24 13:30N 24°25' E 118°05'1625119422.4
2018-Jun-24 13:30N 01°17' E 103°36'20801069852.4
2018-Jun-24 13:29N 31°59' E 120°26'548952417.2
2018-Jun-24 13:23N 48°57' E 002°17'57541218409.2
2018-Jun-24 13:23N 24°25' E 117°52'4732913.4
2018-Jun-24 13:13N 31°58' E 120°27'52416994.6
2018-Jun-24 13:11N 23°38' E 117°31'56770.0
2018-Jun-24 13:07N 24°16' E 118°16'460442603.5
2018-Jun-24 13:00N 44°09' E 028°40'4396586127.2
2018-Jun-24 13:00N 31°59' E 120°26'47685746.1
2018-Jun-24 13:00N 24°16' E 118°17'24388.8
2018-Jun-24 12:56N 24°25' E 117°52'575493301.6
2018-Jun-24 12:52N 48°57' E 002°17'11263109.6
2018-Jun-24 12:30N 44°09' E 028°40'1196478476.7
2018-Jun-24 12:30N 41°12' E 001°51'5965825910.9
2018-Jun-24 12:30N 24°18' E 118°20'271623.4
2018-Jun-24 12:29N 24°25' E 117°52'288522.1
2018-Jun-24 12:29N 23°57' E 117°51'1599198544.6
2018-Jun-24 12:28N 01°13' E 103°35'2085119150.9
2018-Jun-24 12:27N 31°59' E 120°26'118.2
2018-Jun-24 12:25N 31°58' E 120°27'0 6.2
2018-Jun-24 12:21N 31°59' E 120°27'549076306.7
2018-Jun-24 12:16N 48°57' E 002°17'578234805.6
2018-Jun-24 12:06N 23°27' E 117°26'19780.3
2018-Jun-24 12:05N 23°38' E 117°43'2123667.6
2018-Jun-24 12:01N 22°19' E 114°09'4485322954.6
2018-Jun-24 12:00N 44°09' E 028°40'4606318898.4
2018-Jun-24 12:00N 24°20' E 118°24'292562.2
2018-Jun-24 11:59N 24°25' E 117°52'47455033.6
2018-Jun-24 11:58N 31°59' E 120°27'57411878882.5
2018-Jun-24 11:58N 41°13' E 001°49'6177300508.1
2018-Jun-24 11:57N 01°13' E 103°35'1580437654.0
2018-Jun-24 11:57N 23°39' E 117°43'52120150.9
2018-Jun-24 11:55N 31°59' E 120°26'112.1
2018-Jun-24 11:52N 31°58' E 120°27'5490193763.5
2018-Jun-24 11:51N 48°57' E 002°17'577835253.6
2018-Jun-24 11:41N 23°29' E 117°22'459326495.8
2018-Jun-24 11:30N 44°09' E 028°40'46018281575.8
2018-Jun-24 11:30N 23°41' E 117°43'59643578389.2
2018-Jun-24 11:30N 41°12' E 001°47'5743390083.0
2018-Jun-24 11:29N 31°59' E 120°26'47474146.5
2018-Jun-24 11:29N 24°25' E 117°52'47425848.8
2018-Jun-24 11:28N 31°59' E 120°27'5490170374.4
2018-Jun-24 11:26N 48°57' E 002°17'6206859254.1
2018-Jun-24 11:25N 01°13' E 103°35'164037605.9
2018-Jun-24 11:23N 24°23' E 118°28'79728.6
2018-Jun-24 11:16N 23°29' E 117°23'4113.2
2018-Jun-24 11:14N 23°30' E 117°19'87718909.3
2018-Jun-24 11:11N 37°41' E 121°28'2 9.5
2018-Jun-24 11:00N 37°39' E 121°27'875196853.3
2018-Jun-24 11:00N 23°31' E 117°17'4587825609.5
2018-Jun-24 11:00N 44°09' E 028°40'46002759783.0
2018-Jun-24 11:00N 23°44' E 117°44'51671414.4
2018-Jun-24 10:59N 31°59' E 120°27'2085107252.3
2018-Jun-24 10:58N 01°13' E 103°35'1624417584.9
2018-Jun-24 10:58N 24°25' E 117°51'575330366.8
2018-Jun-24 10:47N 48°57' E 002°17'578425270.4
2018-Jun-24 10:33N 24°25' E 118°32'80321108.4
2018-Jun-24 10:31N 37°35' E 121°26'42281268279.5
2018-Jun-24 10:30N 44°09' E 028°40'458616508115.3
2018-Jun-24 10:30N 23°32' E 117°16'1561110211.1
2018-Jun-24 10:29N 01°13' E 103°35'1562267752.6
2018-Jun-24 10:29N 23°34' E 117°14'704210.9
2018-Jun-24 10:28N 24°27' E 118°04'4691687348.8
2018-Jun-24 10:28N 31°59' E 120°26'474142074.4
2018-Jun-24 10:28N 24°25' E 117°51'47417952.9
2018-Jun-24 10:26N 31°59' E 120°27'51355942.7
2018-Jun-24 10:26N 23°47' E 117°45'1551136227.7
2018-Jun-24 10:25N 01°26' E 104°25'6235440138.9
2018-Jun-24 10:24N 48°57' E 002°17'549041695.9
2018-Jun-24 10:16N 31°58' E 120°27'036.9
2018-Jun-24 10:16N 31°58' E 120°26'112730.2
2018-Jun-24 10:06N 30°55' E 122°15'1121162.5
2018-Jun-24 10:00N 31°58' E 120°26'112402196.8
2018-Jun-24 10:00N 30°55' E 122°14'515154543.2
2018-Jun-24 10:00N 23°35' E 117°14'3128271.5
2018-Jun-24 10:00N 23°49' E 117°45'511367563.3
2018-Jun-24 10:00N 31°59' E 120°26'2085234579.1
2018-Jun-24 10:00N 01°13' E 103°35'2085395146.2
2018-Jun-24 09:59N 31°59' E 120°27'46923775.5
2018-Jun-24 09:58N 24°27' E 118°04'80490501.9
2018-Jun-24 09:58N 37°33' E 121°23'2375237493.5
2018-Jun-24 09:57N 01°22' E 104°22'159218793.3
2018-Jun-24 09:52N 24°25' E 117°51'593825030.0
2018-Jun-24 09:38N 41°14' E 001°48'621149360.6
2018-Jun-24 09:30N 01°20' E 104°19'20591235402.1
2018-Jun-24 09:30N 31°59' E 120°27'43961318925.8
2018-Jun-24 09:30N 44°09' E 028°40'4518580907.1
2018-Jun-24 09:29N 30°59' E 122°12'1094835.8
2018-Jun-24 09:28N 31°58' E 120°26'473243239.3
2018-Jun-24 09:28N 24°25' E 117°51'12256.5
2018-Jun-24 09:25N 24°27' E 118°04'80415487.1
2018-Jun-24 09:22N 37°33' E 121°23'554986474.7
2018-Jun-24 09:18N 41°14' E 001°49'5842300443.1
2018-Jun-24 09:17N 22°19' E 114°10'2404939.8
2018-Jun-24 09:14N 24°25' E 117°52'4737708.9
2018-Jun-24 09:10N 31°58' E 120°27'439726646.1
2018-Jun-24 09:00N 44°09' E 028°40'1197307784.9
2018-Jun-24 09:00N 41°14' E 001°49'5740283071.8
2018-Jun-24 08:59N 31°59' E 120°26'156.2
2018-Jun-24 08:58N 31°58' E 120°27'46899191.8
2018-Jun-24 08:58N 24°27' E 118°04'804362007.5
2018-Jun-24 08:58N 37°33' E 121°23'809582212.3
2018-Jun-24 08:58N 24°25' E 117°51'1600213316.5
2018-Jun-24 08:57N 01°18' E 104°15'206221273.5
2018-Jun-24 08:52N 31°58' E 120°25'47223285.2
2018-Jun-24 08:50N 24°24' E 117°59'67409.6
2018-Jun-24 08:41N 23°28' E 117°18'53710119.0
2018-Jun-24 08:37N 31°58' E 120°26'206616979.7
2018-Jun-24 08:30N 01°16' E 104°11'1611223021.7
2018-Jun-24 08:30N 24°28' E 118°03'46880248.6
2018-Jun-24 08:29N 31°58' E 120°26'43962260856.8
2018-Jun-24 08:29N 44°09' E 028°40'4397351728.6
2018-Jun-24 08:28N 31°58' E 120°27'46888750.6
2018-Jun-24 08:28N 24°27' E 118°04'469421837.2
2018-Jun-24 08:28N 31°59' E 120°26'474243556.1
2018-Jun-24 08:28N 24°25' E 117°51'59372374627.5
2018-Jun-24 08:28N 41°14' E 001°49'5950218562.3
2018-Jun-24 08:26N 23°29' E 117°19'87044118.3
2018-Jun-24 08:25N 37°33' E 121°23'3381151.1
2018-Jun-24 08:07N 31°58' E 120°25'991078.0
2018-Jun-24 08:02N 31°05' E 122°02'4506202791.9
2018-Jun-24 08:00N 44°09' E 028°40'45845501281.4
2018-Jun-24 08:00N 24°25' E 118°01'471339426.1
2018-Jun-24 08:00N 31°59' E 120°26'534384472.7
2018-Jun-24 08:00N 23°30' E 117°22'156296950.4
2018-Jun-24 07:59N 01°13' E 103°36'162367948.7
2018-Jun-24 07:58N 24°25' E 117°51'160782620.0
2018-Jun-24 07:57N 01°15' E 104°05'206996737.5
2018-Jun-24 07:55N 31°58' E 120°27'46880297.2
2018-Jun-24 07:55N 24°27' E 118°04'804241338.3
2018-Jun-24 07:55N 37°33' E 121°23'39013616.7
2018-Jun-24 07:53N 31°05' E 122°01'971515.2
2018-Jun-24 07:49N 31°58' E 120°25'4798803.6
2018-Jun-24 07:46N 24°14' E 118°09'2 6.1
2018-Jun-24 07:31N 24°15' E 118°11'4571646727.7
2018-Jun-24 07:30N 31°06' E 121°57'450116203706.0
2018-Jun-24 07:30N 44°09' E 028°40'43971438890.0
2018-Jun-24 07:30N 31°58' E 120°27'2072532713.5
2018-Jun-24 07:30N 01°15' E 104°01'1551797591.6
2018-Jun-24 07:30N 23°32' E 117°25'659418.8
2018-Jun-24 07:30N 24°26' E 118°05'46980461.5
2018-Jun-24 07:29N 31°59' E 120°26'2085341110.9
2018-Jun-24 07:29N 01°11' E 103°40'2084833564.1
2018-Jun-24 07:29N 31°58' E 120°26'018.0
2018-Jun-24 07:28N 31°58' E 120°25'33848712.6
2018-Jun-24 07:28N 37°33' E 121°23'80919938.8
2018-Jun-24 07:25N 24°25' E 117°51'70954310.5
2018-Jun-24 07:25N 36°03' E 120°19'2456931.4
2018-Jun-24 07:23N 31°58' E 120°26'245909.8
2018-Jun-24 07:06N 36°03' E 120°18'228723460.5
2018-Jun-24 07:01N 01°13' E 103°57'16161939254.3
2018-Jun-24 07:00N 24°16' E 118°14'46018282371.2
2018-Jun-24 07:00N 44°09' E 028°40'43961977976.7
2018-Jun-24 07:00N 32°00' E 120°27'474100343.0
2018-Jun-24 07:00N 24°23' E 118°07'472121422.2
2018-Jun-24 07:00N 31°59' E 120°26'529173104.5
2018-Jun-24 07:00N 23°34' E 117°28'15675642215.3
2018-Jun-24 07:00N 01°09' E 103°44'2084108734.4
2018-Jun-24 06:58N 31°58' E 120°27'47348681.4
2018-Jun-24 06:58N 24°25' E 117°51'809582212.3
2018-Jun-24 06:58N 37°33' E 121°23'3846607.8
2018-Jun-24 06:54N 31°10' E 121°51'449411312.9
2018-Jun-24 06:30N 44°09' E 028°40'460316569808.2
2018-Jun-24 06:30N 24°17' E 118°17'456182443.3
2018-Jun-24 06:30N 31°14' E 121°47'20777478468.9
2018-Jun-24 06:30N 01°11' E 103°52'41587.2
2018-Jun-24 06:30N 01°11' E 103°48'156851301.7
2018-Jun-24 06:28N 23°36' E 117°31'861103283.9
2018-Jun-24 06:28N 37°33' E 121°23'80920357.1
2018-Jun-24 06:25N 24°25' E 117°51'4748439.7
2018-Jun-24 06:22N 31°59' E 120°26'1563.0
2018-Jun-24 06:22N 31°58' E 120°27'83516691.4
2018-Jun-24 06:19N 21°06' E 110°45'4937016.4
2018-Jun-24 06:15N 24°31' E 118°52'551409.0
2018-Jun-24 06:12N 24°25' E 117°52'457722949.3
2018-Jun-24 06:00N 44°09' E 028°40'43971582778.3
2018-Jun-24 06:00N 31°58' E 120°27'1107.9
2018-Jun-24 06:00N 31°59' E 120°26'47456845.3
2018-Jun-24 05:59N 24°18' E 118°20'462416231.8
2018-Jun-24 05:59N 21°05' E 110°45'12641516769.9
2018-Jun-24 05:59N 01°09' E 103°48'1573161748.1
2018-Jun-24 05:59N 23°38' E 117°35'869691.7
2018-Jun-24 05:58N 24°29' E 118°51'5410286.7
2018-Jun-24 05:58N 24°25' E 117°51'809582212.3
2018-Jun-24 05:58N 37°33' E 121°23'8084396.1
2018-Jun-24 05:47N 24°24' E 117°58'70790.4
2018-Jun-24 05:41N 23°27' E 117°15'74407.6
2018-Jun-24 05:31N 24°26' E 118°02'16311957792.1
2018-Jun-24 05:30N 01°06' E 103°44'48948809579.5
2018-Jun-24 05:30N 44°09' E 028°40'46068290255.0
2018-Jun-24 05:30N 24°20' E 118°23'574532.7
2018-Jun-24 05:30N 23°41' E 117°38'20775.8
2018-Jun-24 05:28N 23°29' E 117°19'6417588.8
2018-Jun-24 05:28N 24°25' E 117°51'809194070.8
2018-Jun-24 05:28N 37°33' E 121°23'3388562.5
2018-Jun-24 05:25N 31°59' E 120°26'1107.1
2018-Jun-24 05:25N 31°59' E 120°27'1076205.3
2018-Jun-24 05:24N 30°58' E 122°10'1073594.1
2018-Jun-24 05:22N 31°58' E 120°27'125.3
2018-Jun-24 05:20N 31°58' E 120°25'53621939.4
2018-Jun-24 05:18N 23°28' E 117°18'99479.8
2018-Jun-24 05:06N 24°23' E 118°48'941101.1
2018-Jun-24 05:01N 23°31' E 117°22'15665635804.0
2018-Jun-24 05:00N 01°08' E 103°40'20887515432.0
2018-Jun-24 05:00N 31°59' E 120°26'517265784.9
2018-Jun-24 05:00N 23°43' E 117°41'4683591.0
2018-Jun-24 05:00N 24°26' E 118°01'448537514.3
2018-Jun-24 05:00N 30°56' E 122°10'44279494.3
2018-Jun-24 05:00N 24°21' E 118°25'80631556.5
2018-Jun-24 04:58N 37°33' E 121°23'33857957.4
2018-Jun-24 04:58N 31°58' E 120°27'473154895.3
2018-Jun-24 04:58N 24°25' E 117°51'51458.4
2018-Jun-24 04:51N 24°22' E 118°47'465557838.5
2018-Jun-24 04:51N 31°58' E 120°25'53320202.8
2018-Jun-24 04:50N 23°31' E 117°21'7685923.2
2018-Jun-24 04:42N 36°03' E 120°24'8715.9
2018-Jun-24 04:41N 36°02' E 120°14'538.8
2018-Jun-24 04:34N 36°03' E 120°19'76412508.8
2018-Jun-24 04:30N 23°33' E 117°25'15671128122.0
2018-Jun-24 04:30N 01°12' E 103°37'22978267925.9
2018-Jun-24 04:30N 36°03' E 120°19'4234491721.4
2018-Jun-24 04:30N 44°09' E 028°40'4396465449.6
2018-Jun-24 04:29N 31°59' E 120°26'513168023.4
2018-Jun-24 04:29N 23°46' E 117°44'84978340.1
2018-Jun-24 04:28N 37°33' E 121°23'33864058.2
2018-Jun-24 04:28N 31°58' E 120°27'473131065.2
2018-Jun-24 04:28N 24°25' E 117°51'916150.4
2018-Jun-24 04:28N 24°26' E 118°01'70797870.3
2018-Jun-24 04:27N 36°03' E 120°23'70939901.7
2018-Jun-24 04:26N 24°25' E 117°52'448230563.3
2018-Jun-24 04:26N 30°52' E 122°08'11024777.0
2018-Jun-24 04:26N 31°58' E 120°25'467336043.5
2018-Jun-24 04:26N 24°23' E 118°28'7056898.1
2018-Jun-24 04:20N 36°02' E 120°14'22907150.1
2018-Jun-24 04:01N 01°16' E 103°36'488117570109.3
2018-Jun-24 04:00N 44°09' E 028°40'43967912650.4
2018-Jun-24 04:00N 31°59' E 120°26'471242244.6
2018-Jun-24 04:00N 24°25' E 118°04'5852573.3
2018-Jun-24 04:00N 23°36' E 117°28'1236.6
2018-Jun-24 04:00N 23°36' E 117°28'19864919.7
2018-Jun-24 04:00N 22°18' E 114°09'98940470.0
2018-Jun-24 03:58N 37°33' E 121°23'33871595.7
2018-Jun-24 03:58N 31°58' E 120°27'51035284.8
2018-Jun-24 03:57N 23°49' E 117°47'47946561.2
2018-Jun-24 03:57N 30°48' E 122°06'44415092.8
2018-Jun-24 03:55N 24°25' E 117°51'70924085.7
2018-Jun-24 03:53N 36°03' E 120°18'4345.9
2018-Jun-24 03:52N 36°02' E 120°14'32615645.9
2018-Jun-24 03:51N 30°52' E 122°12'3254370.3
2018-Jun-24 03:47N 36°03' E 120°18'24511011.8
2018-Jun-24 03:45N 31°58' E 120°25'245440444.9
2018-Jun-24 03:45N 36°03' E 120°19'4112.6
2018-Jun-24 03:43N 36°03' E 120°24'7134144.6
2018-Jun-24 03:33N 24°20' E 118°08'321706.7
2018-Jun-24 03:32N 24°14' E 118°43'163270775.1
2018-Jun-24 03:31N 01°21' E 103°38'48788780802.1
2018-Jun-24 03:30N 44°09' E 028°40'4593290056.5
2018-Jun-24 03:30N 23°39' E 117°31'523470902.0
2018-Jun-24 03:29N 31°59' E 120°26'523104622.3
2018-Jun-24 03:29N 23°39' E 117°32'214934.4
2018-Jun-24 03:29N 23°51' E 117°50'352499.8
2018-Jun-24 03:28N 24°24' E 118°05'808242301.6
2018-Jun-24 03:28N 37°33' E 121°23'80919407.1
2018-Jun-24 03:25N 24°25' E 117°51'47339624.4
2018-Jun-24 03:25N 31°58' E 120°27'4758760.1
2018-Jun-24 03:21N 24°13' E 118°43'474131326.7
2018-Jun-24 03:21N 31°58' E 120°25'473189083.1
2018-Jun-24 03:21N 24°22' E 118°07'71126114.8
2018-Jun-24 03:19N 36°03' E 120°24'32015796.4
2018-Jun-24 03:18N 30°55' E 122°11'322193168.8
2018-Jun-24 03:18N 36°03' E 120°18'128.6
2018-Jun-24 03:16N 36°03' E 120°19'123.8
2018-Jun-24 03:13N 36°03' E 120°18'70921450.5
2018-Jun-24 03:11N 24°25' E 117°51'47259.6
2018-Jun-24 03:00N 23°41' E 117°34'459316536548.1
2018-Jun-24 03:00N 44°09' E 028°40'43971582777.6
2018-Jun-24 03:00N 31°58' E 120°27'470105849.4
2018-Jun-24 03:00N 24°25' E 118°06'86577885.8
2018-Jun-24 02:59N 38°32' E 121°29'913156479.1
2018-Jun-24 02:59N 23°42' E 117°35'15651126466.6
2018-Jun-24 02:59N 01°26' E 103°41'1615109693.1
2018-Jun-24 02:58N 24°24' E 118°05'133287.8
2018-Jun-24 02:58N 24°25' E 117°51'709850770.9
2018-Jun-24 02:58N 36°03' E 120°20'3199651.5
2018-Jun-24 02:56N 30°57' E 122°11'1087221.8
2018-Jun-24 02:55N 31°59' E 120°26'3381215810.8
2018-Jun-24 02:55N 37°33' E 121°24'8159752.9
2018-Jun-24 02:50N 24°10' E 118°42'43962.9
2018-Jun-24 02:47N 24°24' E 117°58'4724511.0
2018-Jun-24 02:41N 31°58' E 120°26'206711888.1
2018-Jun-24 02:30N 01°27' E 103°44'48788780716.3
2018-Jun-24 02:30N 44°09' E 028°40'4585423250.8
2018-Jun-24 02:30N 24°27' E 118°03'4810204.7
2018-Jun-24 02:30N 23°44' E 117°38'12306.7
2018-Jun-24 02:29N 23°45' E 117°39'487165.6
2018-Jun-24 02:29N 24°26' E 118°05'7062542503.2
2018-Jun-24 02:29N 36°03' E 120°19'24479975.9
2018-Jun-24 02:29N 31°59' E 120°27'151.2
2018-Jun-24 02:28N 31°59' E 120°26'472113234.1
2018-Jun-24 02:28N 24°24' E 118°05'808290765.8
2018-Jun-24 02:28N 37°33' E 121°24'809970367.7
2018-Jun-24 02:28N 24°25' E 117°51'709510629.3
2018-Jun-24 02:28N 36°03' E 120°18'72096048.1
2018-Jun-24 02:27N 24°08' E 118°41'599068023.5
2018-Jun-24 02:22N 41°14' E 001°49'556256087.2
2018-Jun-24 02:16N 36°03' E 120°19'5137.4
2018-Jun-24 02:14N 36°02' E 120°13'9267.7
2018-Jun-24 02:12N 36°03' E 120°25'6894108.5
2018-Jun-24 02:02N 24°41' E 118°27'689112673.3
2018-Jun-24 02:02N 36°03' E 120°19'4234224156.8
2018-Jun-24 02:00N 44°09' E 028°40'4594275668.8
2018-Jun-24 01:59N 24°41' E 118°27'1638327523.0
2018-Jun-24 01:59N 01°27' E 103°45'16121934618.1
2018-Jun-24 01:59N 24°23' E 118°06'810291773.1
2018-Jun-24 01:59N 37°36' E 121°25'848117477.0
2018-Jun-24 01:59N 23°49' E 117°40'415106.3
2018-Jun-24 01:58N 24°24' E 118°05'133835.8
2018-Jun-24 01:58N 24°25' E 117°51'86684253.7
2018-Jun-24 01:57N 38°27' E 121°51'15913337.6
2018-Jun-24 01:57N 36°03' E 120°25'749449256.4
2018-Jun-24 01:56N 23°48' E 117°39'746141418.2
2018-Jun-24 01:56N 36°02' E 120°14'2446053.3
2018-Jun-24 01:54N 31°59' E 120°26'11527538.9
2018-Jun-24 01:53N 30°52' E 122°15'1155518.4
2018-Jun-24 01:52N 31°58' E 120°25'24548969.3
2018-Jun-24 01:52N 36°03' E 120°18'88517034.6
2018-Jun-24 01:49N 22°19' E 114°10'269138295.9
2018-Jun-24 01:49N 24°04' E 118°39'72518768.7
2018-Jun-24 01:46N 36°03' E 120°19'1100.7
2018-Jun-24 01:46N 36°03' E 120°18'22798966.8
2018-Jun-24 01:31N 01°27' E 103°45'48798782445.8
2018-Jun-24 01:30N 44°09' E 028°40'42345080809.6
2018-Jun-24 01:30N 36°03' E 120°19'709116040.7
2018-Jun-24 01:30N 24°23' E 118°08'472424836.0
2018-Jun-24 01:30N 31°59' E 120°26'48667331.7
2018-Jun-24 01:30N 24°02' E 118°38'82674352.7
2018-Jun-24 01:29N 37°36' E 121°25'81185882.6
2018-Jun-24 01:28N 24°25' E 117°51'456328218.2
2018-Jun-24 01:28N 31°03' E 122°03'439131736.6
2018-Jun-24 01:28N 38°23' E 121°60'864239153.4
2018-Jun-24 01:28N 24°25' E 117°51'71010974.8
2018-Jun-24 01:24N 36°03' E 120°25'9525.6
2018-Jun-24 01:23N 36°02' E 120°14'575.9
2018-Jun-24 01:19N 36°02' E 120°20'32252655.8
2018-Jun-24 01:19N 30°55' E 122°13'3236838.0
2018-Jun-24 01:16N 36°03' E 120°19'2458485.3
2018-Jun-24 01:14N 31°58' E 120°25'2452595.5
2018-Jun-24 01:08N 36°03' E 120°19'423432293.6
2018-Jun-24 01:00N 44°09' E 028°40'45202033833.0
2018-Jun-24 01:00N 30°56' E 122°12'20642476945.3
2018-Jun-24 01:00N 01°27' E 103°45'2279683761.7
2018-Jun-24 01:00N 36°03' E 120°19'161290166.8
2018-Jun-24 01:00N 38°18' E 122°08'38755715.6
2018-Jun-24 01:00N 32°00' E 120°27'284.0
2018-Jun-24 00:58N 31°59' E 120°26'47448710.6
2018-Jun-24 00:58N 24°25' E 117°51'811292032.4
2018-Jun-24 00:58N 37°36' E 121°25'8118566.2
2018-Jun-24 00:52N 24°24' E 117°57'443900.9
2018-Jun-24 00:51N 23°58' E 118°36'73139868.3
2018-Jun-24 00:50N 36°03' E 120°19'113.3
2018-Jun-24 00:46N 36°03' E 120°18'24533902.6
2018-Jun-24 00:45N 31°58' E 120°25'24414904.9
2018-Jun-24 00:44N 36°02' E 120°14'70979781.7
2018-Jun-24 00:44N 24°22' E 118°07'459220873.8
2018-Jun-24 00:30N 44°09' E 028°40'451716260244.7
2018-Jun-24 00:30N 30°59' E 122°10'44989885.5
2018-Jun-24 00:30N 24°26' E 118°02'1613725733.1
2018-Jun-24 00:30N 01°27' E 103°44'2279124316.5
2018-Jun-24 00:29N 36°03' E 120°18'70938684.0
2018-Jun-24 00:28N 24°25' E 117°51'811265484.0
2018-Jun-24 00:28N 37°36' E 121°25'833119950.8
2018-Jun-24 00:27N 23°56' E 118°35'49361222.6
2018-Jun-24 00:27N 31°59' E 120°26'245440300.2
2018-Jun-24 00:27N 36°03' E 120°19'70941155.7
2018-Jun-24 00:26N 24°24' E 118°06'471847612.0
2018-Jun-24 00:26N 31°58' E 120°26'24416281.4
2018-Jun-24 00:25N 36°02' E 120°14'2445940.2
2018-Jun-24 00:22N 31°58' E 120°26'24415430.6
2018-Jun-24 00:21N 36°03' E 120°19'0 6.0
2018-Jun-24 00:18N 36°03' E 120°19'3061533.1
2018-Jun-24 00:06N 31°07' E 121°55'206523603.2
2018-Jun-24 00:01N 01°27' E 103°44'48781463472.2
2018-Jun-24 00:00N 44°09' E 028°40'45854126111.1
2018-Jun-24 00:00N 24°25' E 118°01'45190288.9
2018-Jun-24 00:00N 31°00' E 122°08'144124.2
2018-Jun-24 00:00N 31°08' E 121°54'9118194.5
2018-Jun-23 23:59N 31°59' E 120°26'1112.7
2018-Jun-23 23:59N 31°60' E 120°27'243437857.5
2018-Jun-23 23:59N 36°03' E 120°18'70952098.7
2018-Jun-23 23:58N 24°25' E 117°51'123870.8
2018-Jun-23 23:58N 24°27' E 118°04'7068360.6
2018-Jun-23 23:53N 36°03' E 120°19'2453255.3
2018-Jun-23 23:48N 31°58' E 120°26'43921084.8
2018-Jun-23 23:47N 24°49' E 118°42'102395.9
2018-Jun-23 23:31N 23°31' E 117°30'4597306437.9
2018-Jun-23 23:30N 44°09' E 028°40'4396304335.1
2018-Jun-23 23:30N 31°59' E 120°26'10245912.6
2018-Jun-23 23:29N 31°02' E 122°05'2066929583.1
2018-Jun-23 23:29N 01°28' E 103°43'160796410.0
2018-Jun-23 23:28N 24°25' E 117°52'4731703054.0
2018-Jun-23 23:28N 31°58' E 120°26'53068195.3
2018-Jun-23 23:28N 23°31' E 117°30'868260459.8
2018-Jun-23 23:28N 37°36' E 121°25'81120565.7
2018-Jun-23 23:25N 24°25' E 117°51'521266.6
2018-Jun-23 23:23N 24°49' E 118°42'411900.8
2018-Jun-23 23:22N 24°27' E 118°04'47642.2
2018-Jun-23 23:17N 23°47' E 118°31'740190384.2
2018-Jun-23 23:17N 36°02' E 120°14'71788959.3
2018-Jun-23 23:16N 24°14' E 118°10'332172.6
2018-Jun-23 23:16N 23°48' E 118°31'463518415.5
2018-Jun-23 23:00N 44°09' E 028°40'4601312489.9
2018-Jun-23 23:00N 24°15' E 118°12'1608180901.9
2018-Jun-23 22:59N 01°28' E 103°43'1550129808.8
2018-Jun-23 22:58N 23°32' E 117°29'576643.1
2018-Jun-23 22:58N 24°25' E 117°51'811292032.4
2018-Jun-23 22:58N 37°36' E 121°25'10932770.7
2018-Jun-23 22:57N 36°02' E 120°14'31348933.5
2018-Jun-23 22:57N 31°03' E 122°03'992531.9
2018-Jun-23 22:55N 31°59' E 120°26'469168734.9
2018-Jun-23 22:55N 24°27' E 118°04'48577.6
2018-Jun-23 22:50N 23°45' E 118°30'48151.7
2018-Jun-23 22:31N 24°27' E 118°04'4691687328.1
2018-Jun-23 22:31N 31°59' E 120°26'20687444354.1
2018-Jun-23 22:30N 01°28' E 103°43'48781596352.3
2018-Jun-23 22:30N 44°09' E 028°40'43961054981.5
2018-Jun-23 22:30N 31°58' E 120°26'47795335.3
2018-Jun-23 22:30N 24°16' E 118°15'455818568.5
2018-Jun-23 22:30N 31°05' E 122°00'45614397.2
2018-Jun-23 22:28N 24°25' E 117°51'59106076.4
2018-Jun-23 22:28N 23°31' E 117°28'869312992.8
2018-Jun-23 22:28N 37°36' E 121°25'34137179.5
2018-Jun-23 22:27N 31°58' E 120°25'24448855.3
2018-Jun-23 22:27N 36°02' E 120°13'7436458.7
2018-Jun-23 22:20N 23°51' E 117°46'39893.0
2018-Jun-23 22:17N 23°41' E 118°28'6003354286.2
2018-Jun-23 22:16N 41°13' E 001°44'12014581.2
2018-Jun-23 22:00N 44°09' E 028°40'4396832917.2
2018-Jun-23 22:00N 31°59' E 120°26'944283.4
2018-Jun-23 21:59N 31°06' E 121°57'45626479.8
2018-Jun-23 21:58N 24°25' E 117°51'811292030.3
2018-Jun-23 21:58N 37°36' E 121°25'807415040.8
2018-Jun-23 21:58N 24°27' E 118°04'161720.1
2018-Jun-23 21:57N 24°17' E 118°19'391656.2
2018-Jun-23 21:56N 23°39' E 118°27'371039.4
2018-Jun-23 21:53N 23°47' E 117°47'51130632.0
2018-Jun-23 21:52N 31°58' E 120°26'056.1
2018-Jun-23 21:52N 31°58' E 120°25'116.7
2018-Jun-23 21:47N 31°58' E 120°27'574651717.2
2018-Jun-23 21:41N 41°13' E 001°44'617967404.9
2018-Jun-23 21:35N 01°28' E 103°43'2277122340.3
2018-Jun-23 21:34N 36°02' E 120°13'423073926.7
2018-Jun-23 21:30N 44°09' E 028°40'42271014577.4
2018-Jun-23 21:30N 37°34' E 121°25'387348469.5
2018-Jun-23 21:30N 31°08' E 121°55'45052307.2
2018-Jun-23 21:30N 24°19' E 118°21'710159825.3
2018-Jun-23 21:29N 36°02' E 120°13'5563298922.7
2018-Jun-23 21:28N 41°12' E 001°44'6179967147.5
2018-Jun-23 21:28N 01°28' E 103°43'16071928087.3
2018-Jun-23 21:28N 24°25' E 117°51'12213.9
2018-Jun-23 21:24N 24°27' E 118°04'1649.1
2018-Jun-23 21:06N 24°14' E 118°13'4446500.7
2018-Jun-23 21:01N 30°47' E 122°05'4520275804.9
2018-Jun-23 21:00N 44°09' E 028°40'46061842581.8
2018-Jun-23 21:00N 24°20' E 118°24'809364030.9
2018-Jun-23 21:00N 37°34' E 121°25'40832651.6
2018-Jun-23 20:59N 30°47' E 122°05'2054284358.1
2018-Jun-23 20:59N 01°28' E 103°43'20671860465.9
2018-Jun-23 20:59N 31°58' E 120°25'47324674.3
2018-Jun-23 20:58N 24°25' E 117°51'47424355.0
2018-Jun-23 20:57N 31°59' E 120°26'4695478.3
2018-Jun-23 20:51N 24°27' E 118°04'1682.4
2018-Jun-23 20:40N 24°15' E 118°15'5968298376.5
2018-Jun-23 20:39N 41°12' E 001°45'5844553597.4
2018-Jun-23 20:38N 31°12' E 121°49'3832942.3
2018-Jun-23 20:31N 37°34' E 121°25'806966817.9
2018-Jun-23 20:30N 24°27' E 118°04'45868255039.9
2018-Jun-23 20:30N 44°09' E 028°40'48782508554.5
2018-Jun-23 20:30N 01°28' E 103°43'6177463291.8
2018-Jun-23 20:30N 41°12' E 001°46'5940203664.8
2018-Jun-23 20:28N 24°25' E 117°51'44867215.1
2018-Jun-23 20:27N 30°52' E 122°08'1101318.5
2018-Jun-23 20:22N 31°58' E 120°25'4756735.0
2018-Jun-23 20:18N 24°17' E 118°18'4763756.4
2018-Jun-23 20:11N 31°59' E 120°26'1472.4
2018-Jun-23 20:10N 31°58' E 120°26'53141576.6
2018-Jun-23 20:10N 23°32' E 117°25'459229895.4
2018-Jun-23 20:00N 44°09' E 028°40'45182710710.3
2018-Jun-23 20:00N 30°56' E 122°09'5870330214.0
2018-Jun-23 19:59N 41°13' E 001°47'5968550920.5
2018-Jun-23 19:59N 24°18' E 118°20'271817.2
2018-Jun-23 19:58N 24°25' E 117°51'810224269.3
2018-Jun-23 19:58N 37°34' E 121°25'806483408.9
2018-Jun-23 19:57N 24°27' E 118°04'654957.3
2018-Jun-23 19:57N 23°33' E 117°26'155052136.6
2018-Jun-23 19:55N 01°28' E 103°43'206784567.9
2018-Jun-23 19:53N 31°58' E 120°25'0 1.1
2018-Jun-23 19:46N 31°58' E 120°26'122.7
2018-Jun-23 19:45N 31°59' E 120°26'47957524.5
2018-Jun-23 19:44N 24°15' E 118°09'601032.3
2018-Jun-23 19:41N 23°37' E 117°18'82767.8
2018-Jun-23 19:34N 24°25' E 118°31'671227.3
2018-Jun-23 19:31N 23°42' E 117°35'4594459388.2
2018-Jun-23 19:30N 44°09' E 028°40'4396565194.0
2018-Jun-23 19:30N 31°59' E 120°26'529119118.1
2018-Jun-23 19:30N 23°36' E 117°18'1549242392.4
2018-Jun-23 19:29N 01°28' E 103°43'1608827075.9
2018-Jun-23 19:29N 24°16' E 118°09'595996207.1
2018-Jun-23 19:26N 41°13' E 001°48'59722687311.0
2018-Jun-23 19:25N 24°25' E 118°32'3712122.3
2018-Jun-23 19:25N 24°25' E 117°51'81078797.3
2018-Jun-23 19:25N 37°34' E 121°25'863124288.0
2018-Jun-23 19:24N 23°36' E 117°27'52720398.9
2018-Jun-23 19:23N 31°58' E 120°27'1617.2
2018-Jun-23 19:22N 31°58' E 120°26'46825155.1
2018-Jun-23 19:21N 24°27' E 118°04'594352698.5
2018-Jun-23 19:15N 41°13' E 001°53'596091689.4
2018-Jun-23 19:11N 23°39' E 117°43'15649216.0
2018-Jun-23 19:01N 01°28' E 103°43'48785853216.2
2018-Jun-23 19:00N 44°09' E 028°40'4597973390.0
2018-Jun-23 19:00N 24°19' E 118°10'5957306380.3
2018-Jun-23 18:59N 41°13' E 001°49'5741898537.5
2018-Jun-23 18:59N 31°59' E 120°26'11705.2
2018-Jun-23 18:59N 31°58' E 120°27'47334065.2
2018-Jun-23 18:58N 24°25' E 117°51'810242958.4
2018-Jun-23 18:58N 37°34' E 121°25'806241702.7
2018-Jun-23 18:57N 24°27' E 118°04'686150.9
2018-Jun-23 18:57N 23°33' E 117°19'232756.9
2018-Jun-23 18:56N 23°39' E 117°43'5960115362.7
2018-Jun-23 18:53N 41°12' E 001°52'595132557.9
2018-Jun-23 18:42N 23°39' E 117°31'459323585.6
2018-Jun-23 18:30N 44°09' E 028°40'48785853218.8
2018-Jun-23 18:30N 01°28' E 103°43'2387452229.6
2018-Jun-23 18:30N 37°34' E 121°25'810972034.6
2018-Jun-23 18:30N 24°22' E 118°08'5952319835.4
2018-Jun-23 18:29N 41°13' E 001°50'5936305292.0
2018-Jun-23 18:28N 24°25' E 117°51'121774.0
2018-Jun-23 18:27N 24°27' E 118°04'5945203835.4
2018-Jun-23 18:26N 41°13' E 001°51'595339906.5
2018-Jun-23 18:17N 23°41' E 117°33'89213.4
2018-Jun-23 18:17N 23°38' E 117°41'52221337.9
2018-Jun-23 18:15N 31°59' E 120°26'123.0
2018-Jun-23 18:14N 31°58' E 120°26'439620210.3
2018-Jun-23 18:00N 44°09' E 028°40'45862358582.3
2018-Jun-23 18:00N 24°27' E 118°04'24178.7
2018-Jun-23 18:00N 24°25' E 118°05'5115313.0
2018-Jun-23 18:00N 23°42' E 117°35'8561540456.3
2018-Jun-23 18:00N 37°34' E 121°25'339305354.9
2018-Jun-23 18:00N 31°58' E 120°26'53065777.8
2018-Jun-23 18:00N 23°33' E 117°25'1550232435.4
2018-Jun-23 17:59N 01°28' E 103°43'2066218732.6
2018-Jun-23 17:59N 30°59' E 122°10'10734884.1
2018-Jun-23 17:58N 31°59' E 120°26'47443713.3
2018-Jun-23 17:58N 24°25' E 117°51'491385.9
2018-Jun-23 17:56N 23°37' E 117°41'12188.2
2018-Jun-23 17:52N 23°31' E 117°29'459612947.6
2018-Jun-23 17:30N 44°09' E 028°40'4396930898.4
2018-Jun-23 17:30N 31°59' E 120°26'470846366.7
2018-Jun-23 17:30N 24°27' E 118°00'1612252355.3
2018-Jun-23 17:30N 01°28' E 103°43'160720882.5
2018-Jun-23 17:25N 24°25' E 117°51'4741706204.7
2018-Jun-23 17:25N 31°59' E 120°27'33920656.9
2018-Jun-23 17:24N 37°34' E 121°25'339203566.3
2018-Jun-23 17:24N 31°58' E 120°26'53039773.9
2018-Jun-23 17:23N 23°31' E 117°30'53050249.3
2018-Jun-23 17:23N 31°58' E 120°27'46822179.5
2018-Jun-23 17:21N 24°27' E 118°04'449323121.9
2018-Jun-23 17:21N 31°03' E 122°04'1002038.7
2018-Jun-23 17:18N 31°59' E 120°26'1 5.7
2018-Jun-23 17:08N 31°58' E 120°25'439633036.1
2018-Jun-23 17:00N 44°09' E 028°40'42271690995.5
2018-Jun-23 17:00N 37°34' E 121°25'339174485.4
2018-Jun-23 17:00N 31°58' E 120°26'1363.3
2018-Jun-23 17:00N 31°59' E 120°26'033.9
2018-Jun-23 17:00N 31°59' E 120°26'9613862.8
2018-Jun-23 16:59N 31°05' E 121°60'9787006.9
2018-Jun-23 16:59N 31°58' E 120°25'2067161779.2
2018-Jun-23 16:58N 01°28' E 103°43'1612322305.6
2018-Jun-23 16:58N 24°27' E 117°57'6857.9
2018-Jun-23 16:58N 24°25' E 117°51'4735566.2
2018-Jun-23 16:53N 31°58' E 120°27'112.6
2018-Jun-23 16:46N 31°58' E 120°25'961522.5
2018-Jun-23 16:42N 31°06' E 121°60'96493.0
2018-Jun-23 16:31N 31°58' E 120°25'43963956044.7
2018-Jun-23 16:30N 44°09' E 028°40'43961978207.8
2018-Jun-23 16:30N 31°59' E 120°26'9121825.1
2018-Jun-23 16:30N 31°08' E 121°55'91164161.9
2018-Jun-23 16:30N 31°58' E 120°26'1102.5
2018-Jun-23 16:30N 31°59' E 120°26'34043773.6
2018-Jun-23 16:29N 37°36' E 121°27'23892149746.4
2018-Jun-23 16:29N 01°28' E 103°43'2066212547.3
2018-Jun-23 16:29N 31°05' E 122°00'45258154.7
2018-Jun-23 16:28N 24°27' E 117°57'6895.2
2018-Jun-23 16:28N 24°25' E 117°51'47313306.7
2018-Jun-23 16:26N 31°58' E 120°27'174.3
2018-Jun-23 16:25N 31°58' E 120°25'345861.5
2018-Jun-23 16:00N 37°39' E 121°27'422615212514.1
2018-Jun-23 16:00N 44°09' E 028°40'4396416455.1
2018-Jun-23 16:00N 31°59' E 120°26'47016270.0
2018-Jun-23 15:58N 24°27' E 117°57'16125801611.8
2018-Jun-23 15:58N 01°28' E 103°43'1607262934.1
2018-Jun-23 15:58N 24°25' E 117°51'47313517.9
2018-Jun-23 15:56N 31°58' E 120°27'141.6
2018-Jun-23 15:54N 31°59' E 120°26'842137.4
2018-Jun-23 15:52N 31°12' E 121°49'852400.1
2018-Jun-23 15:50N 31°58' E 120°25'0 3.1
2018-Jun-23 15:47N 31°58' E 120°26'1073382.6
2018-Jun-23 15:45N 30°59' E 122°10'20668688.7
2018-Jun-23 15:30N 01°28' E 103°43'487817559828.2
2018-Jun-23 15:30N 44°09' E 028°40'43961978163.8
2018-Jun-23 15:30N 31°59' E 120°26'0576.2
2018-Jun-23 15:30N 31°59' E 120°26'168.9
2018-Jun-23 15:30N 31°58' E 120°25'011.9
2018-Jun-23 15:29N 31°58' E 120°26'47330409.7
2018-Jun-23 15:28N 24°25' E 117°51'684.4
2018-Jun-23 15:24N 24°27' E 117°57'4499290.2
2018-Jun-23 15:21N 30°57' E 122°10'107635.4
2018-Jun-23 15:11N 31°58' E 120°27'111808.5
2018-Jun-23 15:02N 30°57' E 122°16'1123636.4
2018-Jun-23 15:01N 31°59' E 120°26'43967912655.2
2018-Jun-23 15:00N 44°09' E 028°40'43961582570.1
2018-Jun-23 15:00N 31°59' E 120°26'440158339.8
2018-Jun-23 15:00N 24°49' E 118°42'439263564.0
2018-Jun-23 15:00N 31°58' E 120°26'2067240076.3
2018-Jun-23 15:00N 01°28' E 103°43'2068338350.7
2018-Jun-23 14:59N 31°58' E 120°27'5734299190.3
2018-Jun-23 14:58N 41°14' E 001°57'59301334228.5
2018-Jun-23 14:58N 24°25' E 117°51'47342562.8
2018-Jun-23 14:57N 31°58' E 120°25'4698243.1
2018-Jun-23 14:54N 24°27' E 117°57'45112997.6
2018-Jun-23 14:52N 30°57' E 122°14'452012853.5
2018-Jun-23 14:30N 44°09' E 028°40'43961217329.2
2018-Jun-23 14:30N 31°59' E 120°26'1168.8
2018-Jun-23 14:30N 31°58' E 120°26'93051339917.9
2018-Jun-23 14:30N 41°15' W 072°26'93053721988.9
2018-Jun-23 14:29N 31°58' E 120°25'206787552.1
2018-Jun-23 14:28N 01°28' E 103°43'61671168413.3
2018-Jun-23 14:28N 41°15' E 001°58'573466799.2
2018-Jun-23 14:23N 31°58' E 120°27'4708050.2
2018-Jun-23 14:19N 24°27' E 117°57'4414930.1
2018-Jun-23 14:14N 30°49' E 122°07'452020469.1
2018-Jun-23 14:00N 44°09' E 028°40'4396608643.8
2018-Jun-23 14:00N 31°58' E 120°26'1740.9
2018-Jun-23 14:00N 31°59' E 120°26'47084606.2
2018-Jun-23 14:00N 24°27' E 117°57'965411585315.1
2018-Jun-23 14:00N 41°14' W 072°32'101342280254.6
2018-Jun-23 13:59N 01°28' E 103°43'160760888.1
2018-Jun-23 13:58N 24°25' E 117°51'5928395209.4
2018-Jun-23 13:57N 41°15' E 001°59'5834583350.7
2018-Jun-23 13:56N 22°18' E 114°09'6701733.8
2018-Jun-23 13:33N 31°58' E 120°26'4396102098.5
2018-Jun-23 13:30N 44°09' E 028°40'4880585611.5
2018-Jun-23 13:30N 01°17' E 103°36'121345.5
2018-Jun-23 13:29N 01°28' E 103°43'61657398202.4
2018-Jun-23 13:29N 41°15' E 002°00'5731859622.8
2018-Jun-23 13:29N 31°59' E 120°26'057.6
2018-Jun-23 13:29N 31°58' E 120°26'47062616.5
2018-Jun-23 13:28N 24°27' E 117°57'6980.1
2018-Jun-23 13:28N 24°25' E 117°51'121637.5
2018-Jun-23 13:27N 24°27' E 118°04'4683728.7
2018-Jun-23 13:20N 31°58' E 120°26'110624.4
2018-Jun-23 13:09N 30°44' E 122°00'111734.2
2018-Jun-23 13:00N 32°01' E 120°27'4395687923.6
2018-Jun-23 13:00N 44°09' E 028°40'4878532122.5
2018-Jun-23 12:59N 01°28' E 103°43'6164280908.8
2018-Jun-23 12:58N 41°15' E 002°01'59261777940.9
2018-Jun-23 12:58N 24°25' E 117°51'43771590.6
2018-Jun-23 12:57N 30°44' E 121°59'1094098.3
2018-Jun-23 12:56N 31°58' E 120°26'47037560.4
2018-Jun-23 12:55N 24°27' E 117°57'49245.2
2018-Jun-23 12:43N 23°40' E 117°44'15667557.4
2018-Jun-23 12:31N 01°27' E 103°42'61631232600.0
2018-Jun-23 12:30N 41°16' E 002°02'57301213345.6
2018-Jun-23 12:30N 31°59' E 120°27'43971978426.3
2018-Jun-23 12:30N 44°09' E 028°40'43961582542.6
2018-Jun-23 12:30N 31°59' E 120°26'47414697.0
2018-Jun-23 12:28N 24°25' E 117°51'47370938.5
2018-Jun-23 12:27N 31°58' E 120°25'0 5.0
2018-Jun-23 12:26N 31°58' E 120°26'47035962.1
2018-Jun-23 12:25N 24°27' E 117°57'50372.3
2018-Jun-23 12:17N 23°39' E 117°43'460216785.6
2018-Jun-23 12:00N 44°09' E 028°40'46023313101.7
2018-Jun-23 12:00N 23°39' E 117°42'5950578941.3
2018-Jun-23 12:00N 41°16' E 002°03'5928201332.3
2018-Jun-23 11:58N 24°27' E 117°57'61143.5
2018-Jun-23 11:58N 24°25' E 117°51'161292142.8
2018-Jun-23 11:57N 01°23' E 103°39'2074219553.6
2018-Jun-23 11:56N 31°59' E 120°26'109707.3
2018-Jun-23 11:47N 30°39' E 121°53'1092185.8
2018-Jun-23 11:44N 31°58' E 120°26'0 1.7
2018-Jun-23 11:39N 31°58' E 120°25'439629857.7
2018-Jun-23 11:30N 44°09' E 028°40'5920183710.8
2018-Jun-23 11:29N 10°16' W 075°31'111121250114.3
2018-Jun-23 11:28N 24°27' E 117°57'61143.5
2018-Jun-23 11:28N 24°25' E 117°51'47426228.5
2018-Jun-23 11:27N 31°59' E 120°26'2078249311.5
2018-Jun-23 11:26N 01°20' E 103°37'2077467318.2
2018-Jun-23 11:26N 31°58' E 120°26'5165684.6
2018-Jun-23 11:20N 23°42' E 117°44'594888845.8
2018-Jun-23 11:16N 41°16' E 002°04'5545116740.1
2018-Jun-23 11:14N 36°02' E 120°13'423019449.4
2018-Jun-23 11:00N 44°09' E 028°40'48804392415.3
2018-Jun-23 11:00N 01°17' E 103°36'2081111803.4
2018-Jun-23 10:59N 31°59' E 120°26'51534325.5
2018-Jun-23 10:58N 23°44' E 117°44'423483.5
2018-Jun-23 10:58N 24°25' E 117°51'59231523089.8
2018-Jun-23 10:57N 41°16' E 002°05'5926144156.1
2018-Jun-23 10:55N 24°27' E 117°57'6108.5
2018-Jun-23 10:52N 24°25' E 117°52'443132925.0
2018-Jun-23 10:52N 30°47' E 122°05'5871315441.2
2018-Jun-23 10:51N 41°14' E 001°49'555850526.4
2018-Jun-23 10:44N 36°02' E 120°14'2442863.9
2018-Jun-23 10:39N 31°58' E 120°26'46810806.7
2018-Jun-23 10:36N 24°27' E 118°04'458647717.0
2018-Jun-23 10:30N 44°09' E 028°40'48832197371.7
2018-Jun-23 10:30N 01°13' E 103°36'1631978606.6
2018-Jun-23 10:30N 24°27' E 118°04'6500.9
2018-Jun-23 10:29N 24°27' E 117°57'4230387.0
2018-Jun-23 10:29N 23°47' E 117°45'5944267488.3
2018-Jun-23 10:28N 41°17' E 002°05'59297114345.8
2018-Jun-23 10:28N 24°24' E 117°58'474100336.3
2018-Jun-23 10:28N 31°59' E 120°27'474853710.5
2018-Jun-23 10:28N 24°25' E 117°51'4575175.9
2018-Jun-23 10:22N 31°09' E 121°53'4544096.7
2018-Jun-23 10:16N 24°21' E 118°09'4743892.7
2018-Jun-23 10:08N 31°59' E 120°26'120.5
2018-Jun-23 10:06N 31°58' E 120°25'11044621221.7
2018-Jun-23 10:05N 10°16' W 075°31'109093020886.3
2018-Jun-23 10:05N 36°02' E 120°13'423057685.3
2018-Jun-23 10:00N 44°09' E 028°40'45931033322.6
2018-Jun-23 10:00N 24°22' E 118°08'610921.7
2018-Jun-23 10:00N 24°27' E 118°04'427896.5
2018-Jun-23 10:00N 23°49' E 117°45'59577147822.6
2018-Jun-23 10:00N 41°14' E 001°49'5940971970.0
2018-Jun-23 09:59N 24°27' E 117°57'1628234389.8
2018-Jun-23 09:59N 01°11' E 103°40'162373034.0
2018-Jun-23 09:58N 24°25' E 117°51'457274138.0
2018-Jun-23 09:58N 31°07' E 121°57'171045.5
2018-Jun-23 09:57N 30°53' E 122°08'10912681.8
2018-Jun-23 09:56N 31°58' E 120°25'46849517.8
2018-Jun-23 09:55N 24°28' E 118°04'5930237202.7
2018-Jun-23 09:54N 41°17' E 002°06'4588351446.8
2018-Jun-23 09:53N 10°16' W 075°31'11044371586.0
2018-Jun-23 09:51N 31°59' E 120°26'4404008.1
2018-Jun-23 09:45N 24°49' E 118°42'44248168.2
2018-Jun-23 09:44N 32°01' E 120°27'2123.1
2018-Jun-23 09:43N 31°58' E 120°27'5356002.2
2018-Jun-23 09:38N 23°20' E 117°56'462537930.9
2018-Jun-23 09:30N 44°09' E 028°40'48911956510.6
2018-Jun-23 09:30N 01°09' E 103°43'2084750392.9
2018-Jun-23 09:30N 31°58' E 120°27'468562129.2
2018-Jun-23 09:30N 24°27' E 118°04'61349.7
2018-Jun-23 09:30N 24°24' E 117°58'72976.4
2018-Jun-23 09:30N 24°24' E 118°05'81443.5
2018-Jun-23 09:29N 24°27' E 117°57'470846088.7
2018-Jun-23 09:29N 31°59' E 120°26'969608.0
2018-Jun-23 09:29N 31°06' E 122°00'959515.1
2018-Jun-23 09:28N 31°58' E 120°27'57251374079.7
2018-Jun-23 09:28N 41°17' E 002°07'59211776258.9
2018-Jun-23 09:28N 24°25' E 117°51'6423206.6
2018-Jun-23 09:28N 23°21' E 117°55'50921802.2
2018-Jun-23 09:26N 30°56' E 122°09'5867111173.1
2018-Jun-23 09:23N 41°14' E 001°49'598024215.2
2018-Jun-23 09:08N 23°23' E 117°50'40431.7
2018-Jun-23 09:03N 23°31' E 117°07'421187.9
2018-Jun-23 09:01N 23°24' E 117°52'15682822765.8
2018-Jun-23 09:00N 01°10' E 103°47'162583551.9
2018-Jun-23 08:59N 24°27' E 117°57'47040289.9
2018-Jun-23 08:59N 31°59' E 120°26'53453367.1
2018-Jun-23 08:58N 23°24' E 117°49'6211103.3
2018-Jun-23 08:58N 24°25' E 117°51'592010656219.5
2018-Jun-23 08:58N 41°17' E 002°08'5928188871.7
2018-Jun-23 08:56N 24°25' E 118°01'70829618.5
2018-Jun-23 08:54N 36°03' E 120°19'705181340.7
2018-Jun-23 08:54N 24°27' E 118°04'706211747.3
2018-Jun-23 08:54N 36°03' E 120°23'24415708.3
2018-Jun-23 08:53N 31°58' E 120°26'110443313204.5
2018-Jun-23 08:53N 10°16' W 075°31'11171243733.1
2018-Jun-23 08:50N 30°46' E 122°04'587121347.5
2018-Jun-23 08:34N 41°14' E 001°49'119723805.3
2018-Jun-23 08:30N 44°09' E 028°40'46151661388.6
2018-Jun-23 08:30N 23°27' E 117°49'6215927.0
2018-Jun-23 08:30N 24°27' E 118°04'16241948563.0
2018-Jun-23 08:30N 01°12' E 103°52'15635628577.1
2018-Jun-23 08:30N 23°26' E 117°46'624739.9
2018-Jun-23 08:29N 24°27' E 117°57'6219.0
2018-Jun-23 08:28N 24°25' E 117°51'7099016.2
2018-Jun-23 08:23N 36°03' E 120°18'109132182555.3
2018-Jun-23 08:23N 10°16' W 075°31'45905508506.2
2018-Jun-23 08:23N 41°18' E 002°09'572386560.6
2018-Jun-23 08:19N 31°59' E 120°26'1104946629.2
2018-Jun-23 08:04N 10°09' W 075°30'111733351937.6
2018-Jun-23 08:04N 31°03' E 122°11'49711249.7
2018-Jun-23 08:02N 23°46' E 117°45'4599247109.1
2018-Jun-23 08:00N 44°09' E 028°40'4586660403.0
2018-Jun-23 08:00N 24°27' E 118°04'596109.6
2018-Jun-23 07:59N 23°30' E 117°46'1112840061021.3
2018-Jun-23 07:59N 10°09' W 075°30'107269653438.8
2018-Jun-23 07:59N 01°14' E 103°56'15621874132.5
2018-Jun-23 07:59N 23°30' E 117°44'5926462.6
2018-Jun-23 07:59N 24°27' E 117°57'706317595.1
2018-Jun-23 07:59N 36°03' E 120°18'5544464110.7
2018-Jun-23 07:58N 41°18' E 002°09'5919519692.9
2018-Jun-23 07:58N 24°25' E 117°51'459275171.5
2018-Jun-23 07:58N 31°02' E 122°11'101015.0
2018-Jun-23 07:57N 30°52' E 122°09'1107088.2
2018-Jun-23 07:56N 31°58' E 120°26'11044193943.6
2018-Jun-23 07:53N 10°16' W 075°31'1104465394.2
2018-Jun-23 07:42N 31°59' E 120°26'574029520.4
2018-Jun-23 07:31N 41°14' E 001°49'1197226790.8
2018-Jun-23 07:30N 44°09' E 028°40'46068291072.8
2018-Jun-23 07:30N 23°34' E 117°44'0602.1
2018-Jun-23 07:30N 23°33' E 117°43'1561281063.1
2018-Jun-23 07:30N 01°15' E 103°60'1617166342.3
2018-Jun-23 07:29N 24°27' E 118°04'469105463.2
2018-Jun-23 07:29N 31°59' E 120°26'470282033.0
2018-Jun-23 07:29N 24°27' E 117°57'4756534.8
2018-Jun-23 07:29N 23°43' E 117°41'5940737407.2
2018-Jun-23 07:29N 41°18' E 002°10'58501914457.5
2018-Jun-23 07:28N 30°55' E 122°10'1117440227994.5
2018-Jun-23 07:28N 10°12' W 075°31'107107711133.9
2018-Jun-23 07:28N 01°11' E 103°39'1623153773.9
2018-Jun-23 07:28N 24°25' E 117°51'47317201.0
2018-Jun-23 07:26N 31°58' E 120°26'24551824.9
2018-Jun-23 07:26N 36°03' E 120°18'10913129231.6
2018-Jun-23 07:21N 10°16' W 075°31'11173169720.1
2018-Jun-23 07:17N 30°60' E 122°14'31811231.0
2018-Jun-23 07:15N 36°03' E 120°18'70918493.8
2018-Jun-23 07:13N 24°25' E 117°51'44313073.7
2018-Jun-23 07:11N 30°47' E 122°06'1168.7
2018-Jun-23 07:01N 30°46' E 121°53'4511902223.4
2018-Jun-23 07:00N 44°09' E 028°40'46025522264.6
2018-Jun-23 07:00N 23°37' E 117°42'52246992.5
2018-Jun-23 07:00N 31°59' E 120°26'110198073.0
2018-Jun-23 07:00N 30°58' E 122°14'2083416694.8
2018-Jun-23 06:59N 01°10' E 103°42'1628225474.9
2018-Jun-23 06:59N 24°23' E 118°06'433119805.1
2018-Jun-23 06:59N 30°47' E 121°53'484174405.3
2018-Jun-23 06:59N 23°37' E 117°40'493108.5
2018-Jun-23 06:58N 24°25' E 117°51'64118.1
2018-Jun-23 06:58N 24°27' E 117°57'1611131804.2
2018-Jun-23 06:57N 01°16' E 104°04'2068155122.7
2018-Jun-23 06:56N 31°58' E 120°26'52062398.5
2018-Jun-23 06:56N 23°40' E 117°38'5938115554.7
2018-Jun-23 06:52N 41°19' E 002°10'5846584628.0
2018-Jun-23 06:52N 30°59' E 122°10'4534671.7
2018-Jun-23 06:46N 24°24' E 117°59'11115434953.7
2018-Jun-23 06:45N 10°15' W 075°31'1115361298.2
2018-Jun-23 06:34N 31°07' E 121°55'4518814.4
2018-Jun-23 06:31N 24°26' E 118°03'45855502190.9
2018-Jun-23 06:30N 44°09' E 028°40'45211085134.5
2018-Jun-23 06:30N 30°57' E 122°15'501601661.8
2018-Jun-23 06:30N 23°40' E 117°38'5201871242.8
2018-Jun-23 06:30N 31°58' E 120°26'1142.5
2018-Jun-23 06:30N 31°59' E 120°26'5720895380.2
2018-Jun-23 06:29N 41°19' E 002°11'59387125553.7
2018-Jun-23 06:29N 23°40' E 117°38'507894.5
2018-Jun-23 06:29N 24°27' E 117°57'45138661.0
2018-Jun-23 06:28N 31°00' E 122°07'2080935947.3
2018-Jun-23 06:28N 01°10' E 103°46'1621171609.8
2018-Jun-23 06:28N 24°25' E 117°51'160475956.3
2018-Jun-23 06:26N 01°17' E 104°08'155570854.0
2018-Jun-23 06:25N 23°38' E 117°35'595674715.1
2018-Jun-23 06:20N 41°14' E 001°49'5740155365.5
2018-Jun-23 06:18N 31°58' E 120°26'1115319.1
2018-Jun-23 06:17N 30°52' E 122°10'3247736.0
2018-Jun-23 06:14N 36°03' E 120°19'423418364.5
2018-Jun-23 06:00N 44°09' E 028°40'45235427119.9
2018-Jun-23 06:00N 30°56' E 122°15'4991795453.8
2018-Jun-23 06:00N 23°44' E 117°35'0105.5
2018-Jun-23 06:00N 23°44' E 117°35'87128.0
2018-Jun-23 06:00N 23°36' E 117°32'56100170.6
2018-Jun-23 06:00N 24°25' E 118°01'47139467.4
2018-Jun-23 05:59N 31°59' E 120°26'2080299466.1
2018-Jun-23 05:59N 01°11' E 103°50'16222920087.7
2018-Jun-23 05:59N 24°27' E 117°57'47123561.3
2018-Jun-23 05:58N 31°60' E 120°27'475244161.7
2018-Jun-23 05:58N 24°25' E 117°51'160128248.2
2018-Jun-23 05:54N 01°18' E 104°12'6206245494.3
2018-Jun-23 05:53N 41°14' E 001°49'555891366.9
2018-Jun-23 05:49N 36°02' E 120°14'32277289.0
2018-Jun-23 05:49N 30°55' E 122°10'11172321761.1
2018-Jun-23 05:47N 10°16' W 075°31'135.3
2018-Jun-23 05:45N 10°15' W 075°31'1116188304.9
2018-Jun-23 05:38N 31°04' E 122°02'4984105.1
2018-Jun-23 05:31N 23°45' E 117°35'45915509227.1
2018-Jun-23 05:30N 44°09' E 028°40'45171626230.3
2018-Jun-23 05:30N 30°57' E 122°10'10848519.2
2018-Jun-23 05:30N 31°59' E 120°26'516109256.2
2018-Jun-23 05:30N 23°46' E 117°35'1573435496.4
2018-Jun-23 05:30N 01°13' E 103°53'107249651708.2
2018-Jun-23 05:30N 10°16' W 075°31'11112975699.5
2018-Jun-23 05:29N 24°27' E 117°57'451203174.5
2018-Jun-23 05:29N 31°04' E 122°00'45623784.9
2018-Jun-23 05:28N 24°25' E 117°51'111072221491.1
2018-Jun-23 05:27N 10°16' W 075°31'11107563181.0
2018-Jun-23 05:26N 23°34' E 117°28'1543222221.0
2018-Jun-23 05:26N 01°19' E 104°15'2056145156.4
2018-Jun-23 05:25N 30°54' E 122°16'11340752.4
2018-Jun-23 05:25N 31°59' E 120°26'1032200.3
2018-Jun-23 05:22N 31°02' E 122°07'103626.2
2018-Jun-23 05:12N 31°58' E 120°26'5740166652.6
2018-Jun-23 05:10N 41°14' E 001°49'5549199778.3
2018-Jun-23 05:08N 37°33' E 121°24'98815072.6
2018-Jun-23 05:04N 22°19' E 114°09'448568713.6
2018-Jun-23 05:00N 44°09' E 028°40'45255429554.6
2018-Jun-23 05:00N 30°53' E 122°16'114102878.1
2018-Jun-23 05:00N 31°59' E 120°26'516206482.6
2018-Jun-23 05:00N 23°45' E 117°35'048.5
2018-Jun-23 05:00N 23°46' E 117°35'8501020460.9
2018-Jun-23 05:00N 37°33' E 121°24'2392410092.7
2018-Jun-23 04:59N 01°14' E 103°57'2073392860.3
2018-Jun-23 04:59N 31°58' E 120°26'47093902.2
2018-Jun-23 04:59N 24°27' E 117°57'625333.5
2018-Jun-23 04:58N 23°32' E 117°26'59543572132.7
2018-Jun-23 04:58N 41°14' E 001°49'5937822073.2
2018-Jun-23 04:58N 24°25' E 117°51'45639082.5
2018-Jun-23 04:57N 31°00' E 122°09'205590232.4
2018-Jun-23 04:56N 01°20' E 104°19'2055147980.2
2018-Jun-23 04:55N 31°02' E 122°07'11341.1
2018-Jun-23 04:53N 31°07' E 121°55'67210386.7
2018-Jun-23 04:49N 22°19' E 114°09'10947555062.6
2018-Jun-23 04:48N 10°16' W 075°31'11156313774.1
2018-Jun-23 04:46N 30°50' E 121°51'32210943.5
2018-Jun-23 04:44N 36°03' E 120°19'2452010.1
2018-Jun-23 04:36N 31°58' E 120°26'5165169.4
2018-Jun-23 04:30N 23°46' E 117°35'45918263609.2
2018-Jun-23 04:30N 44°09' E 028°40'45802355576.7
2018-Jun-23 04:30N 24°27' E 117°57'47168667.1
2018-Jun-23 04:30N 23°45' E 117°35'18506.5
2018-Jun-23 04:28N 23°31' E 117°23'617285.2
2018-Jun-23 04:28N 24°25' E 117°51'439395478.4
2018-Jun-23 04:28N 30°50' E 121°51'32237373.8
2018-Jun-23 04:27N 36°03' E 120°18'24462737.0
2018-Jun-23 04:27N 31°59' E 120°26'24417241.3
2018-Jun-23 04:26N 36°03' E 120°19'2270544734.9
2018-Jun-23 04:26N 01°23' E 104°21'2052335807.8
2018-Jun-23 04:25N 31°00' E 122°09'10512573.2
2018-Jun-23 04:25N 31°58' E 120°26'11045258187.6
2018-Jun-23 04:22N 10°16' W 075°31'11171731189.8
2018-Jun-23 04:21N 30°58' E 122°10'11170343707.4
2018-Jun-23 04:19N 10°17' W 075°31'11107512632.0
2018-Jun-23 04:18N 24°26' E 117°51'7109862.3
2018-Jun-23 04:14N 36°03' E 120°19'113.3
2018-Jun-23 04:09N 36°03' E 120°18'1 7.0
2018-Jun-23 04:01N 36°03' E 120°19'752208162.6
2018-Jun-23 04:00N 23°45' E 117°35'064.7
2018-Jun-23 04:00N 23°46' E 117°35'45911101813.8
2018-Jun-23 04:00N 44°09' E 028°40'4396427709.9
2018-Jun-23 03:59N 31°59' E 120°26'47060433.0
2018-Jun-23 03:59N 24°27' E 117°57'6307.3
2018-Jun-23 03:58N 24°25' E 117°51'456410515.6
2018-Jun-23 03:58N 31°02' E 122°07'52033413.8
2018-Jun-23 03:57N 23°29' E 117°20'536275475.9
2018-Jun-23 03:56N 31°58' E 120°26'110455680475.3
2018-Jun-23 03:56N 10°15' W 075°31'10735351316.9
2018-Jun-23 03:55N 01°16' E 104°04'160869756.5
2018-Jun-23 03:53N 24°24' E 117°58'45133128.7
2018-Jun-23 03:52N 30°56' E 122°10'32152523.7
2018-Jun-23 03:52N 36°03' E 120°19'31915288.5
2018-Jun-23 03:51N 30°58' E 122°10'5867377180.3
2018-Jun-23 03:50N 41°14' E 001°49'585363660.6
2018-Jun-23 03:44N 31°05' E 121°59'3096553.9
2018-Jun-23 03:41N 36°03' E 120°18'011.8
2018-Jun-23 03:39N 36°03' E 120°18'1043241.1
2018-Jun-23 03:37N 37°32' E 121°26'1093945.9
2018-Jun-23 03:35N 36°01' E 120°13'6166.4
2018-Jun-23 03:33N 36°03' E 120°19'2455061.8
2018-Jun-23 03:30N 31°59' E 120°26'470141024.9
2018-Jun-23 03:30N 24°27' E 117°58'4721126.7
2018-Jun-23 03:30N 23°45' E 117°35'851765829.4
2018-Jun-23 03:30N 37°33' E 121°25'39862309.9
2018-Jun-23 03:30N 30°57' E 122°10'446535708.8
2018-Jun-23 03:30N 24°27' E 118°03'738525.7
2018-Jun-23 03:29N 23°27' E 117°17'252459.7
2018-Jun-23 03:29N 23°46' E 117°35'422831.1
2018-Jun-23 03:28N 24°25' E 117°51'47334756.1
2018-Jun-23 03:27N 31°58' E 120°26'2066106266.9
2018-Jun-23 03:26N 01°17' E 104°08'2279911758.7
2018-Jun-23 03:25N 36°03' E 120°18'166.0
2018-Jun-23 03:24N 36°03' E 120°19'160.3
2018-Jun-23 03:24N 36°03' E 120°19'114.0
2018-Jun-23 03:21N 36°03' E 120°18'24519568.5
2018-Jun-23 03:20N 31°58' E 120°26'473113439.1
2018-Jun-23 03:20N 24°22' E 118°07'71118270.3
2018-Jun-23 03:18N 36°03' E 120°19'3179835.4
2018-Jun-23 03:16N 30°60' E 122°10'11170550863.8
2018-Jun-23 03:14N 10°15' W 075°31'1091090496.0
2018-Jun-23 03:07N 36°01' E 120°13'10909431567.8
2018-Jun-23 03:06N 10°16' W 075°31'457488046.2
2018-Jun-23 03:03N 41°14' E 001°49'5548157260.9
2018-Jun-23 03:01N 37°35' E 121°24'42257605771.4
2018-Jun-23 03:00N 44°09' E 028°40'45914131779.6
2018-Jun-23 03:00N 23°46' E 117°35'0161.8
2018-Jun-23 03:00N 23°45' E 117°35'516464525.3
2018-Jun-23 03:00N 31°59' E 120°26'110441590382.0
2018-Jun-23 03:00N 10°16' W 075°31'172.2
2018-Jun-23 02:59N 10°15' W 075°31'111215004631.0
2018-Jun-23 02:59N 24°25' E 118°05'44921854.9
2018-Jun-23 02:58N 30°59' E 122°11'455163892.7
2018-Jun-23 02:58N 24°25' E 117°51'45010733.4
2018-Jun-23 02:55N 30°53' E 122°09'20561850289.9
2018-Jun-23 02:55N 01°17' E 104°11'227838323.6
2018-Jun-23 02:51N 36°03' E 120°19'143.4
2018-Jun-23 02:50N 36°03' E 120°18'326146915.9
2018-Jun-23 02:50N 30°50' E 122°07'32745209.7
2018-Jun-23 02:50N 36°03' E 120°18'112.3
2018-Jun-23 02:44N 36°03' E 120°19'6337.5
2018-Jun-23 02:43N 36°01' E 120°13'423120722.2
2018-Jun-23 02:30N 44°09' E 028°40'459116527581.1
2018-Jun-23 02:30N 23°45' E 117°35'4988559.7
2018-Jun-23 02:30N 24°26' E 118°05'499274.8
2018-Jun-23 02:30N 23°46' E 117°35'516265304.7
2018-Jun-23 02:30N 31°59' E 120°26'33934908.3
2018-Jun-23 02:29N 37°35' E 121°24'109241709874.7
2018-Jun-23 02:29N 10°15' W 075°31'111211334497.2
2018-Jun-23 02:29N 24°25' E 118°05'16062890953.4
2018-Jun-23 02:28N 01°18' E 104°15'1600174526.6
2018-Jun-23 02:28N 24°25' E 117°51'706169469.0
2018-Jun-23 02:28N 36°01' E 120°13'32126836.7
2018-Jun-23 02:27N 30°56' E 122°12'10990.2
2018-Jun-23 02:26N 30°47' E 122°06'44316984.3
2018-Jun-23 02:25N 24°25' E 117°51'301898.6
2018-Jun-23 02:24N 24°23' E 118°24'70714718.7
2018-Jun-23 02:21N 36°03' E 120°18'0 5.6
2018-Jun-23 02:18N 36°03' E 120°18'10912633628.3
2018-Jun-23 02:17N 10°16' W 075°31'11044118328.7
2018-Jun-23 02:11N 31°58' E 120°26'1111245.1
2018-Jun-23 02:06N 30°49' E 122°07'1111351.9
2018-Jun-23 02:01N 31°58' E 120°26'51656245.6
2018-Jun-23 02:00N 23°45' E 117°35'459116527448.1
2018-Jun-23 02:00N 44°09' E 028°40'45218137069.6
2018-Jun-23 02:00N 30°48' E 122°06'439226021.8
2018-Jun-23 02:00N 24°23' E 118°07'472113252.4
2018-Jun-23 02:00N 31°59' E 120°26'01501.6
2018-Jun-23 02:00N 31°58' E 120°26'24598027.4
2018-Jun-23 02:00N 36°03' E 120°19'0113.3
2018-Jun-23 02:00N 36°03' E 120°19'71085143.1
2018-Jun-23 01:59N 24°21' E 118°21'5510435.6
2018-Jun-23 01:59N 23°46' E 117°35'4733919.8
2018-Jun-23 01:59N 24°23' E 118°07'80885533.2
2018-Jun-23 01:58N 37°33' E 121°24'80864647.8
2018-Jun-23 01:58N 24°25' E 117°51'111082499191.3
2018-Jun-23 01:57N 10°16' W 075°31'11044164291.3
2018-Jun-23 01:53N 31°58' E 120°26'2453496.8
2018-Jun-23 01:49N 36°03' E 120°18'139.9
2018-Jun-23 01:47N 36°02' E 120°19'709121514.1
2018-Jun-23 01:47N 24°24' E 117°58'70938096.9
2018-Jun-23 01:46N 36°03' E 120°18'437.6
2018-Jun-23 01:40N 36°02' E 120°14'3313510.3
2018-Jun-23 01:34N 30°44' E 121°59'4807381.6
2018-Jun-23 01:31N 23°46' E 117°35'0247.4
2018-Jun-23 01:30N 23°45' E 117°35'48172731.5
2018-Jun-23 01:30N 24°26' E 118°02'470153816.0
2018-Jun-23 01:30N 31°59' E 120°26'4396586126.9
2018-Jun-23 01:30N 44°09' E 028°40'46018280948.7
2018-Jun-23 01:30N 24°20' E 118°17'6543.8
2018-Jun-23 01:29N 24°20' E 118°10'111272002942.2
2018-Jun-23 01:29N 10°16' W 075°31'10914381456.6
2018-Jun-23 01:27N 36°03' E 120°20'330108008.4
2018-Jun-23 01:27N 30°44' E 121°58'43711318.4
2018-Jun-23 01:25N 24°25' E 117°51'11108434662.8
2018-Jun-23 01:23N 10°15' W 075°31'11045242444.4
2018-Jun-23 01:20N 31°58' E 120°26'2444048.9
2018-Jun-23 01:17N 36°02' E 120°19'3299782.6
2018-Jun-23 01:15N 30°45' E 122°02'32922747.4
2018-Jun-23 01:14N 36°02' E 120°20'1818.1
2018-Jun-23 01:14N 36°03' E 120°19'2438657.6
2018-Jun-23 01:12N 32°00' E 120°27'4792492.3
2018-Jun-23 01:01N 24°17' E 118°10'1221881.8
2018-Jun-23 01:01N 24°25' E 118°01'45848252040.7
2018-Jun-23 01:00N 44°09' E 028°40'45918263350.2
2018-Jun-23 01:00N 23°46' E 117°35'4916130.9
2018-Jun-23 01:00N 24°21' E 118°12'4944214.0
2018-Jun-23 01:00N 23°46' E 117°35'516309524.6
2018-Jun-23 01:00N 31°59' E 120°26'1095589.9
2018-Jun-23 00:59N 30°42' E 121°56'33247764.4
2018-Jun-23 00:59N 36°03' E 120°19'71046447.6
2018-Jun-23 00:58N 24°25' E 117°51'71044822.2
2018-Jun-23 00:57N 36°03' E 120°19'32210363.0
2018-Jun-23 00:55N 30°50' E 121°51'1076.6
2018-Jun-23 00:47N 30°44' E 121°59'111685743608.2
2018-Jun-23 00:47N 10°15' W 075°31'10913785760.3
2018-Jun-23 00:46N 36°03' E 120°18'710150429.5
2018-Jun-23 00:46N 24°22' E 118°07'459217852.9
2018-Jun-23 00:30N 44°09' E 028°40'45911377249.9
2018-Jun-23 00:30N 23°46' E 117°35'0686.4
2018-Jun-23 00:30N 23°46' E 117°35'4734132.4
2018-Jun-23 00:30N 24°22' E 118°08'710365081.9
2018-Jun-23 00:30N 36°03' E 120°18'708318735.4
2018-Jun-23 00:30N 24°24' E 118°06'47234646.2
2018-Jun-23 00:29N 31°59' E 120°26'110456627024.3
2018-Jun-23 00:29N 10°15' W 075°31'11108487675.2
2018-Jun-23 00:28N 24°25' E 117°52'0199.3
2018-Jun-23 00:28N 24°25' E 117°51'71029365.8
2018-Jun-23 00:26N 36°03' E 120°19'564.0
2018-Jun-23 00:22N 36°02' E 120°14'33417424.0
2018-Jun-23 00:21N 30°39' E 121°54'5125.0
2018-Jun-23 00:18N 30°43' E 121°57'3302303.1
2018-Jun-23 00:10N 36°03' E 120°19'88512350.9
2018-Jun-23 00:05N 22°19' E 114°09'448655875.2
2018-Jun-23 00:00N 44°09' E 028°40'45913305399.9
2018-Jun-23 00:00N 23°46' E 117°35'087.2
2018-Jun-23 00:00N 23°46' E 117°35'476571752.7
2018-Jun-23 00:00N 30°42' E 121°56'429772572.5
2018-Jun-23 00:00N 24°24' E 118°05'428256685.3
2018-Jun-23 00:00N 30°40' E 121°55'333149719.4
2018-Jun-23 00:00N 36°03' E 120°18'33234132.2
2018-Jun-22 23:59N 30°41' E 121°55'43414726.1
2018-Jun-22 23:58N 24°25' E 117°51'43436317.9
2018-Jun-22 23:57N 30°41' E 121°55'33220255.6
2018-Jun-22 23:56N 36°03' E 120°19'010.3
2018-Jun-22 23:54N 36°03' E 120°19'10914727607.3
2018-Jun-22 23:53N 10°15' W 075°31'11120298732.9
2018-Jun-22 23:51N 24°27' E 118°04'4321296.8
2018-Jun-22 23:31N 30°50' E 121°51'4507737484.2
2018-Jun-22 23:30N 44°09' E 028°40'4584687672.1
2018-Jun-22 23:30N 24°25' E 118°00'46164859.8
2018-Jun-22 23:30N 23°46' E 117°35'052.5
2018-Jun-22 23:30N 23°46' E 117°35'479143743.9
2018-Jun-22 23:30N 30°44' E 121°58'10923078.5
2018-Jun-22 23:29N 31°58' E 120°26'110452092677.9
2018-Jun-22 23:29N 10°15' W 075°31'111661296740.8
2018-Jun-22 23:29N 30°39' E 121°54'43125435.6
2018-Jun-22 23:28N 24°25' E 117°51'12990.3
2018-Jun-22 23:27N 24°27' E 118°04'4702869.6
2018-Jun-22 23:17N 32°00' E 120°27'2421412.1
2018-Jun-22 23:07N 36°02' E 120°14'7507082.3
2018-Jun-22 23:00N 23°46' E 117°35'4591472191.0
2018-Jun-22 23:00N 44°09' E 028°40'59201253557.2
2018-Jun-22 23:00N 10°16' W 075°31'11108347713.6
2018-Jun-22 22:58N 24°25' E 117°51'4225451.0
2018-Jun-22 22:57N 23°46' E 117°35'48278907.7
2018-Jun-22 22:57N 30°45' E 122°02'43397410.7
2018-Jun-22 22:57N 24°27' E 118°04'470564367.6
2018-Jun-22 22:57N 32°00' E 120°27'4755448.7
2018-Jun-22 22:52N 24°24' E 117°57'70915273.1
2018-Jun-22 22:49N 36°02' E 120°14'3291077.6
2018-Jun-22 22:30N 30°47' E 122°06'452016273711.2
2018-Jun-22 22:30N 44°09' E 028°40'4591869831.3
2018-Jun-22 22:30N 23°46' E 117°35'0 8.9
2018-Jun-22 22:29N 23°46' E 117°35'501462.8
2018-Jun-22 22:27N 24°27' E 118°04'12313.1
2018-Jun-22 22:25N 24°25' E 117°51'43139.1
2018-Jun-22 22:06N 23°43' E 117°48'460348595.5
2018-Jun-22 22:00N 44°09' E 028°40'45914131703.1
2018-Jun-22 22:00N 23°46' E 117°35'031.2
2018-Jun-22 22:00N 23°46' E 117°35'43480.4
2018-Jun-22 21:55N 24°25' E 117°51'435133.8
2018-Jun-22 21:54N 23°43' E 117°47'11121417048.9
2018-Jun-22 21:53N 10°17' W 075°31'11116156313.0
2018-Jun-22 21:48N 23°50' E 117°45'510305727.1
2018-Jun-22 21:48N 31°59' E 120°27'24410445.6
2018-Jun-22 21:47N 36°02' E 120°14'3265379.8
2018-Jun-22 21:43N 30°52' E 122°11'5107291.0
2018-Jun-22 21:39N 23°35' E 117°14'458232215.0
2018-Jun-22 21:30N 44°09' E 028°40'45912065851.6
2018-Jun-22 21:30N 23°46' E 117°35'51661903.3
2018-Jun-22 21:30N 31°59' E 120°26'110452208966.1
2018-Jun-22 21:30N 10°15' W 075°31'11109512725.2
2018-Jun-22 21:28N 23°44' E 117°35'443956.9
2018-Jun-22 21:28N 24°25' E 117°51'47327466.2
2018-Jun-22 21:27N 31°58' E 120°26'10010856.1
2018-Jun-22 21:26N 30°50' E 121°51'4775465.1
2018-Jun-22 21:21N 23°46' E 117°45'74724233.4
2018-Jun-22 21:19N 36°02' E 120°14'226216964.9
2018-Jun-22 21:11N 01°27' E 104°24'491128196.1
2018-Jun-22 21:00N 44°09' E 028°40'4591661074.3
2018-Jun-22 21:00N 23°46' E 117°35'4981.5
2018-Jun-22 21:00N 23°42' E 117°37'49940798.8
2018-Jun-22 20:59N 30°56' E 122°14'49434885.3
2018-Jun-22 20:58N 23°44' E 117°45'47713970.2
2018-Jun-22 20:56N 30°48' E 121°52'43816762.5
2018-Jun-22 20:55N 24°25' E 117°51'11108319910.5
2018-Jun-22 20:53N 10°15' W 075°31'457025154.6
2018-Jun-22 20:42N 41°13' E 001°44'6216310788.7
2018-Jun-22 20:40N 01°23' E 104°23'155514030.9
2018-Jun-22 20:34N 23°50' E 117°40'459383925.2
2018-Jun-22 20:30N 44°09' E 028°40'45934133740.9
2018-Jun-22 20:30N 23°43' E 117°35'83113.6
2018-Jun-22 20:30N 23°49' E 117°40'445462.8
2018-Jun-22 20:30N 24°27' E 118°04'5951112757.4
2018-Jun-22 20:27N 41°13' E 001°44'6216466178.2
2018-Jun-22 20:26N 01°21' E 104°21'15947234.8
2018-Jun-22 20:13N 24°25' E 117°51'45233225.3
2018-Jun-22 20:12N 30°56' E 122°09'11172246732.8
2018-Jun-22 20:09N 10°16' W 075°31'11045186668.4
2018-Jun-22 20:06N 31°59' E 120°26'439652229.2
2018-Jun-22 20:00N 44°09' E 028°40'4586402684.4
2018-Jun-22 20:00N 24°27' E 118°04'492411.3
2018-Jun-22 19:59N 23°44' E 117°38'432645.3
2018-Jun-22 19:58N 24°25' E 117°51'159842605.5
2018-Jun-22 19:55N 01°19' E 104°16'62121315424.7
2018-Jun-22 19:55N 41°12' E 001°45'5945225289.0
2018-Jun-22 19:53N 23°39' E 117°17'11094269861.9
2018-Jun-22 19:51N 10°16' W 075°31'1111979262.5
2018-Jun-22 19:43N 23°41' E 117°43'51810666.1
2018-Jun-22 19:40N 31°59' E 120°26'2333353.2
2018-Jun-22 19:36N 35°52' E 120°19'557167077.4
2018-Jun-22 19:31N 41°13' E 001°48'11981437549.2
2018-Jun-22 19:30N 44°09' E 028°40'5919409789.3
2018-Jun-22 19:30N 10°17' W 075°31'11096578923.4
2018-Jun-22 19:28N 23°35' E 117°18'161284.6
2018-Jun-22 19:28N 23°41' E 117°35'533375.5
2018-Jun-22 19:27N 24°27' E 118°04'161075249.7
2018-Jun-22 19:25N 01°18' E 104°11'1602120126.6
2018-Jun-22 19:25N 24°25' E 117°51'4734044.8
2018-Jun-22 19:18N 31°58' E 120°26'5303373.3
2018-Jun-22 19:08N 23°32' E 117°29'5314136.8
2018-Jun-22 19:01N 31°59' E 120°26'439615825482.6
2018-Jun-22 19:00N 44°09' E 028°40'45885505132.7
2018-Jun-22 19:00N 23°33' E 117°20'121810.0
2018-Jun-22 19:00N 23°38' E 117°31'155669136.5
2018-Jun-22 18:59N 01°15' E 104°07'161349639.8
2018-Jun-22 18:57N 24°27' E 118°04'12340.7
2018-Jun-22 18:55N 24°25' E 117°51'47328862.4
2018-Jun-22 18:54N 31°58' E 120°26'5302441.6
2018-Jun-22 18:41N 23°31' E 117°30'528.7
2018-Jun-22 18:30N 23°36' E 117°27'45928265087.9
2018-Jun-22 18:30N 44°09' E 028°40'490317649447.0
2018-Jun-22 18:30N 01°15' E 104°03'207137467.0
2018-Jun-22 18:27N 31°59' E 120°26'47411070.6
2018-Jun-22 18:25N 24°25' E 117°51'4737340.1
2018-Jun-22 18:21N 31°58' E 120°26'573364904.0
2018-Jun-22 18:15N 41°14' E 001°57'5939534532.7
2018-Jun-22 18:15N 24°27' E 118°04'4263513.3
2018-Jun-22 18:07N 30°41' E 121°56'5867960075.2
2018-Jun-22 18:07N 41°14' E 001°49'5401234270.3
2018-Jun-22 18:06N 38°31' E 119°05'408746854.1
2018-Jun-22 18:00N 44°09' E 028°40'1189713696.3
2018-Jun-22 18:00N 41°15' E 001°59'61887425485.8
2018-Jun-22 18:00N 01°14' E 103°58'2074746497.8
2018-Jun-22 18:00N 31°58' E 120°26'53086774.3
2018-Jun-22 18:00N 23°33' E 117°24'49393340.0
2018-Jun-22 17:59N 30°42' E 121°56'231861.4
2018-Jun-22 17:59N 31°05' E 121°59'469843619.4
2018-Jun-22 17:59N 38°32' E 119°05'84945601.2
2018-Jun-22 17:58N 24°25' E 117°51'5937144403.0
2018-Jun-22 17:55N 41°14' E 001°49'594681080.7
2018-Jun-22 17:51N 24°27' E 118°04'4691542.3
2018-Jun-22 17:32N 31°59' E 120°26'4396134113.8
2018-Jun-22 17:30N 44°09' E 028°40'45885505063.1
2018-Jun-22 17:30N 23°33' E 117°20'59362671094.7
2018-Jun-22 17:30N 41°16' E 002°03'5728606507.7
2018-Jun-22 17:30N 31°58' E 120°26'399359155.2
2018-Jun-22 17:30N 38°32' E 119°08'24018642761.7
2018-Jun-22 17:30N 01°12' E 103°53'287784.6
2018-Jun-22 17:29N 01°20' E 104°19'2055493164.6
2018-Jun-22 17:29N 31°07' E 121°55'914637.2
2018-Jun-22 17:28N 31°59' E 120°26'47460888.3
2018-Jun-22 17:28N 24°25' E 117°51'5937145385.3
2018-Jun-22 17:25N 41°14' E 001°49'594647993.9
2018-Jun-22 17:18N 24°27' E 118°04'4508230.0
2018-Jun-22 17:14N 31°09' E 121°54'110.3
2018-Jun-22 17:11N 31°09' E 121°54'4572551.3
2018-Jun-22 17:01N 24°25' E 117°51'45778238802.8
2018-Jun-22 17:00N 44°09' E 028°40'1184304369.3
2018-Jun-22 17:00N 41°17' E 002°06'134648.8
2018-Jun-22 17:00N 41°14' E 001°49'6191928579.6
2018-Jun-22 17:00N 01°09' E 103°48'1574246437.6
2018-Jun-22 16:59N 23°37' E 117°40'52320454.5
2018-Jun-22 16:58N 31°59' E 120°26'53410562.6
2018-Jun-22 16:55N 23°32' E 117°14'153915916.5
2018-Jun-22 16:49N 01°17' E 104°13'206256655.7
2018-Jun-22 16:47N 31°08' E 121°56'3071410.2
2018-Jun-22 16:34N 36°02' E 120°14'70813341.3
2018-Jun-22 16:31N 24°25' E 117°51'457716477609.1
2018-Jun-22 16:30N 44°09' E 028°40'4894978791.2
2018-Jun-22 16:30N 01°06' E 103°43'617222220031.1
2018-Jun-22 16:30N 41°18' E 002°10'5833201899.3
2018-Jun-22 16:28N 31°07' E 121°58'948916.0
2018-Jun-22 16:28N 31°59' E 120°26'2067354385.3
2018-Jun-22 16:27N 01°16' E 104°09'62041240888.8
2018-Jun-22 16:27N 41°14' E 001°49'5871422676.7
2018-Jun-22 16:26N 30°56' E 122°13'5025364.5
2018-Jun-22 16:21N 23°37' E 117°39'492126512.2
2018-Jun-22 16:20N 30°47' E 122°06'19246.3
2018-Jun-22 16:16N 31°06' E 121°59'13120.6
2018-Jun-22 16:09N 30°58' E 122°10'451730057.3
2018-Jun-22 16:00N 44°09' E 028°40'4889298323.4
2018-Jun-22 15:59N 01°08' E 103°39'2085227495.1
2018-Jun-22 15:59N 31°05' E 122°01'9711257.2
2018-Jun-22 15:58N 31°59' E 120°26'2070155274.7
2018-Jun-22 15:58N 01°15' E 104°04'16081157532.7
2018-Jun-22 15:58N 24°25' E 117°51'45748411.6
2018-Jun-22 15:57N 31°09' E 121°54'58461052326.7
2018-Jun-22 15:57N 41°14' E 001°49'5866203038.1
2018-Jun-22 15:55N 30°60' E 122°09'5035274.2
2018-Jun-22 15:49N 23°38' E 117°40'5222833.9
2018-Jun-22 15:38N 31°58' E 120°26'0 1.5
2018-Jun-22 15:32N 31°58' E 120°26'2085105722.1
2018-Jun-22 15:31N 01°11' E 103°37'61801589023.1
2018-Jun-22 15:30N 41°14' E 001°49'57401291461.2
2018-Jun-22 15:30N 31°59' E 120°26'43961217330.5
2018-Jun-22 15:30N 44°09' E 028°40'43962637715.5
2018-Jun-22 15:30N 31°59' E 120°26'2073124407.7
2018-Jun-22 15:29N 01°14' E 103°59'207140514.1
2018-Jun-22 15:26N 31°03' E 122°04'313140940.9
2018-Jun-22 15:25N 36°02' E 120°14'24412045.0
2018-Jun-22 15:24N 31°58' E 120°25'5216770.6
2018-Jun-22 15:20N 23°38' E 117°41'86130696.0
2018-Jun-22 15:18N 37°47' E 120°29'4231716.9
2018-Jun-22 15:03N 30°52' E 122°08'44910032.6
2018-Jun-22 15:01N 24°25' E 117°51'4741704796.7
2018-Jun-22 15:00N 31°59' E 120°26'10326465.5
2018-Jun-22 15:00N 31°02' E 122°07'10252662.0
2018-Jun-22 15:00N 31°59' E 120°27'4396753683.7
2018-Jun-22 15:00N 44°09' E 028°40'4898550983.3
2018-Jun-22 14:59N 01°12' E 103°54'2388537403.7
2018-Jun-22 14:59N 37°48' E 120°31'4154325.2
2018-Jun-22 14:53N 31°01' E 122°07'5862110488.6
2018-Jun-22 14:50N 41°14' E 001°49'402792934.2
2018-Jun-22 14:47N 32°05' W 081°04'10397216354.2
2018-Jun-22 14:45N 30°55' E 122°10'733.5
2018-Jun-22 14:31N 30°49' E 122°07'44526708.8
2018-Jun-22 14:30N 24°25' E 117°51'8141465299.6
2018-Jun-22 14:30N 37°48' E 120°31'34996665.4
2018-Jun-22 14:30N 31°59' E 120°26'1063242.3
2018-Jun-22 14:28N 30°60' E 122°10'2079311855.6
2018-Jun-22 14:28N 01°10' E 103°49'2068135344.0
2018-Jun-22 14:27N 30°48' E 122°07'11650.9
2018-Jun-22 14:26N 30°59' E 122°10'1 8.9
2018-Jun-22 14:18N 30°58' E 122°10'4551599.6
2018-Jun-22 14:01N 24°25' E 117°51'1052312628198.2
2018-Jun-22 14:00N 32°05' W 081°04'523018828890.3
2018-Jun-22 14:00N 44°09' E 028°40'43965275086.2
2018-Jun-22 14:00N 31°59' E 120°26'10949173.5
2018-Jun-22 14:00N 30°57' E 122°12'3134.7
2018-Jun-22 13:59N 30°56' E 122°10'208082290.7
2018-Jun-22 13:58N 01°07' E 103°45'6169147071.6
2018-Jun-22 13:55N 41°19' E 002°14'571733906.1
2018-Jun-22 13:45N 31°58' E 120°26'4731966.4
2018-Jun-22 13:30N 24°25' E 117°51'45778238802.8
2018-Jun-22 13:30N 44°09' E 028°40'452216279072.2
2018-Jun-22 13:30N 30°53' E 122°13'11226928.5
2018-Jun-22 13:30N 31°58' E 120°25'2088112164.4
2018-Jun-22 13:29N 01°06' E 103°41'20883758822.2
2018-Jun-22 13:29N 31°59' E 120°26'117.4
2018-Jun-22 13:27N 31°58' E 120°26'67039548.9
2018-Jun-22 13:26N 22°18' E 114°08'6661898.8
2018-Jun-22 13:05N 30°48' E 122°07'5853191563.0
2018-Jun-22 13:03N 41°16' E 002°10'404293889.5
2018-Jun-22 13:00N 32°05' W 081°04'102491941966.6
2018-Jun-22 13:00N 31°58' E 120°26'2087129512.6
2018-Jun-22 12:59N 01°09' E 103°37'61652774026.8
2018-Jun-22 12:59N 41°16' E 002°09'57231211922.8
2018-Jun-22 12:59N 31°59' E 120°26'11119991.8
2018-Jun-22 12:58N 30°48' E 122°06'43918380.6
2018-Jun-22 12:57N 24°23' E 118°06'4516064.7
2018-Jun-22 12:53N 31°04' E 122°01'4993636.1
2018-Jun-22 12:44N 23°40' E 117°45'49733785.5
2018-Jun-22 12:43N 30°58' E 122°10'208122101.8
2018-Jun-22 12:38N 01°13' E 103°36'162313338.4
2018-Jun-22 12:30N 24°25' E 117°51'1623389489.4
2018-Jun-22 12:30N 01°13' E 103°36'20831875108.0
2018-Jun-22 12:30N 31°58' E 120°26'1024936897367.8
2018-Jun-22 12:30N 32°05' W 081°04'40402423712.1
2018-Jun-22 12:30N 41°15' E 002°05'57266871727.5
2018-Jun-22 12:30N 31°59' E 120°26'43961318786.7
2018-Jun-22 12:30N 44°09' E 028°40'4519396820.7
2018-Jun-22 12:29N 30°45' E 122°02'21479.0
2018-Jun-22 12:27N 31°06' E 121°59'14518.7
2018-Jun-22 12:25N 30°56' E 122°10'109267.0
2018-Jun-22 12:00N 31°59' E 120°26'43967912724.9
2018-Jun-22 12:00N 44°09' E 028°40'45778238813.2
2018-Jun-22 12:00N 24°25' E 117°51'5925969591.7
2018-Jun-22 12:00N 41°15' E 002°03'57295155850.9
2018-Jun-22 12:00N 31°58' E 120°26'10932744.2
2018-Jun-22 12:00N 30°44' E 121°59'2060824118.1
2018-Jun-22 12:00N 01°17' E 103°36'207226270.3
2018-Jun-22 11:55N 30°52' E 122°09'2095.3
2018-Jun-22 11:43N 31°08' E 121°55'91543.3
2018-Jun-22 11:32N 31°58' E 120°25'47313841.8
2018-Jun-22 11:30N 24°25' E 117°51'1615447225.0
2018-Jun-22 11:30N 01°21' E 103°38'20753735766.5
2018-Jun-22 11:30N 31°58' E 120°26'155.3
2018-Jun-22 11:29N 31°59' E 120°26'5731825291.5
2018-Jun-22 11:29N 41°14' E 002°00'5731109741.6
2018-Jun-22 11:26N 31°58' E 120°25'111399260.3
2018-Jun-22 11:26N 30°49' E 122°07'45203254680.9
2018-Jun-22 11:26N 44°09' E 028°40'460230341.7
2018-Jun-22 11:17N 23°43' E 117°46'999.8
2018-Jun-22 11:11N 23°43' E 117°36'49538703.1
2018-Jun-22 11:10N 30°55' E 122°06'4956479.0
2018-Jun-22 11:06N 23°43' E 117°35'0 1.5
2018-Jun-22 11:01N 23°43' E 117°35'45934133253.3
2018-Jun-22 11:00N 44°09' E 028°40'45773295525.3
2018-Jun-22 11:00N 24°25' E 117°51'4439966.8
2018-Jun-22 11:00N 23°44' E 117°35'59461259154.1
2018-Jun-22 11:00N 41°14' E 001°57'57344128427.8
2018-Jun-22 11:00N 31°59' E 120°26'2071201504.3
2018-Jun-22 10:59N 01°26' E 103°40'2070372648.3
2018-Jun-22 10:59N 31°58' E 120°25'51323681.8
2018-Jun-22 10:58N 23°45' E 117°46'926107497.7
2018-Jun-22 10:57N 38°49' E 121°37'415166013.6
2018-Jun-22 10:57N 31°58' E 120°26'4370215491.9
2018-Jun-22 10:56N 31°49' E 034°39'443650859.4
2018-Jun-22 10:51N 24°27' E 118°04'44310165.9
2018-Jun-22 10:48N 30°55' E 122°06'10722643.7
2018-Jun-22 10:48N 31°59' E 120°25'4737463.8
2018-Jun-22 10:44N 24°26' E 117°50'42186.9
2018-Jun-22 10:31N 23°47' E 117°35'15655635392.6
2018-Jun-22 10:30N 01°27' E 103°44'487917563784.0
2018-Jun-22 10:30N 44°09' E 028°40'45773295526.0
2018-Jun-22 10:30N 24°25' E 117°51'473121635.8
2018-Jun-22 10:30N 31°58' E 120°26'10638235.0
2018-Jun-22 10:30N 30°55' E 122°06'10622378.0
2018-Jun-22 10:30N 31°59' E 120°27'4371655578.8
2018-Jun-22 10:29N 31°49' E 034°39'44281771028.7
2018-Jun-22 10:29N 23°47' E 117°35'515308739.3
2018-Jun-22 10:29N 31°59' E 120°26'46911400.4
2018-Jun-22 10:27N 24°27' E 118°04'70428808.4
2018-Jun-22 10:25N 36°02' E 120°14'2999112.7
2018-Jun-22 10:23N 31°14' E 121°47'4597719.5
2018-Jun-22 10:20N 24°26' E 117°51'281037.9
2018-Jun-22 10:18N 24°16' E 118°20'47648930.9
2018-Jun-22 10:17N 31°58' E 120°25'244896.9
2018-Jun-22 10:01N 36°03' E 120°19'74979319.3
2018-Jun-22 10:00N 23°47' E 117°35'4149385.1
2018-Jun-22 10:00N 24°25' E 117°51'474284145.4
2018-Jun-22 10:00N 31°59' E 120°26'515463214.7
2018-Jun-22 10:00N 23°47' E 117°34'51653047.3
2018-Jun-22 10:00N 31°60' E 120°27'470422759.2
2018-Jun-22 10:00N 24°27' E 118°04'468120413.2
2018-Jun-22 09:59N 31°58' E 120°26'2067151870.8
2018-Jun-22 09:59N 01°27' E 103°44'206081508.2
2018-Jun-22 09:57N 30°55' E 122°06'582766178.7
2018-Jun-22 09:52N 41°24' E 002°30'5906157487.1
2018-Jun-22 09:49N 24°24' E 117°58'4333638.6
2018-Jun-22 09:42N 30°42' E 121°56'27391.9
2018-Jun-22 09:38N 31°09' E 121°53'26212.9
2018-Jun-22 09:31N 30°44' E 121°57'47774709.9
2018-Jun-22 09:30N 23°47' E 117°35'4756675.0
2018-Jun-22 09:30N 24°27' E 118°03'451405974.1
2018-Jun-22 09:30N 31°09' E 121°54'2066572046.7
2018-Jun-22 09:30N 01°27' E 103°44'1614193718.3
2018-Jun-22 09:30N 24°27' E 118°04'4810260.7
2018-Jun-22 09:29N 23°47' E 117°34'5151852802.6
2018-Jun-22 09:29N 31°59' E 120°26'10843226.8
2018-Jun-22 09:29N 30°44' E 121°57'330198243.6
2018-Jun-22 09:29N 36°02' E 120°14'42302538176.6
2018-Jun-22 09:29N 44°09' E 028°40'451555289.4
2018-Jun-22 09:24N 30°55' E 122°06'5183925.6
2018-Jun-22 09:16N 23°30' E 117°08'15386214.8
2018-Jun-22 09:01N 01°27' E 103°44'1566110509.9
2018-Jun-22 09:00N 23°47' E 117°34'4580324.4
2018-Jun-22 09:00N 24°25' E 118°00'453101967.4
2018-Jun-22 09:00N 31°06' E 121°58'58151163025.4
2018-Jun-22 09:00N 41°22' E 002°29'570420534573.2
2018-Jun-22 09:00N 31°59' E 120°26'515617450.9
2018-Jun-22 09:00N 23°47' E 117°35'4815816.5
2018-Jun-22 09:00N 24°27' E 118°04'46818315.1
2018-Jun-22 08:58N 31°58' E 120°25'47343654.1
2018-Jun-22 08:57N 24°25' E 117°51'1606222415.4
2018-Jun-22 08:57N 01°27' E 103°44'4879566561.7
2018-Jun-22 08:56N 44°09' E 028°40'423326412.4
2018-Jun-22 08:47N 36°03' E 120°18'16280.0
2018-Jun-22 08:43N 35°52' E 120°05'3212091.4
2018-Jun-22 08:34N 30°47' E 122°05'452072646.9
2018-Jun-22 08:30N 44°09' E 028°40'45903304508.5
2018-Jun-22 08:30N 23°47' E 117°35'498358526.5
2018-Jun-22 08:30N 31°05' E 122°02'498358639.8
2018-Jun-22 08:30N 23°47' E 117°34'415130.9
2018-Jun-22 08:30N 24°25' E 117°52'474154992.5
2018-Jun-22 08:30N 31°59' E 120°26'570420534602.2
2018-Jun-22 08:30N 41°22' E 002°29'614022104485.0
2018-Jun-22 08:30N 01°27' E 103°42'161632493.0
2018-Jun-22 08:27N 24°27' E 118°04'4687390.3
2018-Jun-22 08:23N 31°58' E 120°25'2454038.9
2018-Jun-22 08:19N 36°03' E 120°18'8852964.7
2018-Jun-22 08:01N 22°19' E 114°08'4485366921.7
2018-Jun-22 08:00N 44°09' E 028°40'45772746270.5
2018-Jun-22 08:00N 24°25' E 117°51'474106554.5
2018-Jun-22 08:00N 31°59' E 120°26'51588231.4
2018-Jun-22 08:00N 23°47' E 117°34'74848097.3
2018-Jun-22 07:59N 36°02' E 120°14'748448829.3
2018-Jun-22 07:59N 23°47' E 117°35'7491348806.2
2018-Jun-22 07:59N 36°03' E 120°19'70519684.9
2018-Jun-22 07:57N 24°27' E 118°04'1620448643.6
2018-Jun-22 07:56N 01°24' E 103°39'139876245.3
2018-Jun-22 07:55N 22°19' E 114°08'67738101.9
2018-Jun-22 07:54N 31°03' E 122°08'24424.2
2018-Jun-22 07:51N 30°41' E 121°56'1693.2
2018-Jun-22 07:40N 30°53' E 122°08'451927111.5
2018-Jun-22 07:30N 44°09' E 028°40'45772353943.6
2018-Jun-22 07:30N 24°25' E 117°51'41148629.8
2018-Jun-22 07:30N 23°47' E 117°34'025.3
2018-Jun-22 07:30N 23°47' E 117°35'1575218090.3
2018-Jun-22 07:30N 01°21' E 103°38'16241461384.2
2018-Jun-22 07:30N 24°27' E 118°04'4691687328.1
2018-Jun-22 07:30N 31°59' E 120°26'1094987.4
2018-Jun-22 07:28N 30°43' E 121°59'211294.3
2018-Jun-22 07:27N 31°02' E 122°11'71353.6
2018-Jun-22 07:27N 30°55' E 122°09'3215133.4
2018-Jun-22 07:23N 36°02' E 120°19'8853185118.9
2018-Jun-22 07:23N 22°19' E 114°10'8856197.8
2018-Jun-22 07:15N 36°03' E 120°19'7099522.8
2018-Jun-22 07:10N 24°25' E 117°51'696278285.9
2018-Jun-22 07:10N 35°52' E 120°05'13841.3
2018-Jun-22 07:09N 36°02' E 120°14'7485240.1
2018-Jun-22 07:00N 23°47' E 117°34'459016522665.2
2018-Jun-22 07:00N 44°09' E 028°40'45903304511.4
2018-Jun-22 07:00N 23°47' E 117°35'4174087.6
2018-Jun-22 07:00N 24°25' E 117°51'44241857.2
2018-Jun-22 07:00N 30°47' E 122°04'20652478017.9
2018-Jun-22 07:00N 01°17' E 103°36'2081258296.1
2018-Jun-22 06:59N 31°59' E 120°26'472242740.2
2018-Jun-22 06:59N 24°23' E 118°06'25123741.7
2018-Jun-22 06:58N 22°19' E 114°10'67623630.8
2018-Jun-22 06:57N 30°59' E 122°12'3186227.8
2018-Jun-22 06:54N 36°03' E 120°18'0 1.4
2018-Jun-22 06:48N 36°03' E 120°18'70928368.8
2018-Jun-22 06:46N 24°24' E 117°58'6966627.8
2018-Jun-22 06:40N 35°52' E 120°05'132770.4
2018-Jun-22 06:40N 36°02' E 120°14'7484869.9
2018-Jun-22 06:30N 23°47' E 117°35'45902360397.8
2018-Jun-22 06:30N 44°09' E 028°40'45901835857.8
2018-Jun-22 06:30N 23°47' E 117°34'4275935.4
2018-Jun-22 06:30N 24°24' E 117°57'1625194955.1
2018-Jun-22 06:30N 01°13' E 103°36'2074248861.0
2018-Jun-22 06:29N 30°51' E 122°07'11015211.0
2018-Jun-22 06:29N 31°59' E 120°26'67011822.4
2018-Jun-22 06:25N 22°19' E 114°10'88530631.9
2018-Jun-22 06:24N 36°03' E 120°19'32110500.3
2018-Jun-22 06:22N 30°55' E 122°08'32216308.6
2018-Jun-22 06:21N 36°02' E 120°13'134272.7
2018-Jun-22 06:20N 35°52' E 120°05'234865.3
2018-Jun-22 06:04N 31°58' E 120°25'439571271.5
2018-Jun-22 06:00N 44°06' E 028°42'45898259648.1
2018-Jun-22 06:00N 23°47' E 117°34'4129758.0
2018-Jun-22 06:00N 24°25' E 117°51'97670.3
2018-Jun-22 06:00N 24°25' E 118°01'448230279.8
2018-Jun-22 06:00N 30°55' E 122°09'10830026.0
2018-Jun-22 06:00N 31°59' E 120°26'67092760.3
2018-Jun-22 06:00N 22°19' E 114°10'14102537218.5
2018-Jun-22 06:00N 01°11' E 103°40'208319428.7
2018-Jun-22 05:53N 31°58' E 120°25'2341186.0
2018-Jun-22 05:41N 35°52' E 120°05'13266.2
2018-Jun-22 05:38N 36°02' E 120°14'433.9
2018-Jun-22 05:31N 36°03' E 120°18'4235363002.4
2018-Jun-22 05:30N 44°02' E 028°42'45242714466.0
2018-Jun-22 05:30N 30°54' E 122°15'453271947.4
2018-Jun-22 05:30N 24°25' E 117°51'52142.2
2018-Jun-22 05:30N 24°24' E 117°57'4250680.1
2018-Jun-22 05:30N 23°47' E 117°34'1582948934.9
2018-Jun-22 05:30N 01°09' E 103°44'4384.8
2018-Jun-22 05:29N 01°11' E 103°40'20841875438.8
2018-Jun-22 05:29N 31°58' E 120°26'51452866.7
2018-Jun-22 05:29N 23°47' E 117°35'20810710.3
2018-Jun-22 05:28N 22°19' E 114°10'67429603.2
2018-Jun-22 05:26N 30°60' E 122°08'10547318.2
2018-Jun-22 05:26N 31°59' E 120°26'24497752.9
2018-Jun-22 05:26N 36°03' E 120°18'766137872.8
2018-Jun-22 05:26N 23°31' E 117°30'7653569.8
2018-Jun-22 05:13N 36°02' E 120°14'423320791.2
2018-Jun-22 05:00N 43°59' E 028°42'45272716253.1
2018-Jun-22 05:00N 30°52' E 122°15'492442986.1
2018-Jun-22 05:00N 23°47' E 117°35'4174247.8
2018-Jun-22 05:00N 24°25' E 117°51'47471038.6
2018-Jun-22 05:00N 31°59' E 120°27'2084535963.6
2018-Jun-22 05:00N 01°09' E 103°44'312595.2
2018-Jun-22 05:00N 01°10' E 103°47'157921055.1
2018-Jun-22 04:55N 23°47' E 117°34'51539427.5
2018-Jun-22 04:54N 31°59' E 120°26'150.1
2018-Jun-22 04:54N 31°58' E 120°26'24426650.6
2018-Jun-22 04:53N 36°02' E 120°14'434.6
2018-Jun-22 04:46N 36°03' E 120°19'8857942.7
2018-Jun-22 04:39N 22°19' E 114°10'98718893.2
2018-Jun-22 04:36N 37°27' E 121°34'38321902.9
2018-Jun-22 04:35N 31°04' E 122°01'207726699.0
2018-Jun-22 04:31N 01°11' E 103°50'48918803153.0
2018-Jun-22 04:30N 43°55' E 028°40'42392543206.1
2018-Jun-22 04:30N 36°03' E 120°18'7501349381.4
2018-Jun-22 04:30N 23°47' E 117°34'0139.0
2018-Jun-22 04:30N 23°47' E 117°35'41148495.6
2018-Jun-22 04:30N 24°25' E 117°51'806414430.7
2018-Jun-22 04:30N 37°28' E 121°36'334109297.8
2018-Jun-22 04:30N 31°59' E 120°26'1440.0
2018-Jun-22 04:30N 31°60' E 120°27'24330199.8
2018-Jun-22 04:29N 36°03' E 120°19'310139418.4
2018-Jun-22 04:29N 31°05' E 121°60'31012558.8
2018-Jun-22 04:28N 36°02' E 120°14'2292152771.4
2018-Jun-22 04:27N 01°10' E 103°47'16206501.8
2018-Jun-22 04:12N 24°25' E 117°51'70668693.0
2018-Jun-22 04:11N 36°00' E 120°16'88227844.3
2018-Jun-22 04:09N 22°19' E 114°10'6707311.6
2018-Jun-22 04:04N 30°55' E 122°08'452381421.6
2018-Jun-22 04:01N 43°52' E 028°39'45942067121.8
2018-Jun-22 04:00N 23°47' E 117°34'41148910.1
2018-Jun-22 04:00N 24°25' E 117°51'474852696.9
2018-Jun-22 04:00N 31°59' E 120°27'908347.9
2018-Jun-22 04:00N 31°08' E 121°54'2074497692.5
2018-Jun-22 03:59N 01°13' E 103°53'2398431699.8
2018-Jun-22 03:59N 37°28' E 121°44'84864978.1
2018-Jun-22 03:58N 23°47' E 117°35'51542106.5
2018-Jun-22 03:58N 31°59' E 120°26'670141869.8
2018-Jun-22 03:57N 22°19' E 114°10'88223340.6
2018-Jun-22 03:55N 36°00' E 120°16'2403838.3
2018-Jun-22 03:51N 32°01' E 120°27'475122260.4
2018-Jun-22 03:51N 24°24' E 117°57'71019067.4
2018-Jun-22 03:49N 36°03' E 120°19'709510737.5
2018-Jun-22 03:49N 24°24' E 117°58'931.7
2018-Jun-22 03:31N 24°21' E 118°08'464574.6
2018-Jun-22 03:30N 23°47' E 117°34'15741889161.1
2018-Jun-22 03:30N 01°13' E 103°52'1615969146.8
2018-Jun-22 03:30N 24°25' E 117°51'1036377.8
2018-Jun-22 03:30N 24°26' E 118°03'16192913453.2
2018-Jun-22 03:30N 01°14' E 103°56'2075393068.7
2018-Jun-22 03:30N 31°59' E 120°26'47332147.4
2018-Jun-22 03:29N 24°22' E 118°07'462057.8
2018-Jun-22 03:28N 23°47' E 117°35'68948.1
2018-Jun-22 03:23N 24°35' E 118°27'45760921.6
2018-Jun-22 03:23N 31°60' E 120°27'67122586.3
2018-Jun-22 03:21N 22°19' E 114°10'88212799.9
2018-Jun-22 03:17N 36°00' E 120°16'10843066.0
2018-Jun-22 03:17N 37°28' E 121°35'1051137.9
2018-Jun-22 03:11N 36°03' E 120°18'3352220.0
2018-Jun-22 03:02N 30°43' E 122°16'14570.3
2018-Jun-22 03:01N 30°55' E 122°08'44773138.9
2018-Jun-22 03:01N 24°25' E 118°01'471424178.8
2018-Jun-22 03:00N 31°59' E 120°26'1613.1
2018-Jun-22 03:00N 31°60' E 120°27'516464231.8
2018-Jun-22 03:00N 23°47' E 117°35'41148435.5
2018-Jun-22 03:00N 24°25' E 117°51'707508758.4
2018-Jun-22 03:00N 36°01' E 120°16'7052536450.0
2018-Jun-22 03:00N 24°25' E 118°05'707363573.9
2018-Jun-22 03:00N 36°03' E 120°19'885187388.6
2018-Jun-22 03:00N 22°19' E 114°10'666108937.2
2018-Jun-22 02:59N 30°43' E 122°16'205861730.4
2018-Jun-22 02:57N 01°15' E 103°60'2284100288.0
2018-Jun-22 02:56N 36°02' E 120°20'6894495.0
2018-Jun-22 02:47N 24°40' E 118°27'68939979.7
2018-Jun-22 02:46N 36°02' E 120°14'7082751.8
2018-Jun-22 02:30N 24°25' E 117°51'4114891.0
2018-Jun-22 02:30N 23°47' E 117°34'1566704757.4
2018-Jun-22 02:30N 01°16' E 104°03'41462.9
2018-Jun-22 02:30N 01°15' E 103°59'16401968478.5
2018-Jun-22 02:30N 24°40' E 118°27'683102440.6
2018-Jun-22 02:29N 35°57' E 120°18'700126008.3
2018-Jun-22 02:29N 24°26' E 118°05'48172497.6
2018-Jun-22 02:29N 23°47' E 117°35'4114867.9
2018-Jun-22 02:29N 24°25' E 117°52'47453271.1
2018-Jun-22 02:28N 31°59' E 120°26'67023878.9
2018-Jun-22 02:27N 22°19' E 114°10'88586099.6
2018-Jun-22 02:26N 36°03' E 120°18'10477551.8
2018-Jun-22 02:18N 20°52' E 110°32'85321331.4
2018-Jun-22 02:15N 31°59' E 120°27'5152064.9
2018-Jun-22 02:00N 23°47' E 117°35'4124749.3
2018-Jun-22 02:00N 24°25' E 117°51'369920.3
2018-Jun-22 02:00N 24°40' E 118°27'45160095.3
2018-Jun-22 02:00N 31°59' E 120°26'4721700041.8
2018-Jun-22 02:00N 24°23' E 118°07'1610828155.5
2018-Jun-22 02:00N 01°17' E 104°06'1564625557.9
2018-Jun-22 01:59N 23°47' E 117°34'745268164.9
2018-Jun-22 01:59N 35°58' E 120°19'2279455715.0
2018-Jun-22 01:59N 01°16' E 104°02'123945041.7
2018-Jun-22 01:57N 20°54' E 110°33'42189149.3
2018-Jun-22 01:57N 23°29' E 117°35'59326.0
2018-Jun-22 01:46N 24°24' E 117°58'47340505.1
2018-Jun-22 01:45N 31°58' E 120°26'5142063.7
2018-Jun-22 01:30N 23°47' E 117°35'1417316.5
2018-Jun-22 01:30N 23°33' E 117°35'528237788.7
2018-Jun-22 01:30N 31°59' E 120°26'474340951.1
2018-Jun-22 01:30N 24°25' E 117°51'4116545.6
2018-Jun-22 01:30N 23°47' E 117°34'4718673.8
2018-Jun-22 01:30N 24°26' E 118°02'47067661.9
2018-Jun-22 01:29N 31°58' E 120°27'206594119.7
2018-Jun-22 01:28N 01°18' E 104°09'123850662.5
2018-Jun-22 01:27N 20°57' E 110°34'49034581.6
2018-Jun-22 01:26N 24°40' E 118°27'460423277.3
2018-Jun-22 01:14N 43°48' E 028°34'490373853.1
2018-Jun-22 01:10N 01°17' E 104°08'227832929.7
2018-Jun-22 01:06N 36°02' E 120°14'7598327.2
2018-Jun-22 01:00N 23°37' E 117°34'117568.2
2018-Jun-22 01:00N 23°47' E 117°34'515115771.6
2018-Jun-22 01:00N 31°58' E 120°27'514115742.2
2018-Jun-22 01:00N 23°47' E 117°35'1563216367.7
2018-Jun-22 00:59N 01°17' E 104°09'20661859750.9
2018-Jun-22 00:59N 31°59' E 120°26'8451013433.5
2018-Jun-22 00:59N 21°00' E 110°35'4879432.6
2018-Jun-22 00:56N 24°40' E 118°27'4602212420.1
2018-Jun-22 00:55N 43°48' E 028°36'4593271033.9
2018-Jun-22 00:54N 24°28' E 118°04'1608148423.0
2018-Jun-22 00:53N 01°19' E 104°13'160510134.3
2018-Jun-22 00:44N 24°22' E 118°07'46207.7
2018-Jun-22 00:30N 23°47' E 117°34'4137222.5
2018-Jun-22 00:30N 24°25' E 117°51'1598639277.7
2018-Jun-22 00:30N 01°19' E 104°16'1551310183.5
2018-Jun-22 00:30N 23°41' E 117°33'7380.9
2018-Jun-22 00:29N 23°47' E 117°35'4594153124.6
2018-Jun-22 00:27N 43°50' E 028°39'45901180247.5
2018-Jun-22 00:27N 24°28' E 118°04'25787.2
2018-Jun-22 00:25N 24°40' E 118°27'42217677.2
2018-Jun-22 00:23N 30°53' E 122°12'1114457.5
2018-Jun-22 00:22N 31°59' E 120°26'2064137592.2
2018-Jun-22 00:21N 01°18' E 104°13'206350529.6
2018-Jun-22 00:19N 31°58' E 120°26'5141696.7
2018-Jun-22 00:00N 23°47' E 117°34'4124818.4
2018-Jun-22 00:00N 24°25' E 117°51'4149433.8
2018-Jun-22 00:00N 23°47' E 117°35'4512365.1
2018-Jun-22 00:00N 24°25' E 118°00'472130594.1
2018-Jun-22 00:00N 31°59' E 120°26'844303881.4
2018-Jun-22 00:00N 21°05' E 110°30'490440862.8
2018-Jun-22 00:00N 24°40' E 118°27'45981034500.0
2018-Jun-21 23:59N 43°54' E 028°40'4905284819.8
2018-Jun-21 23:58N 01°18' E 104°15'2276910592.1
2018-Jun-21 23:58N 36°03' E 120°19'75355297.7
2018-Jun-21 23:57N 23°45' E 117°32'49877926.2
2018-Jun-21 23:57N 30°57' E 122°11'3215450.1
2018-Jun-21 23:53N 36°02' E 120°14'2448140.1
2018-Jun-21 23:52N 31°58' E 120°26'0 1.1
2018-Jun-21 23:35N 31°59' E 120°26'67111178.4
2018-Jun-21 23:31N 22°17' E 114°10'4487384630.2
2018-Jun-21 23:31N 43°58' E 028°42'4590590153.6
2018-Jun-21 23:30N 23°47' E 117°35'515926455.9
2018-Jun-21 23:30N 31°59' E 120°26'0549.0
2018-Jun-21 23:30N 31°59' E 120°26'514231458.0
2018-Jun-21 23:30N 23°47' E 117°35'49628368.1
2018-Jun-21 23:29N 31°00' E 122°08'2056528695.6
2018-Jun-21 23:29N 01°19' E 104°18'162759166.4
2018-Jun-21 23:27N 24°40' E 118°27'45070471.2
2018-Jun-21 23:27N 31°58' E 120°26'47312708.8
2018-Jun-21 23:24N 24°25' E 117°51'12138.3
2018-Jun-21 23:19N 24°27' E 118°04'458614740.2
2018-Jun-21 23:00N 44°03' E 028°42'45898260595.6
2018-Jun-21 23:00N 23°47' E 117°35'4114821.5
2018-Jun-21 23:00N 24°25' E 117°51'414643.0
2018-Jun-21 23:00N 23°47' E 117°35'51457825.1
2018-Jun-21 22:59N 31°58' E 120°27'46826325.4
2018-Jun-21 22:58N 24°27' E 118°04'46817198.4
2018-Jun-21 22:57N 31°58' E 120°26'45017428.4
2018-Jun-21 22:55N 24°40' E 118°27'4513050.2
2018-Jun-21 22:46N 31°59' E 120°26'97375.9
2018-Jun-21 22:31N 31°04' E 122°01'45052702995.4
2018-Jun-21 22:31N 44°07' E 028°41'45894130117.9
2018-Jun-21 22:30N 23°47' E 117°35'418713.8
2018-Jun-21 22:30N 24°25' E 117°51'4174304.9
2018-Jun-21 22:30N 23°47' E 117°34'722249.0
2018-Jun-21 22:28N 24°40' E 118°27'2529634.4
2018-Jun-21 22:28N 24°27' E 118°04'46960261.0
2018-Jun-21 22:28N 31°59' E 120°26'133.5
2018-Jun-21 22:27N 31°58' E 120°26'2441415.7
2018-Jun-21 22:16N 36°02' E 120°14'8844402.9
2018-Jun-21 22:04N 22°18' E 114°07'448574402.9
2018-Jun-21 22:01N 44°09' E 028°40'44981349453.5
2018-Jun-21 22:00N 31°08' E 121°55'457822851.8
2018-Jun-21 22:00N 24°25' E 117°51'4174067.6
2018-Jun-21 22:00N 23°47' E 117°35'019.0
2018-Jun-21 22:00N 23°47' E 117°34'49724526.8
2018-Jun-21 21:59N 31°07' E 121°57'67427582.6
2018-Jun-21 21:57N 22°19' E 114°07'2537518.6
2018-Jun-21 21:55N 24°27' E 118°04'251290.8
2018-Jun-21 21:54N 24°40' E 118°27'68879909.3
2018-Jun-21 21:53N 36°02' E 120°13'24418286.2
2018-Jun-21 21:53N 31°59' E 120°26'110.0
2018-Jun-21 21:49N 31°58' E 120°26'5141688.7
2018-Jun-21 21:30N 23°47' E 117°34'45902065331.7
2018-Jun-21 21:30N 44°09' E 028°40'45902753757.6
2018-Jun-21 21:30N 23°47' E 117°35'49715572.7
2018-Jun-21 21:28N 31°06' E 121°59'449147108.0
2018-Jun-21 21:28N 24°27' E 118°04'45032373.6
2018-Jun-21 21:27N 31°09' E 121°53'897139.9
2018-Jun-21 21:27N 31°58' E 120°26'45011830.3
2018-Jun-21 21:24N 24°40' E 118°27'0 0.0
2018-Jun-21 21:00N 24°40' E 118°27'45952067895.0
2018-Jun-21 21:00N 44°09' E 028°40'45902360363.2
2018-Jun-21 21:00N 23°47' E 117°35'010.6
2018-Jun-21 20:59N 23°47' E 117°34'482051.9
2018-Jun-21 20:58N 24°27' E 118°04'46893635.5
2018-Jun-21 20:58N 31°58' E 120°26'851334.3
2018-Jun-21 20:54N 31°12' E 121°49'1853.1
2018-Jun-21 20:34N 31°02' E 122°06'4978725.2
2018-Jun-21 20:31N 23°47' E 117°35'49749673.4
2018-Jun-21 20:30N 31°01' E 122°07'49727518.7
2018-Jun-21 20:29N 23°47' E 117°34'483634.0
2018-Jun-21 20:28N 24°27' E 118°04'468120387.0
2018-Jun-21 20:28N 31°58' E 120°26'5206163.6
2018-Jun-21 20:23N 23°41' E 117°34'774875.7
2018-Jun-21 20:22N 24°40' E 118°27'4514270.0
2018-Jun-21 20:15N 31°59' E 120°26'5285025.0
2018-Jun-21 20:09N 23°39' E 117°17'7606300.4
2018-Jun-21 20:02N 36°02' E 120°14'74831681.8
2018-Jun-21 20:00N 23°47' E 117°35'183136.4
2018-Jun-21 20:00N 23°37' E 117°18'4583568890.1
2018-Jun-21 20:00N 44°09' E 028°40'45171161466.1
2018-Jun-21 19:59N 30°58' E 122°10'44719176.4
2018-Jun-21 19:58N 24°27' E 118°04'2529689.5
2018-Jun-21 19:58N 24°40' E 118°27'72954.9
2018-Jun-21 19:53N 23°47' E 117°34'5159700.5
2018-Jun-21 19:50N 31°59' E 120°26'51856479.2
2018-Jun-21 19:50N 23°43' E 117°37'51734479.5
2018-Jun-21 19:49N 31°58' E 120°26'6705065.8
2018-Jun-21 19:41N 22°18' E 114°09'6723847.7
2018-Jun-21 19:30N 30°55' E 122°10'493295892.0
2018-Jun-21 19:30N 23°47' E 117°35'45902065319.6
2018-Jun-21 19:30N 44°09' E 028°40'4586500272.4
2018-Jun-21 19:30N 23°33' E 117°18'682567.4
2018-Jun-21 19:28N 24°27' E 118°04'483876.3
2018-Jun-21 19:27N 23°47' E 117°34'51563889.7
2018-Jun-21 19:27N 31°59' E 120°26'119.0
2018-Jun-21 19:25N 31°58' E 120°26'45025726.2
2018-Jun-21 19:24N 24°40' E 118°27'4502213.8
2018-Jun-21 19:12N 31°58' E 120°26'109724.0
2018-Jun-21 19:03N 30°43' E 121°57'2126.7
2018-Jun-21 19:02N 30°43' E 121°59'47822654.5
2018-Jun-21 19:01N 23°47' E 117°34'459016522665.2
2018-Jun-21 19:01N 44°09' E 028°40'45202711720.3
2018-Jun-21 19:00N 30°53' E 122°09'11023252.2
2018-Jun-21 19:00N 31°59' E 120°26'5151852352.8
2018-Jun-21 19:00N 23°47' E 117°35'7243057.5
2018-Jun-21 19:00N 24°40' E 118°27'45012662.3
2018-Jun-21 18:58N 31°58' E 120°26'2100.9
2018-Jun-21 18:57N 31°59' E 120°27'1097112.1
2018-Jun-21 18:56N 30°43' E 121°58'255.9
2018-Jun-21 18:54N 30°44' E 122°01'4313322.9
2018-Jun-21 18:46N 24°27' E 118°04'477156166.3
2018-Jun-21 18:46N 20°37' E 110°32'4695588.2
2018-Jun-21 18:41N 24°24' E 117°56'45624145.2
2018-Jun-21 18:40N 31°06' E 121°59'450329526.1
2018-Jun-21 18:31N 44°09' E 028°40'45208135293.1
2018-Jun-21 18:30N 30°45' E 122°03'481577299.6
2018-Jun-21 18:30N 23°47' E 117°35'0455.5
2018-Jun-21 18:30N 23°47' E 117°34'498105407.1
2018-Jun-21 18:30N 31°06' E 121°60'45012746.1
2018-Jun-21 18:28N 24°27' E 118°04'479143624.8
2018-Jun-21 18:28N 20°34' E 110°32'87512915.5
2018-Jun-21 18:24N 30°47' E 122°05'44154780.6
2018-Jun-21 18:23N 24°24' E 117°58'32980.3
2018-Jun-21 18:21N 24°40' E 118°27'4504986.9
2018-Jun-21 18:16N 31°58' E 120°26'113.2
2018-Jun-21 18:13N 31°59' E 120°26'124.3
2018-Jun-21 18:10N 31°60' E 120°27'10249175701.3
2018-Jun-21 18:06N 32°05' W 081°04'10401240012.1
2018-Jun-21 18:03N 30°49' E 122°07'4879731.3
2018-Jun-21 18:00N 23°47' E 117°34'514617258.0
2018-Jun-21 18:00N 31°58' E 120°26'472339608.6
2018-Jun-21 18:00N 24°25' E 117°60'4479554.3
2018-Jun-21 18:00N 23°47' E 117°35'105412919030.7
2018-Jun-21 18:00N 32°05' W 081°03'5230896549.0
2018-Jun-21 18:00N 44°09' E 028°40'4521957351.2
2018-Jun-21 17:59N 30°49' E 122°07'0128.6
2018-Jun-21 17:59N 30°49' E 122°07'11110223.4
2018-Jun-21 17:59N 31°59' E 120°26'165.2
2018-Jun-21 17:58N 31°58' E 120°26'45067530.3
2018-Jun-21 17:58N 24°40' E 118°27'25589.9
2018-Jun-21 17:55N 24°27' E 118°04'44410241.0
2018-Jun-21 17:52N 30°55' E 122°08'354.0
2018-Jun-21 17:49N 30°52' E 122°08'4227.1
2018-Jun-21 17:48N 30°53' E 122°12'452215896.8
2018-Jun-21 17:31N 44°09' E 028°40'45861500930.6
2018-Jun-21 17:30N 24°25' E 118°03'4627474.6
2018-Jun-21 17:30N 23°47' E 117°35'105403161910.1
2018-Jun-21 17:30N 32°05' W 081°02'103961497054.4
2018-Jun-21 17:30N 30°53' E 122°08'4323.1
2018-Jun-21 17:29N 30°55' E 122°12'1018289.8
2018-Jun-21 17:29N 30°47' E 122°06'484870778.3
2018-Jun-21 17:29N 23°47' E 117°34'483420.2
2018-Jun-21 17:28N 24°27' E 118°04'468561796.1
2018-Jun-21 17:28N 31°58' E 120°26'450162074.9
2018-Jun-21 17:28N 24°40' E 118°27'42315077.5
2018-Jun-21 17:26N 30°55' E 122°09'121.9
2018-Jun-21 17:22N 30°55' E 122°08'1071129.8
2018-Jun-21 17:17N 31°59' E 120°26'1 5.9
2018-Jun-21 17:02N 32°00' E 120°27'51623816.4
2018-Jun-21 17:01N 23°47' E 117°35'45901652273.4
2018-Jun-21 17:00N 44°09' E 028°40'45892359977.9
2018-Jun-21 17:00N 24°24' E 118°05'105353160457.6
2018-Jun-21 17:00N 32°05' W 081°02'102487378324.4
2018-Jun-21 17:00N 31°60' E 120°27'516116095.4
2018-Jun-21 17:00N 23°47' E 117°34'49627894.4
2018-Jun-21 16:59N 30°58' E 122°10'1242.6
2018-Jun-21 16:58N 30°57' E 122°10'42513673.2
2018-Jun-21 16:57N 24°40' E 118°27'45177267.4
2018-Jun-21 16:56N 31°59' E 120°26'1 9.3
2018-Jun-21 16:52N 31°58' E 120°26'1082563.1
2018-Jun-21 16:49N 30°55' E 122°08'1292.3
2018-Jun-21 16:41N 30°44' E 122°01'451924764.2
2018-Jun-21 16:31N 44°09' E 028°40'4590826138.2
2018-Jun-21 16:30N 23°47' E 117°35'47168518.3
2018-Jun-21 16:30N 24°23' E 118°08'472283265.6
2018-Jun-21 16:30N 31°59' E 120°26'1024818445958.8
2018-Jun-21 16:30N 32°05' W 081°02'102489223493.8
2018-Jun-21 16:30N 31°58' E 120°26'10517919.9
2018-Jun-21 16:30N 31°00' E 122°08'497105159.0
2018-Jun-21 16:29N 23°47' E 117°34'49235430.2
2018-Jun-21 16:28N 30°55' E 122°08'10813345.6
2018-Jun-21 16:28N 31°58' E 120°26'205075313.2
2018-Jun-21 16:26N 01°26' E 104°25'161890995.2
2018-Jun-21 16:25N 24°40' E 118°27'42776853.6
2018-Jun-21 16:25N 31°01' E 122°07'18718.6
2018-Jun-21 16:23N 30°43' E 121°59'8494900.6
2018-Jun-21 16:13N 21°04' E 110°29'8695880.4
2018-Jun-21 16:04N 31°01' E 122°12'1061739.7
2018-Jun-21 16:01N 31°58' E 120°26'439615826905.8
2018-Jun-21 16:00N 44°09' E 028°40'45901502070.8
2018-Jun-21 16:00N 23°47' E 117°35'515370532.7
2018-Jun-21 16:00N 31°59' E 120°26'102483074328.0
2018-Jun-21 16:00N 32°05' W 081°02'10542702804.7
2018-Jun-21 15:59N 24°21' E 118°10'45265091.6
2018-Jun-21 15:59N 31°03' E 122°04'86577827.6
2018-Jun-21 15:58N 21°04' E 110°29'86921134.6
2018-Jun-21 15:56N 31°01' E 122°12'4291544577.0
2018-Jun-21 15:56N 24°40' E 118°27'45052282.2
2018-Jun-21 15:55N 31°58' E 120°26'205241503.6
2018-Jun-21 15:52N 01°25' E 104°24'573.8
2018-Jun-21 15:48N 01°21' E 104°20'15499977.7
2018-Jun-21 15:38N 23°38' E 117°42'93213915.7
2018-Jun-21 15:34N 38°46' E 121°45'419864039.1
2018-Jun-21 15:30N 44°09' E 028°40'45951378597.9
2018-Jun-21 15:30N 24°40' E 118°27'451405632.6
2018-Jun-21 15:30N 31°59' E 120°26'515231627.0
2018-Jun-21 15:30N 23°47' E 117°34'056.9
2018-Jun-21 15:30N 23°47' E 117°35'51433050.5
2018-Jun-21 15:29N 31°58' E 120°26'2056308455.3
2018-Jun-21 15:29N 01°22' E 104°21'1548506582.6
2018-Jun-21 15:28N 23°38' E 117°41'52181594.9
2018-Jun-21 15:28N 31°58' E 120°26'1024818445738.5
2018-Jun-21 15:28N 32°05' W 081°02'103944157491.1
2018-Jun-21 15:28N 30°59' E 122°12'46667146.4
2018-Jun-21 15:27N 38°45' E 121°45'469240960.0
2018-Jun-21 15:27N 30°57' E 122°11'2055145083.4
2018-Jun-21 15:26N 01°19' E 104°17'124050714.9
2018-Jun-21 15:25N 21°04' E 110°29'86413701.9
2018-Jun-21 15:21N 31°04' E 122°01'430.3
2018-Jun-21 15:14N 31°06' E 121°57'450120458.9
2018-Jun-21 15:01N 44°09' E 028°40'43967912651.7
2018-Jun-21 15:00N 31°59' E 120°26'515168456.0
2018-Jun-21 15:00N 23°47' E 117°34'51461708.6
2018-Jun-21 15:00N 31°58' E 120°26'102483074497.9
2018-Jun-21 15:00N 32°05' W 081°02'105401897159.0
2018-Jun-21 14:59N 23°47' E 117°35'49668699.0
2018-Jun-21 14:59N 30°57' E 122°13'193993.9
2018-Jun-21 14:59N 31°08' E 121°54'20571234353.1
2018-Jun-21 14:58N 01°19' E 104°17'5162.6
2018-Jun-21 14:57N 01°17' E 104°12'163228529.0
2018-Jun-21 14:53N 24°40' E 118°27'45027012.5
2018-Jun-21 14:52N 31°58' E 120°26'933959.1
2018-Jun-21 14:51N 31°07' E 121°57'50317409.3
2018-Jun-21 14:49N 23°38' E 117°41'42818805.6
2018-Jun-21 14:48N 21°04' E 110°29'8455986.0
2018-Jun-21 14:39N 31°58' E 120°26'439630669.9
2018-Jun-21 14:30N 44°09' E 028°40'45901180197.4
2018-Jun-21 14:30N 23°47' E 117°35'515617508.3
2018-Jun-21 14:30N 31°59' E 120°26'1659.4
2018-Jun-21 14:30N 31°58' E 120°26'2065464570.5
2018-Jun-21 14:30N 01°16' E 104°12'1244248743.4
2018-Jun-21 14:30N 21°04' E 110°29'846435214.8
2018-Jun-21 14:29N 31°60' E 120°27'2069275877.0
2018-Jun-21 14:29N 01°16' E 104°07'108021388779.3
2018-Jun-21 14:29N 32°05' W 081°02'10540121228.6
2018-Jun-21 14:23N 24°40' E 118°27'963146.3
2018-Jun-21 14:22N 23°28' E 117°18'2468.9
2018-Jun-21 14:00N 23°47' E 117°34'45902360412.4
2018-Jun-21 14:00N 44°09' E 028°40'4590869714.1
2018-Jun-21 14:00N 23°29' E 117°20'535642578.5
2018-Jun-21 14:00N 31°59' E 120°26'1153.8
2018-Jun-21 14:00N 31°58' E 120°26'845337927.8
2018-Jun-21 14:00N 21°04' E 110°29'12481497865.2
2018-Jun-21 14:00N 01°15' E 104°02'2064743078.6
2018-Jun-21 13:59N 30°53' E 122°13'103991782735.9
2018-Jun-21 13:59N 32°05' W 081°02'108024320685.3
2018-Jun-21 13:59N 01°16' E 104°07'1565152227.6
2018-Jun-21 13:58N 23°47' E 117°35'721312.5
2018-Jun-21 13:55N 24°40' E 118°27'7962015.3
2018-Jun-21 13:31N 37°39' E 121°42'34625397.4
2018-Jun-21 13:30N 31°59' E 120°26'11978.2
2018-Jun-21 13:30N 31°58' E 120°26'514925628.7
2018-Jun-21 13:30N 23°47' E 117°34'45903304581.5
2018-Jun-21 13:30N 44°09' E 028°40'42375084697.1
2018-Jun-21 13:30N 37°39' E 121°42'24051236720.3
2018-Jun-21 13:30N 01°14' E 103°58'1251121695.8
2018-Jun-21 13:30N 21°04' E 110°29'42617224.0
2018-Jun-21 13:28N 23°47' E 117°35'105401264772.7
2018-Jun-21 13:28N 32°05' W 081°02'104001970598.9
2018-Jun-21 13:27N 30°52' E 122°12'42147376.7
2018-Jun-21 13:27N 24°40' E 118°27'4502556.4
2018-Jun-21 13:16N 31°58' E 120°26'518124397.8
2018-Jun-21 13:16N 23°40' E 117°44'460217931.5
2018-Jun-21 13:00N 44°09' E 028°40'4396879183.8
2018-Jun-21 13:00N 31°59' E 120°26'1489.3
2018-Jun-21 13:00N 31°58' E 120°26'529158820.0
2018-Jun-21 13:00N 23°34' E 117°25'105432530410.2
2018-Jun-21 13:00N 32°05' W 081°02'105409485835.6
2018-Jun-21 13:00N 23°47' E 117°34'426510870.4
2018-Jun-21 13:00N 21°04' E 110°29'42637389.1
2018-Jun-21 12:59N 23°47' E 117°35'1571628419.7
2018-Jun-21 12:59N 01°14' E 103°58'206853571.8
2018-Jun-21 12:56N 30°55' E 122°11'42427744.1
2018-Jun-21 12:55N 24°40' E 118°27'45081036.4
2018-Jun-21 12:55N 31°58' E 120°26'3452107.8
2018-Jun-21 12:45N 37°39' E 121°35'423417124.9
2018-Jun-21 12:31N 44°07' E 028°39'45933306728.9
2018-Jun-21 12:30N 23°36' E 117°28'527632073.8
2018-Jun-21 12:30N 31°59' E 120°26'3441238335.2
2018-Jun-21 12:30N 37°38' E 121°33'402206535.2
2018-Jun-21 12:30N 30°58' E 122°10'103939353790.5
2018-Jun-21 12:30N 32°05' W 081°02'107911618605.1
2018-Jun-21 12:30N 01°12' E 103°53'2077116850.0
2018-Jun-21 12:29N 31°58' E 120°26'51416674.3
2018-Jun-21 12:27N 23°47' E 117°34'721060.2
2018-Jun-21 12:23N 24°40' E 118°27'45043803.5
2018-Jun-21 12:22N 31°58' E 120°26'47465589.6
2018-Jun-21 12:22N 24°20' E 118°10'4693895.7
2018-Jun-21 12:15N 21°04' E 110°29'4261824.8
2018-Jun-21 12:01N 23°47' E 117°34'45918263143.9
2018-Jun-21 12:00N 44°07' E 028°39'48955873656.4
2018-Jun-21 12:00N 01°07' E 103°45'20853752636.5
2018-Jun-21 12:00N 31°58' E 120°26'523628188.3
2018-Jun-21 12:00N 23°38' E 117°31'5640009.9
2018-Jun-21 12:00N 24°22' E 118°08'813127237.9
2018-Jun-21 12:00N 37°37' E 121°29'8543073374.9
2018-Jun-21 12:00N 23°47' E 117°34'515308845.3
2018-Jun-21 12:00N 31°59' E 120°26'10434119.4
2018-Jun-21 12:00N 31°01' E 122°08'8661039051.1
2018-Jun-21 12:00N 21°04' E 110°29'1257348092.4
2018-Jun-21 11:59N 01°10' E 103°49'1650297003.6
2018-Jun-21 11:59N 24°40' E 118°27'105401459405.6
2018-Jun-21 11:59N 32°05' W 081°02'10555506620.4
2018-Jun-21 11:57N 23°41' E 117°46'5176081.5
2018-Jun-21 11:52N 31°58' E 120°26'20855768.5
2018-Jun-21 11:31N 01°07' E 103°45'24051236802.8
2018-Jun-21 11:30N 37°35' E 121°25'340611696.3
2018-Jun-21 11:30N 31°58' E 120°26'439715828488.6
2018-Jun-21 11:30N 44°09' E 028°40'459316536406.2
2018-Jun-21 11:30N 23°40' E 117°33'5347685.4
2018-Jun-21 11:30N 24°25' E 118°05'4756301.6
2018-Jun-21 11:30N 23°47' E 117°34'105413162443.7
2018-Jun-21 11:30N 32°05' W 081°04'102491366585.5
2018-Jun-21 11:30N 31°59' E 120°26'51522052.7
2018-Jun-21 11:28N 23°47' E 117°34'1586211461.8
2018-Jun-21 11:28N 01°06' E 103°41'159048494.1
2018-Jun-21 11:26N 23°45' E 117°45'51357767.7
2018-Jun-21 11:25N 31°58' E 120°26'84529808.0
2018-Jun-21 11:24N 21°04' E 110°29'4919204.5
2018-Jun-21 11:20N 24°40' E 118°27'45017065.4
2018-Jun-21 11:19N 31°58' E 120°26'2441216.1
2018-Jun-21 11:07N 36°02' E 120°14'7487239.2
2018-Jun-21 11:00N 23°47' E 117°35'15861427325.9
2018-Jun-21 11:00N 01°06' E 103°41'20881879576.1
2018-Jun-21 11:00N 31°59' E 120°26'519622462.4
2018-Jun-21 11:00N 23°43' E 117°36'105472109303.1
2018-Jun-21 11:00N 32°05' W 081°04'99757181957.5
2018-Jun-21 11:00N 37°35' E 121°22'4224661212.6
2018-Jun-21 11:00N 44°09' E 028°40'488717591926.3
2018-Jun-21 11:00N 01°09' E 103°37'1585203752.5
2018-Jun-21 10:59N 23°47' E 117°35'51412339.0
2018-Jun-21 10:57N 31°58' E 120°26'978757.0
2018-Jun-21 10:56N 31°04' E 122°01'49224595.7
2018-Jun-21 10:55N 23°48' E 117°45'415288.1
2018-Jun-21 10:54N 24°26' E 118°01'46339693.0
2018-Jun-21 10:54N 21°04' E 110°29'4919928.4
2018-Jun-21 10:51N 24°40' E 118°27'591722028.2
2018-Jun-21 10:34N 41°26' E 002°30'5510120216.0
2018-Jun-21 10:32N 37°33' E 121°24'5259511670.1
2018-Jun-21 10:31N 48°59' E 002°04'6221533235.0
2018-Jun-21 10:30N 01°10' E 103°38'48878796315.4
2018-Jun-21 10:30N 44°09' E 028°40'48823515058.9
2018-Jun-21 10:30N 01°14' E 103°36'2402432349.5
2018-Jun-21 10:30N 37°35' E 121°22'853383768.0
2018-Jun-21 10:30N 23°45' E 117°38'591621298959.4
2018-Jun-21 10:30N 41°26' E 002°30'55103967317.5
2018-Jun-21 10:30N 37°33' E 121°24'849611358.8
2018-Jun-21 10:30N 23°47' E 117°34'51557900.1
2018-Jun-21 10:29N 31°59' E 120°26'148.2
2018-Jun-21 10:28N 31°58' E 120°26'845304041.1
2018-Jun-21 10:28N 21°04' E 110°29'466167918.3
2018-Jun-21 10:28N 24°27' E 118°04'46836644.5
2018-Jun-21 10:27N 31°58' E 120°26'45067540.1
2018-Jun-21 10:27N 24°40' E 118°27'312085.3
2018-Jun-21 10:26N 24°24' E 117°58'3267.1
2018-Jun-21 10:25N 24°27' E 117°59'70511034.0
2018-Jun-21 10:21N 36°02' E 120°14'528522174.1
2018-Jun-21 10:07N 48°58' E 002°03'560957693.9
2018-Jun-21 10:01N 31°07' E 121°55'2081159382.0
2018-Jun-21 10:00N 01°14' E 103°36'15821897845.6
2018-Jun-21 10:00N 23°47' E 117°35'515463088.2
2018-Jun-21 10:00N 31°59' E 120°26'513307952.8
2018-Jun-21 10:00N 23°47' E 117°39'45935511867.2
2018-Jun-21 10:00N 44°09' E 028°40'42307614529.7
2018-Jun-21 10:00N 36°02' E 120°14'55216624972.0
2018-Jun-21 10:00N 41°24' E 002°29'55091652711.2
2018-Jun-21 10:00N 37°35' E 121°22'389140025.2
2018-Jun-21 10:00N 31°07' E 121°55'2075830198.2
2018-Jun-21 10:00N 01°19' E 103°37'6213366683.9
2018-Jun-21 09:59N 48°57' E 002°03'5768902761.2
2018-Jun-21 09:58N 24°27' E 117°59'52372.3
2018-Jun-21 09:58N 24°28' E 118°04'1212.8
2018-Jun-21 09:58N 24°27' E 118°04'251646.4
2018-Jun-21 09:57N 24°40' E 118°27'45015584.1
2018-Jun-21 09:55N 31°58' E 120°26'4737435.4
2018-Jun-21 09:51N 24°24' E 117°57'61373.6
2018-Jun-21 09:42N 23°31' E 117°24'86914032.2
2018-Jun-21 09:38N 37°35' E 121°25'0 3.9
2018-Jun-21 09:30N 37°35' E 121°25'8511021651.1
2018-Jun-21 09:30N 23°47' E 117°34'44157382.0
2018-Jun-21 09:30N 24°25' E 117°59'577220779516.2
2018-Jun-21 09:30N 48°57' E 002°00'45486056.1
2018-Jun-21 09:30N 41°23' E 002°28'58166979234.1
2018-Jun-21 09:30N 31°06' E 121°59'391200990.6
2018-Jun-21 09:30N 37°35' E 121°22'4224724185.9
2018-Jun-21 09:30N 44°09' E 028°40'48792927490.1
2018-Jun-21 09:29N 01°19' E 103°37'1621188202.7
2018-Jun-21 09:29N 24°25' E 117°60'472113322.5
2018-Jun-21 09:29N 31°59' E 120°26'47056397.2
2018-Jun-21 09:28N 24°27' E 117°59'51041.0
2018-Jun-21 09:28N 24°27' E 118°04'1619388677.4
2018-Jun-21 09:28N 01°24' E 103°39'164289579.2
2018-Jun-21 09:27N 24°40' E 118°27'4501620856.7
2018-Jun-21 09:27N 31°58' E 120°26'24418705.2
2018-Jun-21 09:26N 36°02' E 120°14'103590861.4
2018-Jun-21 09:25N 21°04' E 110°29'8572772.4
2018-Jun-21 09:07N 31°00' E 121°54'4914906.7
2018-Jun-21 09:01N 23°47' E 117°35'459016522542.3
2018-Jun-21 09:01N 44°09' E 028°40'45902360378.6
2018-Jun-21 09:00N 23°47' E 117°34'5915788675.3
2018-Jun-21 09:00N 41°21' E 002°28'55129921408.4
2018-Jun-21 09:00N 37°35' E 121°22'2392191349.6
2018-Jun-21 08:59N 01°24' E 103°39'5539.1
2018-Jun-21 08:59N 01°27' E 103°43'20681240875.0
2018-Jun-21 08:58N 31°59' E 120°26'470105743.5
2018-Jun-21 08:58N 24°27' E 117°59'4624531.6
2018-Jun-21 08:52N 21°04' E 110°29'466152653.0
2018-Jun-21 08:52N 24°27' E 118°04'70618539.4
2018-Jun-21 08:50N 36°03' E 120°18'694138732.3
2018-Jun-21 08:49N 24°36' E 118°26'68458667.0
2018-Jun-21 08:49N 35°54' E 120°17'91507.2
2018-Jun-21 08:48N 36°02' E 120°14'1165569.1
2018-Jun-21 08:47N 37°42' E 121°28'81816084.5
2018-Jun-21 08:44N 24°24' E 117°59'70937005.3
2018-Jun-21 08:43N 36°03' E 120°18'7614101.4
2018-Jun-21 08:32N 23°37' E 117°28'4592236140.0
2018-Jun-21 08:31N 44°09' E 028°40'45905507550.1
2018-Jun-21 08:30N 23°47' E 117°34'856133971.5
2018-Jun-21 08:30N 37°39' E 121°28'62031.4
2018-Jun-21 08:30N 37°35' E 121°22'23871432451.6
2018-Jun-21 08:30N 01°27' E 103°42'1613223383.1
2018-Jun-21 08:29N 24°23' E 118°06'6890.8
2018-Jun-21 08:29N 24°24' E 117°59'702316074.1
2018-Jun-21 08:29N 35°56' E 120°20'22732727812.9
2018-Jun-21 08:29N 01°27' E 103°44'1566352267.3
2018-Jun-21 08:29N 23°47' E 117°35'469149.0
2018-Jun-21 08:28N 24°27' E 117°59'16333.0
2018-Jun-21 08:25N 24°26' E 118°16'70415181.3
2018-Jun-21 08:23N 36°02' E 120°13'70457616.1
2018-Jun-21 08:22N 24°27' E 118°04'4493162.0
2018-Jun-21 08:13N 31°00' E 122°09'451421078.1
2018-Jun-21 08:01N 44°09' E 028°40'422815219028.7
2018-Jun-21 08:01N 37°35' E 121°26'8511021410.2
2018-Jun-21 08:00N 23°47' E 117°35'0145.4
2018-Jun-21 08:00N 23°47' E 117°34'851105662.8
2018-Jun-21 08:00N 37°35' E 121°22'39843432.7
2018-Jun-21 07:59N 30°59' E 122°11'45468043.2
2018-Jun-21 07:59N 24°24' E 117°59'707363612.9
2018-Jun-21 07:59N 36°01' E 120°17'22778196637.8
2018-Jun-21 07:59N 01°28' E 103°43'1612156837.6
2018-Jun-21 07:58N 24°27' E 117°59'5804.4
2018-Jun-21 07:58N 24°27' E 118°04'16284.4
2018-Jun-21 07:54N 24°21' E 118°21'70930398.9
2018-Jun-21 07:53N 36°03' E 120°18'70668644.4
2018-Jun-21 07:52N 24°26' E 118°16'65852.5
2018-Jun-21 07:48N 23°36' E 117°31'155458278.7
2018-Jun-21 07:46N 01°27' E 103°44'227715319.2
2018-Jun-21 07:37N 36°02' E 120°14'1169054.4
2018-Jun-21 07:37N 37°56' E 120°43'418241592.6
2018-Jun-21 07:31N 44°09' E 028°40'459016522882.2
2018-Jun-21 07:31N 23°47' E 117°35'8633107629.8
2018-Jun-21 07:30N 37°55' E 120°43'425218641.0
2018-Jun-21 07:30N 30°56' E 122°12'40153491.9
2018-Jun-21 07:30N 37°35' E 121°22'81088328.8
2018-Jun-21 07:29N 24°23' E 118°06'6926.5
2018-Jun-21 07:29N 24°24' E 117°59'708106188.0
2018-Jun-21 07:29N 36°02' E 120°14'704253526.3
2018-Jun-21 07:28N 24°26' E 118°16'165085.5
2018-Jun-21 07:28N 24°27' E 117°59'5842.7
2018-Jun-21 07:28N 24°27' E 118°04'80461618.3
2018-Jun-21 07:27N 37°33' E 121°23'2385286183.0
2018-Jun-21 07:27N 01°27' E 103°44'2276227581.8
2018-Jun-21 07:26N 36°00' E 120°16'4141.5
2018-Jun-21 07:24N 36°02' E 120°20'76472358.6
2018-Jun-21 07:24N 23°33' E 117°28'7647974.9
2018-Jun-21 07:18N 36°03' E 120°20'75645377.7
2018-Jun-21 07:17N 23°41' E 117°34'692212.7
2018-Jun-21 07:15N 24°22' E 118°34'391287.8
2018-Jun-21 07:13N 24°25' E 117°51'7096240.2
2018-Jun-21 07:07N 36°03' E 120°19'7497411.5
2018-Jun-21 07:00N 23°47' E 117°35'0139.0
2018-Jun-21 07:00N 23°47' E 117°34'4784167.0
2018-Jun-21 07:00N 24°24' E 118°06'45905507700.8
2018-Jun-21 07:00N 44°09' E 028°40'4227845308.1
2018-Jun-21 07:00N 37°33' E 121°23'2909.3
2018-Jun-21 07:00N 37°35' E 121°22'108129658.2
2018-Jun-21 07:00N 36°02' E 120°14'70879612.4
2018-Jun-21 06:59N 24°23' E 118°06'1612644966.2
2018-Jun-21 06:59N 01°28' E 103°43'1548265308.1
2018-Jun-21 06:59N 23°32' E 117°24'7916629.6
2018-Jun-21 06:59N 24°20' E 118°32'315294.0
2018-Jun-21 06:58N 24°27' E 117°59'16160.8
2018-Jun-21 06:52N 24°26' E 118°16'70630236.2
2018-Jun-21 06:51N 36°03' E 120°18'0 0.0
2018-Jun-21 06:50N 36°03' E 120°18'70919054.3
2018-Jun-21 06:48N 24°24' E 117°58'160911654.0
2018-Jun-21 06:40N 01°27' E 103°44'227692056.0
2018-Jun-21 06:38N 36°00' E 120°16'706158894.1
2018-Jun-21 06:38N 24°24' E 117°59'43345.2
2018-Jun-21 06:30N 23°47' E 117°34'849105436.1
2018-Jun-21 06:30N 37°33' E 121°23'22734.6
2018-Jun-21 06:30N 37°35' E 121°22'807726182.5
2018-Jun-21 06:30N 24°27' E 118°03'1614446845.4
2018-Jun-21 06:30N 01°28' E 103°43'48784389989.5
2018-Jun-21 06:30N 44°09' E 028°40'45901180264.7
2018-Jun-21 06:29N 24°23' E 118°06'465540.6
2018-Jun-21 06:29N 23°47' E 117°35'7489449.0
2018-Jun-21 06:24N 36°02' E 120°14'704230477.9
2018-Jun-21 06:24N 24°26' E 118°16'16241.8
2018-Jun-21 06:20N 24°24' E 117°59'3240.0
2018-Jun-21 06:19N 24°27' E 117°59'28676.6
2018-Jun-21 06:17N 24°15' E 118°26'79826.8
2018-Jun-21 06:11N 23°28' E 117°18'76815026.8
2018-Jun-21 06:08N 36°00' E 120°16'3518.4
2018-Jun-21 06:08N 36°03' E 120°18'431.8
2018-Jun-21 06:01N 36°02' E 120°14'423015229057.3
2018-Jun-21 06:01N 44°09' E 028°40'4611614801.4
2018-Jun-21 06:00N 24°14' E 118°24'52188447.7
2018-Jun-21 06:00N 23°47' E 117°35'849339691.7
2018-Jun-21 06:00N 37°33' E 121°23'807207642.7
2018-Jun-21 06:00N 24°25' E 117°60'6916.3
2018-Jun-21 05:59N 24°23' E 118°06'1612290221.3
2018-Jun-21 05:59N 01°28' E 103°43'16092896935.7
2018-Jun-21 05:59N 24°24' E 117°59'4314154.5
2018-Jun-21 05:59N 23°47' E 117°34'750207601.2
2018-Jun-21 05:59N 36°03' E 120°19'706127143.8
2018-Jun-21 05:58N 24°27' E 117°59'72980.0
2018-Jun-21 05:54N 23°27' E 117°16'811412.9
2018-Jun-21 05:50N 24°25' E 118°17'70617172.5
2018-Jun-21 05:48N 36°03' E 120°18'0 8.2
2018-Jun-21 05:46N 36°03' E 120°18'364.7
2018-Jun-21 05:43N 36°00' E 120°16'315.0
2018-Jun-21 05:31N 36°03' E 120°18'42331524057.9
2018-Jun-21 05:30N 44°09' E 028°40'45902753764.9
2018-Jun-21 05:30N 23°47' E 117°35'020.9
2018-Jun-21 05:30N 23°47' E 117°34'8513064221.9
2018-Jun-21 05:30N 37°35' E 121°22'24102.0
2018-Jun-21 05:30N 37°33' E 121°23'81989311.1
2018-Jun-21 05:29N 24°10' E 118°19'1832145.1
2018-Jun-21 05:29N 24°23' E 118°06'1612725593.3
2018-Jun-21 05:29N 01°28' E 103°43'160930177.6
2018-Jun-21 05:26N 24°24' E 117°59'3234.8
2018-Jun-21 05:25N 24°27' E 117°59'438105133.6
2018-Jun-21 05:25N 30°47' E 122°05'4325658.3
2018-Jun-21 05:20N 24°25' E 118°17'1620306921.0
2018-Jun-21 05:20N 01°27' E 103°43'2280139134.8
2018-Jun-21 05:19N 36°05' E 120°16'218.3
2018-Jun-21 05:12N 36°03' E 120°18'67917105.9
2018-Jun-21 05:10N 24°49' E 118°42'1151991.5
2018-Jun-21 05:06N 23°27' E 117°15'458847594.4
2018-Jun-21 05:01N 44°09' E 028°40'45904130639.3
2018-Jun-21 05:00N 23°47' E 117°35'022.8
2018-Jun-21 05:00N 23°47' E 117°35'4137173.0
2018-Jun-21 05:00N 24°06' E 118°15'725652447.8
2018-Jun-21 05:00N 36°03' E 120°19'10437380.5
2018-Jun-21 05:00N 37°33' E 121°23'80883092.1
2018-Jun-21 04:59N 24°23' E 118°06'1612725560.3
2018-Jun-21 04:59N 01°28' E 103°43'1619124038.3
2018-Jun-21 04:58N 24°25' E 118°17'172851.0
2018-Jun-21 04:58N 24°24' E 117°59'81043535.7
2018-Jun-21 04:57N 37°35' E 121°22'80728492.7
2018-Jun-21 04:55N 24°27' E 117°59'161614186.8
2018-Jun-21 04:48N 01°25' E 103°40'2283210719.5
2018-Jun-21 04:48N 36°03' E 120°18'6795149.5
2018-Jun-21 04:40N 24°49' E 118°42'2924498.2
2018-Jun-21 04:36N 22°18' E 114°09'67111498.4
2018-Jun-21 04:32N 30°53' E 122°09'4519143982.2
2018-Jun-21 04:31N 44°09' E 028°40'45901376881.2
2018-Jun-21 04:30N 23°47' E 117°35'1566626256.7
2018-Jun-21 04:30N 01°27' E 103°44'2277546456.1
2018-Jun-21 04:30N 36°02' E 120°16'10642541.4
2018-Jun-21 04:30N 37°33' E 121°23'23918607133.3
2018-Jun-21 04:30N 01°23' E 103°39'1618200896.2
2018-Jun-21 04:29N 24°23' E 118°06'706964.8
2018-Jun-21 04:29N 23°29' E 117°18'698868.7
2018-Jun-21 04:28N 24°27' E 117°59'706363177.1
2018-Jun-21 04:28N 36°03' E 120°19'709638232.8
2018-Jun-21 04:28N 24°24' E 117°59'81044195.1
2018-Jun-21 04:27N 37°35' E 121°22'9913568977.0
2018-Jun-21 04:27N 22°17' E 114°10'259933978.8
2018-Jun-21 04:27N 24°26' E 118°16'731097.1
2018-Jun-21 04:23N 23°31' E 117°22'51220949.9
2018-Jun-21 04:21N 30°55' E 122°10'465152287.7
2018-Jun-21 04:21N 24°01' E 118°09'56568.3
2018-Jun-21 04:15N 23°29' E 117°18'641109.8
2018-Jun-21 04:12N 24°25' E 117°52'521522.9
2018-Jun-21 04:10N 24°49' E 118°42'6795471.9
2018-Jun-21 04:02N 36°03' E 120°18'75025220.0
2018-Jun-21 04:01N 23°47' E 117°34'45901835871.4
2018-Jun-21 04:00N 44°09' E 028°40'45901652270.5
2018-Jun-21 04:00N 23°47' E 117°35'2014750.5
2018-Jun-21 04:00N 23°31' E 117°21'870240908.8
2018-Jun-21 04:00N 37°35' E 121°22'2511.5
2018-Jun-21 04:00N 37°33' E 121°23'23951436768.5
2018-Jun-21 04:00N 01°20' E 103°37'1622324410.9
2018-Jun-21 03:59N 24°23' E 118°06'7424.3
2018-Jun-21 03:58N 24°27' E 117°59'1612483483.4
2018-Jun-21 03:58N 01°27' E 103°44'154474106.0
2018-Jun-21 03:57N 23°30' E 117°20'581.8
2018-Jun-21 03:53N 23°33' E 117°25'711868.6
2018-Jun-21 03:51N 24°26' E 118°16'17699.3
2018-Jun-21 03:49N 24°24' E 117°58'7098292.5
2018-Jun-21 03:44N 36°03' E 120°18'8858828.5
2018-Jun-21 03:38N 22°19' E 114°09'2513412.2
2018-Jun-21 03:34N 24°20' E 118°08'459482695.7
2018-Jun-21 03:31N 44°09' E 028°40'459016522749.2
2018-Jun-21 03:31N 23°47' E 117°35'172295.2
2018-Jun-21 03:30N 23°33' E 117°25'867312258.4
2018-Jun-21 03:30N 37°35' E 121°22'23992879209.4
2018-Jun-21 03:30N 01°17' E 103°36'1579177604.8
2018-Jun-21 03:29N 23°47' E 117°34'8491528982.3
2018-Jun-21 03:29N 37°33' E 121°23'808969428.8
2018-Jun-21 03:29N 24°23' E 118°06'65117093.6
2018-Jun-21 03:29N 23°31' E 117°23'41319.9
2018-Jun-21 03:29N 23°35' E 117°26'1551328435.0
2018-Jun-21 03:29N 01°27' E 103°44'1609128725.0
2018-Jun-21 03:28N 24°24' E 117°59'16837.2
2018-Jun-21 03:27N 24°26' E 118°16'706253984.4
2018-Jun-21 03:27N 36°03' E 120°18'70628251.7
2018-Jun-21 03:25N 24°27' E 117°59'70618556.9
2018-Jun-21 03:23N 36°03' E 120°18'71041252.2
2018-Jun-21 03:22N 24°22' E 118°07'822.7
2018-Jun-21 03:00N 24°24' E 117°59'45843300345.9
2018-Jun-21 03:00N 44°09' E 028°40'458916519344.7
2018-Jun-21 03:00N 24°25' E 118°06'45284.7
2018-Jun-21 03:00N 24°25' E 118°01'809121302.6
2018-Jun-21 03:00N 37°35' E 121°22'866194860.2
2018-Jun-21 03:00N 23°34' E 117°26'15671127885.0
2018-Jun-21 03:00N 01°13' E 103°36'1582517828.0
2018-Jun-21 02:59N 23°47' E 117°35'0218.1
2018-Jun-21 02:59N 23°47' E 117°34'15665636504.2
2018-Jun-21 02:59N 01°27' E 103°44'23851717249.5
2018-Jun-21 02:59N 37°33' E 121°23'8082908286.3
2018-Jun-21 02:59N 24°23' E 118°06'7431.2
2018-Jun-21 02:58N 24°27' E 117°59'592128.4
2018-Jun-21 02:57N 23°36' E 117°27'76224931.2
2018-Jun-21 02:55N 36°03' E 120°19'760390727.7
2018-Jun-21 02:55N 23°37' E 117°29'645274.6
2018-Jun-21 02:54N 24°26' E 118°16'70623301.2
2018-Jun-21 02:52N 36°03' E 120°18'7452114.6
2018-Jun-21 02:31N 23°49' E 117°52'4602753060.1
2018-Jun-21 02:31N 44°09' E 028°40'45904130721.7
2018-Jun-21 02:30N 23°47' E 117°34'1582355962.9
2018-Jun-21 02:30N 01°11' E 103°39'1570941887.4
2018-Jun-21 02:30N 23°36' E 117°28'21016.0
2018-Jun-21 02:30N 23°38' E 117°30'8611033334.8
2018-Jun-21 02:30N 37°35' E 121°22'860106724.9
2018-Jun-21 02:29N 23°39' E 117°31'97764.8
2018-Jun-21 02:29N 23°47' E 117°35'54194138.4
2018-Jun-21 02:29N 24°26' E 118°16'94800.0
2018-Jun-21 02:29N 24°23' E 118°06'8082908286.3
2018-Jun-21 02:29N 37°33' E 121°23'805138041.2
2018-Jun-21 02:29N 24°26' E 118°05'125378.7
2018-Jun-21 02:29N 24°25' E 117°52'1609413659.1
2018-Jun-21 02:28N 01°27' E 103°41'1614322775.0
2018-Jun-21 02:28N 24°27' E 117°59'448146749.0
2018-Jun-21 02:28N 30°57' E 122°10'67318642.4
2018-Jun-21 02:26N 22°19' E 114°09'24610650.3
2018-Jun-21 02:24N 24°24' E 117°59'361874.0
2018-Jun-21 02:23N 23°48' E 117°51'746244038.2
2018-Jun-21 02:23N 36°03' E 120°18'0 0.6
2018-Jun-21 02:19N 36°03' E 120°18'129.4
2018-Jun-21 02:17N 36°03' E 120°19'7178576.0
2018-Jun-21 02:12N 24°15' E 118°11'8386922.5
2018-Jun-21 02:05N 38°08' E 120°02'12414358.1
2018-Jun-21 02:04N 36°05' E 120°18'229835968.1
2018-Jun-21 02:01N 01°10' E 103°42'15825694986.3
2018-Jun-21 02:00N 23°47' E 117°35'43155523.8
2018-Jun-21 02:00N 24°24' E 117°59'5045061.6
2018-Jun-21 02:00N 23°40' E 117°33'45935511997.5
2018-Jun-21 02:00N 44°09' E 028°40'45904130678.5
2018-Jun-21 02:00N 23°47' E 117°34'4682972.0
2018-Jun-21 02:00N 24°27' E 117°60'5261861.7
2018-Jun-21 02:00N 23°41' E 117°34'4935394.2
2018-Jun-21 02:00N 24°15' E 118°12'37133979.9
2018-Jun-21 02:00N 23°46' E 117°47'850254868.4
2018-Jun-21 02:00N 37°35' E 121°22'71128523.2
2018-Jun-21 02:00N 38°08' E 120°02'8312992758.1
2018-Jun-21 02:00N 24°23' E 118°07'558612.7
2018-Jun-21 01:59N 23°38' E 117°31'6328174.0
2018-Jun-21 01:59N 24°25' E 118°17'16252924178.7
2018-Jun-21 01:59N 01°24' E 103°39'16181164620.3
2018-Jun-21 01:59N 24°23' E 118°06'80832694.9
2018-Jun-21 01:58N 37°33' E 121°25'39611051.8
2018-Jun-21 01:56N 30°59' E 122°10'3182549.1
2018-Jun-21 01:48N 36°03' E 120°18'70913953.5
2018-Jun-21 01:45N 24°24' E 117°58'7084228.6
2018-Jun-21 01:35N 36°03' E 120°15'423156623.1
2018-Jun-21 01:31N 44°09' E 028°40'45858253189.9
2018-Jun-21 01:30N 24°26' E 118°02'44310.3
2018-Jun-21 01:30N 24°24' E 117°59'4377875.0
2018-Jun-21 01:30N 23°43' E 117°43'97740.3
2018-Jun-21 01:30N 23°41' E 117°34'39998.6
2018-Jun-21 01:30N 23°43' E 117°36'4944542.7
2018-Jun-21 01:30N 24°25' E 118°04'42584.9
2018-Jun-21 01:30N 24°23' E 118°06'108949.7
2018-Jun-21 01:30N 24°17' E 118°15'49175677.3
2018-Jun-21 01:30N 23°43' E 117°37'15795683768.4
2018-Jun-21 01:30N 01°09' E 103°45'2403865015.3
2018-Jun-21 01:30N 37°35' E 121°22'851766145.2
2018-Jun-21 01:30N 23°47' E 117°34'546314.1
2018-Jun-21 01:29N 24°25' E 118°17'162883741.4
2018-Jun-21 01:28N 01°21' E 103°38'2395319278.7
2018-Jun-21 01:28N 37°33' E 121°25'8501019736.4
2018-Jun-21 01:28N 23°47' E 117°35'494296594.6
2018-Jun-21 01:28N 30°57' E 122°10'32016709.0
2018-Jun-21 01:26N 36°03' E 120°18'4191.6
2018-Jun-21 01:25N 36°03' E 120°14'1111003.9
2018-Jun-21 01:19N 37°32' E 121°36'3382532.1
2018-Jun-21 01:11N 31°59' E 120°27'1138.6
2018-Jun-21 01:10N 31°59' E 120°26'843758908.3
2018-Jun-21 01:10N 21°05' E 110°30'84429486.7
2018-Jun-21 01:08N 31°59' E 120°26'160.2
2018-Jun-21 01:07N 31°58' E 120°25'120.0
2018-Jun-21 01:06N 31°58' E 120°26'0 7.6
2018-Jun-21 01:04N 31°58' E 120°26'439677579.5
2018-Jun-21 01:01N 44°09' E 028°40'45941272215.1
2018-Jun-21 01:00N 23°46' E 117°39'415061.2
2018-Jun-21 01:00N 23°47' E 117°35'72666.4
2018-Jun-21 01:00N 23°41' E 117°39'4785214.4
2018-Jun-21 01:00N 24°20' E 118°07'813935.3
2018-Jun-21 01:00N 24°25' E 118°01'471242391.0
2018-Jun-21 01:00N 31°59' E 120°26'340611554.0
2018-Jun-21 01:00N 37°35' E 121°22'340204238.6
2018-Jun-21 01:00N 31°58' E 120°26'339304884.3
2018-Jun-21 01:00N 37°32' E 121°35'8541536825.2
2018-Jun-21 01:00N 23°43' E 117°37'1576472767.3
2018-Jun-21 01:00N 01°18' E 103°37'139672.7
2018-Jun-21 00:59N 01°10' E 103°48'1632979147.1
2018-Jun-21 00:59N 24°25' E 118°17'106287.5
2018-Jun-21 00:59N 24°24' E 118°06'47244739.9
2018-Jun-21 00:59N 31°59' E 120°27'844126592.5
2018-Jun-21 00:58N 21°05' E 110°30'1141136926.6
2018-Jun-21 00:58N 37°33' E 121°25'85089989.2
2018-Jun-21 00:57N 23°47' E 117°34'51416525.1
2018-Jun-21 00:55N 31°58' E 120°25'140.7
2018-Jun-21 00:54N 31°58' E 120°26'123.6
2018-Jun-21 00:52N 31°59' E 120°26'4734301.9
2018-Jun-21 00:45N 24°24' E 117°59'47232679.2
2018-Jun-21 00:45N 31°58' E 120°25'24410863.2
2018-Jun-21 00:43N 36°02' E 120°13'70931519.4
2018-Jun-21 00:42N 24°22' E 118°07'71046501.4
2018-Jun-21 00:41N 36°03' E 120°18'122557.1
2018-Jun-21 00:41N 35°53' E 120°09'228213470.2
2018-Jun-21 00:31N 01°14' E 103°36'20831249922.2
2018-Jun-21 00:30N 31°59' E 120°26'43963165081.3
2018-Jun-21 00:30N 44°09' E 028°40'45904130722.5
2018-Jun-21 00:30N 23°47' E 117°34'517224.5
2018-Jun-21 00:30N 23°48' E 117°40'512204928.8
2018-Jun-21 00:30N 31°58' E 120°26'5141851393.3
2018-Jun-21 00:30N 23°47' E 117°35'4479947.0
2018-Jun-21 00:30N 24°19' E 118°09'476214336.5
2018-Jun-21 00:30N 31°59' E 120°26'3391221788.5
2018-Jun-21 00:30N 37°35' E 121°22'860619354.4
2018-Jun-21 00:30N 23°38' E 117°34'5465033.4
2018-Jun-21 00:30N 24°23' E 118°06'47194220.3
2018-Jun-21 00:29N 31°58' E 120°26'47394589.8
2018-Jun-21 00:29N 24°25' E 117°52'47536374.7
2018-Jun-21 00:28N 31°60' E 120°27'845217205.6
2018-Jun-21 00:28N 21°05' E 110°30'1141128368.7
2018-Jun-21 00:28N 37°33' E 121°25'8092910873.0
2018-Jun-21 00:28N 24°20' E 118°22'218404.3
2018-Jun-21 00:27N 24°24' E 117°59'47223614.4
2018-Jun-21 00:26N 31°58' E 120°26'471565531.0
2018-Jun-21 00:26N 24°24' E 118°06'709318916.4
2018-Jun-21 00:26N 36°03' E 120°18'424.7
2018-Jun-21 00:16N 36°02' E 120°13'3282146.7
2018-Jun-21 00:07N 30°48' E 122°06'3224293.3
2018-Jun-21 00:03N 35°58' E 120°21'74521628.2
2018-Jun-21 00:01N 23°47' E 117°34'15821898449.1
2018-Jun-21 00:00N 01°12' E 103°38'48862512546.4
2018-Jun-21 00:00N 44°09' E 028°40'45933307163.7
2018-Jun-21 00:00N 23°48' E 117°40'513369087.7
2018-Jun-21 00:00N 31°59' E 120°26'528271354.0
2018-Jun-21 00:00N 23°35' E 117°30'864345665.4
2018-Jun-21 00:00N 37°35' E 121°22'816146856.3
2018-Jun-21 00:00N 24°16' E 118°10'81288.8
2018-Jun-20 23:59N 24°24' E 118°06'4510.7
2018-Jun-20 23:59N 24°27' E 118°04'1623584245.9
2018-Jun-20 23:59N 01°13' E 103°53'1629202169.8
2018-Jun-20 23:58N 24°22' E 118°25'57206466.1
2018-Jun-20 23:58N 23°47' E 117°35'85427706.0
2018-Jun-20 23:56N 37°38' E 121°27'343137235.1
2018-Jun-20 23:56N 31°58' E 120°26'111398451.1
2018-Jun-20 23:56N 30°47' E 122°06'85455893.0
2018-Jun-20 23:55N 21°05' E 110°30'114362343.8
2018-Jun-20 23:54N 37°36' E 121°25'3403399.4
2018-Jun-20 23:48N 31°59' E 120°26'24115211.0
2018-Jun-20 23:47N 35°60' E 120°20'421.6
2018-Jun-20 23:37N 36°02' E 120°17'70867090.3
2018-Jun-20 23:36N 24°24' E 117°59'700120026.4
2018-Jun-20 23:36N 35°55' E 120°10'3223885.8
2018-Jun-20 23:31N 30°49' E 122°07'11115377.6
2018-Jun-20 23:31N 31°58' E 120°25'43961217267.1
2018-Jun-20 23:31N 44°09' E 028°40'45902753791.5
2018-Jun-20 23:30N 23°47' E 117°35'1720464.2
2018-Jun-20 23:30N 23°32' E 117°26'1730449.7
2018-Jun-20 23:30N 23°47' E 117°34'58612.3
2018-Jun-20 23:30N 23°48' E 117°40'849139007.9
2018-Jun-20 23:30N 37°35' E 121°22'81069395.9
2018-Jun-20 23:29N 24°24' E 118°06'46426116.3
2018-Jun-20 23:28N 21°05' E 110°30'843116661.6
2018-Jun-20 23:28N 31°58' E 120°25'33976318.1
2018-Jun-20 23:27N 37°34' E 121°24'33937011.9
2018-Jun-20 23:27N 31°58' E 120°26'46823405.0
2018-Jun-20 23:26N 24°27' E 118°04'81529032.5
2018-Jun-20 23:24N 37°43' E 121°28'34711685.2
2018-Jun-20 23:22N 31°59' E 120°26'24124767.6
2018-Jun-20 23:22N 35°60' E 120°20'10830.2
2018-Jun-20 23:21N 35°55' E 120°10'9107.9
2018-Jun-20 23:16N 36°02' E 120°17'2434702.6
2018-Jun-20 23:13N 31°59' E 120°26'5152460.1
2018-Jun-20 23:00N 23°47' E 117°35'45903304572.5
2018-Jun-20 23:00N 44°09' E 028°40'45933307166.0
2018-Jun-20 23:00N 23°48' E 117°40'512108441.2
2018-Jun-20 23:00N 31°58' E 120°26'340245015.6
2018-Jun-20 23:00N 37°35' E 121°22'851105673.7
2018-Jun-20 22:59N 23°47' E 117°34'15811423178.2
2018-Jun-20 22:59N 01°09' E 103°45'1628586010.9
2018-Jun-20 22:59N 24°24' E 118°06'6734255.1
2018-Jun-20 22:59N 23°32' E 117°20'40625654.4
2018-Jun-20 22:58N 21°05' E 110°30'46511378.3
2018-Jun-20 22:56N 24°27' E 118°04'70212144.6
2018-Jun-20 22:52N 36°00' E 120°12'5250.8
2018-Jun-20 22:51N 35°55' E 120°10'3294732.6
2018-Jun-20 22:47N 30°43' E 122°13'85123040.8
2018-Jun-20 22:45N 20°50' E 110°54'1028336371.3
2018-Jun-20 22:44N 35°53' E 120°13'23446741.0
2018-Jun-20 22:44N 31°59' E 120°27'116.5
2018-Jun-20 22:41N 31°59' E 120°26'2444101.8
2018-Jun-20 22:37N 36°02' E 120°13'7486569.8
2018-Jun-20 22:31N 23°47' E 117°35'099.0
2018-Jun-20 22:30N 23°47' E 117°35'2522202.1
2018-Jun-20 22:30N 23°30' E 117°15'15551119429.0
2018-Jun-20 22:30N 01°10' E 103°48'2401411584.6
2018-Jun-20 22:30N 37°35' E 121°22'41277996.3
2018-Jun-20 22:30N 30°46' E 122°12'44066035.4
2018-Jun-20 22:29N 24°24' E 118°06'46426119.7
2018-Jun-20 22:28N 21°05' E 110°30'42929678.0
2018-Jun-20 22:27N 23°48' E 117°40'73924859.4
2018-Jun-20 22:25N 35°55' E 120°10'7401770.6
2018-Jun-20 22:00N 23°47' E 117°35'307141.0
2018-Jun-20 22:00N 23°26' E 117°12'45862063674.6
2018-Jun-20 22:00N 44°09' E 028°40'42242534650.7
2018-Jun-20 22:00N 37°35' E 121°22'851766060.6
2018-Jun-20 22:00N 23°47' E 117°35'20820827.3
2018-Jun-20 21:59N 22°19' E 114°09'250900482.5
2018-Jun-20 21:59N 24°24' E 118°06'16222920236.4
2018-Jun-20 21:59N 01°12' E 103°51'125669577.5
2018-Jun-20 21:58N 21°05' E 110°30'42930261.1
2018-Jun-20 21:57N 23°48' E 117°40'488159547.6
2018-Jun-20 21:57N 30°51' E 122°12'3213224.6
2018-Jun-20 21:51N 35°55' E 120°10'831.6
2018-Jun-20 21:36N 36°02' E 120°13'7478004.0
2018-Jun-20 21:30N 23°48' E 117°35'45898260123.6
2018-Jun-20 21:30N 44°09' E 028°40'45932755947.1
2018-Jun-20 21:30N 23°48' E 117°40'52867.3
2018-Jun-20 21:30N 23°47' E 117°34'851235707.8
2018-Jun-20 21:30N 37°35' E 121°22'2396507340.2
2018-Jun-20 21:30N 01°13' E 103°54'1620208227.9
2018-Jun-20 21:29N 24°24' E 118°06'44835093.1
2018-Jun-20 21:28N 30°56' E 122°11'1105726.7
2018-Jun-20 21:27N 31°59' E 120°26'84384334.0
2018-Jun-20 21:27N 21°05' E 110°30'4656999.2
2018-Jun-20 21:23N 24°27' E 118°04'69654504.9
2018-Jun-20 21:22N 35°55' E 120°10'8164.9
2018-Jun-20 21:19N 36°02' E 120°13'3181025.8
2018-Jun-20 21:00N 30°59' E 122°09'10676334.7
2018-Jun-20 21:00N 31°59' E 120°26'514231099.5
2018-Jun-20 21:00N 23°48' E 117°35'1169.1
2018-Jun-20 21:00N 23°47' E 117°34'1570434810.5
2018-Jun-20 21:00N 01°15' E 103°57'1617253029.6
2018-Jun-20 20:59N 24°24' E 118°06'432565.0
2018-Jun-20 20:58N 23°48' E 117°39'459316533799.2
2018-Jun-20 20:58N 44°09' E 028°40'4224202772.1
2018-Jun-20 20:57N 37°35' E 121°22'1142256854.9
2018-Jun-20 20:57N 21°05' E 110°30'11403686.3
2018-Jun-20 20:38N 38°31' E 119°14'89136868.6
2018-Jun-20 20:37N 23°44' E 117°37'459443754.4
2018-Jun-20 20:30N 44°09' E 028°40'458916520247.3
2018-Jun-20 20:30N 23°48' E 117°35'1568941086.4
2018-Jun-20 20:30N 01°16' E 104°01'15671128578.6
2018-Jun-20 20:30N 23°47' E 117°34'851204281.5
2018-Jun-20 20:30N 37°35' E 121°22'2401308689.0
2018-Jun-20 20:29N 01°10' E 103°49'1625390012.2
2018-Jun-20 20:29N 24°24' E 118°06'45134556.9
2018-Jun-20 20:28N 31°02' E 122°05'49080225.0
2018-Jun-20 20:28N 23°51' E 117°42'43218495.3
2018-Jun-20 20:27N 21°05' E 110°30'4231784.5
2018-Jun-20 20:12N 23°42' E 117°35'7535173.9
2018-Jun-20 20:04N 36°02' E 120°13'3135775.0
2018-Jun-20 20:00N 31°03' E 122°02'45072704450.0
2018-Jun-20 20:00N 44°09' E 028°40'45891652026.5
2018-Jun-20 20:00N 23°48' E 117°35'850191264.5
2018-Jun-20 20:00N 37°35' E 121°22'85190124.2
2018-Jun-20 19:59N 23°47' E 117°34'4618522.7
2018-Jun-20 19:59N 24°24' E 118°06'1611644483.9
2018-Jun-20 19:59N 01°16' E 104°05'1614232351.5
2018-Jun-20 19:59N 24°27' E 118°04'46513940.0
2018-Jun-20 19:57N 21°05' E 110°30'42130342.5
2018-Jun-20 19:56N 23°41' E 117°34'5211471.1
2018-Jun-20 19:35N 31°59' E 120°26'5147608.1
2018-Jun-20 19:31N 23°48' E 117°35'14061.1
2018-Jun-20 19:31N 23°47' E 117°34'494444229.4
2018-Jun-20 19:30N 30°55' E 122°11'499359357.0
2018-Jun-20 19:30N 23°41' E 117°34'45931503267.0
2018-Jun-20 19:30N 44°09' E 028°40'42241013859.4
2018-Jun-20 19:30N 37°35' E 121°22'1142241745.8
2018-Jun-20 19:30N 21°05' E 110°30'843202400.4
2018-Jun-20 19:29N 31°59' E 120°26'472154415.9
2018-Jun-20 19:29N 24°24' E 118°06'451231951.5
2018-Jun-20 19:29N 31°03' E 122°02'44859787.1
2018-Jun-20 19:29N 24°27' E 118°04'1611134843.4
2018-Jun-20 19:28N 01°18' E 104°09'226820212.7
2018-Jun-20 19:21N 35°55' E 120°10'423212286.2
2018-Jun-20 19:01N 44°09' E 028°40'45891376687.3
2018-Jun-20 19:00N 23°48' E 117°35'850133052.7
2018-Jun-20 19:00N 37°35' E 121°22'8511532121.5
2018-Jun-20 19:00N 23°47' E 117°34'497198614.2
2018-Jun-20 19:00N 31°03' E 122°02'45149200.7
2018-Jun-20 18:59N 24°24' E 118°06'1606180623.5
2018-Jun-20 18:59N 01°19' E 104°13'16082894202.7
2018-Jun-20 18:59N 24°27' E 118°04'54193637.7
2018-Jun-20 18:59N 23°41' E 117°34'42112643.0
2018-Jun-20 18:57N 21°05' E 110°30'425969.1
2018-Jun-20 18:30N 23°48' E 117°35'495356745.2
2018-Jun-20 18:30N 31°03' E 122°02'20577403672.0
2018-Jun-20 18:30N 01°19' E 104°16'2381476292.4
2018-Jun-20 18:30N 37°35' E 121°22'1142205474.5
2018-Jun-20 18:30N 21°05' E 110°30'43613924934.4
2018-Jun-20 18:30N 44°09' E 028°40'4590826141.0
2018-Jun-20 18:29N 24°24' E 118°06'4618524.6
2018-Jun-20 18:29N 23°47' E 117°34'486976.6
2018-Jun-20 18:29N 24°27' E 118°04'543025.6
2018-Jun-20 18:28N 23°41' E 117°34'7469630.7
2018-Jun-20 18:23N 35°55' E 120°10'228738295.4
2018-Jun-20 18:19N 01°07' E 103°45'2086268136.7
2018-Jun-20 18:19N 31°59' E 120°26'1024940150.0
2018-Jun-20 18:04N 32°05' W 081°04'10541205113.8
2018-Jun-20 18:00N 23°48' E 117°35'1507.3
2018-Jun-20 18:00N 23°47' E 117°34'45901652266.8
2018-Jun-20 18:00N 44°09' E 028°40'45074056696.5
2018-Jun-20 18:00N 31°03' E 122°02'1038312459705.3
2018-Jun-20 18:00N 32°05' W 081°04'99755129960.4
2018-Jun-20 18:00N 37°35' E 121°22'1142205475.4
2018-Jun-20 18:00N 21°05' E 110°30'1239223072.4
2018-Jun-20 17:59N 01°21' E 104°20'16001440162.8
2018-Jun-20 17:59N 24°24' E 118°06'9118.2
2018-Jun-20 17:54N 24°15' E 118°10'70830699.5
2018-Jun-20 17:53N 35°55' E 120°10'2373449.3
2018-Jun-20 17:49N 31°59' E 120°26'5142175.0
2018-Jun-20 17:35N 23°47' E 117°39'41560.8
2018-Jun-20 17:30N 24°16' E 118°12'4479966.3
2018-Jun-20 17:30N 23°47' E 117°34'45901652266.5
2018-Jun-20 17:30N 44°09' E 028°40'52291882354.2
2018-Jun-20 17:30N 32°05' W 081°02'103812198432.0
2018-Jun-20 17:30N 31°03' E 122°02'49566061.1
2018-Jun-20 17:29N 23°48' E 117°35'78598.6
2018-Jun-20 17:29N 23°41' E 117°34'5161768.2
2018-Jun-20 17:29N 24°24' E 118°06'81021429.8
2018-Jun-20 17:27N 37°35' E 121°22'1142195690.8
2018-Jun-20 17:27N 21°05' E 110°30'4261674.1
2018-Jun-20 17:11N 23°44' E 117°38'8874968.0
2018-Jun-20 17:01N 38°23' E 120°03'41353721804.4
2018-Jun-20 17:01N 44°09' E 028°40'45072704470.4
2018-Jun-20 17:00N 31°03' E 122°02'496893698.0
2018-Jun-20 17:00N 23°47' E 117°34'4784151.2
2018-Jun-20 17:00N 24°17' E 118°14'5192039.7
2018-Jun-20 17:00N 23°41' E 117°34'78597.3
2018-Jun-20 17:00N 23°48' E 117°35'850145723.3
2018-Jun-20 17:00N 37°35' E 121°22'855341873.0
2018-Jun-20 17:00N 23°43' E 117°37'484972.1
2018-Jun-20 16:59N 24°24' E 118°06'84531363.5
2018-Jun-20 16:58N 38°23' E 120°03'9862381756.0
2018-Jun-20 16:56N 32°05' W 081°02'102981544744.3
2018-Jun-20 16:56N 21°05' E 110°30'84324482.4
2018-Jun-20 16:54N 31°59' E 120°26'1 8.3
2018-Jun-20 16:48N 31°58' E 120°26'2373334.9
2018-Jun-20 16:44N 35°55' E 120°10'6966739.9
2018-Jun-20 16:38N 24°27' E 118°04'54443.8
2018-Jun-20 16:30N 23°41' E 117°34'813831.8
2018-Jun-20 16:30N 23°48' E 117°35'45894130108.7
2018-Jun-20 16:30N 44°09' E 028°40'439615827095.1
2018-Jun-20 16:30N 31°59' E 120°27'9959193.8
2018-Jun-20 16:30N 31°03' E 122°02'1038118686672.3
2018-Jun-20 16:30N 32°05' W 081°02'99735129147.3
2018-Jun-20 16:30N 37°35' E 121°22'81066237.7
2018-Jun-20 16:29N 24°24' E 118°06'46449161.5
2018-Jun-20 16:29N 21°05' E 110°30'42427258.1
2018-Jun-20 16:28N 23°47' E 117°35'62173.3
2018-Jun-20 16:28N 23°41' E 117°34'5214582.1
2018-Jun-20 16:21N 31°59' E 120°26'47515120.8
2018-Jun-20 16:19N 24°18' E 118°17'49160.6
2018-Jun-20 16:00N 23°48' E 117°35'495445927.2
2018-Jun-20 16:00N 31°03' E 122°02'45075408996.9
2018-Jun-20 16:00N 44°09' E 028°40'45904130713.2
2018-Jun-20 16:00N 23°47' E 117°35'105402529552.8
2018-Jun-20 16:00N 32°05' W 081°02'99735129153.5
2018-Jun-20 16:00N 37°35' E 121°22'860309771.2
2018-Jun-20 16:00N 23°38' E 117°31'52472559.2
2018-Jun-20 15:59N 31°59' E 120°26'474426389.8
2018-Jun-20 15:59N 24°19' E 118°19'1311671.1
2018-Jun-20 15:59N 24°24' E 118°06'515790.8
2018-Jun-20 15:59N 23°41' E 117°34'421505720.0
2018-Jun-20 15:59N 21°05' E 110°30'425904.9
2018-Jun-20 15:30N 23°48' E 117°35'45892360075.1
2018-Jun-20 15:30N 44°09' E 028°40'45922754961.7
2018-Jun-20 15:30N 23°36' E 117°28'126333.7
2018-Jun-20 15:30N 23°47' E 117°34'497596520.2
2018-Jun-20 15:30N 31°05' E 121°59'1037718679142.4
2018-Jun-20 15:30N 32°05' W 081°02'99735129153.5
2018-Jun-20 15:30N 37°35' E 121°22'39131990.5
2018-Jun-20 15:29N 31°06' E 121°59'45052215.7
2018-Jun-20 15:29N 24°19' E 118°21'4721700801.2
2018-Jun-20 15:29N 31°59' E 120°26'84316500.0
2018-Jun-20 15:26N 21°05' E 110°30'4211080.6
2018-Jun-20 15:02N 23°41' E 117°34'4593150326.9
2018-Jun-20 15:00N 44°09' E 028°40'45921836750.2
2018-Jun-20 15:00N 23°34' E 117°26'105454218109.2
2018-Jun-20 15:00N 32°05' W 081°04'105416324890.4
2018-Jun-20 15:00N 23°47' E 117°34'8513064475.3
2018-Jun-20 15:00N 37°35' E 121°22'81063358.8
2018-Jun-20 14:59N 24°24' E 118°06'46447767.4
2018-Jun-20 14:59N 21°05' E 110°30'47861458.7
2018-Jun-20 14:58N 24°20' E 118°24'6026971.3
2018-Jun-20 14:58N 23°41' E 117°34'52112411.1
2018-Jun-20 14:55N 31°59' E 120°26'2441883.7
2018-Jun-20 14:48N 36°02' E 120°13'2444077.7
2018-Jun-20 14:44N 31°59' E 120°26'439619370.1
2018-Jun-20 14:31N 44°09' E 028°40'43961582541.3
2018-Jun-20 14:30N 31°59' E 120°26'532191512.3
2018-Jun-20 14:30N 23°33' E 117°22'105414743390.6
2018-Jun-20 14:30N 32°05' W 081°02'1053918970214.1
2018-Jun-20 14:30N 23°48' E 117°35'5141849029.8
2018-Jun-20 14:30N 31°59' E 120°26'340305717.4
2018-Jun-20 14:30N 37°35' E 121°22'818589222.5
2018-Jun-20 14:30N 24°14' E 118°08'41147696.1
2018-Jun-20 14:30N 23°47' E 117°34'6650.9
2018-Jun-20 14:29N 23°41' E 117°34'5130890.8
2018-Jun-20 14:29N 24°24' E 118°06'46446440.8
2018-Jun-20 14:29N 21°05' E 110°30'85417977.9
2018-Jun-20 14:26N 30°47' E 122°06'43231112.0
2018-Jun-20 14:25N 24°21' E 118°26'8423640.0
2018-Jun-20 14:11N 38°19' E 120°07'8815024.6
2018-Jun-20 14:01N 23°48' E 117°35'5141848994.2
2018-Jun-20 14:00N 31°59' E 120°26'43961978162.0
2018-Jun-20 14:00N 44°09' E 028°40'45995519364.0
2018-Jun-20 14:00N 24°16' E 118°11'4419797.7
2018-Jun-20 14:00N 23°47' E 117°34'61675.1
2018-Jun-20 14:00N 23°41' E 117°34'8573086134.8
2018-Jun-20 14:00N 37°35' E 121°22'868208434.6
2018-Jun-20 14:00N 23°33' E 117°18'898269356.6
2018-Jun-20 13:59N 38°19' E 120°07'842168336.2
2018-Jun-20 13:59N 24°24' E 118°06'105384741927.6
2018-Jun-20 13:59N 32°05' W 081°04'103871384986.2
2018-Jun-20 13:59N 31°02' E 122°06'1022317.8
2018-Jun-20 13:56N 31°59' E 120°26'3624828.1
2018-Jun-20 13:51N 38°00' E 119°51'112635865.6
2018-Jun-20 13:50N 21°05' E 110°30'2151049.1
2018-Jun-20 13:37N 22°18' E 114°08'2101865.2
2018-Jun-20 13:31N 23°48' E 117°35'244122.2
2018-Jun-20 13:30N 23°33' E 117°15'2383567.3
2018-Jun-20 13:30N 23°47' E 117°34'105419487348.4
2018-Jun-20 13:30N 32°05' W 081°04'99754488729.5
2018-Jun-20 13:30N 37°35' E 121°22'340611468.3
2018-Jun-20 13:30N 31°59' E 120°26'476155936.1
2018-Jun-20 13:30N 24°17' E 118°14'46011505760.7
2018-Jun-20 13:30N 44°09' E 028°40'4590826151.8
2018-Jun-20 13:29N 24°24' E 118°06'822197236.2
2018-Jun-20 13:29N 38°00' E 119°55'36254268.0
2018-Jun-20 13:29N 31°59' E 120°26'8445337.8
2018-Jun-20 13:19N 21°05' E 110°30'114816734.3
2018-Jun-20 13:15N 38°18' E 120°09'4546358.5
2018-Jun-20 13:11N 30°55' E 122°09'5354491.1
2018-Jun-20 13:04N 39°40' E 120°06'548219310.7
2018-Jun-20 13:03N 30°42' E 122°14'1202426.7
2018-Jun-20 13:00N 31°59' E 120°26'515308805.1
2018-Jun-20 13:00N 23°47' E 117°34'1451.2
2018-Jun-20 13:00N 23°48' E 117°35'4987636.0
2018-Jun-20 13:00N 24°18' E 118°17'105529496984.7
2018-Jun-20 13:00N 32°05' W 081°04'99755129974.0
2018-Jun-20 13:00N 37°35' E 121°22'81063358.8
2018-Jun-20 12:59N 24°24' E 118°06'4590869634.3
2018-Jun-20 12:59N 44°09' E 028°40'4396879192.7
2018-Jun-20 12:59N 31°59' E 120°26'844101239.0
2018-Jun-20 12:58N 21°05' E 110°30'86359718.6
2018-Jun-20 12:57N 30°56' E 122°10'141649.0
2018-Jun-20 12:57N 30°43' E 122°15'547196812.1
2018-Jun-20 12:57N 39°40' E 120°05'821927.2
2018-Jun-20 12:54N 38°17' E 120°09'10829193955.5
2018-Jun-20 12:51N 10°21' W 075°31'10833974926.7
2018-Jun-20 12:50N 37°60' E 120°03'236417196.2
2018-Jun-20 12:42N 01°26' E 104°25'205513285.1
2018-Jun-20 12:32N 32°00' E 120°34'4401140207.8
2018-Jun-20 12:31N 44°09' E 028°40'45895506867.7
2018-Jun-20 12:30N 23°48' E 117°35'514102707.0
2018-Jun-20 12:30N 31°59' E 120°26'102494612143.4
2018-Jun-20 12:30N 32°05' W 081°04'99755984854.5
2018-Jun-20 12:30N 37°35' E 121°22'8513064538.4
2018-Jun-20 12:30N 23°47' E 117°34'8633105703.2
2018-Jun-20 12:30N 37°60' E 120°07'1131239611.0
2018-Jun-20 12:30N 21°05' E 110°30'849436551.7
2018-Jun-20 12:30N 32°01' E 120°34'377338914.3
2018-Jun-20 12:29N 38°17' E 120°10'840215975.8
2018-Jun-20 12:29N 24°24' E 118°06'134782.8
2018-Jun-20 12:29N 24°19' E 118°20'71018935.4
2018-Jun-20 12:27N 36°02' E 120°13'2442449.2
2018-Jun-20 12:21N 31°59' E 120°26'11041205941.7
2018-Jun-20 12:18N 10°21' W 075°31'1110739825.4
2018-Jun-20 12:01N 23°41' E 117°34'52185199.7
2018-Jun-20 12:01N 31°59' E 120°26'377226240.0
2018-Jun-20 12:00N 38°16' E 120°11'878451592.9
2018-Jun-20 12:00N 23°48' E 117°35'45891032535.8
2018-Jun-20 12:00N 44°09' E 028°40'43977914270.2
2018-Jun-20 12:00N 32°02' E 120°30'4751709840.0
2018-Jun-20 12:00N 24°20' E 118°22'8102915312.2
2018-Jun-20 12:00N 37°35' E 121°22'6072269.6
2018-Jun-20 12:00N 37°59' E 120°13'8691042703.0
2018-Jun-20 12:00N 23°41' E 117°34'422101235.4
2018-Jun-20 12:00N 21°05' E 110°30'843159771.1
2018-Jun-20 11:59N 31°59' E 120°26'472283075.9
2018-Jun-20 11:59N 24°24' E 118°06'105374214686.7
2018-Jun-20 11:59N 32°05' W 081°03'134114758.2
2018-Jun-20 11:54N 10°21' W 075°31'1104165591.8
2018-Jun-20 11:43N 31°60' E 120°27'38573037.5
2018-Jun-20 11:43N 38°25' E 120°25'461207448.4
2018-Jun-20 11:43N 30°52' E 122°08'6144.2
2018-Jun-20 11:41N 30°55' E 122°14'4942964.3
2018-Jun-20 11:31N 23°48' E 117°35'513615746.6
2018-Jun-20 11:30N 31°58' E 120°26'4711697135.0
2018-Jun-20 11:30N 24°23' E 118°06'5130630.9
2018-Jun-20 11:30N 23°41' E 117°34'620307.9
2018-Jun-20 11:30N 23°47' E 117°34'515231772.6
2018-Jun-20 11:30N 31°59' E 120°26'385346163.5
2018-Jun-20 11:30N 38°24' E 120°23'98805927709.8
2018-Jun-20 11:30N 32°05' W 081°04'99757181961.0
2018-Jun-20 11:30N 37°35' E 121°22'109181786525.3
2018-Jun-20 11:30N 10°21' W 075°31'110411169007.4
2018-Jun-20 11:29N 31°59' E 120°26'36035067.5
2018-Jun-20 11:28N 37°59' E 120°18'43215110.9
2018-Jun-20 11:27N 30°57' E 122°13'44499883.9
2018-Jun-20 11:26N 24°22' E 118°25'4804938.5
2018-Jun-20 11:21N 21°05' E 110°30'123280656.4
2018-Jun-20 11:20N 01°26' E 104°25'2050254510.1
2018-Jun-20 11:19N 31°58' E 120°26'3771910.4
2018-Jun-20 11:07N 38°15' E 120°12'4578351.8
2018-Jun-20 11:04N 30°48' E 122°06'4848112.2
2018-Jun-20 11:00N 23°48' E 117°35'877350994.9
2018-Jun-20 11:00N 38°15' E 120°12'879451861.6
2018-Jun-20 11:00N 23°47' E 117°35'5151852849.9
2018-Jun-20 11:00N 31°59' E 120°26'382687949.6
2018-Jun-20 11:00N 38°21' E 120°20'891641556.2
2018-Jun-20 11:00N 23°41' E 117°34'1054637966344.3
2018-Jun-20 11:00N 32°05' W 081°04'99755129972.2
2018-Jun-20 11:00N 37°35' E 121°22'1142205478.2
2018-Jun-20 11:00N 21°05' E 110°30'467186873.3
2018-Jun-20 10:59N 24°22' E 118°10'4594661570.6
2018-Jun-20 10:59N 44°09' E 028°40'4515270904.7
2018-Jun-20 10:58N 31°02' E 122°11'1064651.4
2018-Jun-20 10:57N 31°59' E 120°26'236425482.5
2018-Jun-20 10:57N 35°55' E 120°10'2374010.6
2018-Jun-20 10:53N 31°58' E 120°26'466152660.9
2018-Jun-20 10:53N 24°23' E 118°28'11141299299.8
2018-Jun-20 10:51N 10°21' W 075°31'11096391615.6
2018-Jun-20 10:49N 23°28' E 117°17'15228236.9
2018-Jun-20 10:38N 01°26' E 104°25'154712518.1
2018-Jun-20 10:30N 23°48' E 117°35'2417416.8
2018-Jun-20 10:30N 23°29' E 117°19'536965174.5
2018-Jun-20 10:30N 31°59' E 120°26'2051434370.3
2018-Jun-20 10:30N 01°26' E 104°25'2372948796.5
2018-Jun-20 10:30N 37°35' E 121°22'42241086277.9
2018-Jun-20 10:30N 44°09' E 028°40'59165324288.4
2018-Jun-20 10:30N 10°21' W 075°31'111234004240.2
2018-Jun-20 10:29N 24°26' E 118°11'469281428.5
2018-Jun-20 10:29N 31°59' E 120°26'37991022.0
2018-Jun-20 10:29N 38°18' E 120°17'38017758.4
2018-Jun-20 10:28N 31°59' E 120°27'51584197.5
2018-Jun-20 10:27N 23°47' E 117°34'42428798.2
2018-Jun-20 10:27N 21°05' E 110°30'86537957.7
2018-Jun-20 10:25N 31°04' E 122°05'5036736.2
2018-Jun-20 10:21N 23°41' E 117°34'74670662.8
2018-Jun-20 10:20N 35°55' E 120°10'3241687.4
2018-Jun-20 10:09N 30°44' E 122°00'4263161.1
2018-Jun-20 10:00N 24°29' E 118°13'5497128.4
2018-Jun-20 10:00N 23°48' E 117°35'14058.5
2018-Jun-20 10:00N 23°47' E 117°34'45905507555.1
2018-Jun-20 10:00N 44°09' E 028°40'4506811018.8
2018-Jun-20 10:00N 31°05' E 122°01'503452284.6
2018-Jun-20 10:00N 23°42' E 117°34'8571541830.6
2018-Jun-20 10:00N 37°35' E 121°22'2620.5
2018-Jun-20 10:00N 37°36' E 121°25'109205616061.2
2018-Jun-20 10:00N 10°21' W 075°31'1083439001607.2
2018-Jun-20 10:00N 38°16' E 120°13'2388186855.0
2018-Jun-20 09:59N 01°22' E 104°22'153146706.6
2018-Jun-20 09:57N 23°31' E 117°21'49923308.7
2018-Jun-20 09:56N 30°44' E 121°59'1096026.3
2018-Jun-20 09:54N 31°59' E 120°27'2374140.7
2018-Jun-20 09:51N 35°55' E 120°10'23715777.8
2018-Jun-20 09:50N 31°59' E 120°26'46946869.6
2018-Jun-20 09:50N 24°27' E 118°04'4552208.4
2018-Jun-20 09:37N 20°49' E 110°52'4133690.6
2018-Jun-20 09:30N 23°47' E 117°34'57102444.7
2018-Jun-20 09:30N 24°29' E 118°17'443318761.8
2018-Jun-20 09:30N 31°06' E 121°57'2056672730.9
2018-Jun-20 09:30N 01°20' E 104°19'2380612040.2
2018-Jun-20 09:30N 37°35' E 121°22'8501530116.1
2018-Jun-20 09:30N 23°48' E 117°35'42476406.0
2018-Jun-20 09:30N 21°05' E 110°30'40992080.3
2018-Jun-20 09:29N 23°32' E 117°23'164188.1
2018-Jun-20 09:29N 23°43' E 117°36'4595516941.3
2018-Jun-20 09:29N 44°07' E 028°39'4397510655.3
2018-Jun-20 09:28N 31°59' E 120°26'57032281146.7
2018-Jun-20 09:28N 41°23' E 002°30'5703126739.1
2018-Jun-20 09:25N 31°58' E 120°26'46810735.1
2018-Jun-20 09:23N 24°27' E 118°04'45310321.2
2018-Jun-20 09:20N 20°50' E 110°54'4423214.4
2018-Jun-20 09:12N 24°25' E 117°52'7007899.8
2018-Jun-20 09:06N 35°55' E 120°10'423243528.4
2018-Jun-20 09:01N 44°09' E 028°40'45898260279.3
2018-Jun-20 09:00N 23°48' E 117°35'174744.1
2018-Jun-20 09:00N 23°33' E 117°26'1629019.2
2018-Jun-20 09:00N 23°47' E 117°34'591310644275.4
2018-Jun-20 09:00N 41°22' E 002°30'55101239827.2
2018-Jun-20 09:00N 37°35' E 121°22'2383245129.2
2018-Jun-20 08:59N 01°18' E 104°14'2059741152.5
2018-Jun-20 08:59N 31°08' E 121°53'9023149.9
2018-Jun-20 08:59N 31°58' E 120°25'2072745952.3
2018-Jun-20 08:59N 01°14' E 103°59'2275170639.5
2018-Jun-20 08:58N 35°55' E 120°10'102543413.8
2018-Jun-20 08:57N 21°05' E 110°30'46526134.4
2018-Jun-20 08:56N 24°27' E 118°04'8766.2
2018-Jun-20 08:55N 24°24' E 117°56'835100251.4
2018-Jun-20 08:54N 38°12' E 120°04'11435466.1
2018-Jun-20 08:42N 20°52' E 110°58'107952989333.1
2018-Jun-20 08:42N 10°21' W 075°31'1090993058.9
2018-Jun-20 08:35N 36°03' E 120°18'41051.3
2018-Jun-20 08:34N 36°02' E 120°13'74811660.1
2018-Jun-20 08:31N 23°47' E 117°34'47168495.3
2018-Jun-20 08:30N 24°26' E 118°02'4843267.3
2018-Jun-20 08:30N 23°45' E 117°35'45915509238.1
2018-Jun-20 08:30N 44°09' E 028°40'4224584919.2
2018-Jun-20 08:30N 37°35' E 121°22'109181871602.9
2018-Jun-20 08:30N 10°21' W 075°31'109057851651.6
2018-Jun-20 08:30N 35°55' E 120°10'2269816926.9
2018-Jun-20 08:29N 01°16' E 104°10'2389145742.7
2018-Jun-20 08:28N 38°11' E 120°01'88534256.7
2018-Jun-20 08:27N 23°36' E 117°27'41414751.8
2018-Jun-20 08:25N 21°05' E 110°30'4652400.0
2018-Jun-20 08:14N 24°27' E 118°04'451180329.4
2018-Jun-20 08:13N 31°12' E 121°49'3015681.1
2018-Jun-20 08:10N 36°02' E 120°13'4135.4
2018-Jun-20 08:08N 36°03' E 120°18'7075328.0
2018-Jun-20 08:01N 24°26' E 118°01'4724115.5
2018-Jun-20 08:00N 23°45' E 117°35'501600830.2
2018-Jun-20 08:00N 31°13' E 121°48'425510259.1
2018-Jun-20 08:00N 38°08' E 119°57'871196031.5
2018-Jun-20 08:00N 23°46' E 117°35'1564106264.6
2018-Jun-20 07:59N 01°15' E 104°06'1614145291.7
2018-Jun-20 07:58N 24°27' E 118°04'1626167256.0
2018-Jun-20 07:58N 01°10' E 103°50'1567148424.4
2018-Jun-20 07:57N 23°38' E 117°29'861155069.2
2018-Jun-20 07:57N 37°35' E 121°22'114237703.3
2018-Jun-20 07:55N 21°05' E 110°30'103698119.2
2018-Jun-20 07:54N 36°03' E 120°19'1090966906.1
2018-Jun-20 07:45N 10°21' W 075°31'10944287589.1
2018-Jun-20 07:42N 22°18' E 114°09'88511029.5
2018-Jun-20 07:38N 36°03' E 120°18'228519307.5
2018-Jun-20 07:31N 01°14' E 104°01'49022205722.4
2018-Jun-20 07:30N 44°09' E 028°40'45915508950.0
2018-Jun-20 07:30N 23°46' E 117°35'75228.3
2018-Jun-20 07:30N 23°39' E 117°31'860171934.2
2018-Jun-20 07:30N 37°35' E 121°22'8531023284.8
2018-Jun-20 07:30N 23°45' E 117°35'1580299355.4
2018-Jun-20 07:30N 01°08' E 103°46'2084833602.9
2018-Jun-20 07:29N 31°59' E 120°26'367188987.8
2018-Jun-20 07:29N 38°05' E 119°54'82760743.4
2018-Jun-20 07:28N 24°25' E 117°52'45471000.1
2018-Jun-20 07:28N 21°05' E 110°30'46524968.6
2018-Jun-20 07:27N 24°27' E 118°04'2517294.3
2018-Jun-20 07:25N 22°19' E 114°09'10945505133.9
2018-Jun-20 07:24N 10°21' W 075°31'10905552914.8
2018-Jun-20 07:22N 36°02' E 120°13'848.6
2018-Jun-20 07:13N 35°55' E 120°10'423220727.8
2018-Jun-20 07:00N 44°09' E 028°40'45911652711.0
2018-Jun-20 07:00N 23°46' E 117°35'853219243.7
2018-Jun-20 07:00N 37°35' E 121°22'23951077547.3
2018-Jun-20 07:00N 01°13' E 103°57'107272970450.3
2018-Jun-20 07:00N 10°21' W 075°31'111196671646.3
2018-Jun-20 07:00N 24°24' E 118°06'824228127.0
2018-Jun-20 06:59N 38°02' E 119°51'865778466.5
2018-Jun-20 06:59N 23°45' E 117°35'56030.3
2018-Jun-20 06:59N 23°41' E 117°33'15791421394.2
2018-Jun-20 06:59N 01°06' E 103°42'141422821.1
2018-Jun-20 06:55N 22°19' E 114°09'21645801.9
2018-Jun-20 06:55N 21°05' E 110°30'102520276.2
2018-Jun-20 06:52N 35°55' E 120°10'1278284.0
2018-Jun-20 06:51N 37°59' E 120°41'36110999.1
2018-Jun-20 06:49N 31°59' E 120°26'2447270.5
2018-Jun-20 06:47N 36°03' E 120°18'2452254.6
2018-Jun-20 06:41N 31°58' E 120°26'1 7.1
2018-Jun-20 06:31N 31°59' E 120°27'43961582719.8
2018-Jun-20 06:30N 44°09' E 028°40'45912754521.1
2018-Jun-20 06:30N 23°46' E 117°35'1575404918.4
2018-Jun-20 06:30N 01°11' E 103°52'23982158583.2
2018-Jun-20 06:30N 37°35' E 121°22'24072887816.2
2018-Jun-20 06:30N 01°08' E 103°38'107092029146.1
2018-Jun-20 06:30N 10°21' W 075°31'1086739119493.8
2018-Jun-20 06:30N 37°59' E 120°40'114446279.7
2018-Jun-20 06:28N 21°05' E 110°30'42410097.0
2018-Jun-20 06:26N 23°43' E 117°36'51816497.8
2018-Jun-20 06:24N 31°58' E 120°27'3627289.9
2018-Jun-20 06:21N 37°59' E 119°47'1181452.3
2018-Jun-20 06:16N 36°02' E 120°13'24415959.7
2018-Jun-20 06:15N 31°59' E 120°26'54522282.2
2018-Jun-20 06:13N 23°19' E 117°22'719898.5
2018-Jun-20 06:13N 24°25' E 117°52'457721999.5
2018-Jun-20 06:01N 44°09' E 028°40'459116527797.4
2018-Jun-20 06:01N 23°45' E 117°35'517143295.0
2018-Jun-20 06:00N 31°60' E 120°27'517620830.7
2018-Jun-20 06:00N 23°46' E 117°35'853180553.6
2018-Jun-20 06:00N 37°35' E 121°22'2403393289.6
2018-Jun-20 06:00N 01°13' E 103°36'1243603.6
2018-Jun-20 06:00N 01°09' E 103°47'126050406.3
2018-Jun-20 05:58N 21°05' E 110°30'103337946.1
2018-Jun-20 05:56N 36°02' E 120°13'2449463.7
2018-Jun-20 05:55N 31°58' E 120°27'36120967.4
2018-Jun-20 05:54N 37°59' E 120°41'108682608218.8
2018-Jun-20 05:54N 10°21' W 075°31'11041283903.5
2018-Jun-20 05:51N 31°59' E 120°26'47320761.5
2018-Jun-20 05:50N 24°24' E 117°58'7006830.4
2018-Jun-20 05:44N 35°55' E 120°10'7687203.3
2018-Jun-20 05:37N 23°20' E 117°23'73757.0
2018-Jun-20 05:32N 24°25' E 118°01'4585266204.8
2018-Jun-20 05:31N 44°09' E 028°40'489417618533.4
2018-Jun-20 05:31N 01°06' E 103°43'20883758059.3
2018-Jun-20 05:30N 31°59' E 120°27'20801069768.6
2018-Jun-20 05:30N 01°18' E 103°37'15772838136.9
2018-Jun-20 05:30N 23°45' E 117°35'853139538.8
2018-Jun-20 05:30N 37°35' E 121°22'807414805.9
2018-Jun-20 05:30N 24°27' E 118°03'823592694.0
2018-Jun-20 05:30N 37°59' E 120°41'108684890417.6
2018-Jun-20 05:30N 10°21' W 075°31'111053075346.6
2018-Jun-20 05:29N 23°46' E 117°35'467955.8
2018-Jun-20 05:29N 24°25' E 118°01'47142417.2
2018-Jun-20 05:28N 31°59' E 120°26'843159788.9
2018-Jun-20 05:28N 21°05' E 110°30'1033195722.1
2018-Jun-20 05:28N 36°02' E 120°13'77663468.4
2018-Jun-20 05:27N 23°21' E 117°24'291108.1
2018-Jun-20 05:25N 23°46' E 117°39'7492686.5
2018-Jun-20 05:09N 36°02' E 120°20'31411538.2
2018-Jun-20 05:07N 31°01' E 122°07'451241228.9
2018-Jun-20 05:01N 44°09' E 028°40'45912361015.7
2018-Jun-20 05:00N 23°46' E 117°35'0106.9
2018-Jun-20 05:00N 23°45' E 117°35'853139539.8
2018-Jun-20 05:00N 37°35' E 121°22'109181965188.8
2018-Jun-20 05:00N 10°21' W 075°31'111136667628.1
2018-Jun-20 05:00N 24°25' E 117°60'7028175.8
2018-Jun-20 04:59N 23°22' E 117°25'7214455.8
2018-Jun-20 04:59N 24°24' E 118°05'1632225948.9
2018-Jun-20 04:59N 01°08' E 103°39'1264133796.2
2018-Jun-20 04:58N 21°05' E 110°30'103365240.4
2018-Jun-20 04:57N 36°02' E 120°13'5140.0
2018-Jun-20 04:55N 36°03' E 120°19'11861.7
2018-Jun-20 04:54N 35°55' E 120°10'2373981.1
2018-Jun-20 04:51N 31°59' E 120°26'5354866.6
2018-Jun-20 04:44N 23°34' E 117°06'88520164.1
2018-Jun-20 04:42N 37°59' E 120°41'8694666.9
2018-Jun-20 04:30N 23°45' E 117°35'15825695250.5
2018-Jun-20 04:30N 01°12' E 103°37'48851172283.7
2018-Jun-20 04:30N 44°09' E 028°40'45991839612.6
2018-Jun-20 04:30N 23°23' E 117°26'876630726.7
2018-Jun-20 04:30N 37°35' E 121°22'80952980.2
2018-Jun-20 04:29N 24°24' E 118°05'473104.2
2018-Jun-20 04:28N 23°46' E 117°35'11105434560.1
2018-Jun-20 04:27N 10°21' W 075°31'10763421170.3
2018-Jun-20 04:25N 21°05' E 110°30'102554268.9
2018-Jun-20 04:24N 35°55' E 120°10'1277858.1
2018-Jun-20 04:23N 37°59' E 120°41'1186609.8
2018-Jun-20 04:22N 36°03' E 120°18'4325.6
2018-Jun-20 04:21N 36°02' E 120°13'557.1
2018-Jun-20 04:16N 36°03' E 120°19'0 0.0
2018-Jun-20 04:03N 36°03' E 120°19'32282904.7
2018-Jun-20 04:03N 30°55' E 122°12'3228928.3
2018-Jun-20 04:01N 36°03' E 120°18'75190140.7
2018-Jun-20 04:00N 23°45' E 117°35'2226031.4
2018-Jun-20 04:00N 23°25' E 117°27'459916556298.9
2018-Jun-20 04:00N 44°09' E 028°40'42301522888.2
2018-Jun-20 04:00N 36°02' E 120°13'10825937.5
2018-Jun-20 04:00N 37°35' E 121°22'340611467.0
2018-Jun-20 04:00N 31°59' E 120°26'11114266.2
2018-Jun-20 03:59N 30°55' E 122°12'2077934557.2
2018-Jun-20 03:59N 01°16' E 103°36'1626365835.1
2018-Jun-20 03:59N 24°24' E 118°06'7008204.2
2018-Jun-20 03:54N 35°55' E 120°10'109051869443.3
2018-Jun-20 03:54N 10°21' W 075°31'10867814992.3
2018-Jun-20 03:53N 37°59' E 120°40'11444118877.0
2018-Jun-20 03:53N 21°05' E 110°30'103660129.8
2018-Jun-20 03:52N 36°03' E 120°18'24411409.1
2018-Jun-20 03:50N 31°59' E 120°27'111.8
2018-Jun-20 03:45N 32°00' E 120°27'24214079.0
2018-Jun-20 03:44N 36°03' E 120°19'2442133.3
2018-Jun-20 03:37N 31°59' E 120°26'439638225.6
2018-Jun-20 03:31N 44°09' E 028°40'48785854189.6
2018-Jun-20 03:30N 01°21' E 103°38'20703725643.4
2018-Jun-20 03:30N 30°52' E 122°13'512460971.0
2018-Jun-20 03:30N 23°26' E 117°28'536107208.9
2018-Jun-20 03:30N 31°59' E 120°26'340174704.8
2018-Jun-20 03:30N 37°35' E 121°22'3391221767.0
2018-Jun-20 03:30N 31°59' E 120°26'110411987336.5
2018-Jun-20 03:30N 10°21' W 075°31'111191177261.5
2018-Jun-20 03:29N 24°24' E 118°06'7091275498.7
2018-Jun-20 03:29N 36°03' E 120°18'751337935.5
2018-Jun-20 03:29N 23°46' E 117°35'424217893.5
2018-Jun-20 03:29N 21°05' E 110°30'844104712.1
2018-Jun-20 03:28N 31°59' E 120°27'51615614.6
2018-Jun-20 03:26N 23°45' E 117°35'20911750.7
2018-Jun-20 03:25N 22°19' E 114°08'25282323.8
2018-Jun-20 03:25N 24°21' E 118°07'70911007.4
2018-Jun-20 03:21N 36°02' E 120°13'449.1
2018-Jun-20 03:16N 36°03' E 120°18'70911655.9
2018-Jun-20 03:13N 24°25' E 117°52'7103876.8
2018-Jun-20 03:02N 36°03' E 120°19'75234694.1
2018-Jun-20 03:00N 23°45' E 117°35'45918263949.2
2018-Jun-20 03:00N 44°09' E 028°40'45915509143.4
2018-Jun-20 03:00N 23°45' E 117°35'750385549.5
2018-Jun-20 03:00N 36°02' E 120°13'706363152.2
2018-Jun-20 03:00N 24°25' E 118°06'4701691880.8
2018-Jun-20 03:00N 31°58' E 120°26'340204091.3
2018-Jun-20 03:00N 37°35' E 121°22'2390391013.1
2018-Jun-20 03:00N 01°26' E 103°40'124689738.4
2018-Jun-20 02:59N 21°05' E 110°30'84486779.7
2018-Jun-20 02:58N 31°59' E 120°26'47248551.3
2018-Jun-20 02:58N 24°24' E 118°06'47270749.4
2018-Jun-20 02:57N 31°59' E 120°26'4733709.8
2018-Jun-20 02:50N 24°24' E 117°58'70911400.3
2018-Jun-20 02:46N 36°03' E 120°19'76828205.8
2018-Jun-20 02:44N 23°34' E 117°06'76810515.2
2018-Jun-20 02:40N 36°03' E 120°19'33111793.7
2018-Jun-20 02:38N 30°47' E 122°14'3253672.4
2018-Jun-20 02:33N 35°55' E 120°10'4232112021.6
2018-Jun-20 02:31N 44°09' E 028°40'45853301224.7
2018-Jun-20 02:30N 24°27' E 118°03'4987962.3
2018-Jun-20 02:30N 23°45' E 117°35'0554.8
2018-Jun-20 02:30N 23°45' E 117°35'15641877288.8
2018-Jun-20 02:30N 01°27' E 103°44'20681488787.0
2018-Jun-20 02:30N 31°59' E 120°27'1242.5
2018-Jun-20 02:30N 31°59' E 120°26'339122178.8
2018-Jun-20 02:30N 37°35' E 121°22'3401223022.3
2018-Jun-20 02:30N 31°59' E 120°26'53244555.1
2018-Jun-20 02:29N 23°30' E 117°32'41551578.9
2018-Jun-20 02:29N 21°05' E 110°30'465152113.4
2018-Jun-20 02:29N 24°26' E 118°05'2143.5
2018-Jun-20 02:28N 24°24' E 118°06'707115755.0
2018-Jun-20 02:27N 36°02' E 120°13'2454682.1
2018-Jun-20 02:24N 31°58' E 120°27'41230934.4
2018-Jun-20 02:23N 38°47' E 121°30'1734332.2
2018-Jun-20 02:21N 36°03' E 120°19'11223.5
2018-Jun-20 02:18N 35°55' E 120°10'11760.7
2018-Jun-20 02:17N 36°03' E 120°18'118681.4
2018-Jun-20 02:07N 37°59' E 120°41'1171554.2
2018-Jun-20 02:02N 36°03' E 120°18'227988221.1
2018-Jun-20 02:01N 01°27' E 103°44'20681488895.0
2018-Jun-20 02:00N 31°59' E 120°26'517464916.2
2018-Jun-20 02:00N 23°45' E 117°35'145783.3
2018-Jun-20 02:00N 23°31' E 117°33'5926735.8
2018-Jun-20 02:00N 24°25' E 118°00'8261485982.5
2018-Jun-20 02:00N 37°59' E 120°40'4124660.3
2018-Jun-20 02:00N 37°35' E 121°22'8531023214.4
2018-Jun-20 02:00N 23°45' E 117°35'742381540.5
2018-Jun-20 02:00N 35°55' E 120°10'186223303.5
2018-Jun-20 02:00N 38°49' E 121°34'88473987.2
2018-Jun-20 01:59N 24°23' E 118°07'46598447.4
2018-Jun-20 01:59N 21°05' E 110°30'46423539.1
2018-Jun-20 01:58N 24°24' E 118°06'47325777.9
2018-Jun-20 01:56N 31°60' E 120°27'1156.8
2018-Jun-20 01:56N 31°59' E 120°26'11041274112.6
2018-Jun-20 01:54N 10°21' W 075°31'10905276457.1
2018-Jun-20 01:51N 36°02' E 120°13'446.5
2018-Jun-20 01:46N 36°03' E 120°19'423416898.7
2018-Jun-20 01:31N 44°09' E 028°40'43961758383.9
2018-Jun-20 01:30N 31°59' E 120°26'20681861125.4
2018-Jun-20 01:30N 01°27' E 103°44'16065783011.2
2018-Jun-20 01:30N 24°25' E 117°52'709850921.0
2018-Jun-20 01:30N 36°03' E 120°20'244878329.7
2018-Jun-20 01:30N 31°59' E 120°26'34076444.2
2018-Jun-20 01:30N 37°35' E 121°22'853341080.9
2018-Jun-20 01:30N 23°45' E 117°35'742381554.5
2018-Jun-20 01:30N 35°55' E 120°10'755142975.1
2018-Jun-20 01:29N 23°33' E 117°35'581926.9
2018-Jun-20 01:28N 24°24' E 118°06'481556.3
2018-Jun-20 01:26N 23°45' E 117°35'51644188.5
2018-Jun-20 01:25N 31°58' E 120°27'24519589.7
2018-Jun-20 01:24N 36°02' E 120°13'2441479.5
2018-Jun-20 01:14N 31°59' E 120°27'5172232.7
2018-Jun-20 01:01N 23°45' E 117°35'114523.5
2018-Jun-20 01:00N 23°34' E 117°37'46001656062.5
2018-Jun-20 01:00N 44°09' E 028°40'45942067357.1
2018-Jun-20 01:00N 24°20' E 118°08'475427182.4
2018-Jun-20 01:00N 31°59' E 120°26'340611543.3
2018-Jun-20 01:00N 37°35' E 121°22'340244973.3
2018-Jun-20 01:00N 31°58' E 120°26'167.6
2018-Jun-20 00:59N 31°59' E 120°26'24458533.7
2018-Jun-20 00:59N 36°03' E 120°18'1035465973.6
2018-Jun-20 00:59N 21°05' E 110°30'1036532578.6
2018-Jun-20 00:59N 36°03' E 120°18'24525985.5
2018-Jun-20 00:58N 31°58' E 120°27'47160549.7
2018-Jun-20 00:58N 24°24' E 118°06'1612252326.6
2018-Jun-20 00:57N 01°27' E 103°44'2269281619.4
2018-Jun-20 00:57N 35°55' E 120°10'8196.4
2018-Jun-20 00:54N 36°02' E 120°13'7087260.9
2018-Jun-20 00:48N 24°24' E 117°58'4731583.7
2018-Jun-20 00:30N 31°59' E 120°26'43961978174.0
2018-Jun-20 00:30N 44°09' E 028°40'45915509344.9
2018-Jun-20 00:30N 23°45' E 117°35'040.7
2018-Jun-20 00:30N 23°45' E 117°35'853613945.7
2018-Jun-20 00:30N 37°35' E 121°22'809126646.2
2018-Jun-20 00:30N 24°24' E 118°07'46532221.1
2018-Jun-20 00:29N 21°05' E 110°30'84370584.6
2018-Jun-20 00:28N 31°58' E 120°27'47162790.7
2018-Jun-20 00:28N 24°24' E 118°06'707181900.8
2018-Jun-20 00:27N 36°02' E 120°13'24431314.2
2018-Jun-20 00:27N 31°59' E 120°26'23660786.3
2018-Jun-20 00:27N 35°55' E 120°10'30911970.8
2018-Jun-20 00:25N 31°02' E 122°06'206626278.1
2018-Jun-20 00:20N 01°27' E 103°44'15614725.0
2018-Jun-20 00:01N 23°38' E 117°40'523940640.4
2018-Jun-20 00:00N 31°59' E 120°26'5171859685.8
2018-Jun-20 00:00N 23°45' E 117°35'45912754669.4
2018-Jun-20 00:00N 44°09' E 028°40'459116527331.3
2018-Jun-20 00:00N 23°45' E 117°35'516309648.1
2018-Jun-20 00:00N 31°59' E 120°26'843758916.9
2018-Jun-20 00:00N 21°05' E 110°30'469843740.5
2018-Jun-20 00:00N 24°17' E 118°14'1416576.7
2018-Jun-20 00:00N 24°27' E 118°04'806322526.9
2018-Jun-20 00:00N 37°35' E 121°22'109181871609.0
2018-Jun-20 00:00N 10°21' W 075°31'11165574193.1
2018-Jun-19 23:58N 31°00' E 122°09'10413866.0
2018-Jun-19 23:58N 31°58' E 120°27'47162806.6
2018-Jun-19 23:58N 24°25' E 118°00'707212080.6
2018-Jun-19 23:57N 36°02' E 120°13'8455.4
2018-Jun-19 23:56N 35°55' E 120°10'6311.2
2018-Jun-19 23:55N 35°55' E 120°18'968.3
2018-Jun-19 23:48N 36°03' E 120°19'22798029.5
2018-Jun-19 23:31N 01°28' E 103°43'15641408042.4
2018-Jun-19 23:30N 23°45' E 117°35'5161858253.3
2018-Jun-19 23:30N 31°59' E 120°26'46984353.5
2018-Jun-19 23:30N 24°27' E 118°04'806322526.9
2018-Jun-19 23:30N 37°35' E 121°22'2401454875.6
2018-Jun-19 23:30N 01°15' E 103°36'15781419928.0
2018-Jun-19 23:30N 23°39' E 117°42'506619.6
2018-Jun-19 23:29N 24°18' E 118°17'5012899.0
2018-Jun-19 23:29N 23°45' E 117°35'435487.1
2018-Jun-19 23:28N 24°25' E 117°52'47370931.4
2018-Jun-19 23:28N 31°58' E 120°27'47158461.1
2018-Jun-19 23:28N 24°24' E 118°06'44921573.4
2018-Jun-19 23:26N 30°58' E 122°10'314376860.7
2018-Jun-19 23:26N 35°55' E 120°10'23620262.6
2018-Jun-19 23:26N 31°59' E 120°26'11041339716.5
2018-Jun-19 23:24N 10°21' W 075°31'10905290792.6
2018-Jun-19 23:21N 36°02' E 120°13'948.6
2018-Jun-19 23:11N 35°55' E 120°20'229013580.2
2018-Jun-19 23:00N 01°12' E 103°37'1581406567.0
2018-Jun-19 23:00N 23°45' E 117°35'061.9
2018-Jun-19 23:00N 23°45' E 117°35'50178623.8
2018-Jun-19 23:00N 24°27' E 118°04'5059453.2
2018-Jun-19 23:00N 23°41' E 117°44'460116564864.7
2018-Jun-19 23:00N 44°09' E 028°40'42243801975.0
2018-Jun-19 23:00N 37°35' E 121°22'109181786528.5
2018-Jun-19 23:00N 10°21' W 075°31'107111542321.7
2018-Jun-19 22:59N 01°28' E 103°43'1612181384.5
2018-Jun-19 22:59N 24°24' E 118°05'472106120.8
2018-Jun-19 22:58N 31°59' E 120°26'012.1
2018-Jun-19 22:56N 31°59' E 120°26'4801726462.3
2018-Jun-19 22:56N 24°15' E 118°09'708363966.7
2018-Jun-19 22:56N 35°55' E 120°10'31732620.7
2018-Jun-19 22:56N 30°54' E 122°09'315378116.1
2018-Jun-19 22:56N 35°56' E 120°20'951.4
2018-Jun-19 22:45N 36°02' E 120°13'10334683.4
2018-Jun-19 22:32N 21°05' E 110°30'43216042.8
2018-Jun-19 22:31N 23°43' E 117°46'1584950556.1
2018-Jun-19 22:30N 01°11' E 103°40'1581355688.4
2018-Jun-19 22:30N 23°45' E 117°35'4885744.6
2018-Jun-19 22:30N 24°23' E 118°06'45902360712.4
2018-Jun-19 22:30N 44°09' E 028°40'48788780272.4
2018-Jun-19 22:30N 01°28' E 103°43'23868591293.9
2018-Jun-19 22:30N 37°35' E 121°22'853511579.1
2018-Jun-19 22:30N 23°46' E 117°35'516619672.3
2018-Jun-19 22:30N 31°59' E 120°26'476343063.9
2018-Jun-19 22:30N 24°18' E 118°10'476244850.4
2018-Jun-19 22:30N 31°59' E 120°26'1104119873239.3
2018-Jun-19 22:30N 10°21' W 075°31'107631490301.3
2018-Jun-19 22:29N 21°05' E 110°30'103335756.2
2018-Jun-19 22:27N 36°02' E 120°13'32620588.5
2018-Jun-19 22:26N 30°51' E 122°07'31913181.0
2018-Jun-19 22:25N 35°57' E 120°21'10314.4
2018-Jun-19 22:23N 35°55' E 120°10'69619741.9
2018-Jun-19 22:21N 24°27' E 118°04'4468411.5
2018-Jun-19 22:18N 30°57' E 122°10'451815623.5
2018-Jun-19 22:01N 44°09' E 028°40'45915509046.4
2018-Jun-19 22:00N 23°46' E 117°35'516464763.0
2018-Jun-19 22:00N 31°59' E 120°26'474170544.6
2018-Jun-19 22:00N 24°21' E 118°09'42149526.8
2018-Jun-19 22:00N 23°45' E 117°48'743535206.5
2018-Jun-19 22:00N 35°56' E 120°21'96531.7
2018-Jun-19 22:00N 35°55' E 120°10'11683506.3
2018-Jun-19 22:00N 37°35' E 121°22'81120847.1
2018-Jun-19 21:58N 24°22' E 118°10'1613322545.4
2018-Jun-19 21:57N 01°28' E 103°43'1615322916.2
2018-Jun-19 21:57N 24°27' E 118°04'5016250.2
2018-Jun-19 21:57N 23°45' E 117°35'11106203980.2
2018-Jun-19 21:54N 10°21' W 075°31'11141461003.7
2018-Jun-19 21:52N 24°32' E 118°33'81010267.4
2018-Jun-19 21:47N 37°56' E 120°23'8603059.9
2018-Jun-19 21:31N 23°46' E 117°50'15871428438.7
2018-Jun-19 21:30N 01°09' E 103°46'15795685281.5
2018-Jun-19 21:30N 23°46' E 117°35'45913305425.5
2018-Jun-19 21:30N 44°09' E 028°40'4364981880.2
2018-Jun-19 21:30N 21°05' E 110°33'1076638758240.1
2018-Jun-19 21:30N 10°21' W 075°31'1111613339029.3
2018-Jun-19 21:30N 24°27' E 118°04'469422126.7
2018-Jun-19 21:30N 31°59' E 120°26'3391221745.7
2018-Jun-19 21:30N 37°35' E 121°22'340407637.5
2018-Jun-19 21:30N 31°59' E 120°26'516123876.2
2018-Jun-19 21:30N 23°45' E 117°35'49188457.1
2018-Jun-19 21:29N 30°52' E 122°09'2059823785.5
2018-Jun-19 21:29N 01°28' E 103°43'1612103632.8
2018-Jun-19 21:28N 24°23' E 118°06'70035011.3
2018-Jun-19 21:27N 35°55' E 120°10'68711829.9
2018-Jun-19 21:24N 24°34' E 118°29'10549457557.2
2018-Jun-19 21:22N 32°05' W 081°04'1039985084.7
2018-Jun-19 21:15N 30°45' E 122°01'4822011.2
2018-Jun-19 21:00N 23°45' E 117°35'45912754604.2
2018-Jun-19 21:00N 44°09' E 028°40'43965275137.5
2018-Jun-19 21:00N 31°59' E 120°26'102494099728.5
2018-Jun-19 21:00N 32°05' W 081°04'105439488651.1
2018-Jun-19 21:00N 23°46' E 117°35'5029761.3
2018-Jun-19 21:00N 24°27' E 118°04'8061451381.6
2018-Jun-19 21:00N 37°35' E 121°22'34037059.3
2018-Jun-19 20:59N 31°59' E 120°26'11041811178.2
2018-Jun-19 20:59N 10°21' W 075°31'111201819585.7
2018-Jun-19 20:58N 24°23' E 118°06'381216.4
2018-Jun-19 20:56N 23°48' E 117°51'471188216.1
2018-Jun-19 20:56N 30°44' E 121°59'2047116988.4
2018-Jun-19 20:55N 01°28' E 103°43'206830758.4
2018-Jun-19 20:51N 31°58' E 120°27'2447516.0
2018-Jun-19 20:49N 36°02' E 120°13'7544523.9
2018-Jun-19 20:39N 23°41' E 117°34'74612976.9
2018-Jun-19 20:36N 35°55' E 120°10'7428425.9
2018-Jun-19 20:30N 23°45' E 117°35'105432232659.0
2018-Jun-19 20:30N 32°05' W 081°04'1025036900707.9
2018-Jun-19 20:30N 31°58' E 120°27'340111290.8
2018-Jun-19 20:30N 37°35' E 121°22'2386859135.3
2018-Jun-19 20:30N 01°28' E 103°43'2068496354.2
2018-Jun-19 20:30N 31°59' E 120°26'029.2
2018-Jun-19 20:29N 31°59' E 120°26'43963165093.7
2018-Jun-19 20:29N 44°09' E 028°40'59183551038.2
2018-Jun-19 20:29N 10°19' W 075°32'1077619396598.4
2018-Jun-19 20:29N 21°03' E 110°40'45782336.1
2018-Jun-19 20:28N 24°23' E 118°06'4212.7
2018-Jun-19 20:27N 24°27' E 118°04'6991703.8
2018-Jun-19 20:02N 35°56' E 120°24'4243137596.0
2018-Jun-19 20:01N 44°09' E 028°40'45911101840.7
2018-Jun-19 20:00N 23°45' E 117°35'105435422169.2
2018-Jun-19 20:00N 32°05' W 081°04'105334213293.5
2018-Jun-19 20:00N 24°27' E 118°04'8061451381.6
2018-Jun-19 20:00N 37°35' E 121°22'8531534726.9
2018-Jun-19 20:00N 23°46' E 117°35'1571269379.1
2018-Jun-19 20:00N 01°13' E 103°55'181413.6
2018-Jun-19 19:59N 01°28' E 103°43'1612161202.0
2018-Jun-19 19:58N 24°23' E 118°06'472849467.0
2018-Jun-19 19:58N 31°58' E 120°27'83743664.3
2018-Jun-19 19:57N 21°04' E 110°43'102839782.3
2018-Jun-19 19:55N 35°56' E 120°24'109211638113.3
2018-Jun-19 19:55N 10°19' W 075°32'1090795308.0
2018-Jun-19 19:48N 36°02' E 120°13'2444155.0
2018-Jun-19 19:45N 31°59' E 120°26'0 3.7
2018-Jun-19 19:39N 31°59' E 120°26'4516342.9
2018-Jun-19 19:34N 24°40' E 118°27'731079.2
2018-Jun-19 19:30N 23°46' E 117°35'45913305424.9
2018-Jun-19 19:30N 44°09' E 028°40'43971758641.0
2018-Jun-19 19:30N 31°58' E 120°27'1025018450354.0
2018-Jun-19 19:30N 32°05' W 081°04'105437591040.6
2018-Jun-19 19:30N 23°45' E 117°35'5022357.5
2018-Jun-19 19:30N 24°27' E 118°04'11118500317.9
2018-Jun-19 19:29N 10°19' W 075°32'111221668235.0
2018-Jun-19 19:28N 24°23' E 118°06'47242499.2
2018-Jun-19 19:28N 31°59' E 120°26'45112887.1
2018-Jun-19 19:25N 24°40' E 118°27'4261358.2
2018-Jun-19 19:07N 30°57' E 122°11'1091045.3
2018-Jun-19 19:00N 31°59' E 120°26'43965275151.5
2018-Jun-19 19:00N 44°09' E 028°40'45912361113.6
2018-Jun-19 19:00N 23°45' E 117°35'5161857193.0
2018-Jun-19 19:00N 31°58' E 120°27'1025012299436.3
2018-Jun-19 19:00N 32°05' W 081°03'99742564823.3
2018-Jun-19 19:00N 37°35' E 121°22'85343849.3
2018-Jun-19 18:59N 23°46' E 117°35'111053634405.1
2018-Jun-19 18:59N 10°21' W 075°30'111191819493.4
2018-Jun-19 18:58N 24°23' E 118°06'1612134959.6
2018-Jun-19 18:58N 01°28' E 103°43'1615181636.2
2018-Jun-19 18:57N 24°27' E 118°04'4471346.7
2018-Jun-19 18:37N 30°58' E 122°10'111005.3
2018-Jun-19 18:36N 31°05' E 121°59'4995012.9
2018-Jun-19 18:30N 23°45' E 117°35'0309.1
2018-Jun-19 18:30N 23°46' E 117°35'516265264.3
2018-Jun-19 18:30N 31°58' E 120°27'43971217520.7
2018-Jun-19 18:30N 44°09' E 028°40'42243801976.0
2018-Jun-19 18:30N 37°35' E 121°22'109181786634.8
2018-Jun-19 18:30N 10°20' W 075°31'11120488191.6
2018-Jun-19 18:28N 24°23' E 118°06'4198.9
2018-Jun-19 18:27N 24°27' E 118°04'46914060.9
2018-Jun-19 18:25N 31°59' E 120°26'1081480.3
2018-Jun-19 18:21N 30°57' E 122°10'451813553.1
2018-Jun-19 18:01N 44°09' E 028°40'45911836421.7
2018-Jun-19 18:00N 23°45' E 117°35'516265313.3
2018-Jun-19 18:00N 31°58' E 120°27'516206316.6
2018-Jun-19 18:00N 23°46' E 117°35'105425421561.0
2018-Jun-19 18:00N 32°05' W 081°03'997411968833.5
2018-Jun-19 18:00N 37°35' E 121°22'109201965689.5
2018-Jun-19 18:00N 10°19' W 075°32'10712820494.9
2018-Jun-19 17:59N 01°28' E 103°43'1612148803.3
2018-Jun-19 17:58N 24°23' E 118°06'47222666.5
2018-Jun-19 17:57N 31°59' E 120°26'0 9.1
2018-Jun-19 17:54N 31°59' E 120°26'46951169.4
2018-Jun-19 17:54N 24°27' E 118°04'6962935.9
2018-Jun-19 17:40N 35°55' E 120°10'8769886.9
2018-Jun-19 17:34N 22°17' E 114°10'2765706.2
2018-Jun-19 17:31N 24°40' E 118°27'4595300789.3
2018-Jun-19 17:31N 44°09' E 028°40'45912065890.5
2018-Jun-19 17:30N 23°46' E 117°35'516265264.3
2018-Jun-19 17:30N 31°58' E 120°27'516371442.7
2018-Jun-19 17:30N 23°45' E 117°35'15655632412.4
2018-Jun-19 17:30N 01°28' E 103°43'1077238780486.3
2018-Jun-19 17:30N 32°05' W 081°03'99742762038.5
2018-Jun-19 17:30N 37°35' E 121°22'34021084.0
2018-Jun-19 17:29N 31°59' E 120°26'45150743.8
2018-Jun-19 17:28N 24°40' E 118°27'265766.3
2018-Jun-19 17:28N 24°23' E 118°06'111222502383.2
2018-Jun-19 17:28N 10°19' W 075°32'1111894848.2
2018-Jun-19 17:21N 24°27' E 118°04'4499343.8
2018-Jun-19 17:18N 31°05' E 121°60'4981710.6
2018-Jun-19 17:01N 23°45' E 117°35'45912065974.4
2018-Jun-19 17:00N 44°09' E 028°40'43973165556.7
2018-Jun-19 17:00N 31°58' E 120°27'516109225.2
2018-Jun-19 17:00N 23°46' E 117°35'1054237950943.7
2018-Jun-19 17:00N 32°05' W 081°03'997411968834.0
2018-Jun-19 17:00N 37°35' E 121°22'109201404064.1
2018-Jun-19 16:59N 10°19' W 075°32'10712494397.2
2018-Jun-19 16:58N 01°28' E 103°43'2065239847.5
2018-Jun-19 16:58N 31°06' E 121°57'4281270.5
2018-Jun-19 16:37N 24°40' E 118°27'459539017.5
2018-Jun-19 16:30N 44°09' E 028°40'5229896459.8
2018-Jun-19 16:30N 32°05' W 081°03'99748976619.9
2018-Jun-19 16:30N 37°35' E 121°22'1092113105208.4
2018-Jun-19 16:30N 10°17' W 075°31'107123213474.7
2018-Jun-19 16:30N 01°28' E 103°43'1565469373.2
2018-Jun-19 16:29N 23°46' E 117°35'015.5
2018-Jun-19 16:29N 23°45' E 117°35'7310450.3
2018-Jun-19 16:28N 24°40' E 118°27'266579.6
2018-Jun-19 16:28N 24°23' E 118°06'4724706.0
2018-Jun-19 16:22N 31°58' E 120°27'24721154.3
2018-Jun-19 16:21N 36°05' E 120°17'2462962.6
2018-Jun-19 16:16N 31°59' E 120°26'1131307.8
2018-Jun-19 16:11N 30°52' E 122°13'4932728.3
2018-Jun-19 16:00N 23°46' E 117°35'516309471.5
2018-Jun-19 16:00N 31°58' E 120°27'516928596.5
2018-Jun-19 16:00N 23°45' E 117°35'105424216857.4
2018-Jun-19 16:00N 32°05' W 081°03'52292353208.3
2018-Jun-19 16:00N 44°09' E 028°40'42243801978.3
2018-Jun-19 16:00N 37°35' E 121°22'2386306826.4
2018-Jun-19 15:59N 01°28' E 103°43'2062161386.1
2018-Jun-19 15:59N 30°53' E 122°13'42380178.8
2018-Jun-19 15:58N 24°40' E 118°27'266141.0
2018-Jun-19 15:58N 24°23' E 118°06'471242378.9
2018-Jun-19 15:58N 31°58' E 120°24'2 8.1
2018-Jun-19 15:46N 31°59' E 120°26'439616658.4
2018-Jun-19 15:31N 44°09' E 028°40'43965275636.4
2018-Jun-19 15:30N 31°59' E 120°27'110396216.4
2018-Jun-19 15:30N 30°56' E 122°13'4971787893.2
2018-Jun-19 15:30N 23°45' E 117°35'516265310.3
2018-Jun-19 15:30N 31°58' E 120°27'20681488653.3
2018-Jun-19 15:30N 01°28' E 103°43'107727756031.0
2018-Jun-19 15:30N 32°05' W 081°03'99742762038.5
2018-Jun-19 15:30N 37°35' E 121°22'8533069432.9
2018-Jun-19 15:30N 23°46' E 117°35'48651413.3
2018-Jun-19 15:29N 30°47' E 122°06'43921943.6
2018-Jun-19 15:28N 24°23' E 118°06'4449132.8
2018-Jun-19 15:25N 30°52' E 122°08'110754.7
2018-Jun-19 15:17N 31°59' E 120°26'5254456.1
2018-Jun-19 15:09N 23°37' E 117°34'459630247.9
2018-Jun-19 15:00N 44°09' E 028°40'45913305562.6
2018-Jun-19 15:00N 23°45' E 117°35'0154.5
2018-Jun-19 15:00N 23°46' E 117°35'105423162578.8
2018-Jun-19 15:00N 32°05' W 081°03'997411968833.5
2018-Jun-19 15:00N 37°35' E 121°22'40214172.2
2018-Jun-19 14:58N 30°56' E 122°10'20631485075.7
2018-Jun-19 14:58N 01°28' E 103°43'20687443265.5
2018-Jun-19 14:58N 31°58' E 120°27'472849421.1
2018-Jun-19 14:58N 24°23' E 118°06'47277267.2
2018-Jun-19 14:58N 31°59' E 120°26'10814908.0
2018-Jun-19 14:57N 30°59' E 122°12'108509.4
2018-Jun-19 14:45N 31°59' E 120°26'2445656.5
2018-Jun-19 14:42N 36°02' E 120°13'2441256.3
2018-Jun-19 14:30N 31°58' E 120°27'439715827807.1
2018-Jun-19 14:30N 44°09' E 028°40'45918263937.3
2018-Jun-19 14:30N 23°45' E 117°35'059.6
2018-Jun-19 14:30N 23°45' E 117°35'1054212650428.2
2018-Jun-19 14:30N 32°05' W 081°03'103904155845.9
2018-Jun-19 14:30N 31°02' E 122°10'20687444634.1
2018-Jun-19 14:30N 01°28' E 103°43'23862147804.4
2018-Jun-19 14:30N 37°35' E 121°22'34020382.6
2018-Jun-19 14:29N 31°59' E 120°26'47233999.2
2018-Jun-19 14:28N 24°23' E 118°06'4735652.0
2018-Jun-19 14:23N 31°59' E 120°26'53017189.5
2018-Jun-19 14:21N 23°33' E 117°28'45210.8
2018-Jun-19 14:08N 24°01' E 118°07'33251.3
2018-Jun-19 14:00N 23°45' E 117°35'0257.3
2018-Jun-19 14:00N 23°45' E 117°35'459116527465.4
2018-Jun-19 14:00N 44°09' E 028°40'5229896459.5
2018-Jun-19 14:00N 32°05' W 081°03'99748976619.9
2018-Jun-19 14:00N 37°35' E 121°22'831115025.4
2018-Jun-19 14:00N 24°02' E 118°07'21901.3
2018-Jun-19 13:58N 24°23' E 118°06'473283543.8
2018-Jun-19 13:58N 31°59' E 120°26'032.2
2018-Jun-19 13:57N 31°59' E 120°26'2068186093.6
2018-Jun-19 13:57N 01°28' E 103°43'154875307.0
2018-Jun-19 13:55N 23°32' E 117°25'5161707.8
2018-Jun-19 13:37N 31°04' E 122°03'9117.4
2018-Jun-19 13:33N 30°58' E 122°10'46711851.7
2018-Jun-19 13:31N 24°03' E 118°08'3515868.2
2018-Jun-19 13:30N 23°45' E 117°35'054.7
2018-Jun-19 13:30N 23°45' E 117°35'15652816209.6
2018-Jun-19 13:30N 01°28' E 103°43'107724308915.0
2018-Jun-19 13:30N 32°05' W 081°03'1024812298034.9
2018-Jun-19 13:30N 31°59' E 120°26'3391221724.2
2018-Jun-19 13:30N 37°35' E 121°22'34058238.1
2018-Jun-19 13:30N 31°59' E 120°26'53626063.3
2018-Jun-19 13:28N 23°32' E 117°10'7215289.4
2018-Jun-19 13:28N 24°23' E 118°06'5778114925.4
2018-Jun-19 13:25N 48°59' E 002°00'5783135189.3
2018-Jun-19 13:22N 24°10' E 117°58'4643656.9
2018-Jun-19 13:15N 30°57' E 122°10'451718888.4
2018-Jun-19 13:01N 44°09' E 028°40'1137584775.2
2018-Jun-19 13:00N 48°56' E 002°00'57861735813.2
2018-Jun-19 13:00N 23°45' E 117°35'1054218975969.3
2018-Jun-19 13:00N 32°05' W 081°03'99742762036.9
2018-Jun-19 13:00N 37°35' E 121°22'870347937.0
2018-Jun-19 13:00N 23°32' E 117°13'1543185139.2
2018-Jun-19 12:59N 01°28' E 103°43'2068465236.1
2018-Jun-19 12:59N 31°59' E 120°26'9456278.0
2018-Jun-19 12:59N 31°06' E 121°57'499256420.1
2018-Jun-19 12:59N 23°45' E 117°35'374598.1
2018-Jun-19 12:58N 24°04' E 118°10'194347.6
2018-Jun-19 12:58N 24°23' E 118°06'158948.3
2018-Jun-19 12:58N 24°10' E 117°58'4873668.4
2018-Jun-19 12:50N 31°59' E 120°26'936854.0
2018-Jun-19 12:49N 31°06' E 121°57'937586.7
2018-Jun-19 12:48N 31°58' E 120°27'439714709.8
2018-Jun-19 12:31N 44°09' E 028°40'43975275923.1
2018-Jun-19 12:30N 31°58' E 120°27'516371432.1
2018-Jun-19 12:30N 23°45' E 117°35'499448964.2
2018-Jun-19 12:30N 31°09' E 121°53'103692073837.0
2018-Jun-19 12:30N 32°05' W 081°03'99748976619.9
2018-Jun-19 12:30N 37°35' E 121°22'853191881.7
2018-Jun-19 12:30N 23°45' E 117°35'51646456.8
2018-Jun-19 12:29N 31°59' E 120°26'2068620309.8
2018-Jun-19 12:29N 01°28' E 103°43'1612126158.7
2018-Jun-19 12:28N 24°23' E 118°06'156711.3
2018-Jun-19 12:28N 24°10' E 117°58'487103146.4
2018-Jun-19 12:28N 31°59' E 120°26'569958956.0
2018-Jun-19 12:22N 41°25' E 002°33'582731033.9
2018-Jun-19 12:11N 30°56' E 122°10'451926976.2
2018-Jun-19 12:01N 44°09' E 028°40'45918263986.1
2018-Jun-19 12:00N 23°45' E 117°35'0114.0
2018-Jun-19 12:00N 23°45' E 117°35'189496.6
2018-Jun-19 12:00N 23°33' E 117°20'105402107920.3
2018-Jun-19 12:00N 32°05' W 081°02'997417952706.6
2018-Jun-19 12:00N 37°35' E 121°22'5507430995.3
2018-Jun-19 11:59N 41°22' E 002°33'5701760071.7
2018-Jun-19 11:59N 31°59' E 120°26'24423728.3
2018-Jun-19 11:58N 36°02' E 120°13'708637237.0
2018-Jun-19 11:58N 24°23' E 118°06'4731701325.6
2018-Jun-19 11:58N 31°59' E 120°26'48713916.4
2018-Jun-19 11:56N 24°10' E 117°58'4869999.7
2018-Jun-19 11:53N 31°58' E 120°26'2067323539.0
2018-Jun-19 11:53N 01°28' E 103°43'2060218161.3
2018-Jun-19 11:52N 30°53' E 122°09'45715828.4
2018-Jun-19 11:50N 24°07' E 118°13'5961153271.1
2018-Jun-19 11:48N 41°15' E 001°58'5831145766.0
2018-Jun-19 11:46N 31°13' E 121°48'5239965.0
2018-Jun-19 11:42N 23°34' E 117°06'5112965.4
2018-Jun-19 11:32N 30°49' E 122°07'1104100.5
2018-Jun-19 11:31N 31°58' E 120°27'5161857139.8
2018-Jun-19 11:30N 23°45' E 117°35'1565625824.4
2018-Jun-19 11:30N 01°28' E 103°43'1548928914.4
2018-Jun-19 11:30N 23°33' E 117°23'45901271116.6
2018-Jun-19 11:30N 44°09' E 028°40'523018826767.5
2018-Jun-19 11:30N 32°05' W 081°03'403414522850.5
2018-Jun-19 11:30N 41°15' E 001°59'55389967916.0
2018-Jun-19 11:30N 37°35' E 121°22'853383760.8
2018-Jun-19 11:30N 23°45' E 117°35'5912709393.7
2018-Jun-19 11:29N 41°22' E 002°34'59282667743.9
2018-Jun-19 11:29N 24°08' E 118°14'25125053.6
2018-Jun-19 11:29N 22°19' E 114°09'25128228.2
2018-Jun-19 11:28N 24°23' E 118°06'47220986.6
2018-Jun-19 11:27N 31°59' E 120°26'536120574.6
2018-Jun-19 11:26N 23°33' E 117°06'53680442.7
2018-Jun-19 11:26N 31°59' E 120°26'11140026.8
2018-Jun-19 11:26N 30°48' E 122°07'45552837.1
2018-Jun-19 11:25N 24°10' E 117°58'4567174.2
2018-Jun-19 11:22N 30°49' E 122°07'5131478.4
2018-Jun-19 11:01N 23°27' E 117°15'59071518889.6
2018-Jun-19 11:01N 41°22' E 002°35'2692366.9
2018-Jun-19 11:00N 41°16' E 002°02'59403563865.2
2018-Jun-19 11:00N 23°45' E 117°35'45918263667.3
2018-Jun-19 11:00N 44°09' E 028°40'45882359454.8
2018-Jun-19 11:00N 23°27' E 117°15'105419487266.6
2018-Jun-19 11:00N 32°05' W 081°04'1024912299274.9
2018-Jun-19 11:00N 31°59' E 120°26'0300.0
2018-Jun-19 11:00N 31°59' E 120°26'339244353.4
2018-Jun-19 11:00N 37°35' E 121°22'82444960.9
2018-Jun-19 10:59N 24°10' E 117°58'334891.9
2018-Jun-19 10:58N 23°45' E 117°35'476079.3
2018-Jun-19 10:58N 24°23' E 118°06'47262929.4
2018-Jun-19 10:58N 31°58' E 120°27'52995183.8
2018-Jun-19 10:57N 23°34' E 117°26'573955.5
2018-Jun-19 10:56N 24°09' E 118°16'160872363.7
2018-Jun-19 10:55N 01°26' E 103°41'487711951.8
2018-Jun-19 10:31N 44°07' E 028°39'11854265694.2
2018-Jun-19 10:31N 41°15' E 002°05'585610541086.1
2018-Jun-19 10:30N 30°44' E 121°60'480864253.1
2018-Jun-19 10:30N 23°45' E 117°35'59091329476.9
2018-Jun-19 10:30N 41°23' E 002°37'55041524239.1
2018-Jun-19 10:30N 37°35' E 121°22'3391221788.5
2018-Jun-19 10:30N 31°59' E 120°26'20741244216.3
2018-Jun-19 10:30N 01°24' E 103°39'1560561431.8
2018-Jun-19 10:30N 23°37' E 117°28'6054290.7
2018-Jun-19 10:30N 24°27' E 118°04'505255.2
2018-Jun-19 10:29N 23°45' E 117°35'224213.2
2018-Jun-19 10:29N 23°29' E 117°18'53655127.1
2018-Jun-19 10:28N 31°58' E 120°27'472188785.8
2018-Jun-19 10:28N 24°23' E 118°06'167368.7
2018-Jun-19 10:28N 24°10' E 118°17'171964.9
2018-Jun-19 10:27N 24°10' E 117°58'48753093.1
2018-Jun-19 10:27N 31°59' E 120°26'4512014.3
2018-Jun-19 10:13N 24°40' E 118°27'459621544.2
2018-Jun-19 10:01N 44°09' E 028°39'45182710853.2
2018-Jun-19 10:00N 30°41' E 121°56'109131273.9
2018-Jun-19 10:00N 31°59' E 120°26'534147891.9
2018-Jun-19 10:00N 23°31' E 117°21'1221622.6
2018-Jun-19 10:00N 23°38' E 117°31'524471275.0
2018-Jun-19 10:00N 31°58' E 120°27'340204033.1
2018-Jun-19 10:00N 37°35' E 121°22'33981452.6
2018-Jun-19 10:00N 31°59' E 120°26'51697846.3
2018-Jun-19 09:59N 23°46' E 117°35'157468276.0
2018-Jun-19 09:58N 01°20' E 103°37'16222918822.0
2018-Jun-19 09:58N 24°23' E 118°06'5936362190.0
2018-Jun-19 09:57N 41°16' E 002°06'5931790864.9
2018-Jun-19 09:57N 24°27' E 118°04'24347.8
2018-Jun-19 09:52N 24°40' E 118°27'73198.9
2018-Jun-19 09:30N 23°46' E 117°35'45912754523.7
2018-Jun-19 09:30N 44°09' E 028°40'45911377404.6
2018-Jun-19 09:30N 23°32' E 117°24'1214471.4
2018-Jun-19 09:30N 23°40' E 117°33'5432160.4
2018-Jun-19 09:30N 24°13' E 118°20'16245844987.3
2018-Jun-19 09:30N 01°17' E 103°36'23998637300.0
2018-Jun-19 09:30N 37°35' E 121°22'853139538.8
2018-Jun-19 09:30N 23°45' E 117°35'5035754.2
2018-Jun-19 09:30N 24°27' E 118°04'241222.3
2018-Jun-19 09:28N 24°40' E 118°27'451147513.3
2018-Jun-19 09:28N 31°58' E 120°27'121.5
2018-Jun-19 09:27N 31°59' E 120°26'48726548.9
2018-Jun-19 09:25N 24°10' E 117°58'48726568.0
2018-Jun-19 09:24N 31°59' E 120°26'47311896.2
2018-Jun-19 09:22N 24°23' E 118°06'5772247367.5
2018-Jun-19 09:21N 48°54' E 002°10'528595605.8
2018-Jun-19 09:17N 35°55' E 120°10'8763586.6
2018-Jun-19 09:03N 22°18' E 114°09'2096011.9
2018-Jun-19 09:01N 23°46' E 117°35'45911836347.5
2018-Jun-19 09:00N 44°09' E 028°40'46081659019.2
2018-Jun-19 09:00N 24°14' E 118°21'6477364.5
2018-Jun-19 09:00N 23°34' E 117°26'5291905006.1
2018-Jun-19 09:00N 31°58' E 120°27'519373429.0
2018-Jun-19 09:00N 23°42' E 117°36'856770043.2
2018-Jun-19 09:00N 37°35' E 121°22'853236141.0
2018-Jun-19 09:00N 23°45' E 117°35'51697794.8
2018-Jun-19 08:59N 31°59' E 120°26'48729698.4
2018-Jun-19 08:58N 24°10' E 117°58'4020583.0
2018-Jun-19 08:58N 24°40' E 118°27'1653330697.9
2018-Jun-19 08:58N 01°13' E 103°36'1629837518.6
2018-Jun-19 08:58N 24°23' E 118°06'4731029.7
2018-Jun-19 08:30N 31°59' E 120°26'20851876349.1
2018-Jun-19 08:30N 01°11' E 103°39'16312934981.1
2018-Jun-19 08:30N 24°15' E 118°23'5363581.9
2018-Jun-19 08:30N 23°45' E 117°35'119756.3
2018-Jun-19 08:30N 23°37' E 117°28'863238918.8
2018-Jun-19 08:30N 37°35' E 121°22'42242534648.4
2018-Jun-19 08:30N 44°09' E 028°40'45911032945.3
2018-Jun-19 08:30N 23°46' E 117°35'3302.4
2018-Jun-19 08:29N 23°44' E 117°38'51753137.8
2018-Jun-19 08:28N 31°59' E 120°26'451270616.1
2018-Jun-19 08:28N 24°40' E 118°27'451162264.7
2018-Jun-19 08:28N 31°58' E 120°27'486134711.2
2018-Jun-19 08:28N 24°10' E 117°58'1526977.7
2018-Jun-19 08:28N 24°23' E 118°06'5772233466.5
2018-Jun-19 08:26N 48°54' E 002°10'561088573.2
2018-Jun-19 08:23N 20°49' E 110°51'86110001.7
2018-Jun-19 08:17N 30°56' E 122°11'3214159.8
2018-Jun-19 08:13N 36°03' E 120°19'528525571.2
2018-Jun-19 08:00N 48°54' E 002°11'577910401688.7
2018-Jun-19 08:00N 23°45' E 117°35'516154769.0
2018-Jun-19 08:00N 31°58' E 120°27'340102016.5
2018-Jun-19 08:00N 37°35' E 121°22'42242534648.4
2018-Jun-19 08:00N 44°09' E 028°40'4390929596.8
2018-Jun-19 08:00N 20°51' E 110°54'1255903660.5
2018-Jun-19 08:00N 01°10' E 103°42'1632734448.4
2018-Jun-19 07:59N 24°17' E 118°24'475244242.1
2018-Jun-19 07:59N 31°59' E 120°26'51592627.6
2018-Jun-19 07:59N 23°46' E 117°39'696409.0
2018-Jun-19 07:58N 24°40' E 118°27'264192.4
2018-Jun-19 07:58N 24°23' E 118°06'15605.2
2018-Jun-19 07:56N 24°10' E 117°58'4895694.0
2018-Jun-19 07:51N 32°01' E 120°27'5296572.2
2018-Jun-19 07:46N 23°39' E 117°17'51129693.5
2018-Jun-19 07:45N 30°58' E 122°11'20818387.3
2018-Jun-19 07:31N 01°09' E 103°45'15741133199.0
2018-Jun-19 07:30N 23°40' E 117°33'577920804387.4
2018-Jun-19 07:30N 48°55' E 002°14'11281353951.0
2018-Jun-19 07:30N 44°09' E 028°40'4224633662.1
2018-Jun-19 07:30N 37°35' E 121°22'824989147.9
2018-Jun-19 07:30N 24°10' E 117°58'33117097.2
2018-Jun-19 07:30N 23°46' E 117°35'56101599.0
2018-Jun-19 07:30N 24°18' E 118°25'743135.2
2018-Jun-19 07:28N 23°39' E 117°17'8929098.4
2018-Jun-19 07:28N 24°40' E 118°27'7320108.0
2018-Jun-19 07:28N 23°45' E 117°35'4718913.4
2018-Jun-19 07:28N 24°23' E 118°06'4511624397.0
2018-Jun-19 07:28N 30°60' E 122°09'1061718.6
2018-Jun-19 07:24N 31°58' E 120°27'115.1
2018-Jun-19 07:22N 31°59' E 120°26'4697898.0
2018-Jun-19 07:18N 24°26' E 118°05'4707794.8
2018-Jun-19 07:15N 31°59' E 120°26'439618466.1
2018-Jun-19 07:00N 44°09' E 028°40'4591612115.2
2018-Jun-19 07:00N 23°46' E 117°35'030.9
2018-Jun-19 07:00N 23°45' E 117°35'5773546951.0
2018-Jun-19 06:59N 48°57' E 002°16'62214478819.1
2018-Jun-19 06:59N 01°11' E 103°52'2288.0
2018-Jun-19 06:58N 01°11' E 103°50'1573629083.0
2018-Jun-19 06:58N 23°42' E 117°35'7567726.0
2018-Jun-19 06:58N 24°40' E 118°27'264010.7
2018-Jun-19 06:58N 24°23' E 118°06'47249996.0
2018-Jun-19 06:57N 31°59' E 120°26'34058236.0
2018-Jun-19 06:57N 37°35' E 121°22'82447862.0
2018-Jun-19 06:56N 24°10' E 117°58'48617002.4
2018-Jun-19 06:54N 31°58' E 120°27'160.3
2018-Jun-19 06:53N 31°59' E 120°26'83432627.7
2018-Jun-19 06:52N 20°56' E 111°02'102811934.8
2018-Jun-19 06:47N 36°02' E 120°14'2431786.9
2018-Jun-19 06:39N 31°59' E 120°27'5163832.1
2018-Jun-19 06:31N 23°45' E 117°35'45911836400.8
2018-Jun-19 06:30N 44°09' E 028°40'459116527124.4
2018-Jun-19 06:30N 23°46' E 117°35'516309633.1
2018-Jun-19 06:30N 31°59' E 120°26'12075.1
2018-Jun-19 06:30N 31°58' E 120°27'20827496126.0
2018-Jun-19 06:30N 01°09' E 103°48'15771892887.5
2018-Jun-19 06:30N 23°43' E 117°37'15722828783.3
2018-Jun-19 06:30N 01°13' E 103°53'1628977046.6
2018-Jun-19 06:30N 24°20' E 118°28'470423077.2
2018-Jun-19 06:30N 31°58' E 120°26'47213371.9
2018-Jun-19 06:28N 24°23' E 118°06'47389536.1
2018-Jun-19 06:28N 31°59' E 120°26'45111948.7
2018-Jun-19 06:25N 24°40' E 118°27'402825.1
2018-Jun-19 06:24N 24°10' E 117°58'46717147.5
2018-Jun-19 06:23N 31°01' E 122°07'5614141322.4
2018-Jun-19 06:20N 48°56' E 002°17'527617315.2
2018-Jun-19 06:02N 36°02' E 120°14'74926965.3
2018-Jun-19 06:00N 23°46' E 117°35'498199255.9
2018-Jun-19 06:00N 30°59' E 122°10'498224191.6
2018-Jun-19 06:00N 23°45' E 117°35'853279073.8
2018-Jun-19 06:00N 37°35' E 121°22'853146158.1
2018-Jun-19 06:00N 23°45' E 117°38'15711413542.6
2018-Jun-19 06:00N 01°15' E 103°57'156873.8
2018-Jun-19 05:59N 01°06' E 103°44'16405905212.2
2018-Jun-19 05:59N 24°21' E 118°29'46101276667.2
2018-Jun-19 05:59N 44°09' E 028°40'4590201524.4
2018-Jun-19 05:58N 24°23' E 118°06'47248538.6
2018-Jun-19 05:57N 31°58' E 120°27'48692170.8
2018-Jun-19 05:57N 24°10' E 117°58'401426.5
2018-Jun-19 05:55N 24°40' E 118°27'45126189.0
2018-Jun-19 05:54N 31°59' E 120°26'022.7
2018-Jun-19 05:53N 31°59' E 120°26'2441639.4
2018-Jun-19 05:44N 36°03' E 120°18'0 0.0
2018-Jun-19 05:34N 36°03' E 120°18'228443046.5
2018-Jun-19 05:30N 01°16' E 104°00'15991439128.9
2018-Jun-19 05:30N 24°10' E 117°58'464208851.1
2018-Jun-19 05:30N 30°56' E 122°12'496892494.6
2018-Jun-19 05:30N 23°46' E 117°35'040.1
2018-Jun-19 05:30N 23°45' E 117°35'8533069811.8
2018-Jun-19 05:30N 37°35' E 121°22'24072166345.5
2018-Jun-19 05:30N 01°07' E 103°40'48904401050.7
2018-Jun-19 05:30N 44°09' E 028°40'4593870340.7
2018-Jun-19 05:30N 23°47' E 117°39'749158605.4
2018-Jun-19 05:29N 36°03' E 120°18'70930040.0
2018-Jun-19 05:28N 24°23' E 118°06'47251480.3
2018-Jun-19 05:27N 31°58' E 120°27'127.5
2018-Jun-19 05:26N 31°59' E 120°26'45133827.0
2018-Jun-19 05:25N 24°40' E 118°27'69091954.4
2018-Jun-19 05:25N 36°03' E 120°18'77513405.7
2018-Jun-19 05:21N 23°26' E 117°09'54116369.4
2018-Jun-19 05:19N 31°58' E 120°26'24518011.2
2018-Jun-19 05:19N 36°03' E 120°19'2442279.0
2018-Jun-19 05:12N 31°59' E 120°26'4686357.7
2018-Jun-19 05:08N 24°22' E 118°31'164213591.5
2018-Jun-19 05:00N 01°11' E 103°37'15832849080.0
2018-Jun-19 05:00N 23°46' E 117°35'45918263554.8
2018-Jun-19 05:00N 44°09' E 028°40'43975275923.1
2018-Jun-19 05:00N 31°58' E 120°27'516206354.8
2018-Jun-19 05:00N 23°45' E 117°35'31110246.7
2018-Jun-19 05:00N 23°26' E 117°09'877394567.3
2018-Jun-19 05:00N 37°35' E 121°22'848117406.0
2018-Jun-19 05:00N 23°49' E 117°40'488250767.3
2018-Jun-19 04:59N 30°52' E 122°13'446200813.7
2018-Jun-19 04:59N 24°23' E 118°08'251360.0
2018-Jun-19 04:58N 24°40' E 118°27'1636115496.6
2018-Jun-19 04:57N 01°16' E 104°04'159639360.4
2018-Jun-19 04:55N 24°10' E 117°58'72322637.8
2018-Jun-19 04:53N 36°03' E 120°19'2441744.5
2018-Jun-19 04:45N 31°59' E 120°26'46729515.0
2018-Jun-19 04:44N 24°23' E 118°31'46721278.9
2018-Jun-19 04:42N 31°59' E 120°26'1 8.5
2018-Jun-19 04:35N 31°58' E 120°25'24538347.2
2018-Jun-19 04:35N 36°03' E 120°18'75111128.4
2018-Jun-19 04:30N 23°45' E 117°35'3339070.0
2018-Jun-19 04:30N 24°10' E 117°58'1611362581.4
2018-Jun-19 04:30N 01°15' E 103°36'2401960315.6
2018-Jun-19 04:30N 37°35' E 121°22'42241689766.7
2018-Jun-19 04:30N 44°09' E 028°40'49051961998.5
2018-Jun-19 04:30N 01°17' E 104°08'162295734.4
2018-Jun-19 04:29N 24°23' E 118°32'6414482.8
2018-Jun-19 04:28N 23°46' E 117°35'2487905.6
2018-Jun-19 04:28N 23°32' E 117°12'9628879.1
2018-Jun-19 04:28N 24°40' E 118°27'45160184.6
2018-Jun-19 04:28N 31°59' E 120°26'1103.6
2018-Jun-19 04:27N 31°58' E 120°27'54174954.9
2018-Jun-19 04:27N 23°26' E 117°09'541486868.2
2018-Jun-19 04:27N 31°58' E 120°26'1133.8
2018-Jun-19 04:27N 31°59' E 120°26'2444559.0
2018-Jun-19 04:23N 36°03' E 120°18'0 6.8
2018-Jun-19 04:19N 36°03' E 120°19'41097.8
2018-Jun-19 04:19N 36°02' E 120°14'7136143.1
2018-Jun-19 04:12N 24°17' E 118°10'459824447.9
2018-Jun-19 04:01N 44°09' E 028°40'43971582777.6
2018-Jun-19 04:00N 31°58' E 120°27'51668772.2
2018-Jun-19 04:00N 23°46' E 117°35'2239738.8
2018-Jun-19 04:00N 23°33' E 117°15'2215903.8
2018-Jun-19 04:00N 23°45' E 117°35'45161402.9
2018-Jun-19 04:00N 24°17' E 118°10'1603250949.0
2018-Jun-19 03:59N 01°18' E 104°12'342332.0
2018-Jun-19 03:59N 01°20' E 103°37'16071928198.4
2018-Jun-19 03:58N 24°10' E 117°58'408475.3
2018-Jun-19 03:58N 24°40' E 118°27'688412684.1
2018-Jun-19 03:58N 36°02' E 120°14'24354702.8
2018-Jun-19 03:58N 31°59' E 120°26'34025478.2
2018-Jun-19 03:57N 37°35' E 121°22'33911631.3
2018-Jun-19 03:55N 31°59' E 120°27'54220546.4
2018-Jun-19 03:54N 23°26' E 117°09'961774.0
2018-Jun-19 03:50N 24°24' E 118°33'70523070.2
2018-Jun-19 03:49N 36°03' E 120°18'2456834.3
2018-Jun-19 03:46N 31°58' E 120°26'2373094.2
2018-Jun-19 03:42N 35°55' E 120°10'2376997.9
2018-Jun-19 03:40N 31°58' E 120°26'5153302.0
2018-Jun-19 03:30N 23°46' E 117°35'2024016.8
2018-Jun-19 03:30N 23°32' E 117°18'5331917836.5
2018-Jun-19 03:30N 31°58' E 120°27'439715827776.2
2018-Jun-19 03:30N 44°09' E 028°40'4224724185.7
2018-Jun-19 03:30N 37°35' E 121°22'23831072362.9
2018-Jun-19 03:30N 01°18' E 104°15'1619342894.4
2018-Jun-19 03:30N 24°24' E 118°33'7032532117.1
2018-Jun-19 03:30N 36°02' E 120°14'72237672.5
2018-Jun-19 03:28N 24°10' E 117°58'333255.8
2018-Jun-19 03:28N 23°45' E 117°35'516464845.7
2018-Jun-19 03:28N 31°59' E 120°27'111199701.7
2018-Jun-19 03:28N 30°47' E 122°06'4408958.0
2018-Jun-19 03:25N 24°19' E 118°10'161546506.5
2018-Jun-19 03:23N 01°25' E 103°40'1641190569.6
2018-Jun-19 03:22N 24°40' E 118°27'69024827.7
2018-Jun-19 03:21N 36°03' E 120°18'7751394191.0
2018-Jun-19 03:20N 23°26' E 117°09'77111020.8
2018-Jun-19 03:16N 36°00' E 120°16'3108.6
2018-Jun-19 03:15N 36°03' E 120°18'70810408.5
2018-Jun-19 03:10N 24°24' E 118°06'48289.2
2018-Jun-19 03:00N 23°46' E 117°35'1810852.2
2018-Jun-19 03:00N 23°33' E 117°21'868142029.8
2018-Jun-19 03:00N 37°35' E 121°22'808727142.1
2018-Jun-19 03:00N 24°25' E 118°05'492577.0
2018-Jun-19 02:59N 23°45' E 117°35'1554508689.1
2018-Jun-19 02:59N 01°20' E 104°18'362929.3
2018-Jun-19 02:58N 01°28' E 103°43'227959461.5
2018-Jun-19 02:56N 36°03' E 120°18'723289356.7
2018-Jun-19 02:55N 24°10' E 117°58'4868889.5
2018-Jun-19 02:52N 31°58' E 120°27'24467642.1
2018-Jun-19 02:52N 36°02' E 120°14'68814929.9
2018-Jun-19 02:49N 24°40' E 118°27'6896631.4
2018-Jun-19 02:43N 36°02' E 120°19'709231902.1
2018-Jun-19 02:43N 24°23' E 118°07'47230902.2
2018-Jun-19 02:42N 31°59' E 120°26'1105764.9
2018-Jun-19 02:41N 30°52' E 122°09'3221160847.0
2018-Jun-19 02:41N 36°01' E 120°19'77218918.2
2018-Jun-19 02:38N 23°26' E 117°09'458335714.6
2018-Jun-19 02:31N 44°09' E 028°40'43972637995.4
2018-Jun-19 02:30N 31°58' E 120°27'4861751255.5
2018-Jun-19 02:30N 24°10' E 117°58'722162462.8
2018-Jun-19 02:30N 36°02' E 120°14'750449783.7
2018-Jun-19 02:30N 23°46' E 117°35'8531534726.9
2018-Jun-19 02:30N 37°35' E 121°22'853236142.6
2018-Jun-19 02:30N 23°45' E 117°35'162320.1
2018-Jun-19 02:29N 23°33' E 117°24'153633.5
2018-Jun-19 02:29N 23°26' E 117°09'7712080.5
2018-Jun-19 02:29N 24°23' E 118°06'1612123452.6
2018-Jun-19 02:28N 01°27' E 103°44'16141936485.5
2018-Jun-19 02:28N 24°26' E 118°05'70718983.3
2018-Jun-19 02:26N 36°03' E 120°18'69080089.3
2018-Jun-19 02:25N 24°40' E 118°27'6897126.8
2018-Jun-19 02:19N 36°02' E 120°19'161.1
2018-Jun-19 02:18N 36°01' E 120°19'3194491.1
2018-Jun-19 02:14N 30°55' E 122°10'109920.9
2018-Jun-19 02:07N 31°59' E 120°26'1 5.6
2018-Jun-19 02:00N 31°58' E 120°27'516928448.6
2018-Jun-19 02:00N 23°46' E 117°35'1412692.6
2018-Jun-19 02:00N 23°34' E 117°26'5301907513.2
2018-Jun-19 02:00N 31°59' E 120°26'33961084.1
2018-Jun-19 02:00N 37°35' E 121°22'853613983.5
2018-Jun-19 02:00N 23°45' E 117°35'750158775.7
2018-Jun-19 02:00N 36°02' E 120°14'3369.4
2018-Jun-19 01:59N 36°00' E 120°16'720235745.1
2018-Jun-19 01:59N 24°10' E 117°58'154114.1
2018-Jun-19 01:59N 24°23' E 118°06'161253724.4
2018-Jun-19 01:57N 01°27' E 103°44'206794206.5
2018-Jun-19 01:56N 31°59' E 120°26'019.1
2018-Jun-19 01:55N 31°59' E 120°26'54219303.3
2018-Jun-19 01:53N 23°26' E 117°09'774696460.9
2018-Jun-19 01:53N 36°02' E 120°19'68957677.5
2018-Jun-19 01:52N 24°40' E 118°27'80561671.6
2018-Jun-19 01:51N 37°57' E 120°43'3594336.3
2018-Jun-19 01:46N 31°58' E 120°25'6705567.7
2018-Jun-19 01:39N 22°18' E 114°09'67019148.8
2018-Jun-19 01:37N 31°58' E 120°26'1 5.1
2018-Jun-19 01:30N 31°58' E 120°27'5271895615.5
2018-Jun-19 01:30N 23°36' E 117°28'1113431.1
2018-Jun-19 01:30N 23°45' E 117°35'5161858252.3
2018-Jun-19 01:30N 31°59' E 120°26'439615825300.8
2018-Jun-19 01:30N 44°09' E 028°40'42351016321.4
2018-Jun-19 01:30N 36°02' E 120°19'243875726.4
2018-Jun-19 01:30N 31°59' E 120°27'516371708.5
2018-Jun-19 01:30N 23°46' E 117°35'8533069537.8
2018-Jun-19 01:30N 37°35' E 121°22'33940724.1
2018-Jun-19 01:30N 31°59' E 120°26'47335449.0
2018-Jun-19 01:29N 24°23' E 118°06'70839829.3
2018-Jun-19 01:28N 36°02' E 120°14'3200.9
2018-Jun-19 01:27N 36°00' E 120°16'720172879.8
2018-Jun-19 01:26N 24°10' E 117°58'48897610.9
2018-Jun-19 01:26N 31°60' E 120°27'2 3.7
2018-Jun-19 01:00N 31°58' E 120°27'43972261109.9
2018-Jun-19 01:00N 44°09' E 028°40'4224691268.4
2018-Jun-19 01:00N 37°35' E 121°22'81037388.7
2018-Jun-19 00:59N 24°23' E 118°06'472425044.7
2018-Jun-19 00:59N 31°59' E 120°26'0 8.3
2018-Jun-19 00:56N 31°59' E 120°26'1530.0
2018-Jun-19 00:56N 32°00' E 120°27'35611655.0
2018-Jun-19 00:54N 37°56' E 120°43'1161335.3
2018-Jun-19 00:48N 36°02' E 120°14'386.1
2018-Jun-19 00:46N 36°00' E 120°16'227621965.7
2018-Jun-19 00:40N 01°27' E 103°44'206713011.9
2018-Jun-19 00:31N 31°58' E 120°27'1331.5
2018-Jun-19 00:30N 31°59' E 120°26'43967912717.0
2018-Jun-19 00:30N 44°09' E 028°40'4224724185.9
2018-Jun-19 00:30N 37°35' E 121°22'34034945.8
2018-Jun-19 00:29N 31°59' E 120°27'47237785.9
2018-Jun-19 00:29N 24°23' E 118°06'472100010.5
2018-Jun-19 00:28N 31°59' E 120°26'4716303.8
2018-Jun-19 00:24N 24°24' E 118°06'82328752.2
2018-Jun-19 00:22N 37°56' E 120°43'116721.4
2018-Jun-19 00:13N 36°02' E 120°14'31732615.9
2018-Jun-19 00:12N 31°00' E 122°09'105547.6
2018-Jun-19 00:00N 31°59' E 120°26'670401735.3
2018-Jun-19 00:00N 22°19' E 114°09'44862306837.9
2018-Jun-19 00:00N 44°09' E 028°40'42241267325.3
2018-Jun-19 00:00N 37°35' E 121°22'339174538.2
2018-Jun-19 00:00N 31°59' E 120°26'1066709.0
2018-Jun-18 23:59N 30°60' E 122°10'452101613.3
2018-Jun-18 23:59N 24°23' E 118°06'47254814.7
2018-Jun-18 23:58N 31°58' E 120°27'242972.3
2018-Jun-18 23:43N 36°00' E 120°16'227654626.6
2018-Jun-18 23:41N 01°28' E 103°43'2277122341.7
2018-Jun-18 23:40N 36°02' E 120°14'423027943.2
2018-Jun-18 23:31N 44°09' E 028°40'439615825364.1
2018-Jun-18 23:31N 31°59' E 120°26'34042173.2
2018-Jun-18 23:30N 37°35' E 121°22'2387318213.1
2018-Jun-18 23:30N 01°28' E 103°43'1612103635.5
2018-Jun-18 23:29N 24°23' E 118°06'70654103.5
2018-Jun-18 23:28N 36°00' E 120°16'31810121.4
2018-Jun-18 23:26N 30°57' E 122°11'1084564.4
2018-Jun-18 23:25N 31°58' E 120°27'1101281.7
2018-Jun-18 23:19N 30°55' E 122°12'32228314.1
2018-Jun-18 23:19N 36°02' E 120°14'7194211.6
2018-Jun-18 23:08N 24°12' E 118°04'4504139.2
2018-Jun-18 23:02N 30°42' E 122°15'0 8.1
2018-Jun-18 23:00N 30°42' E 122°15'45312330329.4
2018-Jun-18 23:00N 44°09' E 028°40'4224760395.0
2018-Jun-18 23:00N 37°35' E 121°22'8211477533.1
2018-Jun-18 23:00N 24°12' E 118°04'719184851.4
2018-Jun-18 23:00N 36°02' E 120°14'3409.5
2018-Jun-18 22:59N 36°00' E 120°16'2276215633.1
2018-Jun-18 22:59N 01°28' E 103°43'16122901783.4
2018-Jun-18 22:59N 24°23' E 118°06'45023499.1
2018-Jun-18 22:57N 30°58' E 122°11'11172119703.4
2018-Jun-18 22:52N 10°15' W 075°31'11179214065.1
2018-Jun-18 22:49N 30°50' E 122°14'1142638.7
2018-Jun-18 22:46N 31°58' E 120°27'1178.2
2018-Jun-18 22:46N 31°59' E 120°26'108566.7
2018-Jun-18 22:35N 30°58' E 122°10'1072137.6
2018-Jun-18 22:32N 31°59' E 120°26'4396222893.9
2018-Jun-18 22:30N 44°09' E 028°40'4590157382.3
2018-Jun-18 22:29N 24°23' E 118°06'44711404.5
2018-Jun-18 22:26N 30°52' E 122°13'1134053.2
2018-Jun-18 22:25N 31°59' E 120°26'074.2
2018-Jun-18 22:24N 31°59' E 120°26'2068148914.4
2018-Jun-18 22:23N 01°28' E 103°43'238760082.2
2018-Jun-18 22:21N 37°35' E 121°22'4082876.6
2018-Jun-18 22:13N 30°49' E 122°06'8207.9
2018-Jun-18 22:10N 30°49' E 122°15'452727764.6
2018-Jun-18 22:01N 44°09' E 028°40'4519561018.2
2018-Jun-18 22:00N 30°56' E 122°11'2064145672.6
2018-Jun-18 21:59N 01°28' E 103°43'2068620481.4
2018-Jun-18 21:59N 31°59' E 120°26'33910442.5
2018-Jun-18 21:57N 37°35' E 121°22'340611511.1
2018-Jun-18 21:57N 31°59' E 120°26'47220240.7
2018-Jun-18 21:56N 24°23' E 118°06'44620602.6
2018-Jun-18 21:54N 30°51' E 122°15'1118046315.1
2018-Jun-18 21:40N 10°15' W 075°31'592038126.8
2018-Jun-18 21:31N 44°09' E 028°40'4224543139.8
2018-Jun-18 21:30N 37°35' E 121°22'34045294.7
2018-Jun-18 21:30N 31°59' E 120°26'106381594.3
2018-Jun-18 21:30N 30°60' E 122°09'45128498.4
2018-Jun-18 21:29N 24°23' E 118°06'1612252331.6
2018-Jun-18 21:28N 01°28' E 103°43'161233169.0
2018-Jun-18 21:25N 24°22' E 118°08'47370962.0
2018-Jun-18 21:25N 31°59' E 120°26'110455680349.7
2018-Jun-18 21:25N 10°15' W 075°31'11169893513.4
2018-Jun-18 21:24N 30°44' E 121°60'17177.5
2018-Jun-18 21:18N 30°55' E 122°15'1122114.8
2018-Jun-18 21:15N 31°58' E 120°27'110447.6
2018-Jun-18 21:00N 30°58' E 122°14'40059993.4
2018-Jun-18 21:00N 37°35' E 121°22'3951421761.6
2018-Jun-18 21:00N 31°02' E 122°05'45101476051.6
2018-Jun-18 21:00N 44°09' E 028°40'45931378034.5
2018-Jun-18 21:00N 24°22' E 118°09'3517.5
2018-Jun-18 20:59N 24°23' E 118°06'472130784.8
2018-Jun-18 20:59N 31°59' E 120°26'47256671.2
2018-Jun-18 20:59N 24°23' E 118°06'11123870476.5
2018-Jun-18 20:58N 10°15' W 075°31'11155872995.0
2018-Jun-18 20:57N 31°06' E 121°57'931931.6
2018-Jun-18 20:54N 31°58' E 120°27'206850985.8
2018-Jun-18 20:52N 01°28' E 103°43'206820455.4
2018-Jun-18 20:46N 31°59' E 120°26'439617448.1
2018-Jun-18 20:31N 44°09' E 028°40'4397719444.1
2018-Jun-18 20:30N 31°58' E 120°27'20681063416.9
2018-Jun-18 20:30N 01°28' E 103°43'23878591749.8
2018-Jun-18 20:30N 37°35' E 121°22'392706247.1
2018-Jun-18 20:30N 31°04' E 122°01'9726938.2
2018-Jun-18 20:30N 31°59' E 120°26'10642480.0
2018-Jun-18 20:30N 31°01' E 122°11'10695589.6
2018-Jun-18 20:30N 31°59' E 120°26'110442839885.7
2018-Jun-18 20:29N 10°17' W 075°31'1112213346201.5
2018-Jun-18 20:29N 24°23' E 118°06'013.2
2018-Jun-18 20:29N 24°23' E 118°06'1053834116.7
2018-Jun-18 20:10N 32°05' W 081°04'1037665531.2
2018-Jun-18 20:00N 31°06' E 121°57'45012025601.7
2018-Jun-18 20:00N 44°09' E 028°40'52301448376.0
2018-Jun-18 20:00N 32°05' W 081°04'99755984966.2
2018-Jun-18 20:00N 37°35' E 121°22'39440481.7
2018-Jun-18 19:59N 31°03' E 122°06'20683721714.9
2018-Jun-18 19:59N 01°28' E 103°43'1071119279824.4
2018-Jun-18 19:59N 10°17' W 075°31'111223079917.5
2018-Jun-18 19:59N 24°23' E 118°06'013.1
2018-Jun-18 19:59N 24°23' E 118°06'025.3
2018-Jun-18 19:58N 24°23' E 118°06'4313397.8
2018-Jun-18 19:50N 30°43' E 121°57'6543501.0
2018-Jun-18 19:39N 22°19' E 114°09'448630583.1
2018-Jun-18 19:30N 44°09' E 028°40'52301569074.0
2018-Jun-18 19:30N 32°05' W 081°04'105385419642.5
2018-Jun-18 19:30N 24°23' E 118°06'111222859910.6
2018-Jun-18 19:30N 10°17' W 075°31'111221213282.2
2018-Jun-18 19:29N 24°23' E 118°06'014.0
2018-Jun-18 19:29N 24°23' E 118°06'45317152.8
2018-Jun-18 19:27N 31°05' E 122°01'450510233.1
2018-Jun-18 19:01N 44°09' E 028°40'5230818648.1
2018-Jun-18 19:00N 32°05' W 081°04'99755984967.5
2018-Jun-18 19:00N 37°35' E 121°22'810972196.1
2018-Jun-18 19:00N 24°23' E 118°06'111223336578.8
2018-Jun-18 19:00N 10°17' W 075°31'107521612799.7
2018-Jun-18 18:59N 01°25' E 104°24'1594573779.5
2018-Jun-18 18:59N 24°23' E 118°06'452271468.6
2018-Jun-18 18:59N 31°06' E 121°58'45242860.2
2018-Jun-18 18:59N 24°23' E 118°06'15993412.0
2018-Jun-18 18:30N 01°21' E 104°21'491217683358.4
2018-Jun-18 18:30N 44°09' E 028°40'52301448377.5
2018-Jun-18 18:30N 32°05' W 081°04'99755984967.5
2018-Jun-18 18:30N 37°35' E 121°22'810972189.0
2018-Jun-18 18:30N 24°23' E 118°06'111224003893.6
2018-Jun-18 18:30N 10°17' W 075°31'111221082116.1
2018-Jun-18 18:29N 24°23' E 118°06'453271570.3
2018-Jun-18 18:29N 31°08' E 121°55'45344035.7
2018-Jun-18 18:29N 24°23' E 118°06'4543192.8
2018-Jun-18 18:20N 31°12' E 121°49'30462.1
2018-Jun-18 18:16N 30°44' E 121°58'108947.4
2018-Jun-18 18:09N 31°58' E 120°27'206816541.2
2018-Jun-18 18:02N 01°28' E 103°43'4878211565.3
2018-Jun-18 18:00N 44°09' E 028°40'43972261110.9
2018-Jun-18 18:00N 31°58' E 120°27'102507380144.5
2018-Jun-18 18:00N 32°05' W 081°04'99755984967.5
2018-Jun-18 18:00N 37°35' E 121°22'109213024394.7
2018-Jun-18 18:00N 10°17' W 075°31'111225004864.7
2018-Jun-18 18:00N 24°23' E 118°06'021.1
2018-Jun-18 17:59N 24°23' E 118°06'014.2
2018-Jun-18 17:58N 24°23' E 118°06'1604721632.4
2018-Jun-18 17:58N 01°18' E 104°17'20515494.4
2018-Jun-18 17:36N 30°53' E 122°07'2059463308.8
2018-Jun-18 17:36N 01°28' E 103°43'487856644.9
2018-Jun-18 17:31N 44°09' E 028°40'43971055186.0
2018-Jun-18 17:30N 31°58' E 120°27'102504612592.8
2018-Jun-18 17:30N 32°05' W 081°04'99757181961.0
2018-Jun-18 17:30N 37°35' E 121°22'109215616733.0
2018-Jun-18 17:30N 10°17' W 075°31'1112240038917.7
2018-Jun-18 17:30N 24°23' E 118°06'1607192876.9
2018-Jun-18 17:29N 01°16' E 104°12'1607385769.0
2018-Jun-18 17:29N 24°23' E 118°06'019.7
2018-Jun-18 17:28N 24°23' E 118°06'161254237.3
2018-Jun-18 17:27N 01°28' E 103°43'206016196.0
2018-Jun-18 17:19N 30°55' E 122°07'66920079.3
2018-Jun-18 17:17N 22°19' E 114°09'1043436970.9
2018-Jun-18 17:00N 32°05' W 081°04'99758977451.3
2018-Jun-18 17:00N 37°35' E 121°22'810291652.5
2018-Jun-18 17:00N 24°23' E 118°06'45908262420.9
2018-Jun-18 17:00N 44°09' E 028°40'59195327181.9
2018-Jun-18 17:00N 10°17' W 075°31'109473031413.4
2018-Jun-18 17:00N 22°19' E 114°09'1394239044.7
2018-Jun-18 16:59N 01°15' E 104°08'16111449457.3
2018-Jun-18 16:59N 24°23' E 118°06'1612193436.4
2018-Jun-18 16:59N 01°28' E 103°43'1612483607.9
2018-Jun-18 16:58N 24°23' E 118°06'4721864.2
2018-Jun-18 16:43N 31°59' E 120°26'111.0
2018-Jun-18 16:40N 31°58' E 120°27'439727622.6
2018-Jun-18 16:31N 44°09' E 028°40'59191775697.6
2018-Jun-18 16:30N 10°17' W 075°31'1344483881.5
2018-Jun-18 16:30N 32°05' W 081°04'99757181961.0
2018-Jun-18 16:30N 37°35' E 121°22'23918606729.7
2018-Jun-18 16:30N 01°15' E 104°03'1613580738.1
2018-Jun-18 16:30N 24°23' E 118°06'014.8
2018-Jun-18 16:29N 24°23' E 118°06'0 2.7
2018-Jun-18 16:25N 24°23' E 118°06'16163894.2
2018-Jun-18 16:01N 01°14' E 103°59'49001764132.2
2018-Jun-18 16:00N 44°09' E 028°40'591921308353.2
2018-Jun-18 16:00N 10°17' W 075°31'1344403229.9
2018-Jun-18 16:00N 32°05' W 081°04'99758977449.2
2018-Jun-18 16:00N 37°35' E 121°22'40272355.6
2018-Jun-18 16:00N 30°55' E 122°09'448805721.5
2018-Jun-18 16:00N 24°23' E 118°06'019.1
2018-Jun-18 15:59N 24°23' E 118°06'013.4
2018-Jun-18 15:58N 24°23' E 118°06'16127656.1
2018-Jun-18 15:46N 01°28' E 103°43'487819233.2
2018-Jun-18 15:31N 44°09' E 028°40'48982518972.4
2018-Jun-18 15:30N 01°12' E 103°55'107265516077.2
2018-Jun-18 15:30N 10°17' W 075°31'1344604720.9
2018-Jun-18 15:30N 32°05' W 081°02'99737180814.9
2018-Jun-18 15:30N 37°35' E 121°22'810162028.0
2018-Jun-18 15:30N 24°23' E 118°06'015.9
2018-Jun-18 15:29N 24°23' E 118°06'018.9
2018-Jun-18 15:28N 24°23' E 118°06'7062347.8
2018-Jun-18 15:10N 36°00' E 120°16'1001159081.4
2018-Jun-18 15:00N 32°05' W 081°02'99737180802.7
2018-Jun-18 15:00N 37°35' E 121°22'42241169837.7
2018-Jun-18 15:00N 44°09' E 028°40'45902360697.5
2018-Jun-18 15:00N 24°23' E 118°06'017.1
2018-Jun-18 14:59N 24°23' E 118°06'111222502433.8
2018-Jun-18 14:59N 10°16' W 075°31'107222969104.7
2018-Jun-18 14:59N 01°11' E 103°50'1623417382.3
2018-Jun-18 14:58N 24°23' E 118°06'4728248.2
2018-Jun-18 14:55N 31°58' E 120°27'118.3
2018-Jun-18 14:53N 31°59' E 120°26'206819904.2
2018-Jun-18 14:47N 01°28' E 103°43'139311532.3
2018-Jun-18 14:40N 22°19' E 114°09'6716116.3
2018-Jun-18 14:33N 30°52' E 122°14'4524106438.9
2018-Jun-18 14:30N 44°09' E 028°40'52291344536.4
2018-Jun-18 14:30N 32°05' W 081°02'1078738833274.6
2018-Jun-18 14:30N 01°09' E 103°47'24032883174.8
2018-Jun-18 14:30N 37°35' E 121°22'810145830.5
2018-Jun-18 14:30N 24°23' E 118°06'016.8
2018-Jun-18 14:29N 24°23' E 118°06'47243594.8
2018-Jun-18 14:28N 31°59' E 120°26'472850082.5
2018-Jun-18 14:28N 24°23' E 118°06'25016988.9
2018-Jun-18 14:27N 22°19' E 114°09'67213905.7
2018-Jun-18 14:25N 30°53' E 122°14'1123426.7
2018-Jun-18 14:23N 31°60' E 120°27'2069102033.4
2018-Jun-18 14:21N 01°28' E 103°43'20688595.5
2018-Jun-18 14:07N 31°58' E 120°27'439741004.6
2018-Jun-18 14:01N 44°09' E 028°40'489417619182.5
2018-Jun-18 14:01N 01°06' E 103°44'107861764914.0
2018-Jun-18 14:00N 32°05' W 081°02'99738976003.4
2018-Jun-18 14:00N 37°35' E 121°22'810132572.4
2018-Jun-18 14:00N 24°23' E 118°06'017.1
2018-Jun-18 13:59N 24°23' E 118°06'1612644831.3
2018-Jun-18 13:59N 01°28' E 103°43'2065128149.3
2018-Jun-18 13:58N 30°57' E 122°11'10911903.2
2018-Jun-18 13:57N 31°59' E 120°26'47214052.0
2018-Jun-18 13:55N 24°23' E 118°06'16323929.0
2018-Jun-18 13:30N 01°07' E 103°40'48904401307.7
2018-Jun-18 13:30N 44°09' E 028°40'52291344536.4
2018-Jun-18 13:30N 32°05' W 081°02'997311968004.5
2018-Jun-18 13:30N 37°35' E 121°22'397142968.7
2018-Jun-18 13:30N 31°00' E 122°08'451108350.8
2018-Jun-18 13:30N 24°23' E 118°06'016.2
2018-Jun-18 13:29N 24°23' E 118°06'47260726.3
2018-Jun-18 13:29N 31°59' E 120°26'472130796.4
2018-Jun-18 13:28N 24°23' E 118°06'161216166.0
2018-Jun-18 13:22N 01°28' E 103°43'487813404.4
2018-Jun-18 13:01N 44°09' E 028°40'5229818414.6
2018-Jun-18 13:00N 32°05' W 081°02'997311968010.4
2018-Jun-18 13:00N 37°35' E 121°22'810126814.8
2018-Jun-18 13:00N 24°23' E 118°06'1630279388.5
2018-Jun-18 12:59N 01°11' E 103°37'2086750922.8
2018-Jun-18 12:59N 31°59' E 120°26'472154571.4
2018-Jun-18 12:59N 24°23' E 118°06'43849287.6
2018-Jun-18 12:58N 30°46' E 122°05'438197137.2
2018-Jun-18 12:58N 24°23' E 118°06'4728496.4
2018-Jun-18 12:55N 31°58' E 120°27'66912888.5
2018-Jun-18 12:52N 22°19' E 114°09'673346299.6
2018-Jun-18 12:52N 31°04' E 122°02'206660460.1
2018-Jun-18 12:50N 01°28' E 103°43'206624380.1
2018-Jun-18 12:45N 31°08' E 121°55'9116376.4
2018-Jun-18 12:44N 31°59' E 120°26'569686164.6
2018-Jun-18 12:40N 41°29' E 002°34'5514397030.8
2018-Jun-18 12:40N 36°02' E 120°14'229215279.3
2018-Jun-18 12:31N 01°15' E 103°36'2071745417.4
2018-Jun-18 12:30N 30°48' E 122°07'45211808487.6
2018-Jun-18 12:30N 44°09' E 028°40'52299411754.7
2018-Jun-18 12:30N 32°05' W 081°02'1037518674202.0
2018-Jun-18 12:30N 31°06' E 121°58'390702595.8
2018-Jun-18 12:30N 37°35' E 121°22'810121530.9
2018-Jun-18 12:30N 24°23' E 118°06'47265411.9
2018-Jun-18 12:29N 31°59' E 120°26'472100016.8
2018-Jun-18 12:29N 24°23' E 118°06'016.5
2018-Jun-18 12:28N 24°23' E 118°06'473106354.7
2018-Jun-18 12:28N 31°59' E 120°26'670219272.8
2018-Jun-18 12:28N 22°19' E 114°09'579989598.4
2018-Jun-18 12:24N 41°27' E 002°35'569868601.4
2018-Jun-18 12:19N 31°58' E 120°27'2442931.2
2018-Jun-18 12:14N 36°02' E 120°14'3223968.9
2018-Jun-18 12:09N 30°56' E 122°11'582740341.0
2018-Jun-18 12:00N 41°24' E 002°35'1160522195.2
2018-Jun-18 12:00N 44°09' E 028°40'487917564552.2
2018-Jun-18 12:00N 01°19' E 103°37'20783741143.8
2018-Jun-18 12:00N 31°59' E 120°26'102493689749.6
2018-Jun-18 12:00N 32°05' W 081°04'1024912299216.3
2018-Jun-18 12:00N 31°59' E 120°26'47229837.0
2018-Jun-18 11:59N 24°23' E 118°06'057.1
2018-Jun-18 11:59N 24°23' E 118°06'018.0
2018-Jun-18 11:58N 24°23' E 118°06'44453292.1
2018-Jun-18 11:58N 30°51' E 122°09'40631753.2
2018-Jun-18 11:57N 37°35' E 121°22'239238789.4
2018-Jun-18 11:53N 01°24' E 103°39'207211388.2
2018-Jun-18 11:42N 31°12' E 121°49'579828909.3
2018-Jun-18 11:30N 41°23' E 002°35'1161835901.5
2018-Jun-18 11:30N 44°09' E 028°40'43962637554.1
2018-Jun-18 11:30N 31°59' E 120°26'102495271095.6
2018-Jun-18 11:30N 32°05' W 081°04'102496149586.0
2018-Jun-18 11:30N 31°59' E 120°26'47385102.0
2018-Jun-18 11:30N 24°23' E 118°06'014.6
2018-Jun-18 11:29N 24°23' E 118°06'44747366.1
2018-Jun-18 11:28N 30°55' E 122°10'4478897.1
2018-Jun-18 11:25N 24°23' E 118°06'16165817552.0
2018-Jun-18 11:25N 01°25' E 103°40'2390116284.4
2018-Jun-18 11:24N 37°35' E 121°22'9907142.1
2018-Jun-18 11:16N 22°19' E 114°09'66912552.8
2018-Jun-18 11:13N 31°58' E 120°27'2078191799.5
2018-Jun-18 11:12N 01°20' E 103°37'228723589.5
2018-Jun-18 11:06N 36°02' E 120°14'551659278.5
2018-Jun-18 11:01N 41°23' E 002°36'5505792650.4
2018-Jun-18 11:00N 37°35' E 121°22'23871227361.4
2018-Jun-18 11:00N 01°28' E 103°43'2063675296.1
2018-Jun-18 11:00N 30°55' E 122°12'44989745.6
2018-Jun-18 11:00N 24°23' E 118°06'451270302.6
2018-Jun-18 10:59N 30°58' E 122°10'45175420362.5
2018-Jun-18 10:59N 44°09' E 028°40'43962637556.4
2018-Jun-18 10:59N 31°59' E 120°26'244125401.3
2018-Jun-18 10:59N 36°02' E 120°14'708196081.4
2018-Jun-18 10:59N 24°23' E 118°06'473340319.1
2018-Jun-18 10:59N 31°59' E 120°26'47356721.8
2018-Jun-18 10:58N 24°23' E 118°06'4727552.7
2018-Jun-18 10:55N 31°58' E 120°27'66913851.4
2018-Jun-18 10:52N 22°19' E 114°09'14083975.8
2018-Jun-18 10:30N 01°15' E 103°36'153172.7
2018-Jun-18 10:30N 01°27' E 103°44'23862863565.6
2018-Jun-18 10:30N 37°35' E 121°22'42243041580.0
2018-Jun-18 10:30N 44°09' E 028°40'45131476974.2
2018-Jun-18 10:30N 31°01' E 122°07'10462400.7
2018-Jun-18 10:30N 31°59' E 120°26'473567346.4
2018-Jun-18 10:30N 24°23' E 118°06'014.6
2018-Jun-18 10:29N 24°23' E 118°06'019.0
2018-Jun-18 10:28N 24°23' E 118°06'25020940.7
2018-Jun-18 10:28N 22°19' E 114°09'6701205281.5
2018-Jun-18 10:28N 31°59' E 120°26'1 3.1
2018-Jun-18 10:16N 31°58' E 120°27'549030735.9
2018-Jun-18 10:05N 48°56' E 002°17'112615356.3
2018-Jun-18 10:01N 44°09' E 028°40'48798781698.1
2018-Jun-18 10:00N 01°27' E 103°44'2068354499.1
2018-Jun-18 10:00N 31°59' E 120°26'3391221745.6
2018-Jun-18 10:00N 37°35' E 121°22'52489445732.8
2018-Jun-18 10:00N 48°56' E 002°17'5489940977.4
2018-Jun-18 10:00N 31°59' E 120°26'472850333.6
2018-Jun-18 10:00N 24°23' E 118°06'013.9
2018-Jun-18 09:59N 24°23' E 118°06'018.3
2018-Jun-18 09:58N 24°23' E 118°06'47241447.8
2018-Jun-18 09:58N 31°58' E 120°27'6691205069.9
2018-Jun-18 09:58N 22°19' E 114°09'1410120873.7
2018-Jun-18 09:57N 01°12' E 103°38'208029475.9
2018-Jun-18 09:53N 30°56' E 122°10'4493908.3
2018-Jun-18 09:46N 24°25' E 117°60'458418035.6
2018-Jun-18 09:31N 44°09' E 028°40'43961582540.6
2018-Jun-18 09:30N 31°59' E 120°26'2085500401.4
2018-Jun-18 09:30N 01°10' E 103°41'2085326284.0
2018-Jun-18 09:30N 31°59' E 120°26'472850354.5
2018-Jun-18 09:30N 24°23' E 118°06'57663459530.3
2018-Jun-18 09:30N 48°56' E 002°17'5766494197.7
2018-Jun-18 09:29N 24°23' E 118°06'16121160376.0
2018-Jun-18 09:29N 01°27' E 103°44'1612193396.1
2018-Jun-18 09:28N 24°23' E 118°06'47243574.6
2018-Jun-18 09:28N 31°58' E 120°27'6695697.7
2018-Jun-18 09:21N 22°19' E 114°09'6753424.8
2018-Jun-18 09:09N 30°59' E 122°10'45019506.9
2018-Jun-18 09:07N 24°26' E 118°03'541.3
2018-Jun-18 09:01N 24°23' E 118°06'451147507.3
2018-Jun-18 09:00N 30°58' E 122°10'4511622744.7
2018-Jun-18 09:00N 24°25' E 118°01'45842063008.3
2018-Jun-18 09:00N 44°09' E 028°40'42243041578.1
2018-Jun-18 09:00N 37°35' E 121°22'339305425.7
2018-Jun-18 09:00N 31°59' E 120°26'055.7
2018-Jun-18 09:00N 31°59' E 120°26'47238643.3
2018-Jun-18 08:59N 24°23' E 118°06'1627177533.6
2018-Jun-18 08:58N 01°09' E 103°45'2084192358.0
2018-Jun-18 08:58N 31°58' E 120°27'20691241224.3
2018-Jun-18 08:58N 01°27' E 103°42'206795380.7
2018-Jun-18 08:56N 31°07' E 121°55'3045675.1
2018-Jun-18 08:53N 36°00' E 120°16'7061874.1
2018-Jun-18 08:30N 24°23' E 118°06'16241461664.8
2018-Jun-18 08:30N 01°11' E 103°48'48941761961.2
2018-Jun-18 08:30N 44°09' E 028°40'42242172555.8
2018-Jun-18 08:30N 37°35' E 121°22'81039948.3
2018-Jun-18 08:29N 24°23' E 118°06'018.8
2018-Jun-18 08:28N 24°23' E 118°06'47256677.7
2018-Jun-18 08:28N 31°59' E 120°26'24266893.0
2018-Jun-18 08:28N 36°00' E 120°16'2425006.8
2018-Jun-18 08:25N 31°58' E 120°27'207352550.9
2018-Jun-18 08:22N 01°24' E 103°39'1747.5
2018-Jun-18 08:00N 01°12' E 103°52'16211166816.1
2018-Jun-18 08:00N 24°23' E 118°06'810153513.4
2018-Jun-18 08:00N 37°35' E 121°22'42241169837.7
2018-Jun-18 08:00N 44°09' E 028°40'4878763551.9
2018-Jun-18 07:59N 01°21' E 103°38'1620157616.8
2018-Jun-18 07:59N 24°23' E 118°06'47224627.7
2018-Jun-18 07:58N 31°58' E 120°27'47211559.3
2018-Jun-18 07:55N 24°23' E 118°06'4723244.8
2018-Jun-18 07:47N 31°59' E 120°26'4724480.1
2018-Jun-18 07:40N 24°25' E 118°00'2473361.4
2018-Jun-18 07:36N 22°19' E 114°09'2192709.5
2018-Jun-18 07:31N 21°04' E 110°28'4360581304.7
2018-Jun-18 07:31N 44°09' E 028°40'45901652471.0
2018-Jun-18 07:30N 24°23' E 118°06'16172911432.9
2018-Jun-18 07:30N 01°14' E 103°56'2394615686.0
2018-Jun-18 07:30N 37°35' E 121°22'807968771.7
2018-Jun-18 07:30N 24°26' E 118°03'5149.8
2018-Jun-18 07:28N 24°23' E 118°06'4724379.2
2018-Jun-18 07:22N 31°58' E 120°27'111.7
2018-Jun-18 07:19N 31°59' E 120°26'470187808.4
2018-Jun-18 07:19N 24°26' E 118°05'16295405.7
2018-Jun-18 07:00N 01°14' E 103°36'1627732157.6
2018-Jun-18 07:00N 24°23' E 118°06'810182293.4
2018-Jun-18 07:00N 37°35' E 121°22'2392430520.4
2018-Jun-18 07:00N 01°15' E 103°60'207262676.6
2018-Jun-18 06:58N 31°58' E 120°27'144.1
2018-Jun-18 06:57N 31°59' E 120°27'0 6.4
2018-Jun-18 06:53N 31°59' E 120°26'88255.8
2018-Jun-18 06:32N 31°10' E 121°53'4495148473.6
2018-Jun-18 06:30N 44°09' E 028°40'48851598702.8
2018-Jun-18 06:30N 01°12' E 103°38'2083124954.2
2018-Jun-18 06:29N 31°09' E 121°53'20672480038.0
2018-Jun-18 06:29N 01°16' E 104°03'206911996.1
2018-Jun-18 06:19N 31°58' E 120°27'34029147.6
2018-Jun-18 06:18N 37°35' E 121°22'34027175.4
2018-Jun-18 06:17N 31°59' E 120°26'93332.1
2018-Jun-18 06:01N 31°07' E 121°57'38956072.1
2018-Jun-18 06:00N 37°35' E 121°22'42241086278.6
2018-Jun-18 06:00N 44°09' E 028°40'4889391110.0
2018-Jun-18 05:59N 01°10' E 103°41'208496204.4
2018-Jun-18 05:58N 31°58' E 120°27'1 9.4
2018-Jun-18 05:53N 31°59' E 120°27'011.8
2018-Jun-18 05:51N 31°59' E 120°26'3652533.2
2018-Jun-18 05:42N 38°04' E 120°33'82917347.7
2018-Jun-18 05:39N 24°25' E 118°01'4704455.9
2018-Jun-18 05:33N 31°58' E 120°27'4398106248.6
2018-Jun-18 05:31N 44°09' E 028°40'489217612555.8
2018-Jun-18 05:31N 01°09' E 103°44'2404346119.4
2018-Jun-18 05:30N 37°35' E 121°22'34124051.8
2018-Jun-18 05:29N 31°58' E 120°27'206450549.2
2018-Jun-18 05:27N 01°18' E 104°11'239268350.2
2018-Jun-18 05:25N 38°03' E 120°36'100131609.5
2018-Jun-18 05:23N 22°19' E 114°09'2491554.3
2018-Jun-18 05:13N 24°26' E 118°03'47016260.8
2018-Jun-18 05:11N 31°59' E 120°26'121.7
2018-Jun-18 05:10N 31°58' E 120°27'439728416.1
2018-Jun-18 05:01N 44°09' E 028°40'43973957417.8
2018-Jun-18 05:00N 31°58' E 120°27'2081468223.7
2018-Jun-18 05:00N 01°11' E 103°48'2820070.9
2018-Jun-18 05:00N 01°18' E 104°15'2063675059.5
2018-Jun-18 05:00N 31°59' E 120°26'67033952.7
2018-Jun-18 04:59N 22°19' E 114°09'884397994.2
2018-Jun-18 04:59N 36°02' E 120°20'24425837.8
2018-Jun-18 04:58N 31°58' E 120°27'47242523.4
2018-Jun-18 04:57N 24°24' E 117°59'810153496.9
2018-Jun-18 04:57N 37°35' E 121°22'1091500.6
2018-Jun-18 04:53N 36°00' E 120°16'3114848.6
2018-Jun-18 04:49N 31°03' E 122°08'42311727.4
2018-Jun-18 04:47N 38°01' E 120°45'82810345.1
2018-Jun-18 04:42N 24°25' E 118°06'70626479.4
2018-Jun-18 04:40N 36°02' E 120°14'2443931.1
2018-Jun-18 04:37N 31°59' E 120°27'439642427.7
2018-Jun-18 04:30N 44°09' E 028°40'45148125468.9
2018-Jun-18 04:30N 31°02' E 122°10'2078623442.0
2018-Jun-18 04:30N 01°12' E 103°52'23972876964.6
2018-Jun-18 04:30N 37°35' E 121°22'34071934.8
2018-Jun-18 04:30N 31°59' E 120°26'049.4
2018-Jun-18 04:29N 31°59' E 120°27'24145710.3
2018-Jun-18 04:29N 36°00' E 120°16'24212811.6
2018-Jun-18 04:28N 31°58' E 120°27'205947825.2
2018-Jun-18 04:25N 01°20' E 104°19'13861662806.0
2018-Jun-18 04:25N 22°19' E 114°09'88249637.8
2018-Jun-18 04:24N 36°02' E 120°14'1774640.2
2018-Jun-18 04:22N 38°43' E 121°45'41012734.9
2018-Jun-18 04:20N 31°58' E 120°25'36329664.0
2018-Jun-18 04:19N 38°00' E 120°51'418613441.5
2018-Jun-18 04:01N 44°09' E 028°40'4224584919.9
2018-Jun-18 04:00N 37°35' E 121°22'340136041.3
2018-Jun-18 04:00N 31°58' E 120°26'20751067040.8
2018-Jun-18 04:00N 01°14' E 103°55'2073196427.5
2018-Jun-18 03:59N 30°59' E 122°12'1084920.0
2018-Jun-18 03:58N 31°58' E 120°27'123.4
2018-Jun-18 03:56N 31°59' E 120°27'24196501.9
2018-Jun-18 03:56N 36°00' E 120°16'2425797.5
2018-Jun-18 03:53N 31°59' E 120°26'2446649.9
2018-Jun-18 03:51N 36°02' E 120°13'8836752.0
2018-Jun-18 03:43N 22°18' E 114°09'448621164.5
2018-Jun-18 03:31N 44°09' E 028°40'452116276705.7
2018-Jun-18 03:31N 30°56' E 122°14'32248363.2
2018-Jun-18 03:30N 36°02' E 120°14'22831027244.6
2018-Jun-18 03:30N 01°15' E 103°59'239250072.6
2018-Jun-18 03:27N 37°35' E 121°22'1051280.1
2018-Jun-18 03:22N 36°03' E 120°19'199.0
2018-Jun-18 03:22N 36°03' E 120°18'24414911.1
2018-Jun-18 03:21N 31°59' E 120°26'67129085.1
2018-Jun-18 03:19N 22°18' E 114°09'67012189.5
2018-Jun-18 03:16N 31°58' E 120°27'4713170.1
2018-Jun-18 03:07N 24°24' E 118°06'1 7.7
2018-Jun-18 03:00N 24°25' E 118°06'45892360057.9
2018-Jun-18 03:00N 44°09' E 028°40'4224950494.2
2018-Jun-18 03:00N 37°35' E 121°22'2390107561.4
2018-Jun-18 02:59N 01°16' E 104°02'2064495407.4
2018-Jun-18 02:59N 30°53' E 122°15'67412185.3
2018-Jun-18 02:55N 22°18' E 114°09'674242644.8
2018-Jun-18 02:55N 31°09' E 121°54'9014747.7
2018-Jun-18 02:55N 31°59' E 120°26'2446857.4
2018-Jun-18 02:53N 36°02' E 120°14'556.6
2018-Jun-18 02:48N 36°03' E 120°19'2451372.0
2018-Jun-18 02:37N 31°58' E 120°27'1 5.4
2018-Jun-18 02:30N 31°59' E 120°26'340111170.0
2018-Jun-18 02:30N 37°35' E 121°22'23882865863.3
2018-Jun-18 02:30N 01°17' E 104°05'49031470993.2
2018-Jun-18 02:30N 44°09' E 028°40'448653828.5
2018-Jun-18 02:25N 22°18' E 114°09'2528160.3
2018-Jun-18 02:23N 24°26' E 118°05'4502914.8
2018-Jun-18 02:14N 31°06' E 121°60'231136.2
2018-Jun-18 02:13N 30°47' E 122°16'3319100.4
2018-Jun-18 02:10N 36°02' E 120°14'423025466.7
2018-Jun-18 02:00N 44°09' E 028°40'4224950493.2
2018-Jun-18 02:00N 37°35' E 121°22'10511800.1
2018-Jun-18 02:00N 36°03' E 120°19'88666461.3
2018-Jun-18 01:59N 22°18' E 114°09'66944599.7
2018-Jun-18 01:58N 30°46' E 122°16'205475456.5
2018-Jun-18 01:56N 01°17' E 104°09'206233146.0
2018-Jun-18 01:53N 31°05' E 122°01'3119403.6
2018-Jun-18 01:51N 36°02' E 120°14'3092892.7
2018-Jun-18 01:44N 31°06' E 121°59'3091538.4
2018-Jun-18 01:32N 36°03' E 120°18'24410350.1
2018-Jun-18 01:31N 31°59' E 120°26'4396930907.4
2018-Jun-18 01:30N 44°09' E 028°40'42241013859.4
2018-Jun-18 01:30N 37°35' E 121°22'1089261.7
2018-Jun-18 01:29N 36°02' E 120°14'4711.1
2018-Jun-18 01:29N 36°03' E 120°18'31028605.0
2018-Jun-18 01:28N 31°05' E 121°60'3106929.4
2018-Jun-18 01:26N 36°03' E 120°19'0 1.9
2018-Jun-18 01:17N 36°03' E 120°19'8861062888.6
2018-Jun-18 01:17N 22°18' E 114°09'671402343.8
2018-Jun-18 01:17N 31°59' E 120°26'244219349.3
2018-Jun-18 01:17N 36°03' E 120°20'750.8
2018-Jun-18 01:09N 35°57' E 120°24'30512778.8
2018-Jun-18 01:07N 31°03' E 122°04'0 3.7
2018-Jun-18 01:00N 31°03' E 122°04'45095410704.6
2018-Jun-18 01:00N 44°09' E 028°40'4224894583.1
2018-Jun-18 01:00N 37°35' E 121°22'238375906.8
2018-Jun-18 00:58N 01°19' E 104°15'2059115801.3
2018-Jun-18 00:57N 31°02' E 122°07'31433284.3
2018-Jun-18 00:57N 36°03' E 120°19'41076.5
2018-Jun-18 00:56N 36°02' E 120°14'5155.9
2018-Jun-18 00:54N 36°03' E 120°19'9496.5
2018-Jun-18 00:53N 35°56' E 120°26'23722461.2
2018-Jun-18 00:53N 31°59' E 120°26'110.0
2018-Jun-18 00:45N 31°60' E 120°27'1111384.1
2018-Jun-18 00:40N 30°47' E 122°06'1112274.1
2018-Jun-18 00:37N 31°58' E 120°27'439740480.2
2018-Jun-18 00:31N 44°09' E 028°40'45902065702.8
2018-Jun-18 00:30N 24°23' E 118°06'810171456.6
2018-Jun-18 00:30N 37°35' E 121°22'395142159.8
2018-Jun-18 00:30N 31°02' E 122°06'2057822696.1
2018-Jun-18 00:30N 01°19' E 104°18'227467664.5
2018-Jun-18 00:28N 36°03' E 120°19'24531448.5
2018-Jun-18 00:27N 31°59' E 120°26'116.7
2018-Jun-18 00:25N 31°58' E 120°27'2449776.0
2018-Jun-18 00:24N 36°03' E 120°19'8663.3
2018-Jun-18 00:23N 35°55' E 120°22'10334.6
2018-Jun-18 00:21N 36°02' E 120°13'24428279.6
2018-Jun-18 00:21N 31°59' E 120°26'113703.5
2018-Jun-18 00:11N 30°52' E 122°13'1121873.0
2018-Jun-18 00:07N 31°59' E 120°27'2442110.5
2018-Jun-18 00:00N 36°02' E 120°14'3161136249.1
2018-Jun-18 00:00N 31°01' E 122°07'45125414901.3
2018-Jun-18 00:00N 44°09' E 028°40'4224894583.1
2018-Jun-18 00:00N 37°35' E 121°22'34047035.2
2018-Jun-18 00:00N 31°59' E 120°26'2453652.8
2018-Jun-17 23:56N 36°03' E 120°19'2272545185.2
2018-Jun-17 23:55N 01°21' E 104°20'205186874.3
2018-Jun-17 23:54N 30°55' E 122°12'11124917.1
2018-Jun-17 23:54N 31°59' E 120°26'24421993.1
2018-Jun-17 23:53N 36°03' E 120°19'324129779.8
2018-Jun-17 23:53N 30°52' E 122°08'1091710.9
2018-Jun-17 23:49N 31°58' E 120°27'108434.1
2018-Jun-17 23:34N 30°57' E 122°10'4015888.1
2018-Jun-17 23:30N 37°35' E 121°22'42243041580.0
2018-Jun-17 23:30N 44°09' E 028°40'4514361129.2
2018-Jun-17 23:29N 31°01' E 122°09'10542026.7
2018-Jun-17 23:29N 31°59' E 120°26'1075408.1
2018-Jun-17 23:28N 30°59' E 122°10'1077242.5
2018-Jun-17 23:27N 31°59' E 120°26'205694871.0
2018-Jun-17 23:26N 01°23' E 104°22'205594868.1
2018-Jun-17 23:24N 31°59' E 120°27'1104699910.6
2018-Jun-17 23:18N 10°15' W 075°31'109093021073.0
2018-Jun-17 23:18N 36°02' E 120°14'244851.4
2018-Jun-17 23:00N 31°59' E 120°26'43965275107.3
2018-Jun-17 23:00N 44°09' E 028°40'43962637566.4
2018-Jun-17 23:00N 31°59' E 120°26'339122170.3
2018-Jun-17 23:00N 37°35' E 121°22'109232621403.1
2018-Jun-17 23:00N 10°15' W 075°31'109091227310.9
2018-Jun-17 22:59N 36°02' E 120°14'31811928.6
2018-Jun-17 22:58N 30°60' E 122°10'1062040.9
2018-Jun-17 22:55N 31°58' E 120°27'670219280.2
2018-Jun-17 22:54N 22°18' E 114°10'66819098.9
2018-Jun-17 22:52N 30°52' E 122°08'7698.1
2018-Jun-17 22:52N 30°59' E 122°10'960.2
2018-Jun-17 22:43N 31°04' E 122°01'97672.2
2018-Jun-17 22:34N 31°59' E 120°27'0 0.0
2018-Jun-17 22:30N 31°59' E 120°27'439715827697.7
2018-Jun-17 22:30N 44°09' E 028°40'42241086278.6
2018-Jun-17 22:30N 37°35' E 121°22'400287736.6
2018-Jun-17 22:30N 30°58' E 122°10'111723351541.5
2018-Jun-17 22:30N 10°15' W 075°31'11045946704.6
2018-Jun-17 22:29N 31°59' E 120°26'9517109.5
2018-Jun-17 22:29N 31°06' E 121°59'187141.8
2018-Jun-17 22:29N 30°49' E 122°07'8919.2
2018-Jun-17 22:28N 30°57' E 122°10'1089461.7
2018-Jun-17 22:27N 31°59' E 120°26'67113336.7
2018-Jun-17 22:24N 22°18' E 114°10'88313883.0
2018-Jun-17 22:21N 36°02' E 120°14'2441843.4
2018-Jun-17 22:13N 31°58' E 120°27'439721741.5
2018-Jun-17 22:01N 44°09' E 028°40'44862307275.1
2018-Jun-17 22:00N 22°18' E 114°10'109481194350.6
2018-Jun-17 22:00N 10°15' W 075°31'109092618263.3
2018-Jun-17 22:00N 36°02' E 120°14'32296746.2
2018-Jun-17 21:59N 30°55' E 122°09'10935616.4
2018-Jun-17 21:59N 31°59' E 120°26'021.8
2018-Jun-17 21:58N 31°59' E 120°26'186.6
2018-Jun-17 21:58N 31°58' E 120°27'34037097.6
2018-Jun-17 21:57N 37°35' E 121°22'4047695.3
2018-Jun-17 21:54N 30°53' E 122°08'5624613510.1
2018-Jun-17 21:53N 48°56' E 002°14'562647542.5
2018-Jun-17 21:46N 30°45' E 122°02'932.2
2018-Jun-17 21:30N 30°52' E 122°08'45203254226.6
2018-Jun-17 21:30N 44°09' E 028°40'42241086278.9
2018-Jun-17 21:30N 37°35' E 121°22'34087357.2
2018-Jun-17 21:30N 31°59' E 120°26'110459940400.5
2018-Jun-17 21:30N 10°15' W 075°31'46711201060.0
2018-Jun-17 21:30N 48°54' E 002°11'52539455065.8
2018-Jun-17 21:30N 37°41' E 121°28'34515167.1
2018-Jun-17 21:28N 31°59' E 120°26'186.2
2018-Jun-17 21:28N 31°58' E 120°27'670126951.7
2018-Jun-17 21:27N 22°18' E 114°10'8833637.5
2018-Jun-17 21:13N 36°02' E 120°14'3283594.2
2018-Jun-17 21:07N 30°48' E 122°06'452039119.5
2018-Jun-17 21:00N 44°09' E 028°40'448616150923.6
2018-Jun-17 21:00N 22°18' E 114°10'671268212.2
2018-Jun-17 21:00N 31°59' E 120°26'341409336.5
2018-Jun-17 21:00N 37°37' E 121°27'47410.9
2018-Jun-17 21:00N 37°35' E 121°22'109232184503.2
2018-Jun-17 21:00N 10°15' W 075°31'111731297489.5
2018-Jun-17 20:59N 30°48' E 122°07'11126621.1
2018-Jun-17 20:59N 31°59' E 120°26'11124884.4
2018-Jun-17 20:59N 30°47' E 122°05'110504.4
2018-Jun-17 20:46N 31°58' E 120°27'439717374.1
2018-Jun-17 20:31N 44°09' E 028°40'42271014487.1
2018-Jun-17 20:30N 37°33' E 121°24'337242825.6
2018-Jun-17 20:30N 31°59' E 120°26'339244349.1
2018-Jun-17 20:30N 37°35' E 121°22'41173969.7
2018-Jun-17 20:30N 30°46' E 122°03'31619.2
2018-Jun-17 20:30N 30°44' E 122°00'11169820579.8
2018-Jun-17 20:29N 10°15' W 075°31'110453614703.8
2018-Jun-17 20:29N 31°59' E 120°26'160.6
2018-Jun-17 20:28N 31°58' E 120°27'67017867.4
2018-Jun-17 20:26N 22°18' E 114°10'584216611.4
2018-Jun-17 20:05N 41°14' E 001°49'5558289977.0
2018-Jun-17 20:04N 36°02' E 120°14'423083676.1
2018-Jun-17 20:01N 44°09' E 028°40'44861615090.9
2018-Jun-17 20:00N 22°18' E 114°10'989445070.7
2018-Jun-17 20:00N 37°33' E 121°23'21172.0
2018-Jun-17 20:00N 37°35' E 121°22'41324361.8
2018-Jun-17 19:59N 30°44' E 121°59'331148823.5
2018-Jun-17 19:59N 36°02' E 120°14'24413300.1
2018-Jun-17 19:58N 31°59' E 120°26'11045441798.9
2018-Jun-17 19:56N 10°15' W 075°31'457575544.4
2018-Jun-17 19:53N 41°14' E 001°49'574186832.0
2018-Jun-17 19:49N 31°58' E 120°27'4734561.2
2018-Jun-17 19:43N 24°21' E 118°10'459522940.7
2018-Jun-17 19:31N 44°09' E 028°40'4227895031.5
2018-Jun-17 19:30N 37°33' E 121°23'21025.5
2018-Jun-17 19:30N 37°35' E 121°22'81128339.4
2018-Jun-17 19:28N 24°22' E 118°08'111261178060.2
2018-Jun-17 19:28N 10°14' W 075°31'457553827.7
2018-Jun-17 19:23N 41°14' E 001°49'5741362561.5
2018-Jun-17 19:22N 31°58' E 120°27'0 7.9
2018-Jun-17 19:18N 31°59' E 120°27'1 9.4
2018-Jun-17 19:14N 31°59' E 120°26'4712096.6
2018-Jun-17 19:01N 24°24' E 118°06'45891652129.6
2018-Jun-17 19:00N 44°09' E 028°40'42271690616.1
2018-Jun-17 19:00N 37°33' E 121°23'109283278315.8
2018-Jun-17 19:00N 10°11' W 075°31'109121007292.0
2018-Jun-17 18:59N 36°02' E 120°13'24412724.2
2018-Jun-17 18:58N 31°59' E 120°27'0186.3
2018-Jun-17 18:58N 31°58' E 120°27'5740688854.9
2018-Jun-17 18:58N 41°14' E 001°50'57402951882.4
2018-Jun-17 18:57N 31°59' E 120°26'34064360.4
2018-Jun-17 18:57N 37°35' E 121°22'8071814.5
2018-Jun-17 18:30N 24°26' E 118°03'470153834.7
2018-Jun-17 18:30N 31°59' E 120°27'338607796.1
2018-Jun-17 18:30N 37°33' E 121°23'21636.8
2018-Jun-17 18:30N 37°35' E 121°22'42242534652.2
2018-Jun-17 18:30N 44°09' E 028°40'4397119907.4
2018-Jun-17 18:28N 31°58' E 120°27'5741308459.0
2018-Jun-17 18:27N 41°14' E 001°49'574023011.5
2018-Jun-17 18:12N 31°59' E 120°26'439623170.5
2018-Jun-17 18:00N 44°09' E 028°40'42241086278.6
2018-Jun-17 18:00N 37°35' E 121°22'1087482.3
2018-Jun-17 17:59N 36°02' E 120°13'1079147.9
2018-Jun-17 17:59N 37°33' E 121°23'5549116137.9
2018-Jun-17 17:56N 41°14' E 001°49'574198414.0
2018-Jun-17 17:52N 31°59' E 120°27'439712091.4
2018-Jun-17 17:30N 44°09' E 028°40'43971438881.6
2018-Jun-17 17:30N 31°59' E 120°27'340305671.8
2018-Jun-17 17:30N 37°35' E 121°22'284.6
2018-Jun-17 17:29N 37°33' E 121°23'5548117496.8
2018-Jun-17 17:26N 41°14' E 001°49'11972817.7
2018-Jun-17 17:00N 44°09' E 028°40'439715827690.8
2018-Jun-17 17:00N 31°59' E 120°27'33812035.8
2018-Jun-17 16:58N 37°33' E 121°23'299.8
2018-Jun-17 16:57N 37°35' E 121°22'554667682.0
2018-Jun-17 16:52N 41°14' E 001°49'587179455.2
2018-Jun-17 16:48N 30°55' E 122°13'204546889.2
2018-Jun-17 16:45N 01°27' E 104°25'1164.0
2018-Jun-17 16:35N 01°19' E 104°17'206175706.4
2018-Jun-17 16:33N 31°58' E 120°27'439786965.8
2018-Jun-17 16:30N 44°09' E 028°40'45192324087.6
2018-Jun-17 16:30N 30°57' E 122°12'20572468517.3
2018-Jun-17 16:30N 01°18' E 104°16'23821715207.2
2018-Jun-17 16:30N 37°35' E 121°22'803412870.7
2018-Jun-17 16:30N 24°31' E 118°05'70139413.5
2018-Jun-17 16:29N 36°02' E 120°14'22648151452.3
2018-Jun-17 16:29N 01°25' E 104°23'2372328471.7
2018-Jun-17 16:28N 37°33' E 121°23'3385681.4
2018-Jun-17 16:25N 31°59' E 120°26'5740125997.3
2018-Jun-17 16:22N 41°14' E 001°49'574135266.2
2018-Jun-17 16:12N 31°58' E 120°27'439722167.7
2018-Jun-17 16:01N 44°09' E 028°40'43972637961.5
2018-Jun-17 16:00N 31°58' E 120°27'34072011.7
2018-Jun-17 16:00N 37°35' E 121°22'2378611505.2
2018-Jun-17 16:00N 01°21' E 104°21'108660.3
2018-Jun-17 16:00N 01°17' E 104°12'2065116154.2
2018-Jun-17 15:59N 31°59' E 120°26'33860790.2
2018-Jun-17 15:58N 37°33' E 121°23'39621921.6
2018-Jun-17 15:57N 30°59' E 122°10'5865163683.1
2018-Jun-17 15:55N 41°14' E 001°49'57415166481.4
2018-Jun-17 15:55N 31°59' E 120°27'2441095.9
2018-Jun-17 15:42N 36°02' E 120°14'423022528.2
2018-Jun-17 15:31N 44°09' E 028°40'4513174706.0
2018-Jun-17 15:29N 31°01' E 122°08'2057462906.7
2018-Jun-17 15:29N 01°19' E 104°17'2380408068.8
2018-Jun-17 15:28N 37°33' E 121°23'33822939.3
2018-Jun-17 15:27N 31°59' E 120°26'34061142.4
2018-Jun-17 15:27N 37°35' E 121°22'2388429904.1
2018-Jun-17 15:27N 01°16' E 104°07'6203232618.1
2018-Jun-17 15:25N 41°14' E 001°49'574116349.6
2018-Jun-17 15:04N 31°59' E 120°27'439773276.6
2018-Jun-17 15:01N 44°09' E 028°40'4396753591.7
2018-Jun-17 15:00N 31°59' E 120°26'340407623.2
2018-Jun-17 15:00N 37°35' E 121°22'2385268307.5
2018-Jun-17 15:00N 01°17' E 104°13'2383111435.6
2018-Jun-17 14:58N 37°33' E 121°23'338121539.7
2018-Jun-17 14:58N 31°59' E 120°27'1083820.7
2018-Jun-17 14:56N 30°42' E 121°57'5867293357.2
2018-Jun-17 14:55N 41°14' E 001°49'6200343366.0
2018-Jun-17 14:54N 01°15' E 104°03'20687445061.8
2018-Jun-17 14:54N 31°09' E 121°53'16289.2
2018-Jun-17 14:51N 31°00' E 122°09'451513387.7
2018-Jun-17 14:31N 44°09' E 028°40'43961978180.4
2018-Jun-17 14:30N 31°59' E 120°26'2073497493.5
2018-Jun-17 14:30N 01°14' E 103°59'101581.9
2018-Jun-17 14:30N 01°16' E 104°09'20633713336.5
2018-Jun-17 14:30N 30°58' E 122°10'5867555837.5
2018-Jun-17 14:29N 41°14' E 001°49'5549407688.0
2018-Jun-17 14:28N 37°33' E 121°23'338135044.1
2018-Jun-17 14:28N 31°59' E 120°27'10835425.5
2018-Jun-17 14:28N 30°41' E 121°55'273342.3
2018-Jun-17 14:27N 31°08' E 121°56'114.5
2018-Jun-17 14:22N 31°06' E 121°56'21120.4
2018-Jun-17 14:11N 30°46' E 122°04'452025035.3
2018-Jun-17 14:00N 44°09' E 028°40'48981356471.5
2018-Jun-17 14:00N 01°13' E 103°55'23968624500.2
2018-Jun-17 14:00N 37°35' E 121°22'23904301773.5
2018-Jun-17 14:00N 01°15' E 104°05'2388343931.6
2018-Jun-17 14:00N 37°33' E 121°23'5551587799.3
2018-Jun-17 13:59N 41°13' E 001°46'5856726904.2
2018-Jun-17 13:59N 31°06' E 121°60'192453.3
2018-Jun-17 13:58N 30°48' E 122°06'183179.5
2018-Jun-17 13:58N 31°05' E 122°01'9720547.5
2018-Jun-17 13:58N 31°59' E 120°26'43969697.0
2018-Jun-17 13:30N 44°09' E 028°40'49013528950.4
2018-Jun-17 13:30N 01°14' E 104°01'2391239084.7
2018-Jun-17 13:30N 37°33' E 121°23'804107254.9
2018-Jun-17 13:29N 24°27' E 118°03'16251169717.9
2018-Jun-17 13:29N 01°11' E 103°51'2070181746.4
2018-Jun-17 13:28N 30°52' E 122°09'61462.7
2018-Jun-17 13:28N 30°47' E 122°06'58733020393.2
2018-Jun-17 13:28N 41°13' E 001°48'5548344353.6
2018-Jun-17 13:27N 37°35' E 121°22'39036907.2
2018-Jun-17 13:27N 31°07' E 121°56'22156.5
2018-Jun-17 13:18N 30°47' E 122°05'1111358.5
2018-Jun-17 13:13N 31°59' E 120°26'2441711.0
2018-Jun-17 13:05N 36°02' E 120°13'1081389.6
2018-Jun-17 13:00N 37°35' E 121°22'42242172559.5
2018-Jun-17 13:00N 44°09' E 028°40'4227800819.0
2018-Jun-17 13:00N 37°33' E 121°23'2394478719.3
2018-Jun-17 12:59N 01°13' E 103°56'2062100314.3
2018-Jun-17 12:58N 30°49' E 122°07'20707450405.8
2018-Jun-17 12:58N 01°09' E 103°48'2078311688.4
2018-Jun-17 12:58N 30°57' E 122°10'3215477.2
2018-Jun-17 12:54N 36°02' E 120°13'2446805.8
2018-Jun-17 12:52N 31°59' E 120°27'1031705.3
2018-Jun-17 12:48N 31°03' E 122°08'11259.4
2018-Jun-17 12:46N 30°52' E 122°09'5870370731.4
2018-Jun-17 12:45N 41°14' E 001°49'5869325025.1
2018-Jun-17 12:44N 30°57' E 122°12'109824.7
2018-Jun-17 12:36N 31°59' E 120°26'439648544.2
2018-Jun-17 12:31N 44°09' E 028°40'48974407281.8
2018-Jun-17 12:30N 01°11' E 103°52'6193796268.4
2018-Jun-17 12:30N 41°14' E 001°49'55481174972.1
2018-Jun-17 12:30N 37°33' E 121°23'33836842.7
2018-Jun-17 12:29N 31°59' E 120°26'208768287.6
2018-Jun-17 12:27N 01°06' E 103°44'2406787370.7
2018-Jun-17 12:27N 37°35' E 121°22'404363601.2
2018-Jun-17 12:27N 30°53' E 122°08'1082131.9
2018-Jun-17 12:24N 31°59' E 120°27'935751.0
2018-Jun-17 12:23N 31°06' E 121°56'16698.2
2018-Jun-17 12:22N 30°55' E 122°09'451812787.8
2018-Jun-17 12:01N 44°09' E 028°40'43963956316.3
2018-Jun-17 12:00N 31°59' E 120°26'20823746908.5
2018-Jun-17 12:00N 01°10' E 103°49'2401540233.6
2018-Jun-17 12:00N 37°35' E 121°22'340152833.2
2018-Jun-17 12:00N 31°59' E 120°27'574120665844.2
2018-Jun-17 12:00N 41°14' E 001°49'55481174971.2
2018-Jun-17 12:00N 37°33' E 121°23'2406184279.3
2018-Jun-17 11:59N 01°06' E 103°40'2084100043.1
2018-Jun-17 11:58N 30°57' E 122°10'141.1
2018-Jun-17 11:57N 30°58' E 122°10'14130.4
2018-Jun-17 11:50N 31°06' E 121°56'932124.0
2018-Jun-17 11:47N 31°59' E 120°26'125.3
2018-Jun-17 11:46N 31°58' E 120°27'1021507.1
2018-Jun-17 11:42N 31°02' E 122°06'645.6
2018-Jun-17 11:34N 31°05' E 122°00'45145084.4
2018-Jun-17 11:33N 24°27' E 118°01'458489677.2
2018-Jun-17 11:30N 44°09' E 028°40'43962637546.6
2018-Jun-17 11:30N 31°59' E 120°26'20851876886.4
2018-Jun-17 11:30N 01°07' E 103°45'24054328553.6
2018-Jun-17 11:30N 37°35' E 121°22'24062887018.1
2018-Jun-17 11:30N 01°09' E 103°37'61823708979.6
2018-Jun-17 11:30N 41°14' E 001°49'55481051290.2
2018-Jun-17 11:30N 37°33' E 121°23'33812531.9
2018-Jun-17 11:28N 31°59' E 120°27'9315162.2
2018-Jun-17 11:28N 31°06' E 121°56'9327966.6
2018-Jun-17 11:28N 31°59' E 120°26'1 7.7
2018-Jun-17 11:22N 31°58' E 120°27'10374191.3
2018-Jun-17 11:22N 31°01' E 122°07'451231760.3
2018-Jun-17 11:21N 24°27' E 118°01'4511845.6
2018-Jun-17 11:07N 31°08' E 121°55'3073585.4
2018-Jun-17 11:02N 36°02' E 120°14'24412721.6
2018-Jun-17 11:00N 31°59' E 120°26'34067942.1
2018-Jun-17 11:00N 37°35' E 121°22'390234223.4
2018-Jun-17 11:00N 31°06' E 121°56'93335587.3
2018-Jun-17 11:00N 31°59' E 120°26'43967912695.8
2018-Jun-17 11:00N 44°09' E 028°40'11972154193.5
2018-Jun-17 11:00N 41°14' E 001°49'61882475017.5
2018-Jun-17 11:00N 01°06' E 103°41'24061082772.8
2018-Jun-17 11:00N 37°33' E 121°23'395157882.4
2018-Jun-17 11:00N 31°00' E 122°09'31721527.8
2018-Jun-17 10:59N 36°02' E 120°14'7315774.0
2018-Jun-17 10:51N 23°60' E 118°03'4706905.6
2018-Jun-17 10:47N 30°55' E 122°10'451916449.0
2018-Jun-17 10:31N 44°09' E 028°40'48874398676.5
2018-Jun-17 10:30N 01°09' E 103°38'2406509465.0
2018-Jun-17 10:30N 37°35' E 121°22'33953119.4
2018-Jun-17 10:30N 31°59' E 120°26'3371214656.7
2018-Jun-17 10:30N 37°33' E 121°23'33833774.8
2018-Jun-17 10:29N 31°59' E 120°26'937459.8
2018-Jun-17 10:28N 31°06' E 121°56'9316677.8
2018-Jun-17 10:28N 31°59' E 120°27'1072346.5
2018-Jun-17 10:25N 30°58' E 122°10'4689260.9
2018-Jun-17 10:22N 24°03' E 118°07'72817130.8
2018-Jun-17 10:20N 36°02' E 120°14'555873826.8
2018-Jun-17 10:15N 41°14' E 001°50'5867133670.4
2018-Jun-17 10:13N 30°58' E 122°10'108532.4
2018-Jun-17 10:00N 31°59' E 120°26'0187.5
2018-Jun-17 10:00N 31°59' E 120°26'339122172.4
2018-Jun-17 10:00N 37°35' E 121°22'24038650815.2
2018-Jun-17 10:00N 01°13' E 103°36'20803744366.5
2018-Jun-17 10:00N 30°57' E 122°10'45183252834.8
2018-Jun-17 10:00N 44°09' E 028°40'4227760776.8
2018-Jun-17 10:00N 37°33' E 121°23'388232921.7
2018-Jun-17 10:00N 31°06' E 121°56'9711983.2
2018-Jun-17 09:59N 32°02' E 120°24'573671453.2
2018-Jun-17 09:54N 41°14' E 001°49'555824551.0
2018-Jun-17 09:41N 36°02' E 120°13'2441513.7
2018-Jun-17 09:31N 31°59' E 120°27'154.6
2018-Jun-17 09:30N 31°59' E 120°26'340203829.9
2018-Jun-17 09:30N 37°35' E 121°22'2398959235.4
2018-Jun-17 09:30N 01°18' E 103°37'4880439177.1
2018-Jun-17 09:29N 44°09' E 028°40'4227353849.7
2018-Jun-17 09:29N 37°33' E 121°23'3385653.8
2018-Jun-17 09:25N 31°59' E 120°27'147.8
2018-Jun-17 09:24N 31°59' E 120°26'5740322879.2
2018-Jun-17 09:23N 41°13' E 001°50'586926679.5
2018-Jun-17 09:10N 30°52' E 122°08'4052455.9
2018-Jun-17 09:00N 37°35' E 121°22'339407255.7
2018-Jun-17 09:00N 31°59' E 120°26'43962637572.3
2018-Jun-17 09:00N 44°09' E 028°40'4396247270.5
2018-Jun-17 08:59N 31°59' E 120°26'33845033.9
2018-Jun-17 08:59N 37°33' E 121°23'40453902.4
2018-Jun-17 08:58N 30°51' E 122°08'206360383.2
2018-Jun-17 08:56N 01°24' E 103°39'6173435722.8
2018-Jun-17 08:55N 41°13' E 001°50'594292609.2
2018-Jun-17 08:51N 24°24' E 117°58'4733285.9
2018-Jun-17 08:43N 31°58' E 120°26'3401634.6
2018-Jun-17 08:30N 37°35' E 121°22'55469983512.8
2018-Jun-17 08:30N 41°14' E 001°49'1197538598.0
2018-Jun-17 08:30N 44°09' E 028°40'4520280573.2
2018-Jun-17 08:29N 30°48' E 122°06'2055528401.9
2018-Jun-17 08:29N 01°27' E 103°42'2386409012.5
2018-Jun-17 08:28N 37°33' E 121°23'3883629.6
2018-Jun-17 08:22N 31°06' E 121°56'9311976.3
2018-Jun-17 08:22N 31°59' E 120°26'0 8.5
2018-Jun-17 08:19N 31°59' E 120°26'110.5
2018-Jun-17 08:16N 31°59' E 120°27'2443445.7
2018-Jun-17 08:11N 36°02' E 120°14'70512567.2
2018-Jun-17 08:08N 24°26' E 118°03'2495500.2
2018-Jun-17 08:05N 22°19' E 114°10'106034059.1
2018-Jun-17 08:03N 38°48' E 121°31'4629147.2
2018-Jun-17 08:00N 31°06' E 121°56'45018101489.0
2018-Jun-17 08:00N 44°09' E 028°40'42241520790.0
2018-Jun-17 08:00N 37°35' E 121°22'2386390484.1
2018-Jun-17 08:00N 01°27' E 103°44'1611193267.4
2018-Jun-17 07:59N 24°25' E 118°00'80755883.0
2018-Jun-17 07:58N 37°33' E 121°23'33822951.7
2018-Jun-17 07:58N 31°59' E 120°27'1265.9
2018-Jun-17 07:57N 31°59' E 120°26'413743397.0
2018-Jun-17 07:57N 38°48' E 121°32'5502241564.2
2018-Jun-17 07:56N 41°14' E 001°49'587020359.2
2018-Jun-17 07:39N 30°47' E 122°05'45020257.0
2018-Jun-17 07:37N 24°11' E 118°04'44514165.4
2018-Jun-17 07:36N 30°44' E 121°59'1094122.7
2018-Jun-17 07:34N 31°59' E 120°27'439777208.2
2018-Jun-17 07:31N 44°09' E 028°40'4396930904.5
2018-Jun-17 07:30N 31°59' E 120°26'11199564.2
2018-Jun-17 07:30N 30°48' E 122°06'72965.1
2018-Jun-17 07:30N 30°44' E 121°59'10939073.2
2018-Jun-17 07:30N 31°59' E 120°27'483144989.9
2018-Jun-17 07:30N 24°12' E 118°05'16025766671.5
2018-Jun-17 07:30N 01°27' E 103°44'2385117608.7
2018-Jun-17 07:28N 37°33' E 121°23'3897659.9
2018-Jun-17 07:25N 31°05' E 121°58'39219853.3
2018-Jun-17 07:24N 37°35' E 121°22'807207564.9
2018-Jun-17 07:24N 24°26' E 118°05'594791104.1
2018-Jun-17 07:20N 41°14' E 001°49'11973676.1
2018-Jun-17 07:01N 44°09' E 028°40'42341905259.0
2018-Jun-17 07:00N 36°03' E 120°19'10631698.3
2018-Jun-17 07:00N 37°35' E 121°22'39374450.1
2018-Jun-17 07:00N 31°04' E 121°60'2064495382.5
2018-Jun-17 07:00N 01°27' E 103°44'2385116019.9
2018-Jun-17 06:58N 37°33' E 121°23'33846749.7
2018-Jun-17 06:58N 31°59' E 120°27'011.1
2018-Jun-17 06:56N 31°59' E 120°27'015.6
2018-Jun-17 06:54N 31°59' E 120°26'10754777.0
2018-Jun-17 06:54N 31°01' E 122°11'586521371.5
2018-Jun-17 06:38N 41°14' E 001°49'5558151579.1
2018-Jun-17 06:35N 36°02' E 120°14'423053063.0
2018-Jun-17 06:31N 44°09' E 028°40'48798781591.2
2018-Jun-17 06:30N 01°27' E 103°44'2066619806.1
2018-Jun-17 06:30N 30°58' E 122°12'1012347.3
2018-Jun-17 06:30N 31°02' E 122°01'395355099.5
2018-Jun-17 06:30N 37°35' E 121°22'34064398.7
2018-Jun-17 06:30N 31°59' E 120°27'24429291.0
2018-Jun-17 06:29N 36°02' E 120°14'1076510.5
2018-Jun-17 06:28N 37°33' E 121°23'10437505.6
2018-Jun-17 06:28N 36°03' E 120°19'24410082.2
2018-Jun-17 06:27N 31°59' E 120°27'0 8.4
2018-Jun-17 06:24N 31°59' E 120°26'340856.3
2018-Jun-17 06:00N 37°35' E 121°22'42241900987.5
2018-Jun-17 06:00N 44°09' E 028°40'43971318962.4
2018-Jun-17 06:00N 31°59' E 120°27'2068186114.1
2018-Jun-17 05:59N 01°28' E 103°43'238537660.4
2018-Jun-17 05:55N 37°33' E 121°23'40213913.5
2018-Jun-17 05:54N 30°53' E 122°13'119536.0
2018-Jun-17 05:54N 31°00' E 122°03'5860158605.1
2018-Jun-17 05:51N 41°14' E 001°49'5871660511.0
2018-Jun-17 05:51N 31°01' E 122°19'45915747.5
2018-Jun-17 05:49N 24°24' E 117°58'7086779.0
2018-Jun-17 05:43N 36°02' E 120°14'3171533.9
2018-Jun-17 05:30N 30°59' E 122°04'398110258.9
2018-Jun-17 05:30N 37°35' E 121°22'42241689767.4
2018-Jun-17 05:30N 44°09' E 028°40'4230147855.1
2018-Jun-17 05:28N 36°02' E 120°14'10714227.3
2018-Jun-17 05:28N 37°33' E 121°23'238587619.2
2018-Jun-17 05:26N 01°28' E 103°43'206851699.0
2018-Jun-17 05:24N 31°59' E 120°27'2442658.6
2018-Jun-17 05:18N 36°03' E 120°18'70615043.7
2018-Jun-17 05:15N 24°27' E 118°01'470105731.4
2018-Jun-17 05:15N 31°59' E 120°26'0 3.8
2018-Jun-17 05:09N 31°59' E 120°27'47024881.6
2018-Jun-17 05:08N 24°27' E 118°03'707848133.7
2018-Jun-17 05:08N 36°03' E 120°19'120.6
2018-Jun-17 05:05N 36°03' E 120°18'423359069.6
2018-Jun-17 05:01N 44°09' E 028°40'45845500200.7
2018-Jun-17 05:00N 24°27'